<?xml version="1.0" encoding="UTF-8" standalone="no" ?>
<gpx xmlns="http://www.topografix.com/GPX/1/1" xmlns:xsi="http://www.w3.org/2001/XMLSchema-instance" xsi:schemaLocation="http://www.topografix.com/GPX/1/1 http://www.topografix.com/GPX/1/1/gpx.xsd" version="1.1" creator="VisuGPX - https://www.visugpx.com">
  <metadata>
    <name>secteur Saverne - Dabo - Petite Pierre</name>
  </metadata>
  <trk>
    <name><![CDATA[saved]]></name>
    <trkseg>
      <trkpt lat="48.73371" lon="7.34818">
        <ele>273.7</ele>
        <time>2020-11-28T10:27:42Z</time>
      </trkpt>
      <trkpt lat="48.73371" lon="7.34818">
        <ele>273.7</ele>
        <time>2020-11-28T10:27:42Z</time>
      </trkpt>
      <trkpt lat="48.73371" lon="7.34818">
        <ele>273.7</ele>
        <time>2020-11-28T10:27:42Z</time>
      </trkpt>
      <trkpt lat="48.73371" lon="7.34818">
        <ele>273.7</ele>
        <time>2020-11-28T10:27:42Z</time>
      </trkpt>
      <trkpt lat="48.73371" lon="7.34818">
        <ele>273.7</ele>
        <time>2020-11-28T10:27:42Z</time>
      </trkpt>
      <trkpt lat="48.73369" lon="7.34808">
        <ele>272.5</ele>
        <time>2020-11-28T10:27:55Z</time>
      </trkpt>
      <trkpt lat="48.73366" lon="7.34802">
        <ele>271.8</ele>
        <time>2020-11-28T10:27:57Z</time>
      </trkpt>
      <trkpt lat="48.73363" lon="7.34796">
        <ele>272.1</ele>
        <time>2020-11-28T10:27:59Z</time>
      </trkpt>
      <trkpt lat="48.7336" lon="7.34789">
        <ele>272.6</ele>
        <time>2020-11-28T10:28:01Z</time>
      </trkpt>
      <trkpt lat="48.73358" lon="7.34781">
        <ele>273.4</ele>
        <time>2020-11-28T10:28:03Z</time>
      </trkpt>
      <trkpt lat="48.73355" lon="7.34774">
        <ele>274.3</ele>
        <time>2020-11-28T10:28:05Z</time>
      </trkpt>
      <trkpt lat="48.73351" lon="7.34767">
        <ele>274.7</ele>
        <time>2020-11-28T10:28:07Z</time>
      </trkpt>
      <trkpt lat="48.73344" lon="7.34757">
        <ele>275.8</ele>
        <time>2020-11-28T10:28:10Z</time>
      </trkpt>
      <trkpt lat="48.73341" lon="7.3475">
        <ele>276.4</ele>
        <time>2020-11-28T10:28:12Z</time>
      </trkpt>
      <trkpt lat="48.73336" lon="7.34744">
        <ele>276.7</ele>
        <time>2020-11-28T10:28:14Z</time>
      </trkpt>
      <trkpt lat="48.73333" lon="7.34737">
        <ele>277</ele>
        <time>2020-11-28T10:28:16Z</time>
      </trkpt>
      <trkpt lat="48.73329" lon="7.34733">
        <ele>277.1</ele>
        <time>2020-11-28T10:28:19Z</time>
      </trkpt>
      <trkpt lat="48.7333" lon="7.3474">
        <ele>276.5</ele>
        <time>2020-11-28T10:28:23Z</time>
      </trkpt>
      <trkpt lat="48.73334" lon="7.34746">
        <ele>276.8</ele>
        <time>2020-11-28T10:28:25Z</time>
      </trkpt>
      <trkpt lat="48.73338" lon="7.34754">
        <ele>276.1</ele>
        <time>2020-11-28T10:28:27Z</time>
      </trkpt>
      <trkpt lat="48.73344" lon="7.34764">
        <ele>275.4</ele>
        <time>2020-11-28T10:28:29Z</time>
      </trkpt>
      <trkpt lat="48.7335" lon="7.34775">
        <ele>275</ele>
        <time>2020-11-28T10:28:31Z</time>
      </trkpt>
      <trkpt lat="48.73356" lon="7.34788">
        <ele>275</ele>
        <time>2020-11-28T10:28:33Z</time>
      </trkpt>
      <trkpt lat="48.73363" lon="7.34802">
        <ele>274.7</ele>
        <time>2020-11-28T10:28:35Z</time>
      </trkpt>
      <trkpt lat="48.73368" lon="7.34812">
        <ele>273.8</ele>
        <time>2020-11-28T10:28:37Z</time>
      </trkpt>
      <trkpt lat="48.73371" lon="7.34817">
        <ele>273.3</ele>
        <time>2020-11-28T10:28:42Z</time>
      </trkpt>
      <trkpt lat="48.73371" lon="7.3481">
        <ele>273.3</ele>
        <time>2020-11-28T10:28:49Z</time>
      </trkpt>
      <trkpt lat="48.73369" lon="7.34802">
        <ele>273.4</ele>
        <time>2020-11-28T10:28:51Z</time>
      </trkpt>
      <trkpt lat="48.73366" lon="7.34795">
        <ele>273</ele>
        <time>2020-11-28T10:28:53Z</time>
      </trkpt>
      <trkpt lat="48.73362" lon="7.34789">
        <ele>272.9</ele>
        <time>2020-11-28T10:28:55Z</time>
      </trkpt>
      <trkpt lat="48.73358" lon="7.34783">
        <ele>272.5</ele>
        <time>2020-11-28T10:28:57Z</time>
      </trkpt>
      <trkpt lat="48.73354" lon="7.34776">
        <ele>272.8</ele>
        <time>2020-11-28T10:28:59Z</time>
      </trkpt>
      <trkpt lat="48.73349" lon="7.3477">
        <ele>273</ele>
        <time>2020-11-28T10:29:01Z</time>
      </trkpt>
      <trkpt lat="48.73345" lon="7.34763">
        <ele>272.7</ele>
        <time>2020-11-28T10:29:03Z</time>
      </trkpt>
      <trkpt lat="48.73341" lon="7.34756">
        <ele>273.1</ele>
        <time>2020-11-28T10:29:05Z</time>
      </trkpt>
      <trkpt lat="48.73337" lon="7.34749">
        <ele>273.1</ele>
        <time>2020-11-28T10:29:07Z</time>
      </trkpt>
      <trkpt lat="48.73333" lon="7.34741">
        <ele>273.7</ele>
        <time>2020-11-28T10:29:09Z</time>
      </trkpt>
      <trkpt lat="48.73329" lon="7.34733">
        <ele>273.8</ele>
        <time>2020-11-28T10:29:11Z</time>
      </trkpt>
      <trkpt lat="48.73324" lon="7.34726">
        <ele>274</ele>
        <time>2020-11-28T10:29:13Z</time>
      </trkpt>
      <trkpt lat="48.73321" lon="7.34719">
        <ele>274.3</ele>
        <time>2020-11-28T10:29:15Z</time>
      </trkpt>
      <trkpt lat="48.73317" lon="7.34713">
        <ele>275</ele>
        <time>2020-11-28T10:29:17Z</time>
      </trkpt>
      <trkpt lat="48.73313" lon="7.34706">
        <ele>275.7</ele>
        <time>2020-11-28T10:29:20Z</time>
      </trkpt>
      <trkpt lat="48.7331" lon="7.347">
        <ele>275.7</ele>
        <time>2020-11-28T10:29:22Z</time>
      </trkpt>
      <trkpt lat="48.73306" lon="7.34693">
        <ele>275.1</ele>
        <time>2020-11-28T10:29:24Z</time>
      </trkpt>
      <trkpt lat="48.73303" lon="7.34687">
        <ele>274.4</ele>
        <time>2020-11-28T10:29:26Z</time>
      </trkpt>
      <trkpt lat="48.733" lon="7.34682">
        <ele>274.1</ele>
        <time>2020-11-28T10:29:28Z</time>
      </trkpt>
      <trkpt lat="48.73297" lon="7.34675">
        <ele>274.4</ele>
        <time>2020-11-28T10:29:30Z</time>
      </trkpt>
      <trkpt lat="48.73294" lon="7.34669">
        <ele>274.5</ele>
        <time>2020-11-28T10:29:32Z</time>
      </trkpt>
      <trkpt lat="48.73292" lon="7.34663">
        <ele>275.2</ele>
        <time>2020-11-28T10:29:34Z</time>
      </trkpt>
      <trkpt lat="48.73289" lon="7.34657">
        <ele>275.3</ele>
        <time>2020-11-28T10:29:36Z</time>
      </trkpt>
      <trkpt lat="48.73286" lon="7.34651">
        <ele>276</ele>
        <time>2020-11-28T10:29:38Z</time>
      </trkpt>
      <trkpt lat="48.73283" lon="7.34645">
        <ele>276.6</ele>
        <time>2020-11-28T10:29:40Z</time>
      </trkpt>
      <trkpt lat="48.7328" lon="7.34639">
        <ele>277.5</ele>
        <time>2020-11-28T10:29:42Z</time>
      </trkpt>
      <trkpt lat="48.73276" lon="7.34634">
        <ele>278.2</ele>
        <time>2020-11-28T10:29:44Z</time>
      </trkpt>
      <trkpt lat="48.73272" lon="7.34628">
        <ele>279.1</ele>
        <time>2020-11-28T10:29:46Z</time>
      </trkpt>
      <trkpt lat="48.73268" lon="7.34622">
        <ele>279</ele>
        <time>2020-11-28T10:29:48Z</time>
      </trkpt>
      <trkpt lat="48.73265" lon="7.34616">
        <ele>279.6</ele>
        <time>2020-11-28T10:29:50Z</time>
      </trkpt>
      <trkpt lat="48.73262" lon="7.34609">
        <ele>279.7</ele>
        <time>2020-11-28T10:29:52Z</time>
      </trkpt>
      <trkpt lat="48.73258" lon="7.34603">
        <ele>279.9</ele>
        <time>2020-11-28T10:29:54Z</time>
      </trkpt>
      <trkpt lat="48.73256" lon="7.34597">
        <ele>280.8</ele>
        <time>2020-11-28T10:29:56Z</time>
      </trkpt>
      <trkpt lat="48.73253" lon="7.34589">
        <ele>281.3</ele>
        <time>2020-11-28T10:30:07Z</time>
      </trkpt>
      <trkpt lat="48.7325" lon="7.3458">
        <ele>282.5</ele>
        <time>2020-11-28T10:30:10Z</time>
      </trkpt>
      <trkpt lat="48.73247" lon="7.34572">
        <ele>283.5</ele>
        <time>2020-11-28T10:30:12Z</time>
      </trkpt>
      <trkpt lat="48.73244" lon="7.34564">
        <ele>284.1</ele>
        <time>2020-11-28T10:30:14Z</time>
      </trkpt>
      <trkpt lat="48.73241" lon="7.34556">
        <ele>284.5</ele>
        <time>2020-11-28T10:30:16Z</time>
      </trkpt>
      <trkpt lat="48.73238" lon="7.34547">
        <ele>285.1</ele>
        <time>2020-11-28T10:30:18Z</time>
      </trkpt>
      <trkpt lat="48.73235" lon="7.34539">
        <ele>285.8</ele>
        <time>2020-11-28T10:30:20Z</time>
      </trkpt>
      <trkpt lat="48.73232" lon="7.34531">
        <ele>286.6</ele>
        <time>2020-11-28T10:30:22Z</time>
      </trkpt>
      <trkpt lat="48.73227" lon="7.3452">
        <ele>287.1</ele>
        <time>2020-11-28T10:30:25Z</time>
      </trkpt>
      <trkpt lat="48.73224" lon="7.34513">
        <ele>287.6</ele>
        <time>2020-11-28T10:30:27Z</time>
      </trkpt>
      <trkpt lat="48.73222" lon="7.34504">
        <ele>287.8</ele>
        <time>2020-11-28T10:30:29Z</time>
      </trkpt>
      <trkpt lat="48.73219" lon="7.34497">
        <ele>288</ele>
        <time>2020-11-28T10:30:31Z</time>
      </trkpt>
      <trkpt lat="48.73215" lon="7.3449">
        <ele>287.8</ele>
        <time>2020-11-28T10:30:33Z</time>
      </trkpt>
      <trkpt lat="48.7321" lon="7.34483">
        <ele>287.8</ele>
        <time>2020-11-28T10:30:35Z</time>
      </trkpt>
      <trkpt lat="48.73206" lon="7.34477">
        <ele>287.8</ele>
        <time>2020-11-28T10:30:37Z</time>
      </trkpt>
      <trkpt lat="48.732" lon="7.34468">
        <ele>287</ele>
        <time>2020-11-28T10:30:40Z</time>
      </trkpt>
      <trkpt lat="48.73196" lon="7.34463">
        <ele>286.6</ele>
        <time>2020-11-28T10:30:42Z</time>
      </trkpt>
      <trkpt lat="48.73193" lon="7.34457">
        <ele>287.1</ele>
        <time>2020-11-28T10:30:44Z</time>
      </trkpt>
      <trkpt lat="48.7319" lon="7.3445">
        <ele>288</ele>
        <time>2020-11-28T10:30:46Z</time>
      </trkpt>
      <trkpt lat="48.73187" lon="7.34442">
        <ele>288.8</ele>
        <time>2020-11-28T10:30:48Z</time>
      </trkpt>
      <trkpt lat="48.73183" lon="7.34436">
        <ele>289.7</ele>
        <time>2020-11-28T10:30:50Z</time>
      </trkpt>
      <trkpt lat="48.7318" lon="7.34429">
        <ele>290.4</ele>
        <time>2020-11-28T10:30:52Z</time>
      </trkpt>
      <trkpt lat="48.73176" lon="7.34422">
        <ele>291.5</ele>
        <time>2020-11-28T10:30:54Z</time>
      </trkpt>
      <trkpt lat="48.73173" lon="7.34414">
        <ele>292.1</ele>
        <time>2020-11-28T10:30:56Z</time>
      </trkpt>
      <trkpt lat="48.73169" lon="7.34405">
        <ele>292.2</ele>
        <time>2020-11-28T10:30:58Z</time>
      </trkpt>
      <trkpt lat="48.73165" lon="7.34397">
        <ele>291.6</ele>
        <time>2020-11-28T10:31:00Z</time>
      </trkpt>
      <trkpt lat="48.73161" lon="7.34388">
        <ele>291.3</ele>
        <time>2020-11-28T10:31:02Z</time>
      </trkpt>
      <trkpt lat="48.73157" lon="7.34379">
        <ele>291.2</ele>
        <time>2020-11-28T10:31:04Z</time>
      </trkpt>
      <trkpt lat="48.73152" lon="7.34369">
        <ele>291.1</ele>
        <time>2020-11-28T10:31:06Z</time>
      </trkpt>
      <trkpt lat="48.73146" lon="7.34357">
        <ele>291.1</ele>
        <time>2020-11-28T10:31:08Z</time>
      </trkpt>
      <trkpt lat="48.73141" lon="7.34347">
        <ele>290.9</ele>
        <time>2020-11-28T10:31:10Z</time>
      </trkpt>
      <trkpt lat="48.73137" lon="7.34338">
        <ele>290.9</ele>
        <time>2020-11-28T10:31:12Z</time>
      </trkpt>
      <trkpt lat="48.7313" lon="7.3433">
        <ele>290.7</ele>
        <time>2020-11-28T10:31:14Z</time>
      </trkpt>
      <trkpt lat="48.73123" lon="7.34321">
        <ele>290.8</ele>
        <time>2020-11-28T10:31:16Z</time>
      </trkpt>
      <trkpt lat="48.73117" lon="7.34312">
        <ele>290.5</ele>
        <time>2020-11-28T10:31:18Z</time>
      </trkpt>
      <trkpt lat="48.7311" lon="7.34303">
        <ele>290.3</ele>
        <time>2020-11-28T10:31:20Z</time>
      </trkpt>
      <trkpt lat="48.73102" lon="7.34296">
        <ele>289.8</ele>
        <time>2020-11-28T10:31:22Z</time>
      </trkpt>
      <trkpt lat="48.73096" lon="7.34289">
        <ele>289.7</ele>
        <time>2020-11-28T10:31:24Z</time>
      </trkpt>
      <trkpt lat="48.73088" lon="7.34281">
        <ele>289.3</ele>
        <time>2020-11-28T10:31:26Z</time>
      </trkpt>
      <trkpt lat="48.7308" lon="7.34271">
        <ele>289.7</ele>
        <time>2020-11-28T10:31:28Z</time>
      </trkpt>
      <trkpt lat="48.73073" lon="7.34262">
        <ele>290</ele>
        <time>2020-11-28T10:31:30Z</time>
      </trkpt>
      <trkpt lat="48.73065" lon="7.34251">
        <ele>290</ele>
        <time>2020-11-28T10:31:32Z</time>
      </trkpt>
      <trkpt lat="48.73058" lon="7.34242">
        <ele>291</ele>
        <time>2020-11-28T10:31:34Z</time>
      </trkpt>
      <trkpt lat="48.7305" lon="7.34235">
        <ele>291.1</ele>
        <time>2020-11-28T10:31:36Z</time>
      </trkpt>
      <trkpt lat="48.73043" lon="7.34228">
        <ele>291.8</ele>
        <time>2020-11-28T10:31:38Z</time>
      </trkpt>
      <trkpt lat="48.73036" lon="7.3422">
        <ele>292.1</ele>
        <time>2020-11-28T10:31:40Z</time>
      </trkpt>
      <trkpt lat="48.7303" lon="7.34212">
        <ele>293.1</ele>
        <time>2020-11-28T10:31:42Z</time>
      </trkpt>
      <trkpt lat="48.73024" lon="7.34204">
        <ele>293.1</ele>
        <time>2020-11-28T10:31:44Z</time>
      </trkpt>
      <trkpt lat="48.73018" lon="7.34198">
        <ele>293.4</ele>
        <time>2020-11-28T10:31:46Z</time>
      </trkpt>
      <trkpt lat="48.73012" lon="7.34192">
        <ele>292.7</ele>
        <time>2020-11-28T10:31:48Z</time>
      </trkpt>
      <trkpt lat="48.73005" lon="7.34185">
        <ele>292.9</ele>
        <time>2020-11-28T10:31:50Z</time>
      </trkpt>
      <trkpt lat="48.72998" lon="7.34178">
        <ele>293.2</ele>
        <time>2020-11-28T10:31:52Z</time>
      </trkpt>
      <trkpt lat="48.72992" lon="7.34171">
        <ele>293.4</ele>
        <time>2020-11-28T10:31:54Z</time>
      </trkpt>
      <trkpt lat="48.72986" lon="7.34162">
        <ele>294</ele>
        <time>2020-11-28T10:31:56Z</time>
      </trkpt>
      <trkpt lat="48.7298" lon="7.34155">
        <ele>294.4</ele>
        <time>2020-11-28T10:31:58Z</time>
      </trkpt>
      <trkpt lat="48.72975" lon="7.3415">
        <ele>294.4</ele>
        <time>2020-11-28T10:32:00Z</time>
      </trkpt>
      <trkpt lat="48.7297" lon="7.34144">
        <ele>294.2</ele>
        <time>2020-11-28T10:32:02Z</time>
      </trkpt>
      <trkpt lat="48.72965" lon="7.34137">
        <ele>294.6</ele>
        <time>2020-11-28T10:32:04Z</time>
      </trkpt>
      <trkpt lat="48.72961" lon="7.34132">
        <ele>294.9</ele>
        <time>2020-11-28T10:32:06Z</time>
      </trkpt>
      <trkpt lat="48.72956" lon="7.34125">
        <ele>295</ele>
        <time>2020-11-28T10:32:09Z</time>
      </trkpt>
      <trkpt lat="48.72952" lon="7.34119">
        <ele>293.6</ele>
        <time>2020-11-28T10:32:11Z</time>
      </trkpt>
      <trkpt lat="48.72946" lon="7.34113">
        <ele>293.2</ele>
        <time>2020-11-28T10:32:13Z</time>
      </trkpt>
      <trkpt lat="48.72941" lon="7.34106">
        <ele>293.1</ele>
        <time>2020-11-28T10:32:15Z</time>
      </trkpt>
      <trkpt lat="48.72935" lon="7.34095">
        <ele>293</ele>
        <time>2020-11-28T10:32:17Z</time>
      </trkpt>
      <trkpt lat="48.7293" lon="7.34087">
        <ele>293.6</ele>
        <time>2020-11-28T10:32:19Z</time>
      </trkpt>
      <trkpt lat="48.72923" lon="7.34076">
        <ele>294.6</ele>
        <time>2020-11-28T10:32:21Z</time>
      </trkpt>
      <trkpt lat="48.72917" lon="7.34065">
        <ele>295</ele>
        <time>2020-11-28T10:32:23Z</time>
      </trkpt>
      <trkpt lat="48.72912" lon="7.34053">
        <ele>295.5</ele>
        <time>2020-11-28T10:32:25Z</time>
      </trkpt>
      <trkpt lat="48.72907" lon="7.34044">
        <ele>295.4</ele>
        <time>2020-11-28T10:32:27Z</time>
      </trkpt>
      <trkpt lat="48.72901" lon="7.34032">
        <ele>295.1</ele>
        <time>2020-11-28T10:32:29Z</time>
      </trkpt>
      <trkpt lat="48.72895" lon="7.34019">
        <ele>295.4</ele>
        <time>2020-11-28T10:32:31Z</time>
      </trkpt>
      <trkpt lat="48.72888" lon="7.33999">
        <ele>296.3</ele>
        <time>2020-11-28T10:32:34Z</time>
      </trkpt>
      <trkpt lat="48.72884" lon="7.33985">
        <ele>297.3</ele>
        <time>2020-11-28T10:32:36Z</time>
      </trkpt>
      <trkpt lat="48.72881" lon="7.33971">
        <ele>297.2</ele>
        <time>2020-11-28T10:32:38Z</time>
      </trkpt>
      <trkpt lat="48.72878" lon="7.33958">
        <ele>297.8</ele>
        <time>2020-11-28T10:32:40Z</time>
      </trkpt>
      <trkpt lat="48.72875" lon="7.33944">
        <ele>298.5</ele>
        <time>2020-11-28T10:32:42Z</time>
      </trkpt>
      <trkpt lat="48.72872" lon="7.33931">
        <ele>298.9</ele>
        <time>2020-11-28T10:32:44Z</time>
      </trkpt>
      <trkpt lat="48.72869" lon="7.33922">
        <ele>298.4</ele>
        <time>2020-11-28T10:32:46Z</time>
      </trkpt>
      <trkpt lat="48.72867" lon="7.33914">
        <ele>298.4</ele>
        <time>2020-11-28T10:32:48Z</time>
      </trkpt>
      <trkpt lat="48.72866" lon="7.33907">
        <ele>299.6</ele>
        <time>2020-11-28T10:32:54Z</time>
      </trkpt>
      <trkpt lat="48.72863" lon="7.33901">
        <ele>300.6</ele>
        <time>2020-11-28T10:33:02Z</time>
      </trkpt>
      <trkpt lat="48.72859" lon="7.33896">
        <ele>300.6</ele>
        <time>2020-11-28T10:33:05Z</time>
      </trkpt>
      <trkpt lat="48.72853" lon="7.33891">
        <ele>300.8</ele>
        <time>2020-11-28T10:33:08Z</time>
      </trkpt>
      <trkpt lat="48.72849" lon="7.33883">
        <ele>301.8</ele>
        <time>2020-11-28T10:33:11Z</time>
      </trkpt>
      <trkpt lat="48.72847" lon="7.33877">
        <ele>302.1</ele>
        <time>2020-11-28T10:33:13Z</time>
      </trkpt>
      <trkpt lat="48.72843" lon="7.33868">
        <ele>302.8</ele>
        <time>2020-11-28T10:33:16Z</time>
      </trkpt>
      <trkpt lat="48.7284" lon="7.33862">
        <ele>303.5</ele>
        <time>2020-11-28T10:33:18Z</time>
      </trkpt>
      <trkpt lat="48.72837" lon="7.33855">
        <ele>304</ele>
        <time>2020-11-28T10:33:20Z</time>
      </trkpt>
      <trkpt lat="48.72833" lon="7.33849">
        <ele>305.2</ele>
        <time>2020-11-28T10:33:22Z</time>
      </trkpt>
      <trkpt lat="48.7283" lon="7.33844">
        <ele>305.9</ele>
        <time>2020-11-28T10:33:24Z</time>
      </trkpt>
      <trkpt lat="48.72828" lon="7.33838">
        <ele>306.8</ele>
        <time>2020-11-28T10:33:26Z</time>
      </trkpt>
      <trkpt lat="48.72824" lon="7.33833">
        <ele>307.9</ele>
        <time>2020-11-28T10:33:28Z</time>
      </trkpt>
      <trkpt lat="48.7282" lon="7.33828">
        <ele>308.3</ele>
        <time>2020-11-28T10:33:30Z</time>
      </trkpt>
      <trkpt lat="48.72816" lon="7.33822">
        <ele>309</ele>
        <time>2020-11-28T10:33:32Z</time>
      </trkpt>
      <trkpt lat="48.72813" lon="7.33815">
        <ele>310.3</ele>
        <time>2020-11-28T10:33:34Z</time>
      </trkpt>
      <trkpt lat="48.7281" lon="7.33808">
        <ele>311.9</ele>
        <time>2020-11-28T10:33:36Z</time>
      </trkpt>
      <trkpt lat="48.72807" lon="7.338">
        <ele>313.2</ele>
        <time>2020-11-28T10:33:38Z</time>
      </trkpt>
      <trkpt lat="48.72803" lon="7.33793">
        <ele>314.8</ele>
        <time>2020-11-28T10:33:40Z</time>
      </trkpt>
      <trkpt lat="48.72799" lon="7.33788">
        <ele>316.2</ele>
        <time>2020-11-28T10:33:42Z</time>
      </trkpt>
      <trkpt lat="48.72794" lon="7.33782">
        <ele>318.3</ele>
        <time>2020-11-28T10:33:45Z</time>
      </trkpt>
      <trkpt lat="48.7279" lon="7.33776">
        <ele>319.3</ele>
        <time>2020-11-28T10:33:47Z</time>
      </trkpt>
      <trkpt lat="48.72787" lon="7.33771">
        <ele>319.1</ele>
        <time>2020-11-28T10:33:49Z</time>
      </trkpt>
      <trkpt lat="48.72783" lon="7.33766">
        <ele>319.6</ele>
        <time>2020-11-28T10:33:51Z</time>
      </trkpt>
      <trkpt lat="48.7278" lon="7.3376">
        <ele>320</ele>
        <time>2020-11-28T10:33:53Z</time>
      </trkpt>
      <trkpt lat="48.72776" lon="7.33755">
        <ele>320.8</ele>
        <time>2020-11-28T10:33:55Z</time>
      </trkpt>
      <trkpt lat="48.72772" lon="7.33749">
        <ele>321</ele>
        <time>2020-11-28T10:33:57Z</time>
      </trkpt>
      <trkpt lat="48.72768" lon="7.33745">
        <ele>321.2</ele>
        <time>2020-11-28T10:33:59Z</time>
      </trkpt>
      <trkpt lat="48.72764" lon="7.33741">
        <ele>321.4</ele>
        <time>2020-11-28T10:34:01Z</time>
      </trkpt>
      <trkpt lat="48.72759" lon="7.33735">
        <ele>321.5</ele>
        <time>2020-11-28T10:34:03Z</time>
      </trkpt>
      <trkpt lat="48.72756" lon="7.3373">
        <ele>321.6</ele>
        <time>2020-11-28T10:34:05Z</time>
      </trkpt>
      <trkpt lat="48.72751" lon="7.33723">
        <ele>322.7</ele>
        <time>2020-11-28T10:34:08Z</time>
      </trkpt>
      <trkpt lat="48.72745" lon="7.33717">
        <ele>322.9</ele>
        <time>2020-11-28T10:34:11Z</time>
      </trkpt>
      <trkpt lat="48.72741" lon="7.33713">
        <ele>322.9</ele>
        <time>2020-11-28T10:34:13Z</time>
      </trkpt>
      <trkpt lat="48.72736" lon="7.3371">
        <ele>324.1</ele>
        <time>2020-11-28T10:34:17Z</time>
      </trkpt>
      <trkpt lat="48.7274" lon="7.33717">
        <ele>321.1</ele>
        <time>2020-11-28T10:34:36Z</time>
      </trkpt>
      <trkpt lat="48.72747" lon="7.33724">
        <ele>320.7</ele>
        <time>2020-11-28T10:34:38Z</time>
      </trkpt>
      <trkpt lat="48.72753" lon="7.33732">
        <ele>319.7</ele>
        <time>2020-11-28T10:34:40Z</time>
      </trkpt>
      <trkpt lat="48.7276" lon="7.33741">
        <ele>319</ele>
        <time>2020-11-28T10:34:42Z</time>
      </trkpt>
      <trkpt lat="48.72767" lon="7.33746">
        <ele>318.7</ele>
        <time>2020-11-28T10:34:44Z</time>
      </trkpt>
      <trkpt lat="48.72772" lon="7.33751">
        <ele>318.2</ele>
        <time>2020-11-28T10:34:46Z</time>
      </trkpt>
      <trkpt lat="48.72774" lon="7.33744">
        <ele>317</ele>
        <time>2020-11-28T10:34:54Z</time>
      </trkpt>
      <trkpt lat="48.72771" lon="7.33737">
        <ele>316.7</ele>
        <time>2020-11-28T10:34:56Z</time>
      </trkpt>
      <trkpt lat="48.72767" lon="7.33731">
        <ele>316.4</ele>
        <time>2020-11-28T10:34:58Z</time>
      </trkpt>
      <trkpt lat="48.72763" lon="7.33723">
        <ele>316.3</ele>
        <time>2020-11-28T10:35:00Z</time>
      </trkpt>
      <trkpt lat="48.7276" lon="7.33716">
        <ele>316.3</ele>
        <time>2020-11-28T10:35:02Z</time>
      </trkpt>
      <trkpt lat="48.72755" lon="7.33704">
        <ele>317.8</ele>
        <time>2020-11-28T10:35:05Z</time>
      </trkpt>
      <trkpt lat="48.72751" lon="7.33697">
        <ele>318.1</ele>
        <time>2020-11-28T10:35:07Z</time>
      </trkpt>
      <trkpt lat="48.72747" lon="7.33691">
        <ele>318.4</ele>
        <time>2020-11-28T10:35:09Z</time>
      </trkpt>
      <trkpt lat="48.72742" lon="7.33684">
        <ele>318.5</ele>
        <time>2020-11-28T10:35:11Z</time>
      </trkpt>
      <trkpt lat="48.72737" lon="7.33678">
        <ele>318.9</ele>
        <time>2020-11-28T10:35:13Z</time>
      </trkpt>
      <trkpt lat="48.72731" lon="7.33673">
        <ele>319</ele>
        <time>2020-11-28T10:35:15Z</time>
      </trkpt>
      <trkpt lat="48.72726" lon="7.33667">
        <ele>319.1</ele>
        <time>2020-11-28T10:35:17Z</time>
      </trkpt>
      <trkpt lat="48.72722" lon="7.3366">
        <ele>319</ele>
        <time>2020-11-28T10:35:19Z</time>
      </trkpt>
      <trkpt lat="48.72718" lon="7.33653">
        <ele>319.5</ele>
        <time>2020-11-28T10:35:21Z</time>
      </trkpt>
      <trkpt lat="48.72712" lon="7.33646">
        <ele>320.1</ele>
        <time>2020-11-28T10:35:23Z</time>
      </trkpt>
      <trkpt lat="48.72707" lon="7.3364">
        <ele>320.4</ele>
        <time>2020-11-28T10:35:25Z</time>
      </trkpt>
      <trkpt lat="48.72703" lon="7.33632">
        <ele>320.2</ele>
        <time>2020-11-28T10:35:27Z</time>
      </trkpt>
      <trkpt lat="48.72699" lon="7.33625">
        <ele>320</ele>
        <time>2020-11-28T10:35:29Z</time>
      </trkpt>
      <trkpt lat="48.72695" lon="7.33619">
        <ele>320.6</ele>
        <time>2020-11-28T10:35:31Z</time>
      </trkpt>
      <trkpt lat="48.7269" lon="7.33614">
        <ele>321.3</ele>
        <time>2020-11-28T10:35:33Z</time>
      </trkpt>
      <trkpt lat="48.72685" lon="7.33609">
        <ele>321.5</ele>
        <time>2020-11-28T10:35:35Z</time>
      </trkpt>
      <trkpt lat="48.7268" lon="7.33604">
        <ele>321.7</ele>
        <time>2020-11-28T10:35:37Z</time>
      </trkpt>
      <trkpt lat="48.72674" lon="7.33597">
        <ele>321.7</ele>
        <time>2020-11-28T10:35:39Z</time>
      </trkpt>
      <trkpt lat="48.72668" lon="7.33594">
        <ele>321.8</ele>
        <time>2020-11-28T10:35:41Z</time>
      </trkpt>
      <trkpt lat="48.72663" lon="7.3359">
        <ele>321.1</ele>
        <time>2020-11-28T10:35:43Z</time>
      </trkpt>
      <trkpt lat="48.72658" lon="7.33586">
        <ele>321.2</ele>
        <time>2020-11-28T10:35:45Z</time>
      </trkpt>
      <trkpt lat="48.72654" lon="7.33581">
        <ele>321.2</ele>
        <time>2020-11-28T10:35:47Z</time>
      </trkpt>
      <trkpt lat="48.72649" lon="7.33574">
        <ele>321.3</ele>
        <time>2020-11-28T10:35:49Z</time>
      </trkpt>
      <trkpt lat="48.72645" lon="7.33567">
        <ele>321.7</ele>
        <time>2020-11-28T10:35:52Z</time>
      </trkpt>
      <trkpt lat="48.7264" lon="7.33564">
        <ele>322.2</ele>
        <time>2020-11-28T10:35:54Z</time>
      </trkpt>
      <trkpt lat="48.72632" lon="7.33556">
        <ele>322.8</ele>
        <time>2020-11-28T10:35:57Z</time>
      </trkpt>
      <trkpt lat="48.72622" lon="7.33548">
        <ele>323.6</ele>
        <time>2020-11-28T10:36:00Z</time>
      </trkpt>
      <trkpt lat="48.72616" lon="7.33543">
        <ele>324.4</ele>
        <time>2020-11-28T10:36:02Z</time>
      </trkpt>
      <trkpt lat="48.72613" lon="7.33537">
        <ele>325.2</ele>
        <time>2020-11-28T10:36:04Z</time>
      </trkpt>
      <trkpt lat="48.72609" lon="7.3353">
        <ele>326</ele>
        <time>2020-11-28T10:36:06Z</time>
      </trkpt>
      <trkpt lat="48.72604" lon="7.33524">
        <ele>326.5</ele>
        <time>2020-11-28T10:36:08Z</time>
      </trkpt>
      <trkpt lat="48.72599" lon="7.3352">
        <ele>327.1</ele>
        <time>2020-11-28T10:36:10Z</time>
      </trkpt>
      <trkpt lat="48.72594" lon="7.33515">
        <ele>327.3</ele>
        <time>2020-11-28T10:36:12Z</time>
      </trkpt>
      <trkpt lat="48.72588" lon="7.33511">
        <ele>327.6</ele>
        <time>2020-11-28T10:36:14Z</time>
      </trkpt>
      <trkpt lat="48.72584" lon="7.33507">
        <ele>327.4</ele>
        <time>2020-11-28T10:36:16Z</time>
      </trkpt>
      <trkpt lat="48.72579" lon="7.33502">
        <ele>327.3</ele>
        <time>2020-11-28T10:36:18Z</time>
      </trkpt>
      <trkpt lat="48.72574" lon="7.33498">
        <ele>327.3</ele>
        <time>2020-11-28T10:36:20Z</time>
      </trkpt>
      <trkpt lat="48.72565" lon="7.33491">
        <ele>327.7</ele>
        <time>2020-11-28T10:36:23Z</time>
      </trkpt>
      <trkpt lat="48.7256" lon="7.33487">
        <ele>327.9</ele>
        <time>2020-11-28T10:36:25Z</time>
      </trkpt>
      <trkpt lat="48.72555" lon="7.33484">
        <ele>328.3</ele>
        <time>2020-11-28T10:36:27Z</time>
      </trkpt>
      <trkpt lat="48.7255" lon="7.33479">
        <ele>328.8</ele>
        <time>2020-11-28T10:36:29Z</time>
      </trkpt>
      <trkpt lat="48.72545" lon="7.33475">
        <ele>328.4</ele>
        <time>2020-11-28T10:36:31Z</time>
      </trkpt>
      <trkpt lat="48.72541" lon="7.33472">
        <ele>328.1</ele>
        <time>2020-11-28T10:36:33Z</time>
      </trkpt>
      <trkpt lat="48.72536" lon="7.33469">
        <ele>327.9</ele>
        <time>2020-11-28T10:36:35Z</time>
      </trkpt>
      <trkpt lat="48.72531" lon="7.33465">
        <ele>327.9</ele>
        <time>2020-11-28T10:36:37Z</time>
      </trkpt>
      <trkpt lat="48.72527" lon="7.33461">
        <ele>328.2</ele>
        <time>2020-11-28T10:36:39Z</time>
      </trkpt>
      <trkpt lat="48.72522" lon="7.33457">
        <ele>328.6</ele>
        <time>2020-11-28T10:36:43Z</time>
      </trkpt>
      <trkpt lat="48.72509" lon="7.3345">
        <ele>328.5</ele>
        <time>2020-11-28T10:36:45Z</time>
      </trkpt>
      <trkpt lat="48.72503" lon="7.33447">
        <ele>328.6</ele>
        <time>2020-11-28T10:36:47Z</time>
      </trkpt>
      <trkpt lat="48.72497" lon="7.33443">
        <ele>328.7</ele>
        <time>2020-11-28T10:36:49Z</time>
      </trkpt>
      <trkpt lat="48.72489" lon="7.33437">
        <ele>329.3</ele>
        <time>2020-11-28T10:36:52Z</time>
      </trkpt>
      <trkpt lat="48.72482" lon="7.33431">
        <ele>330</ele>
        <time>2020-11-28T10:36:55Z</time>
      </trkpt>
      <trkpt lat="48.72477" lon="7.33426">
        <ele>330.8</ele>
        <time>2020-11-28T10:36:57Z</time>
      </trkpt>
      <trkpt lat="48.72472" lon="7.33422">
        <ele>331.2</ele>
        <time>2020-11-28T10:36:59Z</time>
      </trkpt>
      <trkpt lat="48.72467" lon="7.33419">
        <ele>331.6</ele>
        <time>2020-11-28T10:37:01Z</time>
      </trkpt>
      <trkpt lat="48.72462" lon="7.33416">
        <ele>332.1</ele>
        <time>2020-11-28T10:37:03Z</time>
      </trkpt>
      <trkpt lat="48.72457" lon="7.33413">
        <ele>332.2</ele>
        <time>2020-11-28T10:37:05Z</time>
      </trkpt>
      <trkpt lat="48.72452" lon="7.33411">
        <ele>332.1</ele>
        <time>2020-11-28T10:37:07Z</time>
      </trkpt>
      <trkpt lat="48.72447" lon="7.33409">
        <ele>332.3</ele>
        <time>2020-11-28T10:37:09Z</time>
      </trkpt>
      <trkpt lat="48.72442" lon="7.33404">
        <ele>332.6</ele>
        <time>2020-11-28T10:37:11Z</time>
      </trkpt>
      <trkpt lat="48.72435" lon="7.33394">
        <ele>333.2</ele>
        <time>2020-11-28T10:37:13Z</time>
      </trkpt>
      <trkpt lat="48.72428" lon="7.33387">
        <ele>334.1</ele>
        <time>2020-11-28T10:37:15Z</time>
      </trkpt>
      <trkpt lat="48.72422" lon="7.3338">
        <ele>334.8</ele>
        <time>2020-11-28T10:37:17Z</time>
      </trkpt>
      <trkpt lat="48.72416" lon="7.33374">
        <ele>335.8</ele>
        <time>2020-11-28T10:37:19Z</time>
      </trkpt>
      <trkpt lat="48.7241" lon="7.33369">
        <ele>336.3</ele>
        <time>2020-11-28T10:37:21Z</time>
      </trkpt>
      <trkpt lat="48.72404" lon="7.3336">
        <ele>337.2</ele>
        <time>2020-11-28T10:37:23Z</time>
      </trkpt>
      <trkpt lat="48.724" lon="7.33353">
        <ele>337.2</ele>
        <time>2020-11-28T10:37:25Z</time>
      </trkpt>
      <trkpt lat="48.72395" lon="7.33348">
        <ele>337.2</ele>
        <time>2020-11-28T10:37:27Z</time>
      </trkpt>
      <trkpt lat="48.72388" lon="7.33343">
        <ele>337.5</ele>
        <time>2020-11-28T10:37:30Z</time>
      </trkpt>
      <trkpt lat="48.72384" lon="7.33339">
        <ele>337.8</ele>
        <time>2020-11-28T10:37:32Z</time>
      </trkpt>
      <trkpt lat="48.7238" lon="7.33334">
        <ele>338</ele>
        <time>2020-11-28T10:37:34Z</time>
      </trkpt>
      <trkpt lat="48.72375" lon="7.3333">
        <ele>338.3</ele>
        <time>2020-11-28T10:37:36Z</time>
      </trkpt>
      <trkpt lat="48.72369" lon="7.33325">
        <ele>337.6</ele>
        <time>2020-11-28T10:37:38Z</time>
      </trkpt>
      <trkpt lat="48.72364" lon="7.3332">
        <ele>337.2</ele>
        <time>2020-11-28T10:37:40Z</time>
      </trkpt>
      <trkpt lat="48.72359" lon="7.33314">
        <ele>336.8</ele>
        <time>2020-11-28T10:37:42Z</time>
      </trkpt>
      <trkpt lat="48.72354" lon="7.33309">
        <ele>337.1</ele>
        <time>2020-11-28T10:37:44Z</time>
      </trkpt>
      <trkpt lat="48.72349" lon="7.33304">
        <ele>336.7</ele>
        <time>2020-11-28T10:37:46Z</time>
      </trkpt>
      <trkpt lat="48.72345" lon="7.333">
        <ele>336.8</ele>
        <time>2020-11-28T10:37:48Z</time>
      </trkpt>
      <trkpt lat="48.72341" lon="7.33296">
        <ele>336.6</ele>
        <time>2020-11-28T10:37:50Z</time>
      </trkpt>
      <trkpt lat="48.72336" lon="7.33292">
        <ele>336.3</ele>
        <time>2020-11-28T10:37:52Z</time>
      </trkpt>
      <trkpt lat="48.72329" lon="7.33286">
        <ele>336.1</ele>
        <time>2020-11-28T10:37:55Z</time>
      </trkpt>
      <trkpt lat="48.72324" lon="7.33283">
        <ele>336.4</ele>
        <time>2020-11-28T10:37:57Z</time>
      </trkpt>
      <trkpt lat="48.72319" lon="7.33281">
        <ele>336.3</ele>
        <time>2020-11-28T10:37:59Z</time>
      </trkpt>
      <trkpt lat="48.72313" lon="7.33278">
        <ele>336.4</ele>
        <time>2020-11-28T10:38:01Z</time>
      </trkpt>
      <trkpt lat="48.72308" lon="7.33274">
        <ele>337.5</ele>
        <time>2020-11-28T10:38:03Z</time>
      </trkpt>
      <trkpt lat="48.723" lon="7.33267">
        <ele>338.6</ele>
        <time>2020-11-28T10:38:06Z</time>
      </trkpt>
      <trkpt lat="48.72295" lon="7.33265">
        <ele>338.6</ele>
        <time>2020-11-28T10:38:08Z</time>
      </trkpt>
      <trkpt lat="48.7229" lon="7.33262">
        <ele>338.8</ele>
        <time>2020-11-28T10:38:10Z</time>
      </trkpt>
      <trkpt lat="48.72285" lon="7.3326">
        <ele>339.2</ele>
        <time>2020-11-28T10:38:12Z</time>
      </trkpt>
      <trkpt lat="48.7228" lon="7.33258">
        <ele>339.5</ele>
        <time>2020-11-28T10:38:14Z</time>
      </trkpt>
      <trkpt lat="48.72274" lon="7.33258">
        <ele>340.1</ele>
        <time>2020-11-28T10:38:16Z</time>
      </trkpt>
      <trkpt lat="48.72268" lon="7.33257">
        <ele>340.4</ele>
        <time>2020-11-28T10:38:18Z</time>
      </trkpt>
      <trkpt lat="48.72262" lon="7.33255">
        <ele>340.2</ele>
        <time>2020-11-28T10:38:20Z</time>
      </trkpt>
      <trkpt lat="48.72255" lon="7.33254">
        <ele>340.3</ele>
        <time>2020-11-28T10:38:22Z</time>
      </trkpt>
      <trkpt lat="48.7225" lon="7.33252">
        <ele>340.5</ele>
        <time>2020-11-28T10:38:24Z</time>
      </trkpt>
      <trkpt lat="48.72244" lon="7.33249">
        <ele>340.8</ele>
        <time>2020-11-28T10:38:26Z</time>
      </trkpt>
      <trkpt lat="48.72238" lon="7.33245">
        <ele>340.6</ele>
        <time>2020-11-28T10:38:28Z</time>
      </trkpt>
      <trkpt lat="48.72232" lon="7.33241">
        <ele>341.5</ele>
        <time>2020-11-28T10:38:30Z</time>
      </trkpt>
      <trkpt lat="48.72226" lon="7.33239">
        <ele>341.5</ele>
        <time>2020-11-28T10:38:32Z</time>
      </trkpt>
      <trkpt lat="48.7222" lon="7.33239">
        <ele>341</ele>
        <time>2020-11-28T10:38:34Z</time>
      </trkpt>
      <trkpt lat="48.72215" lon="7.33239">
        <ele>341.1</ele>
        <time>2020-11-28T10:38:36Z</time>
      </trkpt>
      <trkpt lat="48.72207" lon="7.33237">
        <ele>341</ele>
        <time>2020-11-28T10:38:39Z</time>
      </trkpt>
      <trkpt lat="48.72202" lon="7.33235">
        <ele>341.2</ele>
        <time>2020-11-28T10:38:41Z</time>
      </trkpt>
      <trkpt lat="48.72197" lon="7.33231">
        <ele>342</ele>
        <time>2020-11-28T10:38:43Z</time>
      </trkpt>
      <trkpt lat="48.72193" lon="7.33227">
        <ele>342.4</ele>
        <time>2020-11-28T10:38:45Z</time>
      </trkpt>
      <trkpt lat="48.72189" lon="7.33224">
        <ele>342.1</ele>
        <time>2020-11-28T10:38:47Z</time>
      </trkpt>
      <trkpt lat="48.72183" lon="7.33221">
        <ele>341.9</ele>
        <time>2020-11-28T10:38:50Z</time>
      </trkpt>
      <trkpt lat="48.72179" lon="7.33218">
        <ele>341.7</ele>
        <time>2020-11-28T10:38:53Z</time>
      </trkpt>
      <trkpt lat="48.72175" lon="7.33216">
        <ele>342</ele>
        <time>2020-11-28T10:39:00Z</time>
      </trkpt>
      <trkpt lat="48.7217" lon="7.33213">
        <ele>341.6</ele>
        <time>2020-11-28T10:39:09Z</time>
      </trkpt>
      <trkpt lat="48.72166" lon="7.33207">
        <ele>341.7</ele>
        <time>2020-11-28T10:39:11Z</time>
      </trkpt>
      <trkpt lat="48.72161" lon="7.33199">
        <ele>341.3</ele>
        <time>2020-11-28T10:39:13Z</time>
      </trkpt>
      <trkpt lat="48.72156" lon="7.33189">
        <ele>341.3</ele>
        <time>2020-11-28T10:39:15Z</time>
      </trkpt>
      <trkpt lat="48.72151" lon="7.3318">
        <ele>342</ele>
        <time>2020-11-28T10:39:17Z</time>
      </trkpt>
      <trkpt lat="48.72144" lon="7.33165">
        <ele>342.7</ele>
        <time>2020-11-28T10:39:20Z</time>
      </trkpt>
      <trkpt lat="48.7214" lon="7.33151">
        <ele>343.2</ele>
        <time>2020-11-28T10:39:22Z</time>
      </trkpt>
      <trkpt lat="48.72138" lon="7.33131">
        <ele>343.5</ele>
        <time>2020-11-28T10:39:25Z</time>
      </trkpt>
      <trkpt lat="48.72136" lon="7.33112">
        <ele>342.5</ele>
        <time>2020-11-28T10:39:28Z</time>
      </trkpt>
      <trkpt lat="48.72136" lon="7.331">
        <ele>342.8</ele>
        <time>2020-11-28T10:39:30Z</time>
      </trkpt>
      <trkpt lat="48.72136" lon="7.3309">
        <ele>344.6</ele>
        <time>2020-11-28T10:39:32Z</time>
      </trkpt>
      <trkpt lat="48.72137" lon="7.3308">
        <ele>345.8</ele>
        <time>2020-11-28T10:39:34Z</time>
      </trkpt>
      <trkpt lat="48.72137" lon="7.33072">
        <ele>346.5</ele>
        <time>2020-11-28T10:39:36Z</time>
      </trkpt>
      <trkpt lat="48.72136" lon="7.33064">
        <ele>347.5</ele>
        <time>2020-11-28T10:39:38Z</time>
      </trkpt>
      <trkpt lat="48.72136" lon="7.33054">
        <ele>348.1</ele>
        <time>2020-11-28T10:39:40Z</time>
      </trkpt>
      <trkpt lat="48.72136" lon="7.33047">
        <ele>347.8</ele>
        <time>2020-11-28T10:39:43Z</time>
      </trkpt>
      <trkpt lat="48.72138" lon="7.33039">
        <ele>343.9</ele>
        <time>2020-11-28T10:41:28Z</time>
      </trkpt>
      <trkpt lat="48.72137" lon="7.33032">
        <ele>344.4</ele>
        <time>2020-11-28T10:41:30Z</time>
      </trkpt>
      <trkpt lat="48.72136" lon="7.33022">
        <ele>345</ele>
        <time>2020-11-28T10:41:33Z</time>
      </trkpt>
      <trkpt lat="48.72136" lon="7.33013">
        <ele>345.5</ele>
        <time>2020-11-28T10:41:35Z</time>
      </trkpt>
      <trkpt lat="48.72136" lon="7.33003">
        <ele>346</ele>
        <time>2020-11-28T10:41:37Z</time>
      </trkpt>
      <trkpt lat="48.72137" lon="7.32993">
        <ele>346.2</ele>
        <time>2020-11-28T10:41:39Z</time>
      </trkpt>
      <trkpt lat="48.72138" lon="7.32983">
        <ele>346.6</ele>
        <time>2020-11-28T10:41:41Z</time>
      </trkpt>
      <trkpt lat="48.72139" lon="7.32972">
        <ele>346.8</ele>
        <time>2020-11-28T10:41:43Z</time>
      </trkpt>
      <trkpt lat="48.7214" lon="7.32962">
        <ele>347.6</ele>
        <time>2020-11-28T10:41:45Z</time>
      </trkpt>
      <trkpt lat="48.7214" lon="7.32953">
        <ele>347.9</ele>
        <time>2020-11-28T10:41:47Z</time>
      </trkpt>
      <trkpt lat="48.72141" lon="7.32943">
        <ele>348.2</ele>
        <time>2020-11-28T10:41:49Z</time>
      </trkpt>
      <trkpt lat="48.72142" lon="7.32934">
        <ele>348.3</ele>
        <time>2020-11-28T10:41:51Z</time>
      </trkpt>
      <trkpt lat="48.72143" lon="7.32925">
        <ele>348.1</ele>
        <time>2020-11-28T10:41:53Z</time>
      </trkpt>
      <trkpt lat="48.72144" lon="7.32914">
        <ele>348</ele>
        <time>2020-11-28T10:41:55Z</time>
      </trkpt>
      <trkpt lat="48.72143" lon="7.32904">
        <ele>348.4</ele>
        <time>2020-11-28T10:41:57Z</time>
      </trkpt>
      <trkpt lat="48.72142" lon="7.32892">
        <ele>348.5</ele>
        <time>2020-11-28T10:41:59Z</time>
      </trkpt>
      <trkpt lat="48.72141" lon="7.32881">
        <ele>349</ele>
        <time>2020-11-28T10:42:01Z</time>
      </trkpt>
      <trkpt lat="48.7214" lon="7.3287">
        <ele>349.6</ele>
        <time>2020-11-28T10:42:03Z</time>
      </trkpt>
      <trkpt lat="48.72139" lon="7.32859">
        <ele>348.9</ele>
        <time>2020-11-28T10:42:05Z</time>
      </trkpt>
      <trkpt lat="48.72137" lon="7.32848">
        <ele>348.9</ele>
        <time>2020-11-28T10:42:07Z</time>
      </trkpt>
      <trkpt lat="48.72134" lon="7.32838">
        <ele>348.7</ele>
        <time>2020-11-28T10:42:09Z</time>
      </trkpt>
      <trkpt lat="48.7213" lon="7.32827">
        <ele>348.7</ele>
        <time>2020-11-28T10:42:11Z</time>
      </trkpt>
      <trkpt lat="48.72127" lon="7.32817">
        <ele>348.8</ele>
        <time>2020-11-28T10:42:13Z</time>
      </trkpt>
      <trkpt lat="48.72123" lon="7.32808">
        <ele>348.5</ele>
        <time>2020-11-28T10:42:15Z</time>
      </trkpt>
      <trkpt lat="48.72119" lon="7.32799">
        <ele>348.4</ele>
        <time>2020-11-28T10:42:17Z</time>
      </trkpt>
      <trkpt lat="48.72115" lon="7.32791">
        <ele>347.9</ele>
        <time>2020-11-28T10:42:19Z</time>
      </trkpt>
      <trkpt lat="48.72111" lon="7.32784">
        <ele>347.9</ele>
        <time>2020-11-28T10:42:21Z</time>
      </trkpt>
      <trkpt lat="48.72107" lon="7.32777">
        <ele>347.6</ele>
        <time>2020-11-28T10:42:23Z</time>
      </trkpt>
      <trkpt lat="48.72103" lon="7.3277">
        <ele>347.6</ele>
        <time>2020-11-28T10:42:25Z</time>
      </trkpt>
      <trkpt lat="48.72095" lon="7.32762">
        <ele>347.1</ele>
        <time>2020-11-28T10:42:28Z</time>
      </trkpt>
      <trkpt lat="48.7209" lon="7.32757">
        <ele>346.3</ele>
        <time>2020-11-28T10:42:30Z</time>
      </trkpt>
      <trkpt lat="48.72085" lon="7.32751">
        <ele>346</ele>
        <time>2020-11-28T10:42:32Z</time>
      </trkpt>
      <trkpt lat="48.7208" lon="7.32746">
        <ele>345.7</ele>
        <time>2020-11-28T10:42:34Z</time>
      </trkpt>
      <trkpt lat="48.72074" lon="7.32742">
        <ele>345.5</ele>
        <time>2020-11-28T10:42:36Z</time>
      </trkpt>
      <trkpt lat="48.72069" lon="7.32738">
        <ele>345.4</ele>
        <time>2020-11-28T10:42:38Z</time>
      </trkpt>
      <trkpt lat="48.72064" lon="7.32734">
        <ele>345.6</ele>
        <time>2020-11-28T10:42:40Z</time>
      </trkpt>
      <trkpt lat="48.72058" lon="7.3273">
        <ele>345</ele>
        <time>2020-11-28T10:42:42Z</time>
      </trkpt>
      <trkpt lat="48.72052" lon="7.32727">
        <ele>344.8</ele>
        <time>2020-11-28T10:42:44Z</time>
      </trkpt>
      <trkpt lat="48.72046" lon="7.32725">
        <ele>344.3</ele>
        <time>2020-11-28T10:42:46Z</time>
      </trkpt>
      <trkpt lat="48.7204" lon="7.32723">
        <ele>343.7</ele>
        <time>2020-11-28T10:42:48Z</time>
      </trkpt>
      <trkpt lat="48.72033" lon="7.32721">
        <ele>343.1</ele>
        <time>2020-11-28T10:42:50Z</time>
      </trkpt>
      <trkpt lat="48.72026" lon="7.32719">
        <ele>343</ele>
        <time>2020-11-28T10:42:52Z</time>
      </trkpt>
      <trkpt lat="48.7202" lon="7.32717">
        <ele>342.9</ele>
        <time>2020-11-28T10:42:54Z</time>
      </trkpt>
      <trkpt lat="48.72013" lon="7.32715">
        <ele>343.1</ele>
        <time>2020-11-28T10:42:56Z</time>
      </trkpt>
      <trkpt lat="48.72007" lon="7.32715">
        <ele>343.5</ele>
        <time>2020-11-28T10:42:58Z</time>
      </trkpt>
      <trkpt lat="48.72" lon="7.32714">
        <ele>343.8</ele>
        <time>2020-11-28T10:43:00Z</time>
      </trkpt>
      <trkpt lat="48.71993" lon="7.32714">
        <ele>344.6</ele>
        <time>2020-11-28T10:43:02Z</time>
      </trkpt>
      <trkpt lat="48.71986" lon="7.32713">
        <ele>345</ele>
        <time>2020-11-28T10:43:04Z</time>
      </trkpt>
      <trkpt lat="48.71979" lon="7.32714">
        <ele>345.8</ele>
        <time>2020-11-28T10:43:06Z</time>
      </trkpt>
      <trkpt lat="48.71972" lon="7.32713">
        <ele>346.4</ele>
        <time>2020-11-28T10:43:08Z</time>
      </trkpt>
      <trkpt lat="48.71965" lon="7.32713">
        <ele>346.8</ele>
        <time>2020-11-28T10:43:10Z</time>
      </trkpt>
      <trkpt lat="48.71958" lon="7.32713">
        <ele>347.3</ele>
        <time>2020-11-28T10:43:12Z</time>
      </trkpt>
      <trkpt lat="48.71952" lon="7.32713">
        <ele>348</ele>
        <time>2020-11-28T10:43:14Z</time>
      </trkpt>
      <trkpt lat="48.71942" lon="7.32716">
        <ele>348.4</ele>
        <time>2020-11-28T10:43:17Z</time>
      </trkpt>
      <trkpt lat="48.71937" lon="7.32718">
        <ele>348.1</ele>
        <time>2020-11-28T10:43:19Z</time>
      </trkpt>
      <trkpt lat="48.71931" lon="7.32721">
        <ele>349</ele>
        <time>2020-11-28T10:43:21Z</time>
      </trkpt>
      <trkpt lat="48.71922" lon="7.32725">
        <ele>349.9</ele>
        <time>2020-11-28T10:43:24Z</time>
      </trkpt>
      <trkpt lat="48.71917" lon="7.32727">
        <ele>350.4</ele>
        <time>2020-11-28T10:43:26Z</time>
      </trkpt>
      <trkpt lat="48.71912" lon="7.32729">
        <ele>351.8</ele>
        <time>2020-11-28T10:43:28Z</time>
      </trkpt>
      <trkpt lat="48.71906" lon="7.32733">
        <ele>352.3</ele>
        <time>2020-11-28T10:43:30Z</time>
      </trkpt>
      <trkpt lat="48.71898" lon="7.32738">
        <ele>353.5</ele>
        <time>2020-11-28T10:43:33Z</time>
      </trkpt>
      <trkpt lat="48.71892" lon="7.32741">
        <ele>354.1</ele>
        <time>2020-11-28T10:43:35Z</time>
      </trkpt>
      <trkpt lat="48.71887" lon="7.32745">
        <ele>355</ele>
        <time>2020-11-28T10:43:37Z</time>
      </trkpt>
      <trkpt lat="48.71882" lon="7.32748">
        <ele>355.7</ele>
        <time>2020-11-28T10:43:39Z</time>
      </trkpt>
      <trkpt lat="48.71877" lon="7.32753">
        <ele>356.1</ele>
        <time>2020-11-28T10:43:41Z</time>
      </trkpt>
      <trkpt lat="48.71872" lon="7.32757">
        <ele>356.2</ele>
        <time>2020-11-28T10:43:43Z</time>
      </trkpt>
      <trkpt lat="48.71867" lon="7.32763">
        <ele>356.1</ele>
        <time>2020-11-28T10:43:45Z</time>
      </trkpt>
      <trkpt lat="48.71861" lon="7.32769">
        <ele>355.7</ele>
        <time>2020-11-28T10:43:47Z</time>
      </trkpt>
      <trkpt lat="48.71854" lon="7.32775">
        <ele>355.3</ele>
        <time>2020-11-28T10:43:49Z</time>
      </trkpt>
      <trkpt lat="48.71848" lon="7.32781">
        <ele>354.6</ele>
        <time>2020-11-28T10:43:51Z</time>
      </trkpt>
      <trkpt lat="48.71841" lon="7.32786">
        <ele>354.2</ele>
        <time>2020-11-28T10:43:53Z</time>
      </trkpt>
      <trkpt lat="48.71834" lon="7.32791">
        <ele>354.1</ele>
        <time>2020-11-28T10:43:55Z</time>
      </trkpt>
      <trkpt lat="48.71827" lon="7.32796">
        <ele>354.1</ele>
        <time>2020-11-28T10:43:57Z</time>
      </trkpt>
      <trkpt lat="48.71818" lon="7.328">
        <ele>354.1</ele>
        <time>2020-11-28T10:43:59Z</time>
      </trkpt>
      <trkpt lat="48.71809" lon="7.32805">
        <ele>354.2</ele>
        <time>2020-11-28T10:44:01Z</time>
      </trkpt>
      <trkpt lat="48.71801" lon="7.32806">
        <ele>355.5</ele>
        <time>2020-11-28T10:44:03Z</time>
      </trkpt>
      <trkpt lat="48.71791" lon="7.32808">
        <ele>356.3</ele>
        <time>2020-11-28T10:44:05Z</time>
      </trkpt>
      <trkpt lat="48.7178" lon="7.32808">
        <ele>356.8</ele>
        <time>2020-11-28T10:44:07Z</time>
      </trkpt>
      <trkpt lat="48.71769" lon="7.32808">
        <ele>357</ele>
        <time>2020-11-28T10:44:09Z</time>
      </trkpt>
      <trkpt lat="48.71758" lon="7.32806">
        <ele>357.2</ele>
        <time>2020-11-28T10:44:11Z</time>
      </trkpt>
      <trkpt lat="48.71746" lon="7.32804">
        <ele>357</ele>
        <time>2020-11-28T10:44:13Z</time>
      </trkpt>
      <trkpt lat="48.71734" lon="7.32802">
        <ele>357.3</ele>
        <time>2020-11-28T10:44:15Z</time>
      </trkpt>
      <trkpt lat="48.71723" lon="7.32802">
        <ele>357.2</ele>
        <time>2020-11-28T10:44:17Z</time>
      </trkpt>
      <trkpt lat="48.71714" lon="7.32802">
        <ele>356.9</ele>
        <time>2020-11-28T10:44:19Z</time>
      </trkpt>
      <trkpt lat="48.71703" lon="7.32804">
        <ele>357.2</ele>
        <time>2020-11-28T10:44:21Z</time>
      </trkpt>
      <trkpt lat="48.71694" lon="7.32808">
        <ele>357.6</ele>
        <time>2020-11-28T10:44:23Z</time>
      </trkpt>
      <trkpt lat="48.71684" lon="7.32814">
        <ele>357.4</ele>
        <time>2020-11-28T10:44:25Z</time>
      </trkpt>
      <trkpt lat="48.71674" lon="7.32824">
        <ele>357.4</ele>
        <time>2020-11-28T10:44:27Z</time>
      </trkpt>
      <trkpt lat="48.71666" lon="7.32836">
        <ele>357.1</ele>
        <time>2020-11-28T10:44:29Z</time>
      </trkpt>
      <trkpt lat="48.71659" lon="7.32849">
        <ele>357.4</ele>
        <time>2020-11-28T10:44:31Z</time>
      </trkpt>
      <trkpt lat="48.71653" lon="7.32865">
        <ele>356.9</ele>
        <time>2020-11-28T10:44:33Z</time>
      </trkpt>
      <trkpt lat="48.71648" lon="7.32878">
        <ele>356.8</ele>
        <time>2020-11-28T10:44:35Z</time>
      </trkpt>
      <trkpt lat="48.71641" lon="7.3289">
        <ele>357.1</ele>
        <time>2020-11-28T10:44:37Z</time>
      </trkpt>
      <trkpt lat="48.71632" lon="7.32899">
        <ele>357.3</ele>
        <time>2020-11-28T10:44:39Z</time>
      </trkpt>
      <trkpt lat="48.71622" lon="7.32901">
        <ele>357.9</ele>
        <time>2020-11-28T10:44:41Z</time>
      </trkpt>
      <trkpt lat="48.71612" lon="7.32898">
        <ele>358.2</ele>
        <time>2020-11-28T10:44:43Z</time>
      </trkpt>
      <trkpt lat="48.71601" lon="7.32894">
        <ele>358.6</ele>
        <time>2020-11-28T10:44:45Z</time>
      </trkpt>
      <trkpt lat="48.71591" lon="7.32889">
        <ele>358.8</ele>
        <time>2020-11-28T10:44:47Z</time>
      </trkpt>
      <trkpt lat="48.71581" lon="7.32884">
        <ele>359.1</ele>
        <time>2020-11-28T10:44:49Z</time>
      </trkpt>
      <trkpt lat="48.7157" lon="7.32879">
        <ele>359.6</ele>
        <time>2020-11-28T10:44:51Z</time>
      </trkpt>
      <trkpt lat="48.71559" lon="7.32876">
        <ele>360.6</ele>
        <time>2020-11-28T10:44:53Z</time>
      </trkpt>
      <trkpt lat="48.71548" lon="7.32875">
        <ele>361.9</ele>
        <time>2020-11-28T10:44:55Z</time>
      </trkpt>
      <trkpt lat="48.71538" lon="7.32874">
        <ele>362.2</ele>
        <time>2020-11-28T10:44:57Z</time>
      </trkpt>
      <trkpt lat="48.71528" lon="7.32873">
        <ele>362.3</ele>
        <time>2020-11-28T10:44:59Z</time>
      </trkpt>
      <trkpt lat="48.7152" lon="7.32871">
        <ele>362.2</ele>
        <time>2020-11-28T10:45:01Z</time>
      </trkpt>
      <trkpt lat="48.7151" lon="7.32868">
        <ele>362.9</ele>
        <time>2020-11-28T10:45:03Z</time>
      </trkpt>
      <trkpt lat="48.71501" lon="7.32867">
        <ele>363.8</ele>
        <time>2020-11-28T10:45:05Z</time>
      </trkpt>
      <trkpt lat="48.71491" lon="7.32866">
        <ele>364.2</ele>
        <time>2020-11-28T10:45:07Z</time>
      </trkpt>
      <trkpt lat="48.71481" lon="7.32866">
        <ele>365.3</ele>
        <time>2020-11-28T10:45:09Z</time>
      </trkpt>
      <trkpt lat="48.71471" lon="7.32868">
        <ele>365.6</ele>
        <time>2020-11-28T10:45:11Z</time>
      </trkpt>
      <trkpt lat="48.71462" lon="7.32869">
        <ele>365.4</ele>
        <time>2020-11-28T10:45:13Z</time>
      </trkpt>
      <trkpt lat="48.71454" lon="7.32871">
        <ele>365.1</ele>
        <time>2020-11-28T10:45:15Z</time>
      </trkpt>
      <trkpt lat="48.71445" lon="7.32874">
        <ele>364.9</ele>
        <time>2020-11-28T10:45:17Z</time>
      </trkpt>
      <trkpt lat="48.71434" lon="7.32876">
        <ele>365.4</ele>
        <time>2020-11-28T10:45:19Z</time>
      </trkpt>
      <trkpt lat="48.71424" lon="7.32879">
        <ele>366.1</ele>
        <time>2020-11-28T10:45:21Z</time>
      </trkpt>
      <trkpt lat="48.71414" lon="7.32882">
        <ele>366.7</ele>
        <time>2020-11-28T10:45:23Z</time>
      </trkpt>
      <trkpt lat="48.71404" lon="7.32884">
        <ele>367.3</ele>
        <time>2020-11-28T10:45:25Z</time>
      </trkpt>
      <trkpt lat="48.71394" lon="7.32885">
        <ele>367.7</ele>
        <time>2020-11-28T10:45:27Z</time>
      </trkpt>
      <trkpt lat="48.71383" lon="7.32886">
        <ele>368.5</ele>
        <time>2020-11-28T10:45:29Z</time>
      </trkpt>
      <trkpt lat="48.71371" lon="7.32888">
        <ele>368.7</ele>
        <time>2020-11-28T10:45:31Z</time>
      </trkpt>
      <trkpt lat="48.71359" lon="7.32889">
        <ele>369.4</ele>
        <time>2020-11-28T10:45:33Z</time>
      </trkpt>
      <trkpt lat="48.71347" lon="7.32891">
        <ele>370.5</ele>
        <time>2020-11-28T10:45:35Z</time>
      </trkpt>
      <trkpt lat="48.71336" lon="7.32893">
        <ele>371</ele>
        <time>2020-11-28T10:45:37Z</time>
      </trkpt>
      <trkpt lat="48.71325" lon="7.32895">
        <ele>370.8</ele>
        <time>2020-11-28T10:45:39Z</time>
      </trkpt>
      <trkpt lat="48.71313" lon="7.32896">
        <ele>371.6</ele>
        <time>2020-11-28T10:45:41Z</time>
      </trkpt>
      <trkpt lat="48.71301" lon="7.32895">
        <ele>372</ele>
        <time>2020-11-28T10:45:43Z</time>
      </trkpt>
      <trkpt lat="48.71288" lon="7.32893">
        <ele>372.4</ele>
        <time>2020-11-28T10:45:45Z</time>
      </trkpt>
      <trkpt lat="48.71275" lon="7.32891">
        <ele>371.9</ele>
        <time>2020-11-28T10:45:47Z</time>
      </trkpt>
      <trkpt lat="48.71264" lon="7.32886">
        <ele>372.5</ele>
        <time>2020-11-28T10:45:49Z</time>
      </trkpt>
      <trkpt lat="48.71251" lon="7.3288">
        <ele>372.2</ele>
        <time>2020-11-28T10:45:51Z</time>
      </trkpt>
      <trkpt lat="48.7124" lon="7.3287">
        <ele>372.5</ele>
        <time>2020-11-28T10:45:53Z</time>
      </trkpt>
      <trkpt lat="48.7123" lon="7.32857">
        <ele>372.8</ele>
        <time>2020-11-28T10:45:55Z</time>
      </trkpt>
      <trkpt lat="48.71219" lon="7.32843">
        <ele>373.2</ele>
        <time>2020-11-28T10:45:57Z</time>
      </trkpt>
      <trkpt lat="48.71209" lon="7.32828">
        <ele>373.6</ele>
        <time>2020-11-28T10:45:59Z</time>
      </trkpt>
      <trkpt lat="48.71199" lon="7.32815">
        <ele>373.9</ele>
        <time>2020-11-28T10:46:01Z</time>
      </trkpt>
      <trkpt lat="48.7119" lon="7.32803">
        <ele>374.6</ele>
        <time>2020-11-28T10:46:03Z</time>
      </trkpt>
      <trkpt lat="48.7118" lon="7.32792">
        <ele>374.8</ele>
        <time>2020-11-28T10:46:05Z</time>
      </trkpt>
      <trkpt lat="48.71169" lon="7.3278">
        <ele>375.2</ele>
        <time>2020-11-28T10:46:07Z</time>
      </trkpt>
      <trkpt lat="48.71158" lon="7.32769">
        <ele>375.2</ele>
        <time>2020-11-28T10:46:09Z</time>
      </trkpt>
      <trkpt lat="48.71147" lon="7.32758">
        <ele>374.9</ele>
        <time>2020-11-28T10:46:11Z</time>
      </trkpt>
      <trkpt lat="48.71135" lon="7.32748">
        <ele>375</ele>
        <time>2020-11-28T10:46:13Z</time>
      </trkpt>
      <trkpt lat="48.71124" lon="7.3274">
        <ele>373.8</ele>
        <time>2020-11-28T10:46:15Z</time>
      </trkpt>
      <trkpt lat="48.71115" lon="7.32729">
        <ele>373.1</ele>
        <time>2020-11-28T10:46:17Z</time>
      </trkpt>
      <trkpt lat="48.71105" lon="7.32716">
        <ele>372.9</ele>
        <time>2020-11-28T10:46:19Z</time>
      </trkpt>
      <trkpt lat="48.71098" lon="7.32701">
        <ele>372.6</ele>
        <time>2020-11-28T10:46:21Z</time>
      </trkpt>
      <trkpt lat="48.71096" lon="7.32682">
        <ele>372.6</ele>
        <time>2020-11-28T10:46:23Z</time>
      </trkpt>
      <trkpt lat="48.71103" lon="7.32653">
        <ele>371.8</ele>
        <time>2020-11-28T10:46:26Z</time>
      </trkpt>
      <trkpt lat="48.71112" lon="7.32636">
        <ele>371</ele>
        <time>2020-11-28T10:46:28Z</time>
      </trkpt>
      <trkpt lat="48.71124" lon="7.32618">
        <ele>371.1</ele>
        <time>2020-11-28T10:46:30Z</time>
      </trkpt>
      <trkpt lat="48.71136" lon="7.32601">
        <ele>370.4</ele>
        <time>2020-11-28T10:46:32Z</time>
      </trkpt>
      <trkpt lat="48.71148" lon="7.32586">
        <ele>370.7</ele>
        <time>2020-11-28T10:46:34Z</time>
      </trkpt>
      <trkpt lat="48.71161" lon="7.32571">
        <ele>370.4</ele>
        <time>2020-11-28T10:46:36Z</time>
      </trkpt>
      <trkpt lat="48.71174" lon="7.32557">
        <ele>370</ele>
        <time>2020-11-28T10:46:38Z</time>
      </trkpt>
      <trkpt lat="48.71185" lon="7.32544">
        <ele>369.2</ele>
        <time>2020-11-28T10:46:40Z</time>
      </trkpt>
      <trkpt lat="48.71196" lon="7.32531">
        <ele>368.7</ele>
        <time>2020-11-28T10:46:42Z</time>
      </trkpt>
      <trkpt lat="48.71206" lon="7.32518">
        <ele>368.1</ele>
        <time>2020-11-28T10:46:44Z</time>
      </trkpt>
      <trkpt lat="48.71216" lon="7.32504">
        <ele>368</ele>
        <time>2020-11-28T10:46:46Z</time>
      </trkpt>
      <trkpt lat="48.71223" lon="7.3249">
        <ele>368</ele>
        <time>2020-11-28T10:46:48Z</time>
      </trkpt>
      <trkpt lat="48.71229" lon="7.32478">
        <ele>368.4</ele>
        <time>2020-11-28T10:46:50Z</time>
      </trkpt>
      <trkpt lat="48.71237" lon="7.32465">
        <ele>368.6</ele>
        <time>2020-11-28T10:46:52Z</time>
      </trkpt>
      <trkpt lat="48.71245" lon="7.32452">
        <ele>369</ele>
        <time>2020-11-28T10:46:54Z</time>
      </trkpt>
      <trkpt lat="48.71253" lon="7.32437">
        <ele>369</ele>
        <time>2020-11-28T10:46:56Z</time>
      </trkpt>
      <trkpt lat="48.7126" lon="7.3242">
        <ele>369.3</ele>
        <time>2020-11-28T10:46:58Z</time>
      </trkpt>
      <trkpt lat="48.71267" lon="7.32402">
        <ele>368.8</ele>
        <time>2020-11-28T10:47:00Z</time>
      </trkpt>
      <trkpt lat="48.71272" lon="7.32384">
        <ele>368.4</ele>
        <time>2020-11-28T10:47:02Z</time>
      </trkpt>
      <trkpt lat="48.71277" lon="7.32364">
        <ele>368</ele>
        <time>2020-11-28T10:47:04Z</time>
      </trkpt>
      <trkpt lat="48.71282" lon="7.32341">
        <ele>368.1</ele>
        <time>2020-11-28T10:47:06Z</time>
      </trkpt>
      <trkpt lat="48.71287" lon="7.32319">
        <ele>368.5</ele>
        <time>2020-11-28T10:47:08Z</time>
      </trkpt>
      <trkpt lat="48.71292" lon="7.323">
        <ele>369.4</ele>
        <time>2020-11-28T10:47:10Z</time>
      </trkpt>
      <trkpt lat="48.71297" lon="7.3228">
        <ele>369.8</ele>
        <time>2020-11-28T10:47:12Z</time>
      </trkpt>
      <trkpt lat="48.71302" lon="7.32262">
        <ele>370.5</ele>
        <time>2020-11-28T10:47:14Z</time>
      </trkpt>
      <trkpt lat="48.71309" lon="7.32244">
        <ele>371</ele>
        <time>2020-11-28T10:47:16Z</time>
      </trkpt>
      <trkpt lat="48.71317" lon="7.32227">
        <ele>371</ele>
        <time>2020-11-28T10:47:18Z</time>
      </trkpt>
      <trkpt lat="48.71325" lon="7.32212">
        <ele>370.5</ele>
        <time>2020-11-28T10:47:20Z</time>
      </trkpt>
      <trkpt lat="48.71333" lon="7.32197">
        <ele>369.8</ele>
        <time>2020-11-28T10:47:22Z</time>
      </trkpt>
      <trkpt lat="48.71341" lon="7.32183">
        <ele>369.1</ele>
        <time>2020-11-28T10:47:24Z</time>
      </trkpt>
      <trkpt lat="48.7135" lon="7.32171">
        <ele>368.8</ele>
        <time>2020-11-28T10:47:26Z</time>
      </trkpt>
      <trkpt lat="48.71361" lon="7.3216">
        <ele>368.6</ele>
        <time>2020-11-28T10:47:28Z</time>
      </trkpt>
      <trkpt lat="48.71373" lon="7.3215">
        <ele>368</ele>
        <time>2020-11-28T10:47:30Z</time>
      </trkpt>
      <trkpt lat="48.71384" lon="7.3214">
        <ele>367.6</ele>
        <time>2020-11-28T10:47:32Z</time>
      </trkpt>
      <trkpt lat="48.71395" lon="7.32131">
        <ele>367</ele>
        <time>2020-11-28T10:47:34Z</time>
      </trkpt>
      <trkpt lat="48.71406" lon="7.32122">
        <ele>366.7</ele>
        <time>2020-11-28T10:47:36Z</time>
      </trkpt>
      <trkpt lat="48.71418" lon="7.32114">
        <ele>367.1</ele>
        <time>2020-11-28T10:47:38Z</time>
      </trkpt>
      <trkpt lat="48.71429" lon="7.32107">
        <ele>367.3</ele>
        <time>2020-11-28T10:47:40Z</time>
      </trkpt>
      <trkpt lat="48.7144" lon="7.32101">
        <ele>367.2</ele>
        <time>2020-11-28T10:47:42Z</time>
      </trkpt>
      <trkpt lat="48.71449" lon="7.32096">
        <ele>367.2</ele>
        <time>2020-11-28T10:47:44Z</time>
      </trkpt>
      <trkpt lat="48.71459" lon="7.32091">
        <ele>367</ele>
        <time>2020-11-28T10:47:46Z</time>
      </trkpt>
      <trkpt lat="48.71468" lon="7.32086">
        <ele>367.4</ele>
        <time>2020-11-28T10:47:48Z</time>
      </trkpt>
      <trkpt lat="48.71477" lon="7.3208">
        <ele>368</ele>
        <time>2020-11-28T10:47:50Z</time>
      </trkpt>
      <trkpt lat="48.71486" lon="7.32071">
        <ele>368.6</ele>
        <time>2020-11-28T10:47:52Z</time>
      </trkpt>
      <trkpt lat="48.7149" lon="7.32059">
        <ele>369</ele>
        <time>2020-11-28T10:47:54Z</time>
      </trkpt>
      <trkpt lat="48.71492" lon="7.32045">
        <ele>369.6</ele>
        <time>2020-11-28T10:47:56Z</time>
      </trkpt>
      <trkpt lat="48.71491" lon="7.3203">
        <ele>370.6</ele>
        <time>2020-11-28T10:47:58Z</time>
      </trkpt>
      <trkpt lat="48.71487" lon="7.32018">
        <ele>371.8</ele>
        <time>2020-11-28T10:48:00Z</time>
      </trkpt>
      <trkpt lat="48.71482" lon="7.32007">
        <ele>372.6</ele>
        <time>2020-11-28T10:48:02Z</time>
      </trkpt>
      <trkpt lat="48.71476" lon="7.31998">
        <ele>373.3</ele>
        <time>2020-11-28T10:48:04Z</time>
      </trkpt>
      <trkpt lat="48.71469" lon="7.31989">
        <ele>373.6</ele>
        <time>2020-11-28T10:48:06Z</time>
      </trkpt>
      <trkpt lat="48.71462" lon="7.31979">
        <ele>374</ele>
        <time>2020-11-28T10:48:08Z</time>
      </trkpt>
      <trkpt lat="48.71455" lon="7.31969">
        <ele>375.4</ele>
        <time>2020-11-28T10:48:10Z</time>
      </trkpt>
      <trkpt lat="48.71446" lon="7.31957">
        <ele>376.3</ele>
        <time>2020-11-28T10:48:12Z</time>
      </trkpt>
      <trkpt lat="48.71436" lon="7.31945">
        <ele>376.6</ele>
        <time>2020-11-28T10:48:14Z</time>
      </trkpt>
      <trkpt lat="48.71426" lon="7.31933">
        <ele>376.7</ele>
        <time>2020-11-28T10:48:16Z</time>
      </trkpt>
      <trkpt lat="48.71416" lon="7.31924">
        <ele>376.9</ele>
        <time>2020-11-28T10:48:18Z</time>
      </trkpt>
      <trkpt lat="48.71406" lon="7.31915">
        <ele>376.8</ele>
        <time>2020-11-28T10:48:20Z</time>
      </trkpt>
      <trkpt lat="48.71394" lon="7.31909">
        <ele>376.8</ele>
        <time>2020-11-28T10:48:22Z</time>
      </trkpt>
      <trkpt lat="48.71382" lon="7.31904">
        <ele>376.2</ele>
        <time>2020-11-28T10:48:24Z</time>
      </trkpt>
      <trkpt lat="48.71369" lon="7.319">
        <ele>375.6</ele>
        <time>2020-11-28T10:48:26Z</time>
      </trkpt>
      <trkpt lat="48.71357" lon="7.31895">
        <ele>374.6</ele>
        <time>2020-11-28T10:48:28Z</time>
      </trkpt>
      <trkpt lat="48.71343" lon="7.3189">
        <ele>374.1</ele>
        <time>2020-11-28T10:48:30Z</time>
      </trkpt>
      <trkpt lat="48.71329" lon="7.31886">
        <ele>373.3</ele>
        <time>2020-11-28T10:48:32Z</time>
      </trkpt>
      <trkpt lat="48.71315" lon="7.31882">
        <ele>373</ele>
        <time>2020-11-28T10:48:34Z</time>
      </trkpt>
      <trkpt lat="48.71302" lon="7.31879">
        <ele>372.9</ele>
        <time>2020-11-28T10:48:36Z</time>
      </trkpt>
      <trkpt lat="48.71288" lon="7.31876">
        <ele>373.3</ele>
        <time>2020-11-28T10:48:38Z</time>
      </trkpt>
      <trkpt lat="48.71276" lon="7.31875">
        <ele>373.7</ele>
        <time>2020-11-28T10:48:40Z</time>
      </trkpt>
      <trkpt lat="48.71264" lon="7.31875">
        <ele>373.7</ele>
        <time>2020-11-28T10:48:42Z</time>
      </trkpt>
      <trkpt lat="48.71253" lon="7.31875">
        <ele>374</ele>
        <time>2020-11-28T10:48:44Z</time>
      </trkpt>
      <trkpt lat="48.71243" lon="7.31875">
        <ele>374.2</ele>
        <time>2020-11-28T10:48:46Z</time>
      </trkpt>
      <trkpt lat="48.71233" lon="7.31878">
        <ele>373.4</ele>
        <time>2020-11-28T10:48:48Z</time>
      </trkpt>
      <trkpt lat="48.71223" lon="7.3188">
        <ele>373.1</ele>
        <time>2020-11-28T10:48:50Z</time>
      </trkpt>
      <trkpt lat="48.71213" lon="7.31882">
        <ele>372.8</ele>
        <time>2020-11-28T10:48:52Z</time>
      </trkpt>
      <trkpt lat="48.71204" lon="7.31884">
        <ele>372.8</ele>
        <time>2020-11-28T10:48:54Z</time>
      </trkpt>
      <trkpt lat="48.71193" lon="7.31886">
        <ele>372.8</ele>
        <time>2020-11-28T10:48:56Z</time>
      </trkpt>
      <trkpt lat="48.71183" lon="7.31888">
        <ele>373.1</ele>
        <time>2020-11-28T10:48:58Z</time>
      </trkpt>
      <trkpt lat="48.71173" lon="7.31888">
        <ele>373.8</ele>
        <time>2020-11-28T10:49:00Z</time>
      </trkpt>
      <trkpt lat="48.71164" lon="7.31885">
        <ele>374.9</ele>
        <time>2020-11-28T10:49:02Z</time>
      </trkpt>
      <trkpt lat="48.71155" lon="7.31881">
        <ele>375.6</ele>
        <time>2020-11-28T10:49:04Z</time>
      </trkpt>
      <trkpt lat="48.71146" lon="7.31876">
        <ele>376.6</ele>
        <time>2020-11-28T10:49:06Z</time>
      </trkpt>
      <trkpt lat="48.71137" lon="7.31867">
        <ele>377.9</ele>
        <time>2020-11-28T10:49:08Z</time>
      </trkpt>
      <trkpt lat="48.71129" lon="7.31857">
        <ele>379.1</ele>
        <time>2020-11-28T10:49:10Z</time>
      </trkpt>
      <trkpt lat="48.71122" lon="7.31847">
        <ele>380.4</ele>
        <time>2020-11-28T10:49:12Z</time>
      </trkpt>
      <trkpt lat="48.71114" lon="7.31836">
        <ele>381.6</ele>
        <time>2020-11-28T10:49:14Z</time>
      </trkpt>
      <trkpt lat="48.71108" lon="7.31826">
        <ele>382.8</ele>
        <time>2020-11-28T10:49:16Z</time>
      </trkpt>
      <trkpt lat="48.71102" lon="7.31812">
        <ele>384.2</ele>
        <time>2020-11-28T10:49:18Z</time>
      </trkpt>
      <trkpt lat="48.71098" lon="7.31796">
        <ele>385.4</ele>
        <time>2020-11-28T10:49:20Z</time>
      </trkpt>
      <trkpt lat="48.71095" lon="7.31781">
        <ele>386.6</ele>
        <time>2020-11-28T10:49:22Z</time>
      </trkpt>
      <trkpt lat="48.71092" lon="7.31767">
        <ele>386.8</ele>
        <time>2020-11-28T10:49:24Z</time>
      </trkpt>
      <trkpt lat="48.71088" lon="7.31752">
        <ele>387.7</ele>
        <time>2020-11-28T10:49:26Z</time>
      </trkpt>
      <trkpt lat="48.71085" lon="7.31738">
        <ele>387.3</ele>
        <time>2020-11-28T10:49:28Z</time>
      </trkpt>
      <trkpt lat="48.71082" lon="7.31725">
        <ele>387.5</ele>
        <time>2020-11-28T10:49:30Z</time>
      </trkpt>
      <trkpt lat="48.71079" lon="7.3171">
        <ele>387.2</ele>
        <time>2020-11-28T10:49:32Z</time>
      </trkpt>
      <trkpt lat="48.71075" lon="7.31695">
        <ele>386.9</ele>
        <time>2020-11-28T10:49:34Z</time>
      </trkpt>
      <trkpt lat="48.71072" lon="7.31681">
        <ele>386</ele>
        <time>2020-11-28T10:49:36Z</time>
      </trkpt>
      <trkpt lat="48.71067" lon="7.31667">
        <ele>385.5</ele>
        <time>2020-11-28T10:49:38Z</time>
      </trkpt>
      <trkpt lat="48.71063" lon="7.31653">
        <ele>384.7</ele>
        <time>2020-11-28T10:49:40Z</time>
      </trkpt>
      <trkpt lat="48.71058" lon="7.3164">
        <ele>384.1</ele>
        <time>2020-11-28T10:49:42Z</time>
      </trkpt>
      <trkpt lat="48.71052" lon="7.31625">
        <ele>383.6</ele>
        <time>2020-11-28T10:49:44Z</time>
      </trkpt>
      <trkpt lat="48.71046" lon="7.3161">
        <ele>383.3</ele>
        <time>2020-11-28T10:49:46Z</time>
      </trkpt>
      <trkpt lat="48.71039" lon="7.31593">
        <ele>383</ele>
        <time>2020-11-28T10:49:48Z</time>
      </trkpt>
      <trkpt lat="48.71031" lon="7.31577">
        <ele>382.8</ele>
        <time>2020-11-28T10:49:50Z</time>
      </trkpt>
      <trkpt lat="48.71023" lon="7.31561">
        <ele>383.3</ele>
        <time>2020-11-28T10:49:52Z</time>
      </trkpt>
      <trkpt lat="48.71014" lon="7.31547">
        <ele>383.7</ele>
        <time>2020-11-28T10:49:54Z</time>
      </trkpt>
      <trkpt lat="48.71005" lon="7.31534">
        <ele>384</ele>
        <time>2020-11-28T10:49:56Z</time>
      </trkpt>
      <trkpt lat="48.70997" lon="7.31522">
        <ele>384.1</ele>
        <time>2020-11-28T10:49:58Z</time>
      </trkpt>
      <trkpt lat="48.70988" lon="7.31511">
        <ele>384.9</ele>
        <time>2020-11-28T10:50:00Z</time>
      </trkpt>
      <trkpt lat="48.70978" lon="7.31504">
        <ele>384.9</ele>
        <time>2020-11-28T10:50:02Z</time>
      </trkpt>
      <trkpt lat="48.70967" lon="7.31498">
        <ele>385.2</ele>
        <time>2020-11-28T10:50:04Z</time>
      </trkpt>
      <trkpt lat="48.70956" lon="7.3149">
        <ele>386</ele>
        <time>2020-11-28T10:50:06Z</time>
      </trkpt>
      <trkpt lat="48.70945" lon="7.31481">
        <ele>387.2</ele>
        <time>2020-11-28T10:50:08Z</time>
      </trkpt>
      <trkpt lat="48.70935" lon="7.31476">
        <ele>387.5</ele>
        <time>2020-11-28T10:50:10Z</time>
      </trkpt>
      <trkpt lat="48.70918" lon="7.31468">
        <ele>387.2</ele>
        <time>2020-11-28T10:50:13Z</time>
      </trkpt>
      <trkpt lat="48.70906" lon="7.31464">
        <ele>386.9</ele>
        <time>2020-11-28T10:50:15Z</time>
      </trkpt>
      <trkpt lat="48.70895" lon="7.31464">
        <ele>386.7</ele>
        <time>2020-11-28T10:50:17Z</time>
      </trkpt>
      <trkpt lat="48.70884" lon="7.31462">
        <ele>387</ele>
        <time>2020-11-28T10:50:19Z</time>
      </trkpt>
      <trkpt lat="48.70872" lon="7.3146">
        <ele>387.8</ele>
        <time>2020-11-28T10:50:21Z</time>
      </trkpt>
      <trkpt lat="48.70861" lon="7.31459">
        <ele>388.2</ele>
        <time>2020-11-28T10:50:23Z</time>
      </trkpt>
      <trkpt lat="48.7085" lon="7.31462">
        <ele>388.8</ele>
        <time>2020-11-28T10:50:25Z</time>
      </trkpt>
      <trkpt lat="48.7084" lon="7.31464">
        <ele>389.3</ele>
        <time>2020-11-28T10:50:27Z</time>
      </trkpt>
      <trkpt lat="48.70827" lon="7.31467">
        <ele>389.8</ele>
        <time>2020-11-28T10:50:29Z</time>
      </trkpt>
      <trkpt lat="48.70816" lon="7.31475">
        <ele>390.4</ele>
        <time>2020-11-28T10:50:31Z</time>
      </trkpt>
      <trkpt lat="48.70805" lon="7.31482">
        <ele>391.2</ele>
        <time>2020-11-28T10:50:33Z</time>
      </trkpt>
      <trkpt lat="48.70794" lon="7.3149">
        <ele>391.9</ele>
        <time>2020-11-28T10:50:35Z</time>
      </trkpt>
      <trkpt lat="48.70777" lon="7.31502">
        <ele>393.5</ele>
        <time>2020-11-28T10:50:38Z</time>
      </trkpt>
      <trkpt lat="48.70766" lon="7.31511">
        <ele>394.4</ele>
        <time>2020-11-28T10:50:40Z</time>
      </trkpt>
      <trkpt lat="48.70754" lon="7.3152">
        <ele>395.3</ele>
        <time>2020-11-28T10:50:42Z</time>
      </trkpt>
      <trkpt lat="48.70743" lon="7.3153">
        <ele>395.7</ele>
        <time>2020-11-28T10:50:44Z</time>
      </trkpt>
      <trkpt lat="48.70732" lon="7.31541">
        <ele>395.6</ele>
        <time>2020-11-28T10:50:46Z</time>
      </trkpt>
      <trkpt lat="48.7072" lon="7.3155">
        <ele>395.4</ele>
        <time>2020-11-28T10:50:48Z</time>
      </trkpt>
      <trkpt lat="48.70709" lon="7.3156">
        <ele>395.4</ele>
        <time>2020-11-28T10:50:50Z</time>
      </trkpt>
      <trkpt lat="48.70699" lon="7.31571">
        <ele>395.1</ele>
        <time>2020-11-28T10:50:52Z</time>
      </trkpt>
      <trkpt lat="48.70683" lon="7.31585">
        <ele>394.9</ele>
        <time>2020-11-28T10:50:56Z</time>
      </trkpt>
      <trkpt lat="48.70668" lon="7.31601">
        <ele>395.2</ele>
        <time>2020-11-28T10:50:58Z</time>
      </trkpt>
      <trkpt lat="48.70654" lon="7.31622">
        <ele>394.7</ele>
        <time>2020-11-28T10:51:01Z</time>
      </trkpt>
      <trkpt lat="48.70645" lon="7.31636">
        <ele>394.3</ele>
        <time>2020-11-28T10:51:03Z</time>
      </trkpt>
      <trkpt lat="48.70636" lon="7.31651">
        <ele>394.2</ele>
        <time>2020-11-28T10:51:05Z</time>
      </trkpt>
      <trkpt lat="48.70627" lon="7.31662">
        <ele>394.5</ele>
        <time>2020-11-28T10:51:07Z</time>
      </trkpt>
      <trkpt lat="48.70617" lon="7.31675">
        <ele>394.8</ele>
        <time>2020-11-28T10:51:09Z</time>
      </trkpt>
      <trkpt lat="48.70603" lon="7.31696">
        <ele>394.9</ele>
        <time>2020-11-28T10:51:12Z</time>
      </trkpt>
      <trkpt lat="48.70594" lon="7.31711">
        <ele>394.3</ele>
        <time>2020-11-28T10:51:14Z</time>
      </trkpt>
      <trkpt lat="48.70586" lon="7.31726">
        <ele>393.7</ele>
        <time>2020-11-28T10:51:16Z</time>
      </trkpt>
      <trkpt lat="48.70579" lon="7.31742">
        <ele>393.3</ele>
        <time>2020-11-28T10:51:18Z</time>
      </trkpt>
      <trkpt lat="48.70572" lon="7.3176">
        <ele>392.7</ele>
        <time>2020-11-28T10:51:20Z</time>
      </trkpt>
      <trkpt lat="48.70566" lon="7.31779">
        <ele>392.3</ele>
        <time>2020-11-28T10:51:22Z</time>
      </trkpt>
      <trkpt lat="48.70561" lon="7.31798">
        <ele>392</ele>
        <time>2020-11-28T10:51:24Z</time>
      </trkpt>
      <trkpt lat="48.70557" lon="7.31817">
        <ele>391.5</ele>
        <time>2020-11-28T10:51:26Z</time>
      </trkpt>
      <trkpt lat="48.70555" lon="7.31838">
        <ele>391.1</ele>
        <time>2020-11-28T10:51:28Z</time>
      </trkpt>
      <trkpt lat="48.70554" lon="7.3186">
        <ele>390.8</ele>
        <time>2020-11-28T10:51:30Z</time>
      </trkpt>
      <trkpt lat="48.70549" lon="7.31881">
        <ele>390.5</ele>
        <time>2020-11-28T10:51:32Z</time>
      </trkpt>
      <trkpt lat="48.7054" lon="7.31899">
        <ele>390.7</ele>
        <time>2020-11-28T10:51:34Z</time>
      </trkpt>
      <trkpt lat="48.70528" lon="7.31913">
        <ele>390.1</ele>
        <time>2020-11-28T10:51:36Z</time>
      </trkpt>
      <trkpt lat="48.70514" lon="7.31924">
        <ele>390.1</ele>
        <time>2020-11-28T10:51:38Z</time>
      </trkpt>
      <trkpt lat="48.70497" lon="7.31933">
        <ele>389.6</ele>
        <time>2020-11-28T10:51:40Z</time>
      </trkpt>
      <trkpt lat="48.70481" lon="7.31941">
        <ele>389.5</ele>
        <time>2020-11-28T10:51:42Z</time>
      </trkpt>
      <trkpt lat="48.70466" lon="7.31949">
        <ele>389.3</ele>
        <time>2020-11-28T10:51:44Z</time>
      </trkpt>
      <trkpt lat="48.70451" lon="7.31957">
        <ele>388.8</ele>
        <time>2020-11-28T10:51:46Z</time>
      </trkpt>
      <trkpt lat="48.70437" lon="7.31967">
        <ele>388.9</ele>
        <time>2020-11-28T10:51:48Z</time>
      </trkpt>
      <trkpt lat="48.70424" lon="7.31978">
        <ele>388.8</ele>
        <time>2020-11-28T10:51:50Z</time>
      </trkpt>
      <trkpt lat="48.7041" lon="7.31991">
        <ele>387.9</ele>
        <time>2020-11-28T10:51:52Z</time>
      </trkpt>
      <trkpt lat="48.70392" lon="7.32011">
        <ele>387.3</ele>
        <time>2020-11-28T10:51:55Z</time>
      </trkpt>
      <trkpt lat="48.70378" lon="7.32025">
        <ele>386.1</ele>
        <time>2020-11-28T10:51:57Z</time>
      </trkpt>
      <trkpt lat="48.70364" lon="7.32038">
        <ele>385.1</ele>
        <time>2020-11-28T10:51:59Z</time>
      </trkpt>
      <trkpt lat="48.70344" lon="7.32056">
        <ele>384.1</ele>
        <time>2020-11-28T10:52:02Z</time>
      </trkpt>
      <trkpt lat="48.70332" lon="7.3207">
        <ele>384.2</ele>
        <time>2020-11-28T10:52:04Z</time>
      </trkpt>
      <trkpt lat="48.70319" lon="7.32086">
        <ele>384.2</ele>
        <time>2020-11-28T10:52:06Z</time>
      </trkpt>
      <trkpt lat="48.70308" lon="7.32104">
        <ele>384.5</ele>
        <time>2020-11-28T10:52:08Z</time>
      </trkpt>
      <trkpt lat="48.70297" lon="7.32121">
        <ele>384.4</ele>
        <time>2020-11-28T10:52:10Z</time>
      </trkpt>
      <trkpt lat="48.70279" lon="7.32143">
        <ele>383.8</ele>
        <time>2020-11-28T10:52:13Z</time>
      </trkpt>
      <trkpt lat="48.70261" lon="7.32159">
        <ele>383.5</ele>
        <time>2020-11-28T10:52:16Z</time>
      </trkpt>
      <trkpt lat="48.70243" lon="7.32174">
        <ele>382.5</ele>
        <time>2020-11-28T10:52:19Z</time>
      </trkpt>
      <trkpt lat="48.70233" lon="7.32184">
        <ele>382.2</ele>
        <time>2020-11-28T10:52:21Z</time>
      </trkpt>
      <trkpt lat="48.70218" lon="7.32196">
        <ele>381.6</ele>
        <time>2020-11-28T10:52:24Z</time>
      </trkpt>
      <trkpt lat="48.70209" lon="7.32203">
        <ele>381</ele>
        <time>2020-11-28T10:52:26Z</time>
      </trkpt>
      <trkpt lat="48.702" lon="7.32212">
        <ele>381.2</ele>
        <time>2020-11-28T10:52:28Z</time>
      </trkpt>
      <trkpt lat="48.70193" lon="7.32221">
        <ele>381.3</ele>
        <time>2020-11-28T10:52:30Z</time>
      </trkpt>
      <trkpt lat="48.70181" lon="7.32235">
        <ele>381.8</ele>
        <time>2020-11-28T10:52:33Z</time>
      </trkpt>
      <trkpt lat="48.70174" lon="7.32241">
        <ele>382</ele>
        <time>2020-11-28T10:52:35Z</time>
      </trkpt>
      <trkpt lat="48.70166" lon="7.3225">
        <ele>382.1</ele>
        <time>2020-11-28T10:52:37Z</time>
      </trkpt>
      <trkpt lat="48.70157" lon="7.32257">
        <ele>382.6</ele>
        <time>2020-11-28T10:52:39Z</time>
      </trkpt>
      <trkpt lat="48.70149" lon="7.32263">
        <ele>383.9</ele>
        <time>2020-11-28T10:52:41Z</time>
      </trkpt>
      <trkpt lat="48.70136" lon="7.32276">
        <ele>385.8</ele>
        <time>2020-11-28T10:52:44Z</time>
      </trkpt>
      <trkpt lat="48.70123" lon="7.3229">
        <ele>387</ele>
        <time>2020-11-28T10:52:47Z</time>
      </trkpt>
      <trkpt lat="48.70113" lon="7.32298">
        <ele>387.8</ele>
        <time>2020-11-28T10:52:49Z</time>
      </trkpt>
      <trkpt lat="48.70104" lon="7.32307">
        <ele>388.8</ele>
        <time>2020-11-28T10:52:51Z</time>
      </trkpt>
      <trkpt lat="48.70094" lon="7.32315">
        <ele>389.9</ele>
        <time>2020-11-28T10:52:53Z</time>
      </trkpt>
      <trkpt lat="48.70084" lon="7.32324">
        <ele>390.7</ele>
        <time>2020-11-28T10:52:55Z</time>
      </trkpt>
      <trkpt lat="48.70075" lon="7.32334">
        <ele>391.8</ele>
        <time>2020-11-28T10:52:57Z</time>
      </trkpt>
      <trkpt lat="48.70062" lon="7.32351">
        <ele>392.9</ele>
        <time>2020-11-28T10:53:00Z</time>
      </trkpt>
      <trkpt lat="48.70055" lon="7.32359">
        <ele>393.4</ele>
        <time>2020-11-28T10:53:02Z</time>
      </trkpt>
      <trkpt lat="48.70046" lon="7.32366">
        <ele>393.9</ele>
        <time>2020-11-28T10:53:04Z</time>
      </trkpt>
      <trkpt lat="48.70039" lon="7.32373">
        <ele>394.9</ele>
        <time>2020-11-28T10:53:06Z</time>
      </trkpt>
      <trkpt lat="48.70032" lon="7.32385">
        <ele>395.2</ele>
        <time>2020-11-28T10:53:08Z</time>
      </trkpt>
      <trkpt lat="48.70021" lon="7.32397">
        <ele>395.9</ele>
        <time>2020-11-28T10:53:11Z</time>
      </trkpt>
      <trkpt lat="48.70009" lon="7.3241">
        <ele>395.8</ele>
        <time>2020-11-28T10:53:14Z</time>
      </trkpt>
      <trkpt lat="48.70001" lon="7.32419">
        <ele>395.6</ele>
        <time>2020-11-28T10:53:16Z</time>
      </trkpt>
      <trkpt lat="48.6999" lon="7.32433">
        <ele>395.3</ele>
        <time>2020-11-28T10:53:19Z</time>
      </trkpt>
      <trkpt lat="48.6998" lon="7.32445">
        <ele>394.5</ele>
        <time>2020-11-28T10:53:22Z</time>
      </trkpt>
      <trkpt lat="48.69974" lon="7.32452">
        <ele>394</ele>
        <time>2020-11-28T10:53:24Z</time>
      </trkpt>
      <trkpt lat="48.69969" lon="7.32461">
        <ele>393.5</ele>
        <time>2020-11-28T10:53:26Z</time>
      </trkpt>
      <trkpt lat="48.69963" lon="7.32473">
        <ele>393.4</ele>
        <time>2020-11-28T10:53:28Z</time>
      </trkpt>
      <trkpt lat="48.69955" lon="7.32484">
        <ele>393.1</ele>
        <time>2020-11-28T10:53:30Z</time>
      </trkpt>
      <trkpt lat="48.69946" lon="7.32494">
        <ele>393.5</ele>
        <time>2020-11-28T10:53:32Z</time>
      </trkpt>
      <trkpt lat="48.69936" lon="7.32506">
        <ele>393.5</ele>
        <time>2020-11-28T10:53:34Z</time>
      </trkpt>
      <trkpt lat="48.69927" lon="7.32518">
        <ele>393.5</ele>
        <time>2020-11-28T10:53:36Z</time>
      </trkpt>
      <trkpt lat="48.69915" lon="7.32535">
        <ele>393.8</ele>
        <time>2020-11-28T10:53:39Z</time>
      </trkpt>
      <trkpt lat="48.69898" lon="7.32555">
        <ele>393.9</ele>
        <time>2020-11-28T10:53:42Z</time>
      </trkpt>
      <trkpt lat="48.69884" lon="7.32573">
        <ele>394.2</ele>
        <time>2020-11-28T10:53:44Z</time>
      </trkpt>
      <trkpt lat="48.6987" lon="7.3259">
        <ele>393.6</ele>
        <time>2020-11-28T10:53:46Z</time>
      </trkpt>
      <trkpt lat="48.69855" lon="7.32604">
        <ele>392.9</ele>
        <time>2020-11-28T10:53:48Z</time>
      </trkpt>
      <trkpt lat="48.6984" lon="7.32615">
        <ele>392.4</ele>
        <time>2020-11-28T10:53:50Z</time>
      </trkpt>
      <trkpt lat="48.69824" lon="7.32625">
        <ele>392.2</ele>
        <time>2020-11-28T10:53:52Z</time>
      </trkpt>
      <trkpt lat="48.69808" lon="7.32634">
        <ele>391.8</ele>
        <time>2020-11-28T10:53:54Z</time>
      </trkpt>
      <trkpt lat="48.69794" lon="7.32643">
        <ele>391</ele>
        <time>2020-11-28T10:53:56Z</time>
      </trkpt>
      <trkpt lat="48.69779" lon="7.3265">
        <ele>390.6</ele>
        <time>2020-11-28T10:53:58Z</time>
      </trkpt>
      <trkpt lat="48.69764" lon="7.32656">
        <ele>390.7</ele>
        <time>2020-11-28T10:54:00Z</time>
      </trkpt>
      <trkpt lat="48.69754" lon="7.3266">
        <ele>390.2</ele>
        <time>2020-11-28T10:54:02Z</time>
      </trkpt>
      <trkpt lat="48.69749" lon="7.32663">
        <ele>390.3</ele>
        <time>2020-11-28T10:54:04Z</time>
      </trkpt>
      <trkpt lat="48.69748" lon="7.32669">
        <ele>388.4</ele>
        <time>2020-11-28T10:54:10Z</time>
      </trkpt>
      <trkpt lat="48.69742" lon="7.32667">
        <ele>384.6</ele>
        <time>2020-11-28T10:54:27Z</time>
      </trkpt>
      <trkpt lat="48.69735" lon="7.32663">
        <ele>384.1</ele>
        <time>2020-11-28T10:54:29Z</time>
      </trkpt>
      <trkpt lat="48.69726" lon="7.3266">
        <ele>384.5</ele>
        <time>2020-11-28T10:54:31Z</time>
      </trkpt>
      <trkpt lat="48.69716" lon="7.32657">
        <ele>385.1</ele>
        <time>2020-11-28T10:54:33Z</time>
      </trkpt>
      <trkpt lat="48.69705" lon="7.32656">
        <ele>384.6</ele>
        <time>2020-11-28T10:54:35Z</time>
      </trkpt>
      <trkpt lat="48.69695" lon="7.32656">
        <ele>384.1</ele>
        <time>2020-11-28T10:54:37Z</time>
      </trkpt>
      <trkpt lat="48.69683" lon="7.32654">
        <ele>383.3</ele>
        <time>2020-11-28T10:54:39Z</time>
      </trkpt>
      <trkpt lat="48.69672" lon="7.32651">
        <ele>382</ele>
        <time>2020-11-28T10:54:41Z</time>
      </trkpt>
      <trkpt lat="48.6966" lon="7.32646">
        <ele>381.1</ele>
        <time>2020-11-28T10:54:43Z</time>
      </trkpt>
      <trkpt lat="48.69645" lon="7.32644">
        <ele>380.5</ele>
        <time>2020-11-28T10:54:45Z</time>
      </trkpt>
      <trkpt lat="48.69631" lon="7.32644">
        <ele>380.2</ele>
        <time>2020-11-28T10:54:47Z</time>
      </trkpt>
      <trkpt lat="48.69615" lon="7.32643">
        <ele>379.7</ele>
        <time>2020-11-28T10:54:49Z</time>
      </trkpt>
      <trkpt lat="48.69601" lon="7.32638">
        <ele>379.7</ele>
        <time>2020-11-28T10:54:51Z</time>
      </trkpt>
      <trkpt lat="48.69589" lon="7.32633">
        <ele>379.8</ele>
        <time>2020-11-28T10:54:53Z</time>
      </trkpt>
      <trkpt lat="48.69577" lon="7.3263">
        <ele>380.3</ele>
        <time>2020-11-28T10:54:55Z</time>
      </trkpt>
      <trkpt lat="48.69567" lon="7.32627">
        <ele>380.9</ele>
        <time>2020-11-28T10:54:57Z</time>
      </trkpt>
      <trkpt lat="48.69558" lon="7.32625">
        <ele>381.5</ele>
        <time>2020-11-28T10:54:59Z</time>
      </trkpt>
      <trkpt lat="48.69552" lon="7.32628">
        <ele>382.6</ele>
        <time>2020-11-28T10:55:01Z</time>
      </trkpt>
      <trkpt lat="48.69547" lon="7.32632">
        <ele>382.9</ele>
        <time>2020-11-28T10:55:03Z</time>
      </trkpt>
      <trkpt lat="48.6954" lon="7.32634">
        <ele>383.4</ele>
        <time>2020-11-28T10:55:05Z</time>
      </trkpt>
      <trkpt lat="48.69533" lon="7.32635">
        <ele>383.6</ele>
        <time>2020-11-28T10:55:07Z</time>
      </trkpt>
      <trkpt lat="48.69525" lon="7.32636">
        <ele>383.4</ele>
        <time>2020-11-28T10:55:09Z</time>
      </trkpt>
      <trkpt lat="48.69517" lon="7.32635">
        <ele>383.4</ele>
        <time>2020-11-28T10:55:11Z</time>
      </trkpt>
      <trkpt lat="48.69509" lon="7.32631">
        <ele>383.5</ele>
        <time>2020-11-28T10:55:13Z</time>
      </trkpt>
      <trkpt lat="48.69501" lon="7.32627">
        <ele>383</ele>
        <time>2020-11-28T10:55:15Z</time>
      </trkpt>
      <trkpt lat="48.69494" lon="7.32624">
        <ele>382.9</ele>
        <time>2020-11-28T10:55:17Z</time>
      </trkpt>
      <trkpt lat="48.69488" lon="7.32619">
        <ele>382.6</ele>
        <time>2020-11-28T10:55:19Z</time>
      </trkpt>
      <trkpt lat="48.6948" lon="7.32614">
        <ele>382.1</ele>
        <time>2020-11-28T10:55:21Z</time>
      </trkpt>
      <trkpt lat="48.69472" lon="7.32611">
        <ele>382.2</ele>
        <time>2020-11-28T10:55:23Z</time>
      </trkpt>
      <trkpt lat="48.69465" lon="7.32609">
        <ele>382.1</ele>
        <time>2020-11-28T10:55:25Z</time>
      </trkpt>
      <trkpt lat="48.69456" lon="7.3261">
        <ele>382.2</ele>
        <time>2020-11-28T10:55:27Z</time>
      </trkpt>
      <trkpt lat="48.69448" lon="7.32612">
        <ele>383.3</ele>
        <time>2020-11-28T10:55:29Z</time>
      </trkpt>
      <trkpt lat="48.6944" lon="7.32615">
        <ele>384.7</ele>
        <time>2020-11-28T10:55:31Z</time>
      </trkpt>
      <trkpt lat="48.69433" lon="7.32618">
        <ele>386.5</ele>
        <time>2020-11-28T10:55:33Z</time>
      </trkpt>
      <trkpt lat="48.69427" lon="7.3262">
        <ele>388.6</ele>
        <time>2020-11-28T10:55:35Z</time>
      </trkpt>
      <trkpt lat="48.6942" lon="7.32621">
        <ele>389.8</ele>
        <time>2020-11-28T10:55:37Z</time>
      </trkpt>
      <trkpt lat="48.69414" lon="7.32622">
        <ele>391</ele>
        <time>2020-11-28T10:55:39Z</time>
      </trkpt>
      <trkpt lat="48.69406" lon="7.32621">
        <ele>392.1</ele>
        <time>2020-11-28T10:55:41Z</time>
      </trkpt>
      <trkpt lat="48.69399" lon="7.32619">
        <ele>392.7</ele>
        <time>2020-11-28T10:55:43Z</time>
      </trkpt>
      <trkpt lat="48.69392" lon="7.32618">
        <ele>392.5</ele>
        <time>2020-11-28T10:55:45Z</time>
      </trkpt>
      <trkpt lat="48.69384" lon="7.32616">
        <ele>392.6</ele>
        <time>2020-11-28T10:55:47Z</time>
      </trkpt>
      <trkpt lat="48.69376" lon="7.32614">
        <ele>393.2</ele>
        <time>2020-11-28T10:55:49Z</time>
      </trkpt>
      <trkpt lat="48.6937" lon="7.32613">
        <ele>393.2</ele>
        <time>2020-11-28T10:55:51Z</time>
      </trkpt>
      <trkpt lat="48.69363" lon="7.32613">
        <ele>393.1</ele>
        <time>2020-11-28T10:55:53Z</time>
      </trkpt>
      <trkpt lat="48.69356" lon="7.32614">
        <ele>393.2</ele>
        <time>2020-11-28T10:55:55Z</time>
      </trkpt>
      <trkpt lat="48.69348" lon="7.32613">
        <ele>393</ele>
        <time>2020-11-28T10:55:57Z</time>
      </trkpt>
      <trkpt lat="48.69341" lon="7.3261">
        <ele>393.8</ele>
        <time>2020-11-28T10:55:59Z</time>
      </trkpt>
      <trkpt lat="48.69333" lon="7.32607">
        <ele>394.1</ele>
        <time>2020-11-28T10:56:01Z</time>
      </trkpt>
      <trkpt lat="48.69325" lon="7.32603">
        <ele>394.7</ele>
        <time>2020-11-28T10:56:03Z</time>
      </trkpt>
      <trkpt lat="48.69317" lon="7.32599">
        <ele>395.3</ele>
        <time>2020-11-28T10:56:05Z</time>
      </trkpt>
      <trkpt lat="48.6931" lon="7.32596">
        <ele>396.1</ele>
        <time>2020-11-28T10:56:07Z</time>
      </trkpt>
      <trkpt lat="48.69303" lon="7.32592">
        <ele>396.9</ele>
        <time>2020-11-28T10:56:09Z</time>
      </trkpt>
      <trkpt lat="48.69297" lon="7.32585">
        <ele>397.6</ele>
        <time>2020-11-28T10:56:11Z</time>
      </trkpt>
      <trkpt lat="48.69291" lon="7.32579">
        <ele>398.1</ele>
        <time>2020-11-28T10:56:13Z</time>
      </trkpt>
      <trkpt lat="48.69284" lon="7.32573">
        <ele>398.7</ele>
        <time>2020-11-28T10:56:15Z</time>
      </trkpt>
      <trkpt lat="48.69278" lon="7.32567">
        <ele>399.3</ele>
        <time>2020-11-28T10:56:17Z</time>
      </trkpt>
      <trkpt lat="48.69272" lon="7.32561">
        <ele>399.7</ele>
        <time>2020-11-28T10:56:19Z</time>
      </trkpt>
      <trkpt lat="48.69267" lon="7.32556">
        <ele>399.9</ele>
        <time>2020-11-28T10:56:21Z</time>
      </trkpt>
      <trkpt lat="48.69262" lon="7.3255">
        <ele>400.5</ele>
        <time>2020-11-28T10:56:23Z</time>
      </trkpt>
      <trkpt lat="48.69257" lon="7.32544">
        <ele>401</ele>
        <time>2020-11-28T10:56:25Z</time>
      </trkpt>
      <trkpt lat="48.69252" lon="7.32537">
        <ele>401.4</ele>
        <time>2020-11-28T10:56:27Z</time>
      </trkpt>
      <trkpt lat="48.69247" lon="7.3253">
        <ele>401.5</ele>
        <time>2020-11-28T10:56:29Z</time>
      </trkpt>
      <trkpt lat="48.69241" lon="7.32524">
        <ele>401.6</ele>
        <time>2020-11-28T10:56:31Z</time>
      </trkpt>
      <trkpt lat="48.69237" lon="7.32518">
        <ele>401.2</ele>
        <time>2020-11-28T10:56:33Z</time>
      </trkpt>
      <trkpt lat="48.69231" lon="7.32512">
        <ele>401.5</ele>
        <time>2020-11-28T10:56:35Z</time>
      </trkpt>
      <trkpt lat="48.69226" lon="7.32504">
        <ele>402.2</ele>
        <time>2020-11-28T10:56:37Z</time>
      </trkpt>
      <trkpt lat="48.69221" lon="7.32497">
        <ele>403.3</ele>
        <time>2020-11-28T10:56:39Z</time>
      </trkpt>
      <trkpt lat="48.69217" lon="7.3249">
        <ele>404.2</ele>
        <time>2020-11-28T10:56:41Z</time>
      </trkpt>
      <trkpt lat="48.69213" lon="7.32483">
        <ele>405.9</ele>
        <time>2020-11-28T10:56:43Z</time>
      </trkpt>
      <trkpt lat="48.6921" lon="7.32475">
        <ele>406.7</ele>
        <time>2020-11-28T10:56:45Z</time>
      </trkpt>
      <trkpt lat="48.69207" lon="7.32466">
        <ele>407.8</ele>
        <time>2020-11-28T10:56:47Z</time>
      </trkpt>
      <trkpt lat="48.69203" lon="7.32459">
        <ele>408.6</ele>
        <time>2020-11-28T10:56:49Z</time>
      </trkpt>
      <trkpt lat="48.69199" lon="7.32453">
        <ele>408.9</ele>
        <time>2020-11-28T10:56:51Z</time>
      </trkpt>
      <trkpt lat="48.69196" lon="7.32446">
        <ele>409.1</ele>
        <time>2020-11-28T10:56:53Z</time>
      </trkpt>
      <trkpt lat="48.69193" lon="7.32441">
        <ele>409.2</ele>
        <time>2020-11-28T10:56:55Z</time>
      </trkpt>
      <trkpt lat="48.69189" lon="7.32435">
        <ele>409.3</ele>
        <time>2020-11-28T10:56:57Z</time>
      </trkpt>
      <trkpt lat="48.69185" lon="7.3243">
        <ele>409.1</ele>
        <time>2020-11-28T10:56:59Z</time>
      </trkpt>
      <trkpt lat="48.69181" lon="7.32422">
        <ele>409.7</ele>
        <time>2020-11-28T10:57:01Z</time>
      </trkpt>
      <trkpt lat="48.69176" lon="7.32415">
        <ele>410</ele>
        <time>2020-11-28T10:57:03Z</time>
      </trkpt>
      <trkpt lat="48.6917" lon="7.32409">
        <ele>411.1</ele>
        <time>2020-11-28T10:57:05Z</time>
      </trkpt>
      <trkpt lat="48.69165" lon="7.32404">
        <ele>412.1</ele>
        <time>2020-11-28T10:57:07Z</time>
      </trkpt>
      <trkpt lat="48.6916" lon="7.32397">
        <ele>412.9</ele>
        <time>2020-11-28T10:57:09Z</time>
      </trkpt>
      <trkpt lat="48.69155" lon="7.32391">
        <ele>413.9</ele>
        <time>2020-11-28T10:57:11Z</time>
      </trkpt>
      <trkpt lat="48.69148" lon="7.32385">
        <ele>414.1</ele>
        <time>2020-11-28T10:57:13Z</time>
      </trkpt>
      <trkpt lat="48.69143" lon="7.32379">
        <ele>415.6</ele>
        <time>2020-11-28T10:57:15Z</time>
      </trkpt>
      <trkpt lat="48.69137" lon="7.32374">
        <ele>415.9</ele>
        <time>2020-11-28T10:57:17Z</time>
      </trkpt>
      <trkpt lat="48.69132" lon="7.32369">
        <ele>416.5</ele>
        <time>2020-11-28T10:57:19Z</time>
      </trkpt>
      <trkpt lat="48.69127" lon="7.32363">
        <ele>417.6</ele>
        <time>2020-11-28T10:57:21Z</time>
      </trkpt>
      <trkpt lat="48.69122" lon="7.32358">
        <ele>418.1</ele>
        <time>2020-11-28T10:57:23Z</time>
      </trkpt>
      <trkpt lat="48.69114" lon="7.3235">
        <ele>419</ele>
        <time>2020-11-28T10:57:26Z</time>
      </trkpt>
      <trkpt lat="48.69108" lon="7.32347">
        <ele>419.6</ele>
        <time>2020-11-28T10:57:28Z</time>
      </trkpt>
      <trkpt lat="48.69102" lon="7.32343">
        <ele>419.7</ele>
        <time>2020-11-28T10:57:30Z</time>
      </trkpt>
      <trkpt lat="48.69098" lon="7.32339">
        <ele>419</ele>
        <time>2020-11-28T10:57:32Z</time>
      </trkpt>
      <trkpt lat="48.69093" lon="7.32334">
        <ele>418.4</ele>
        <time>2020-11-28T10:57:34Z</time>
      </trkpt>
      <trkpt lat="48.69088" lon="7.32328">
        <ele>377.7</ele>
        <time>2020-11-28T10:57:36Z</time>
      </trkpt>
      <trkpt lat="48.69082" lon="7.32322">
        <ele>372.3</ele>
        <time>2020-11-28T10:57:38Z</time>
      </trkpt>
      <trkpt lat="48.69077" lon="7.32316">
        <ele>370.3</ele>
        <time>2020-11-28T10:57:40Z</time>
      </trkpt>
      <trkpt lat="48.69072" lon="7.3231">
        <ele>373.3</ele>
        <time>2020-11-28T10:57:42Z</time>
      </trkpt>
      <trkpt lat="48.69068" lon="7.32304">
        <ele>380.3</ele>
        <time>2020-11-28T10:57:44Z</time>
      </trkpt>
      <trkpt lat="48.69059" lon="7.32296">
        <ele>389</ele>
        <time>2020-11-28T10:57:47Z</time>
      </trkpt>
      <trkpt lat="48.69053" lon="7.32291">
        <ele>393.6</ele>
        <time>2020-11-28T10:57:49Z</time>
      </trkpt>
      <trkpt lat="48.69047" lon="7.32286">
        <ele>398.3</ele>
        <time>2020-11-28T10:57:51Z</time>
      </trkpt>
      <trkpt lat="48.69041" lon="7.32281">
        <ele>403.2</ele>
        <time>2020-11-28T10:57:53Z</time>
      </trkpt>
      <trkpt lat="48.69035" lon="7.32276">
        <ele>406.2</ele>
        <time>2020-11-28T10:57:55Z</time>
      </trkpt>
      <trkpt lat="48.6903" lon="7.32272">
        <ele>409.1</ele>
        <time>2020-11-28T10:57:57Z</time>
      </trkpt>
      <trkpt lat="48.69025" lon="7.32268">
        <ele>411.5</ele>
        <time>2020-11-28T10:57:59Z</time>
      </trkpt>
      <trkpt lat="48.6902" lon="7.32262">
        <ele>413.7</ele>
        <time>2020-11-28T10:58:01Z</time>
      </trkpt>
      <trkpt lat="48.69015" lon="7.32256">
        <ele>415</ele>
        <time>2020-11-28T10:58:03Z</time>
      </trkpt>
      <trkpt lat="48.69011" lon="7.32249">
        <ele>416.7</ele>
        <time>2020-11-28T10:58:05Z</time>
      </trkpt>
      <trkpt lat="48.69007" lon="7.32243">
        <ele>417.6</ele>
        <time>2020-11-28T10:58:07Z</time>
      </trkpt>
      <trkpt lat="48.69001" lon="7.32238">
        <ele>419</ele>
        <time>2020-11-28T10:58:09Z</time>
      </trkpt>
      <trkpt lat="48.68995" lon="7.32233">
        <ele>421</ele>
        <time>2020-11-28T10:58:11Z</time>
      </trkpt>
      <trkpt lat="48.68989" lon="7.32227">
        <ele>422.6</ele>
        <time>2020-11-28T10:58:13Z</time>
      </trkpt>
      <trkpt lat="48.68982" lon="7.3222">
        <ele>423.6</ele>
        <time>2020-11-28T10:58:15Z</time>
      </trkpt>
      <trkpt lat="48.68976" lon="7.32214">
        <ele>424.7</ele>
        <time>2020-11-28T10:58:17Z</time>
      </trkpt>
      <trkpt lat="48.6897" lon="7.32207">
        <ele>425.4</ele>
        <time>2020-11-28T10:58:19Z</time>
      </trkpt>
      <trkpt lat="48.68964" lon="7.32202">
        <ele>425.8</ele>
        <time>2020-11-28T10:58:21Z</time>
      </trkpt>
      <trkpt lat="48.68958" lon="7.32197">
        <ele>425.5</ele>
        <time>2020-11-28T10:58:23Z</time>
      </trkpt>
      <trkpt lat="48.68953" lon="7.32192">
        <ele>425.4</ele>
        <time>2020-11-28T10:58:25Z</time>
      </trkpt>
      <trkpt lat="48.68949" lon="7.32186">
        <ele>425.8</ele>
        <time>2020-11-28T10:58:27Z</time>
      </trkpt>
      <trkpt lat="48.68943" lon="7.3218">
        <ele>425.6</ele>
        <time>2020-11-28T10:58:29Z</time>
      </trkpt>
      <trkpt lat="48.68938" lon="7.32176">
        <ele>425.6</ele>
        <time>2020-11-28T10:58:31Z</time>
      </trkpt>
      <trkpt lat="48.68932" lon="7.32169">
        <ele>425.2</ele>
        <time>2020-11-28T10:58:33Z</time>
      </trkpt>
      <trkpt lat="48.68927" lon="7.32163">
        <ele>424.9</ele>
        <time>2020-11-28T10:58:35Z</time>
      </trkpt>
      <trkpt lat="48.68921" lon="7.32156">
        <ele>424.9</ele>
        <time>2020-11-28T10:58:37Z</time>
      </trkpt>
      <trkpt lat="48.68916" lon="7.32148">
        <ele>425</ele>
        <time>2020-11-28T10:58:39Z</time>
      </trkpt>
      <trkpt lat="48.68911" lon="7.32141">
        <ele>425.5</ele>
        <time>2020-11-28T10:58:41Z</time>
      </trkpt>
      <trkpt lat="48.68907" lon="7.32134">
        <ele>425.2</ele>
        <time>2020-11-28T10:58:43Z</time>
      </trkpt>
      <trkpt lat="48.68902" lon="7.32127">
        <ele>425.2</ele>
        <time>2020-11-28T10:58:45Z</time>
      </trkpt>
      <trkpt lat="48.68897" lon="7.32121">
        <ele>425.3</ele>
        <time>2020-11-28T10:58:47Z</time>
      </trkpt>
      <trkpt lat="48.68892" lon="7.32116">
        <ele>425.4</ele>
        <time>2020-11-28T10:58:49Z</time>
      </trkpt>
      <trkpt lat="48.68887" lon="7.3211">
        <ele>425.3</ele>
        <time>2020-11-28T10:58:51Z</time>
      </trkpt>
      <trkpt lat="48.68881" lon="7.32104">
        <ele>425.8</ele>
        <time>2020-11-28T10:58:53Z</time>
      </trkpt>
      <trkpt lat="48.68876" lon="7.32097">
        <ele>426.8</ele>
        <time>2020-11-28T10:58:55Z</time>
      </trkpt>
      <trkpt lat="48.6887" lon="7.3209">
        <ele>427.9</ele>
        <time>2020-11-28T10:58:57Z</time>
      </trkpt>
      <trkpt lat="48.68865" lon="7.32082">
        <ele>429.1</ele>
        <time>2020-11-28T10:58:59Z</time>
      </trkpt>
      <trkpt lat="48.68859" lon="7.32075">
        <ele>430</ele>
        <time>2020-11-28T10:59:01Z</time>
      </trkpt>
      <trkpt lat="48.68855" lon="7.32068">
        <ele>393.4</ele>
        <time>2020-11-28T10:59:03Z</time>
      </trkpt>
      <trkpt lat="48.6885" lon="7.32059">
        <ele>389.4</ele>
        <time>2020-11-28T10:59:05Z</time>
      </trkpt>
      <trkpt lat="48.68845" lon="7.3205">
        <ele>385.9</ele>
        <time>2020-11-28T10:59:07Z</time>
      </trkpt>
      <trkpt lat="48.6884" lon="7.32041">
        <ele>385.8</ele>
        <time>2020-11-28T10:59:09Z</time>
      </trkpt>
      <trkpt lat="48.68832" lon="7.32031">
        <ele>392.4</ele>
        <time>2020-11-28T10:59:11Z</time>
      </trkpt>
      <trkpt lat="48.68827" lon="7.32022">
        <ele>399.6</ele>
        <time>2020-11-28T10:59:13Z</time>
      </trkpt>
      <trkpt lat="48.68822" lon="7.32016">
        <ele>407.8</ele>
        <time>2020-11-28T10:59:15Z</time>
      </trkpt>
      <trkpt lat="48.68816" lon="7.3201">
        <ele>414.6</ele>
        <time>2020-11-28T10:59:17Z</time>
      </trkpt>
      <trkpt lat="48.68811" lon="7.32004">
        <ele>420.6</ele>
        <time>2020-11-28T10:59:19Z</time>
      </trkpt>
      <trkpt lat="48.68805" lon="7.31998">
        <ele>425.4</ele>
        <time>2020-11-28T10:59:21Z</time>
      </trkpt>
      <trkpt lat="48.68801" lon="7.31992">
        <ele>428.7</ele>
        <time>2020-11-28T10:59:23Z</time>
      </trkpt>
      <trkpt lat="48.68796" lon="7.31985">
        <ele>431.5</ele>
        <time>2020-11-28T10:59:25Z</time>
      </trkpt>
      <trkpt lat="48.68793" lon="7.31978">
        <ele>433.9</ele>
        <time>2020-11-28T10:59:27Z</time>
      </trkpt>
      <trkpt lat="48.6879" lon="7.31971">
        <ele>435.5</ele>
        <time>2020-11-28T10:59:29Z</time>
      </trkpt>
      <trkpt lat="48.68787" lon="7.31963">
        <ele>436.5</ele>
        <time>2020-11-28T10:59:31Z</time>
      </trkpt>
      <trkpt lat="48.68784" lon="7.31956">
        <ele>438.2</ele>
        <time>2020-11-28T10:59:33Z</time>
      </trkpt>
      <trkpt lat="48.6878" lon="7.31949">
        <ele>439.3</ele>
        <time>2020-11-28T10:59:35Z</time>
      </trkpt>
      <trkpt lat="48.68776" lon="7.31943">
        <ele>440.1</ele>
        <time>2020-11-28T10:59:37Z</time>
      </trkpt>
      <trkpt lat="48.68772" lon="7.31936">
        <ele>440.9</ele>
        <time>2020-11-28T10:59:39Z</time>
      </trkpt>
      <trkpt lat="48.68767" lon="7.3193">
        <ele>441.4</ele>
        <time>2020-11-28T10:59:41Z</time>
      </trkpt>
      <trkpt lat="48.68763" lon="7.31924">
        <ele>442.8</ele>
        <time>2020-11-28T10:59:43Z</time>
      </trkpt>
      <trkpt lat="48.6876" lon="7.31918">
        <ele>443.6</ele>
        <time>2020-11-28T10:59:45Z</time>
      </trkpt>
      <trkpt lat="48.68756" lon="7.31912">
        <ele>443.9</ele>
        <time>2020-11-28T10:59:47Z</time>
      </trkpt>
      <trkpt lat="48.68753" lon="7.31905">
        <ele>443.2</ele>
        <time>2020-11-28T10:59:49Z</time>
      </trkpt>
      <trkpt lat="48.68749" lon="7.31898">
        <ele>443</ele>
        <time>2020-11-28T10:59:51Z</time>
      </trkpt>
      <trkpt lat="48.68745" lon="7.31891">
        <ele>442.8</ele>
        <time>2020-11-28T10:59:53Z</time>
      </trkpt>
      <trkpt lat="48.68741" lon="7.3188">
        <ele>443.2</ele>
        <time>2020-11-28T10:59:56Z</time>
      </trkpt>
      <trkpt lat="48.68738" lon="7.31873">
        <ele>443.3</ele>
        <time>2020-11-28T10:59:58Z</time>
      </trkpt>
      <trkpt lat="48.68734" lon="7.31865">
        <ele>443.1</ele>
        <time>2020-11-28T11:00:00Z</time>
      </trkpt>
      <trkpt lat="48.6873" lon="7.31857">
        <ele>442.9</ele>
        <time>2020-11-28T11:00:02Z</time>
      </trkpt>
      <trkpt lat="48.68727" lon="7.31849">
        <ele>443</ele>
        <time>2020-11-28T11:00:04Z</time>
      </trkpt>
      <trkpt lat="48.68723" lon="7.31841">
        <ele>443.2</ele>
        <time>2020-11-28T11:00:06Z</time>
      </trkpt>
      <trkpt lat="48.68719" lon="7.31834">
        <ele>444.1</ele>
        <time>2020-11-28T11:00:08Z</time>
      </trkpt>
      <trkpt lat="48.68714" lon="7.31826">
        <ele>444.2</ele>
        <time>2020-11-28T11:00:10Z</time>
      </trkpt>
      <trkpt lat="48.68709" lon="7.31813">
        <ele>444.2</ele>
        <time>2020-11-28T11:00:13Z</time>
      </trkpt>
      <trkpt lat="48.68706" lon="7.31805">
        <ele>444.5</ele>
        <time>2020-11-28T11:00:15Z</time>
      </trkpt>
      <trkpt lat="48.68703" lon="7.31797">
        <ele>444.1</ele>
        <time>2020-11-28T11:00:17Z</time>
      </trkpt>
      <trkpt lat="48.687" lon="7.31789">
        <ele>443.9</ele>
        <time>2020-11-28T11:00:19Z</time>
      </trkpt>
      <trkpt lat="48.68697" lon="7.3178">
        <ele>444.1</ele>
        <time>2020-11-28T11:00:21Z</time>
      </trkpt>
      <trkpt lat="48.68694" lon="7.31771">
        <ele>444.8</ele>
        <time>2020-11-28T11:00:23Z</time>
      </trkpt>
      <trkpt lat="48.6869" lon="7.31761">
        <ele>445.6</ele>
        <time>2020-11-28T11:00:25Z</time>
      </trkpt>
      <trkpt lat="48.68688" lon="7.31752">
        <ele>446.4</ele>
        <time>2020-11-28T11:00:27Z</time>
      </trkpt>
      <trkpt lat="48.68685" lon="7.31741">
        <ele>446.9</ele>
        <time>2020-11-28T11:00:29Z</time>
      </trkpt>
      <trkpt lat="48.68681" lon="7.31732">
        <ele>447.5</ele>
        <time>2020-11-28T11:00:31Z</time>
      </trkpt>
      <trkpt lat="48.68677" lon="7.31722">
        <ele>447.9</ele>
        <time>2020-11-28T11:00:33Z</time>
      </trkpt>
      <trkpt lat="48.68674" lon="7.31713">
        <ele>448.2</ele>
        <time>2020-11-28T11:00:35Z</time>
      </trkpt>
      <trkpt lat="48.68671" lon="7.31703">
        <ele>448.8</ele>
        <time>2020-11-28T11:00:37Z</time>
      </trkpt>
      <trkpt lat="48.68669" lon="7.31694">
        <ele>449.5</ele>
        <time>2020-11-28T11:00:39Z</time>
      </trkpt>
      <trkpt lat="48.68666" lon="7.31684">
        <ele>450.3</ele>
        <time>2020-11-28T11:00:41Z</time>
      </trkpt>
      <trkpt lat="48.68664" lon="7.31677">
        <ele>450.5</ele>
        <time>2020-11-28T11:00:43Z</time>
      </trkpt>
      <trkpt lat="48.68659" lon="7.3167">
        <ele>450.6</ele>
        <time>2020-11-28T11:00:45Z</time>
      </trkpt>
      <trkpt lat="48.68653" lon="7.31663">
        <ele>450.3</ele>
        <time>2020-11-28T11:00:47Z</time>
      </trkpt>
      <trkpt lat="48.68647" lon="7.31655">
        <ele>450</ele>
        <time>2020-11-28T11:00:49Z</time>
      </trkpt>
      <trkpt lat="48.68642" lon="7.31648">
        <ele>450</ele>
        <time>2020-11-28T11:00:51Z</time>
      </trkpt>
      <trkpt lat="48.68638" lon="7.31641">
        <ele>449.8</ele>
        <time>2020-11-28T11:00:53Z</time>
      </trkpt>
      <trkpt lat="48.68635" lon="7.31635">
        <ele>449.9</ele>
        <time>2020-11-28T11:00:55Z</time>
      </trkpt>
      <trkpt lat="48.68634" lon="7.31627">
        <ele>449.4</ele>
        <time>2020-11-28T11:00:58Z</time>
      </trkpt>
      <trkpt lat="48.6863" lon="7.3162">
        <ele>449.5</ele>
        <time>2020-11-28T11:01:01Z</time>
      </trkpt>
      <trkpt lat="48.68628" lon="7.31612">
        <ele>450.4</ele>
        <time>2020-11-28T11:01:03Z</time>
      </trkpt>
      <trkpt lat="48.68627" lon="7.31604">
        <ele>451</ele>
        <time>2020-11-28T11:01:05Z</time>
      </trkpt>
      <trkpt lat="48.68624" lon="7.31597">
        <ele>451.8</ele>
        <time>2020-11-28T11:01:07Z</time>
      </trkpt>
      <trkpt lat="48.68622" lon="7.31589">
        <ele>453.3</ele>
        <time>2020-11-28T11:01:09Z</time>
      </trkpt>
      <trkpt lat="48.68619" lon="7.31582">
        <ele>454</ele>
        <time>2020-11-28T11:01:11Z</time>
      </trkpt>
      <trkpt lat="48.68615" lon="7.31578">
        <ele>454.8</ele>
        <time>2020-11-28T11:01:14Z</time>
      </trkpt>
      <trkpt lat="48.68616" lon="7.31571">
        <ele>456.5</ele>
        <time>2020-11-28T11:01:25Z</time>
      </trkpt>
      <trkpt lat="48.68613" lon="7.31566">
        <ele>455.9</ele>
        <time>2020-11-28T11:01:35Z</time>
      </trkpt>
      <trkpt lat="48.68608" lon="7.31563">
        <ele>456.1</ele>
        <time>2020-11-28T11:01:37Z</time>
      </trkpt>
      <trkpt lat="48.68603" lon="7.31561">
        <ele>456.6</ele>
        <time>2020-11-28T11:01:39Z</time>
      </trkpt>
      <trkpt lat="48.68597" lon="7.31559">
        <ele>457</ele>
        <time>2020-11-28T11:01:41Z</time>
      </trkpt>
      <trkpt lat="48.68592" lon="7.31556">
        <ele>457.5</ele>
        <time>2020-11-28T11:01:43Z</time>
      </trkpt>
      <trkpt lat="48.68586" lon="7.31554">
        <ele>457.4</ele>
        <time>2020-11-28T11:01:45Z</time>
      </trkpt>
      <trkpt lat="48.68581" lon="7.31551">
        <ele>457.2</ele>
        <time>2020-11-28T11:01:47Z</time>
      </trkpt>
      <trkpt lat="48.68576" lon="7.31547">
        <ele>457.4</ele>
        <time>2020-11-28T11:01:49Z</time>
      </trkpt>
      <trkpt lat="48.6857" lon="7.31544">
        <ele>457.2</ele>
        <time>2020-11-28T11:01:51Z</time>
      </trkpt>
      <trkpt lat="48.6856" lon="7.31541">
        <ele>458.3</ele>
        <time>2020-11-28T11:01:54Z</time>
      </trkpt>
      <trkpt lat="48.68554" lon="7.31541">
        <ele>458.6</ele>
        <time>2020-11-28T11:01:56Z</time>
      </trkpt>
      <trkpt lat="48.68548" lon="7.31541">
        <ele>458.5</ele>
        <time>2020-11-28T11:01:58Z</time>
      </trkpt>
      <trkpt lat="48.68541" lon="7.3154">
        <ele>458.7</ele>
        <time>2020-11-28T11:02:00Z</time>
      </trkpt>
      <trkpt lat="48.68535" lon="7.31539">
        <ele>459</ele>
        <time>2020-11-28T11:02:02Z</time>
      </trkpt>
      <trkpt lat="48.6853" lon="7.31538">
        <ele>459.6</ele>
        <time>2020-11-28T11:02:04Z</time>
      </trkpt>
      <trkpt lat="48.68524" lon="7.31536">
        <ele>459.8</ele>
        <time>2020-11-28T11:02:06Z</time>
      </trkpt>
      <trkpt lat="48.68519" lon="7.31534">
        <ele>459.7</ele>
        <time>2020-11-28T11:02:08Z</time>
      </trkpt>
      <trkpt lat="48.68512" lon="7.31531">
        <ele>460.6</ele>
        <time>2020-11-28T11:02:11Z</time>
      </trkpt>
      <trkpt lat="48.68507" lon="7.31529">
        <ele>461.4</ele>
        <time>2020-11-28T11:02:13Z</time>
      </trkpt>
      <trkpt lat="48.68501" lon="7.31525">
        <ele>463.1</ele>
        <time>2020-11-28T11:02:16Z</time>
      </trkpt>
      <trkpt lat="48.68496" lon="7.31523">
        <ele>463.4</ele>
        <time>2020-11-28T11:02:18Z</time>
      </trkpt>
      <trkpt lat="48.68491" lon="7.31522">
        <ele>464.1</ele>
        <time>2020-11-28T11:02:20Z</time>
      </trkpt>
      <trkpt lat="48.68485" lon="7.31522">
        <ele>465</ele>
        <time>2020-11-28T11:02:22Z</time>
      </trkpt>
      <trkpt lat="48.68479" lon="7.31522">
        <ele>465.8</ele>
        <time>2020-11-28T11:02:24Z</time>
      </trkpt>
      <trkpt lat="48.68472" lon="7.3152">
        <ele>465.7</ele>
        <time>2020-11-28T11:02:26Z</time>
      </trkpt>
      <trkpt lat="48.68466" lon="7.31518">
        <ele>466.1</ele>
        <time>2020-11-28T11:02:28Z</time>
      </trkpt>
      <trkpt lat="48.68461" lon="7.31515">
        <ele>466.9</ele>
        <time>2020-11-28T11:02:30Z</time>
      </trkpt>
      <trkpt lat="48.68456" lon="7.31511">
        <ele>467.1</ele>
        <time>2020-11-28T11:02:32Z</time>
      </trkpt>
      <trkpt lat="48.68451" lon="7.31508">
        <ele>467.4</ele>
        <time>2020-11-28T11:02:34Z</time>
      </trkpt>
      <trkpt lat="48.68445" lon="7.31504">
        <ele>467.3</ele>
        <time>2020-11-28T11:02:36Z</time>
      </trkpt>
      <trkpt lat="48.6844" lon="7.31499">
        <ele>467.5</ele>
        <time>2020-11-28T11:02:38Z</time>
      </trkpt>
      <trkpt lat="48.68436" lon="7.31496">
        <ele>466.8</ele>
        <time>2020-11-28T11:02:40Z</time>
      </trkpt>
      <trkpt lat="48.68431" lon="7.31494">
        <ele>466.6</ele>
        <time>2020-11-28T11:02:42Z</time>
      </trkpt>
      <trkpt lat="48.68426" lon="7.31492">
        <ele>466</ele>
        <time>2020-11-28T11:02:44Z</time>
      </trkpt>
      <trkpt lat="48.6842" lon="7.31488">
        <ele>466</ele>
        <time>2020-11-28T11:02:47Z</time>
      </trkpt>
      <trkpt lat="48.68414" lon="7.31484">
        <ele>465.5</ele>
        <time>2020-11-28T11:02:50Z</time>
      </trkpt>
      <trkpt lat="48.68409" lon="7.31479">
        <ele>465.7</ele>
        <time>2020-11-28T11:02:52Z</time>
      </trkpt>
      <trkpt lat="48.68404" lon="7.31474">
        <ele>465.6</ele>
        <time>2020-11-28T11:02:54Z</time>
      </trkpt>
      <trkpt lat="48.68399" lon="7.3147">
        <ele>465.9</ele>
        <time>2020-11-28T11:02:56Z</time>
      </trkpt>
      <trkpt lat="48.68393" lon="7.31466">
        <ele>465.7</ele>
        <time>2020-11-28T11:02:58Z</time>
      </trkpt>
      <trkpt lat="48.68388" lon="7.31461">
        <ele>465.5</ele>
        <time>2020-11-28T11:03:00Z</time>
      </trkpt>
      <trkpt lat="48.68383" lon="7.31457">
        <ele>465.1</ele>
        <time>2020-11-28T11:03:02Z</time>
      </trkpt>
      <trkpt lat="48.68378" lon="7.31453">
        <ele>465</ele>
        <time>2020-11-28T11:03:04Z</time>
      </trkpt>
      <trkpt lat="48.68373" lon="7.31448">
        <ele>464.7</ele>
        <time>2020-11-28T11:03:06Z</time>
      </trkpt>
      <trkpt lat="48.68368" lon="7.31443">
        <ele>464.8</ele>
        <time>2020-11-28T11:03:08Z</time>
      </trkpt>
      <trkpt lat="48.68364" lon="7.31439">
        <ele>464.4</ele>
        <time>2020-11-28T11:03:10Z</time>
      </trkpt>
      <trkpt lat="48.68359" lon="7.31435">
        <ele>463.8</ele>
        <time>2020-11-28T11:03:12Z</time>
      </trkpt>
      <trkpt lat="48.68355" lon="7.31431">
        <ele>463.2</ele>
        <time>2020-11-28T11:03:14Z</time>
      </trkpt>
      <trkpt lat="48.68351" lon="7.31427">
        <ele>463</ele>
        <time>2020-11-28T11:03:16Z</time>
      </trkpt>
      <trkpt lat="48.68347" lon="7.31422">
        <ele>462.4</ele>
        <time>2020-11-28T11:03:18Z</time>
      </trkpt>
      <trkpt lat="48.68343" lon="7.31418">
        <ele>462.2</ele>
        <time>2020-11-28T11:03:20Z</time>
      </trkpt>
      <trkpt lat="48.68339" lon="7.31413">
        <ele>462.2</ele>
        <time>2020-11-28T11:03:22Z</time>
      </trkpt>
      <trkpt lat="48.68334" lon="7.31409">
        <ele>462.1</ele>
        <time>2020-11-28T11:03:24Z</time>
      </trkpt>
      <trkpt lat="48.68326" lon="7.31402">
        <ele>462.5</ele>
        <time>2020-11-28T11:03:27Z</time>
      </trkpt>
      <trkpt lat="48.68322" lon="7.31397">
        <ele>463.2</ele>
        <time>2020-11-28T11:03:29Z</time>
      </trkpt>
      <trkpt lat="48.68313" lon="7.3139">
        <ele>464.4</ele>
        <time>2020-11-28T11:03:32Z</time>
      </trkpt>
      <trkpt lat="48.68307" lon="7.31386">
        <ele>465.5</ele>
        <time>2020-11-28T11:03:34Z</time>
      </trkpt>
      <trkpt lat="48.68301" lon="7.31381">
        <ele>466.7</ele>
        <time>2020-11-28T11:03:36Z</time>
      </trkpt>
      <trkpt lat="48.68294" lon="7.31376">
        <ele>467.8</ele>
        <time>2020-11-28T11:03:38Z</time>
      </trkpt>
      <trkpt lat="48.68287" lon="7.31369">
        <ele>469</ele>
        <time>2020-11-28T11:03:40Z</time>
      </trkpt>
      <trkpt lat="48.6828" lon="7.31363">
        <ele>469.4</ele>
        <time>2020-11-28T11:03:42Z</time>
      </trkpt>
      <trkpt lat="48.68273" lon="7.31356">
        <ele>469.8</ele>
        <time>2020-11-28T11:03:44Z</time>
      </trkpt>
      <trkpt lat="48.68267" lon="7.31348">
        <ele>469.9</ele>
        <time>2020-11-28T11:03:46Z</time>
      </trkpt>
      <trkpt lat="48.6826" lon="7.31342">
        <ele>469.7</ele>
        <time>2020-11-28T11:03:48Z</time>
      </trkpt>
      <trkpt lat="48.68252" lon="7.31336">
        <ele>469.7</ele>
        <time>2020-11-28T11:03:50Z</time>
      </trkpt>
      <trkpt lat="48.68246" lon="7.31331">
        <ele>469.6</ele>
        <time>2020-11-28T11:03:52Z</time>
      </trkpt>
      <trkpt lat="48.68239" lon="7.31325">
        <ele>469.3</ele>
        <time>2020-11-28T11:03:54Z</time>
      </trkpt>
      <trkpt lat="48.68234" lon="7.31316">
        <ele>469.5</ele>
        <time>2020-11-28T11:03:56Z</time>
      </trkpt>
      <trkpt lat="48.68229" lon="7.31307">
        <ele>469.3</ele>
        <time>2020-11-28T11:03:58Z</time>
      </trkpt>
      <trkpt lat="48.68224" lon="7.31298">
        <ele>469.2</ele>
        <time>2020-11-28T11:04:00Z</time>
      </trkpt>
      <trkpt lat="48.68219" lon="7.31289">
        <ele>469.5</ele>
        <time>2020-11-28T11:04:02Z</time>
      </trkpt>
      <trkpt lat="48.68214" lon="7.31279">
        <ele>469.5</ele>
        <time>2020-11-28T11:04:04Z</time>
      </trkpt>
      <trkpt lat="48.68207" lon="7.31268">
        <ele>468.9</ele>
        <time>2020-11-28T11:04:06Z</time>
      </trkpt>
      <trkpt lat="48.68202" lon="7.31257">
        <ele>469.2</ele>
        <time>2020-11-28T11:04:08Z</time>
      </trkpt>
      <trkpt lat="48.68197" lon="7.31246">
        <ele>468.9</ele>
        <time>2020-11-28T11:04:10Z</time>
      </trkpt>
      <trkpt lat="48.68191" lon="7.31237">
        <ele>468.7</ele>
        <time>2020-11-28T11:04:12Z</time>
      </trkpt>
      <trkpt lat="48.68187" lon="7.31227">
        <ele>468.9</ele>
        <time>2020-11-28T11:04:14Z</time>
      </trkpt>
      <trkpt lat="48.68181" lon="7.3122">
        <ele>468.6</ele>
        <time>2020-11-28T11:04:16Z</time>
      </trkpt>
      <trkpt lat="48.68176" lon="7.3121">
        <ele>469</ele>
        <time>2020-11-28T11:04:18Z</time>
      </trkpt>
      <trkpt lat="48.68171" lon="7.312">
        <ele>469</ele>
        <time>2020-11-28T11:04:20Z</time>
      </trkpt>
      <trkpt lat="48.68167" lon="7.3119">
        <ele>469.1</ele>
        <time>2020-11-28T11:04:22Z</time>
      </trkpt>
      <trkpt lat="48.68161" lon="7.31182">
        <ele>468.5</ele>
        <time>2020-11-28T11:04:24Z</time>
      </trkpt>
      <trkpt lat="48.68153" lon="7.31173">
        <ele>468.8</ele>
        <time>2020-11-28T11:04:26Z</time>
      </trkpt>
      <trkpt lat="48.68144" lon="7.31169">
        <ele>468.3</ele>
        <time>2020-11-28T11:04:28Z</time>
      </trkpt>
      <trkpt lat="48.68135" lon="7.31168">
        <ele>467.8</ele>
        <time>2020-11-28T11:04:30Z</time>
      </trkpt>
      <trkpt lat="48.68128" lon="7.31169">
        <ele>467.2</ele>
        <time>2020-11-28T11:04:32Z</time>
      </trkpt>
      <trkpt lat="48.68124" lon="7.31165">
        <ele>467.4</ele>
        <time>2020-11-28T11:04:42Z</time>
      </trkpt>
      <trkpt lat="48.68118" lon="7.31167">
        <ele>464.5</ele>
        <time>2020-11-28T11:05:25Z</time>
      </trkpt>
      <trkpt lat="48.68114" lon="7.31171">
        <ele>465.1</ele>
        <time>2020-11-28T11:05:28Z</time>
      </trkpt>
      <trkpt lat="48.68112" lon="7.31177">
        <ele>466.9</ele>
        <time>2020-11-28T11:05:33Z</time>
      </trkpt>
      <trkpt lat="48.68107" lon="7.31176">
        <ele>474.2</ele>
        <time>2020-11-28T11:07:28Z</time>
      </trkpt>
      <trkpt lat="48.68104" lon="7.31182">
        <ele>473.7</ele>
        <time>2020-11-28T11:09:37Z</time>
      </trkpt>
      <trkpt lat="48.68101" lon="7.31187">
        <ele>473.5</ele>
        <time>2020-11-28T11:09:39Z</time>
      </trkpt>
      <trkpt lat="48.68096" lon="7.31193">
        <ele>473.2</ele>
        <time>2020-11-28T11:09:41Z</time>
      </trkpt>
      <trkpt lat="48.68089" lon="7.31202">
        <ele>473.2</ele>
        <time>2020-11-28T11:09:43Z</time>
      </trkpt>
      <trkpt lat="48.68082" lon="7.3121">
        <ele>472.6</ele>
        <time>2020-11-28T11:09:45Z</time>
      </trkpt>
      <trkpt lat="48.68076" lon="7.31223">
        <ele>472.2</ele>
        <time>2020-11-28T11:09:47Z</time>
      </trkpt>
      <trkpt lat="48.68071" lon="7.31237">
        <ele>471.8</ele>
        <time>2020-11-28T11:09:49Z</time>
      </trkpt>
      <trkpt lat="48.68067" lon="7.31248">
        <ele>471.3</ele>
        <time>2020-11-28T11:09:51Z</time>
      </trkpt>
      <trkpt lat="48.68062" lon="7.31259">
        <ele>471.3</ele>
        <time>2020-11-28T11:09:53Z</time>
      </trkpt>
      <trkpt lat="48.68054" lon="7.31268">
        <ele>471.3</ele>
        <time>2020-11-28T11:09:55Z</time>
      </trkpt>
      <trkpt lat="48.68044" lon="7.31276">
        <ele>427.4</ele>
        <time>2020-11-28T11:09:57Z</time>
      </trkpt>
      <trkpt lat="48.68034" lon="7.31281">
        <ele>430.5</ele>
        <time>2020-11-28T11:09:59Z</time>
      </trkpt>
      <trkpt lat="48.68023" lon="7.31286">
        <ele>429.4</ele>
        <time>2020-11-28T11:10:01Z</time>
      </trkpt>
      <trkpt lat="48.68012" lon="7.31289">
        <ele>434.3</ele>
        <time>2020-11-28T11:10:03Z</time>
      </trkpt>
      <trkpt lat="48.68001" lon="7.31291">
        <ele>440.5</ele>
        <time>2020-11-28T11:10:05Z</time>
      </trkpt>
      <trkpt lat="48.6799" lon="7.3129">
        <ele>447</ele>
        <time>2020-11-28T11:10:07Z</time>
      </trkpt>
      <trkpt lat="48.6798" lon="7.31285">
        <ele>451.9</ele>
        <time>2020-11-28T11:10:09Z</time>
      </trkpt>
      <trkpt lat="48.67969" lon="7.3128">
        <ele>457</ele>
        <time>2020-11-28T11:10:11Z</time>
      </trkpt>
      <trkpt lat="48.67959" lon="7.31273">
        <ele>459.6</ele>
        <time>2020-11-28T11:10:13Z</time>
      </trkpt>
      <trkpt lat="48.67949" lon="7.31265">
        <ele>462.6</ele>
        <time>2020-11-28T11:10:15Z</time>
      </trkpt>
      <trkpt lat="48.6794" lon="7.31257">
        <ele>464.7</ele>
        <time>2020-11-28T11:10:17Z</time>
      </trkpt>
      <trkpt lat="48.6793" lon="7.31251">
        <ele>465.2</ele>
        <time>2020-11-28T11:10:19Z</time>
      </trkpt>
      <trkpt lat="48.6792" lon="7.31245">
        <ele>466.9</ele>
        <time>2020-11-28T11:10:21Z</time>
      </trkpt>
      <trkpt lat="48.67909" lon="7.3124">
        <ele>468.3</ele>
        <time>2020-11-28T11:10:23Z</time>
      </trkpt>
      <trkpt lat="48.67901" lon="7.31232">
        <ele>469</ele>
        <time>2020-11-28T11:10:25Z</time>
      </trkpt>
      <trkpt lat="48.6789" lon="7.3123">
        <ele>470.2</ele>
        <time>2020-11-28T11:10:27Z</time>
      </trkpt>
      <trkpt lat="48.67878" lon="7.31231">
        <ele>470.6</ele>
        <time>2020-11-28T11:10:29Z</time>
      </trkpt>
      <trkpt lat="48.67867" lon="7.31233">
        <ele>471.4</ele>
        <time>2020-11-28T11:10:31Z</time>
      </trkpt>
      <trkpt lat="48.67856" lon="7.31234">
        <ele>472.1</ele>
        <time>2020-11-28T11:10:33Z</time>
      </trkpt>
      <trkpt lat="48.67846" lon="7.31236">
        <ele>473.2</ele>
        <time>2020-11-28T11:10:35Z</time>
      </trkpt>
      <trkpt lat="48.67834" lon="7.3124">
        <ele>474</ele>
        <time>2020-11-28T11:10:37Z</time>
      </trkpt>
      <trkpt lat="48.67823" lon="7.31244">
        <ele>474.7</ele>
        <time>2020-11-28T11:10:39Z</time>
      </trkpt>
      <trkpt lat="48.67812" lon="7.31247">
        <ele>475.3</ele>
        <time>2020-11-28T11:10:41Z</time>
      </trkpt>
      <trkpt lat="48.67802" lon="7.31252">
        <ele>476</ele>
        <time>2020-11-28T11:10:43Z</time>
      </trkpt>
      <trkpt lat="48.67792" lon="7.31257">
        <ele>476.6</ele>
        <time>2020-11-28T11:10:45Z</time>
      </trkpt>
      <trkpt lat="48.67783" lon="7.31261">
        <ele>477.2</ele>
        <time>2020-11-28T11:10:47Z</time>
      </trkpt>
      <trkpt lat="48.67773" lon="7.31262">
        <ele>477.8</ele>
        <time>2020-11-28T11:10:49Z</time>
      </trkpt>
      <trkpt lat="48.67763" lon="7.31261">
        <ele>477.9</ele>
        <time>2020-11-28T11:10:51Z</time>
      </trkpt>
      <trkpt lat="48.67753" lon="7.31258">
        <ele>478.3</ele>
        <time>2020-11-28T11:10:53Z</time>
      </trkpt>
      <trkpt lat="48.67743" lon="7.31255">
        <ele>479.2</ele>
        <time>2020-11-28T11:10:55Z</time>
      </trkpt>
      <trkpt lat="48.67732" lon="7.31254">
        <ele>479.1</ele>
        <time>2020-11-28T11:10:57Z</time>
      </trkpt>
      <trkpt lat="48.67721" lon="7.31252">
        <ele>479.2</ele>
        <time>2020-11-28T11:10:59Z</time>
      </trkpt>
      <trkpt lat="48.6771" lon="7.3125">
        <ele>479.4</ele>
        <time>2020-11-28T11:11:01Z</time>
      </trkpt>
      <trkpt lat="48.67699" lon="7.31249">
        <ele>479.1</ele>
        <time>2020-11-28T11:11:03Z</time>
      </trkpt>
      <trkpt lat="48.67688" lon="7.31251">
        <ele>479.4</ele>
        <time>2020-11-28T11:11:05Z</time>
      </trkpt>
      <trkpt lat="48.67677" lon="7.31256">
        <ele>479.7</ele>
        <time>2020-11-28T11:11:07Z</time>
      </trkpt>
      <trkpt lat="48.67666" lon="7.31261">
        <ele>479.2</ele>
        <time>2020-11-28T11:11:09Z</time>
      </trkpt>
      <trkpt lat="48.67656" lon="7.31269">
        <ele>479.3</ele>
        <time>2020-11-28T11:11:11Z</time>
      </trkpt>
      <trkpt lat="48.67646" lon="7.31276">
        <ele>476.3</ele>
        <time>2020-11-28T11:11:13Z</time>
      </trkpt>
      <trkpt lat="48.67635" lon="7.31281">
        <ele>477</ele>
        <time>2020-11-28T11:11:15Z</time>
      </trkpt>
      <trkpt lat="48.67623" lon="7.31285">
        <ele>477.1</ele>
        <time>2020-11-28T11:11:17Z</time>
      </trkpt>
      <trkpt lat="48.67606" lon="7.31283">
        <ele>477.9</ele>
        <time>2020-11-28T11:11:20Z</time>
      </trkpt>
      <trkpt lat="48.67594" lon="7.31283">
        <ele>478.3</ele>
        <time>2020-11-28T11:11:22Z</time>
      </trkpt>
      <trkpt lat="48.67581" lon="7.31282">
        <ele>478</ele>
        <time>2020-11-28T11:11:24Z</time>
      </trkpt>
      <trkpt lat="48.67563" lon="7.31276">
        <ele>478.2</ele>
        <time>2020-11-28T11:11:27Z</time>
      </trkpt>
      <trkpt lat="48.67552" lon="7.31268">
        <ele>478.5</ele>
        <time>2020-11-28T11:11:29Z</time>
      </trkpt>
      <trkpt lat="48.67542" lon="7.31259">
        <ele>478.5</ele>
        <time>2020-11-28T11:11:31Z</time>
      </trkpt>
      <trkpt lat="48.67533" lon="7.31246">
        <ele>478.3</ele>
        <time>2020-11-28T11:11:33Z</time>
      </trkpt>
      <trkpt lat="48.67526" lon="7.31233">
        <ele>478.2</ele>
        <time>2020-11-28T11:11:35Z</time>
      </trkpt>
      <trkpt lat="48.67521" lon="7.31219">
        <ele>478.2</ele>
        <time>2020-11-28T11:11:37Z</time>
      </trkpt>
      <trkpt lat="48.67514" lon="7.31195">
        <ele>477.7</ele>
        <time>2020-11-28T11:11:40Z</time>
      </trkpt>
      <trkpt lat="48.6751" lon="7.31178">
        <ele>477.6</ele>
        <time>2020-11-28T11:11:42Z</time>
      </trkpt>
      <trkpt lat="48.67506" lon="7.31159">
        <ele>477.7</ele>
        <time>2020-11-28T11:11:44Z</time>
      </trkpt>
      <trkpt lat="48.67504" lon="7.31139">
        <ele>477.7</ele>
        <time>2020-11-28T11:11:46Z</time>
      </trkpt>
      <trkpt lat="48.67503" lon="7.3112">
        <ele>477.6</ele>
        <time>2020-11-28T11:11:48Z</time>
      </trkpt>
      <trkpt lat="48.67503" lon="7.31101">
        <ele>477.5</ele>
        <time>2020-11-28T11:11:50Z</time>
      </trkpt>
      <trkpt lat="48.67505" lon="7.31083">
        <ele>477.6</ele>
        <time>2020-11-28T11:11:52Z</time>
      </trkpt>
      <trkpt lat="48.67507" lon="7.31065">
        <ele>477.7</ele>
        <time>2020-11-28T11:11:54Z</time>
      </trkpt>
      <trkpt lat="48.67509" lon="7.31047">
        <ele>478.3</ele>
        <time>2020-11-28T11:11:56Z</time>
      </trkpt>
      <trkpt lat="48.6751" lon="7.3103">
        <ele>478.8</ele>
        <time>2020-11-28T11:11:58Z</time>
      </trkpt>
      <trkpt lat="48.67511" lon="7.31012">
        <ele>479.2</ele>
        <time>2020-11-28T11:12:00Z</time>
      </trkpt>
      <trkpt lat="48.67511" lon="7.30994">
        <ele>479.9</ele>
        <time>2020-11-28T11:12:02Z</time>
      </trkpt>
      <trkpt lat="48.67509" lon="7.30977">
        <ele>480.9</ele>
        <time>2020-11-28T11:12:04Z</time>
      </trkpt>
      <trkpt lat="48.67507" lon="7.3096">
        <ele>481.9</ele>
        <time>2020-11-28T11:12:06Z</time>
      </trkpt>
      <trkpt lat="48.67503" lon="7.30943">
        <ele>483.1</ele>
        <time>2020-11-28T11:12:08Z</time>
      </trkpt>
      <trkpt lat="48.67499" lon="7.30926">
        <ele>484.2</ele>
        <time>2020-11-28T11:12:10Z</time>
      </trkpt>
      <trkpt lat="48.67495" lon="7.3091">
        <ele>484.7</ele>
        <time>2020-11-28T11:12:12Z</time>
      </trkpt>
      <trkpt lat="48.67491" lon="7.30892">
        <ele>485.1</ele>
        <time>2020-11-28T11:12:14Z</time>
      </trkpt>
      <trkpt lat="48.67488" lon="7.30875">
        <ele>485.2</ele>
        <time>2020-11-28T11:12:16Z</time>
      </trkpt>
      <trkpt lat="48.67484" lon="7.3086">
        <ele>485.3</ele>
        <time>2020-11-28T11:12:18Z</time>
      </trkpt>
      <trkpt lat="48.6748" lon="7.30848">
        <ele>485.7</ele>
        <time>2020-11-28T11:12:20Z</time>
      </trkpt>
      <trkpt lat="48.67477" lon="7.30839">
        <ele>485</ele>
        <time>2020-11-28T11:12:22Z</time>
      </trkpt>
      <trkpt lat="48.67474" lon="7.30828">
        <ele>484.6</ele>
        <time>2020-11-28T11:12:24Z</time>
      </trkpt>
      <trkpt lat="48.67469" lon="7.30811">
        <ele>483.7</ele>
        <time>2020-11-28T11:12:27Z</time>
      </trkpt>
      <trkpt lat="48.67465" lon="7.30799">
        <ele>483.8</ele>
        <time>2020-11-28T11:12:29Z</time>
      </trkpt>
      <trkpt lat="48.67461" lon="7.30789">
        <ele>484</ele>
        <time>2020-11-28T11:12:31Z</time>
      </trkpt>
      <trkpt lat="48.67456" lon="7.30778">
        <ele>484.1</ele>
        <time>2020-11-28T11:12:33Z</time>
      </trkpt>
      <trkpt lat="48.67451" lon="7.30767">
        <ele>484.1</ele>
        <time>2020-11-28T11:12:35Z</time>
      </trkpt>
      <trkpt lat="48.67445" lon="7.30756">
        <ele>484.1</ele>
        <time>2020-11-28T11:12:37Z</time>
      </trkpt>
      <trkpt lat="48.6744" lon="7.30744">
        <ele>484.3</ele>
        <time>2020-11-28T11:12:39Z</time>
      </trkpt>
      <trkpt lat="48.67435" lon="7.30733">
        <ele>484.2</ele>
        <time>2020-11-28T11:12:41Z</time>
      </trkpt>
      <trkpt lat="48.67429" lon="7.30719">
        <ele>483.7</ele>
        <time>2020-11-28T11:12:43Z</time>
      </trkpt>
      <trkpt lat="48.67424" lon="7.30706">
        <ele>483.7</ele>
        <time>2020-11-28T11:12:45Z</time>
      </trkpt>
      <trkpt lat="48.67419" lon="7.30692">
        <ele>484.1</ele>
        <time>2020-11-28T11:12:47Z</time>
      </trkpt>
      <trkpt lat="48.67414" lon="7.30678">
        <ele>485</ele>
        <time>2020-11-28T11:12:49Z</time>
      </trkpt>
      <trkpt lat="48.67408" lon="7.30665">
        <ele>485.9</ele>
        <time>2020-11-28T11:12:51Z</time>
      </trkpt>
      <trkpt lat="48.67402" lon="7.30652">
        <ele>486.4</ele>
        <time>2020-11-28T11:12:53Z</time>
      </trkpt>
      <trkpt lat="48.67396" lon="7.30638">
        <ele>487.3</ele>
        <time>2020-11-28T11:12:55Z</time>
      </trkpt>
      <trkpt lat="48.67392" lon="7.30624">
        <ele>487.7</ele>
        <time>2020-11-28T11:12:57Z</time>
      </trkpt>
      <trkpt lat="48.67388" lon="7.30611">
        <ele>487.1</ele>
        <time>2020-11-28T11:12:59Z</time>
      </trkpt>
      <trkpt lat="48.67385" lon="7.30597">
        <ele>486.8</ele>
        <time>2020-11-28T11:13:01Z</time>
      </trkpt>
      <trkpt lat="48.6738" lon="7.30583">
        <ele>486.5</ele>
        <time>2020-11-28T11:13:03Z</time>
      </trkpt>
      <trkpt lat="48.67377" lon="7.30568">
        <ele>487.1</ele>
        <time>2020-11-28T11:13:05Z</time>
      </trkpt>
      <trkpt lat="48.67376" lon="7.30555">
        <ele>486.5</ele>
        <time>2020-11-28T11:13:07Z</time>
      </trkpt>
      <trkpt lat="48.67376" lon="7.30544">
        <ele>485.9</ele>
        <time>2020-11-28T11:13:09Z</time>
      </trkpt>
      <trkpt lat="48.67378" lon="7.30532">
        <ele>485.5</ele>
        <time>2020-11-28T11:13:11Z</time>
      </trkpt>
      <trkpt lat="48.67383" lon="7.3052">
        <ele>484.7</ele>
        <time>2020-11-28T11:13:13Z</time>
      </trkpt>
      <trkpt lat="48.67389" lon="7.30508">
        <ele>484.4</ele>
        <time>2020-11-28T11:13:15Z</time>
      </trkpt>
      <trkpt lat="48.67395" lon="7.30499">
        <ele>484</ele>
        <time>2020-11-28T11:13:17Z</time>
      </trkpt>
      <trkpt lat="48.67401" lon="7.30488">
        <ele>483.9</ele>
        <time>2020-11-28T11:13:19Z</time>
      </trkpt>
      <trkpt lat="48.67407" lon="7.30478">
        <ele>482.6</ele>
        <time>2020-11-28T11:13:21Z</time>
      </trkpt>
      <trkpt lat="48.67411" lon="7.30466">
        <ele>482.7</ele>
        <time>2020-11-28T11:13:23Z</time>
      </trkpt>
      <trkpt lat="48.67416" lon="7.30453">
        <ele>483</ele>
        <time>2020-11-28T11:13:25Z</time>
      </trkpt>
      <trkpt lat="48.6742" lon="7.30433">
        <ele>483.9</ele>
        <time>2020-11-28T11:13:28Z</time>
      </trkpt>
      <trkpt lat="48.6742" lon="7.30419">
        <ele>484.4</ele>
        <time>2020-11-28T11:13:30Z</time>
      </trkpt>
      <trkpt lat="48.67419" lon="7.30406">
        <ele>484.6</ele>
        <time>2020-11-28T11:13:32Z</time>
      </trkpt>
      <trkpt lat="48.67417" lon="7.30395">
        <ele>485.3</ele>
        <time>2020-11-28T11:13:34Z</time>
      </trkpt>
      <trkpt lat="48.67416" lon="7.30384">
        <ele>485.9</ele>
        <time>2020-11-28T11:13:36Z</time>
      </trkpt>
      <trkpt lat="48.67413" lon="7.30374">
        <ele>487.4</ele>
        <time>2020-11-28T11:13:38Z</time>
      </trkpt>
      <trkpt lat="48.6741" lon="7.30364">
        <ele>488.6</ele>
        <time>2020-11-28T11:13:40Z</time>
      </trkpt>
      <trkpt lat="48.67407" lon="7.30353">
        <ele>489.7</ele>
        <time>2020-11-28T11:13:42Z</time>
      </trkpt>
      <trkpt lat="48.67404" lon="7.30341">
        <ele>490.9</ele>
        <time>2020-11-28T11:13:44Z</time>
      </trkpt>
      <trkpt lat="48.67401" lon="7.3033">
        <ele>491.7</ele>
        <time>2020-11-28T11:13:46Z</time>
      </trkpt>
      <trkpt lat="48.67396" lon="7.30321">
        <ele>492.4</ele>
        <time>2020-11-28T11:13:48Z</time>
      </trkpt>
      <trkpt lat="48.67392" lon="7.30312">
        <ele>493</ele>
        <time>2020-11-28T11:13:50Z</time>
      </trkpt>
      <trkpt lat="48.67386" lon="7.30303">
        <ele>493.5</ele>
        <time>2020-11-28T11:13:52Z</time>
      </trkpt>
      <trkpt lat="48.6738" lon="7.30297">
        <ele>493.8</ele>
        <time>2020-11-28T11:13:54Z</time>
      </trkpt>
      <trkpt lat="48.67375" lon="7.30291">
        <ele>494.6</ele>
        <time>2020-11-28T11:13:56Z</time>
      </trkpt>
      <trkpt lat="48.67369" lon="7.30285">
        <ele>494.8</ele>
        <time>2020-11-28T11:13:58Z</time>
      </trkpt>
      <trkpt lat="48.67363" lon="7.30278">
        <ele>494.7</ele>
        <time>2020-11-28T11:14:00Z</time>
      </trkpt>
      <trkpt lat="48.67357" lon="7.30271">
        <ele>493.9</ele>
        <time>2020-11-28T11:14:02Z</time>
      </trkpt>
      <trkpt lat="48.67352" lon="7.30265">
        <ele>493.6</ele>
        <time>2020-11-28T11:14:04Z</time>
      </trkpt>
      <trkpt lat="48.67346" lon="7.30259">
        <ele>493.2</ele>
        <time>2020-11-28T11:14:06Z</time>
      </trkpt>
      <trkpt lat="48.67341" lon="7.30253">
        <ele>493.4</ele>
        <time>2020-11-28T11:14:08Z</time>
      </trkpt>
      <trkpt lat="48.67335" lon="7.30246">
        <ele>493.4</ele>
        <time>2020-11-28T11:14:10Z</time>
      </trkpt>
      <trkpt lat="48.67329" lon="7.3024">
        <ele>493.7</ele>
        <time>2020-11-28T11:14:12Z</time>
      </trkpt>
      <trkpt lat="48.67323" lon="7.30235">
        <ele>494.8</ele>
        <time>2020-11-28T11:14:14Z</time>
      </trkpt>
      <trkpt lat="48.67316" lon="7.30229">
        <ele>495.3</ele>
        <time>2020-11-28T11:14:16Z</time>
      </trkpt>
      <trkpt lat="48.67311" lon="7.30221">
        <ele>495.6</ele>
        <time>2020-11-28T11:14:18Z</time>
      </trkpt>
      <trkpt lat="48.67306" lon="7.30213">
        <ele>495.4</ele>
        <time>2020-11-28T11:14:20Z</time>
      </trkpt>
      <trkpt lat="48.67301" lon="7.30205">
        <ele>495.6</ele>
        <time>2020-11-28T11:14:22Z</time>
      </trkpt>
      <trkpt lat="48.67296" lon="7.30196">
        <ele>495.6</ele>
        <time>2020-11-28T11:14:24Z</time>
      </trkpt>
      <trkpt lat="48.6729" lon="7.30189">
        <ele>495.7</ele>
        <time>2020-11-28T11:14:26Z</time>
      </trkpt>
      <trkpt lat="48.67285" lon="7.30181">
        <ele>495.9</ele>
        <time>2020-11-28T11:14:28Z</time>
      </trkpt>
      <trkpt lat="48.67279" lon="7.30175">
        <ele>496.7</ele>
        <time>2020-11-28T11:14:30Z</time>
      </trkpt>
      <trkpt lat="48.67273" lon="7.30168">
        <ele>496.9</ele>
        <time>2020-11-28T11:14:32Z</time>
      </trkpt>
      <trkpt lat="48.67267" lon="7.30161">
        <ele>494.7</ele>
        <time>2020-11-28T11:14:34Z</time>
      </trkpt>
      <trkpt lat="48.67259" lon="7.3015">
        <ele>494.4</ele>
        <time>2020-11-28T11:14:37Z</time>
      </trkpt>
      <trkpt lat="48.67254" lon="7.30143">
        <ele>494.2</ele>
        <time>2020-11-28T11:14:39Z</time>
      </trkpt>
      <trkpt lat="48.6725" lon="7.30139">
        <ele>494.7</ele>
        <time>2020-11-28T11:14:41Z</time>
      </trkpt>
      <trkpt lat="48.67246" lon="7.30134">
        <ele>495.3</ele>
        <time>2020-11-28T11:14:43Z</time>
      </trkpt>
      <trkpt lat="48.67241" lon="7.30128">
        <ele>495.2</ele>
        <time>2020-11-28T11:14:45Z</time>
      </trkpt>
      <trkpt lat="48.67236" lon="7.3012">
        <ele>495.3</ele>
        <time>2020-11-28T11:14:47Z</time>
      </trkpt>
      <trkpt lat="48.67231" lon="7.30112">
        <ele>495.2</ele>
        <time>2020-11-28T11:14:49Z</time>
      </trkpt>
      <trkpt lat="48.67225" lon="7.30101">
        <ele>495.6</ele>
        <time>2020-11-28T11:14:51Z</time>
      </trkpt>
      <trkpt lat="48.6722" lon="7.3009">
        <ele>495.5</ele>
        <time>2020-11-28T11:14:53Z</time>
      </trkpt>
      <trkpt lat="48.67217" lon="7.30079">
        <ele>495</ele>
        <time>2020-11-28T11:14:55Z</time>
      </trkpt>
      <trkpt lat="48.67213" lon="7.30069">
        <ele>491.8</ele>
        <time>2020-11-28T11:14:57Z</time>
      </trkpt>
      <trkpt lat="48.6721" lon="7.30058">
        <ele>490.4</ele>
        <time>2020-11-28T11:14:59Z</time>
      </trkpt>
      <trkpt lat="48.67209" lon="7.30045">
        <ele>490.3</ele>
        <time>2020-11-28T11:15:01Z</time>
      </trkpt>
      <trkpt lat="48.67208" lon="7.30033">
        <ele>485.7</ele>
        <time>2020-11-28T11:15:03Z</time>
      </trkpt>
      <trkpt lat="48.67208" lon="7.3002">
        <ele>486.6</ele>
        <time>2020-11-28T11:15:05Z</time>
      </trkpt>
      <trkpt lat="48.67208" lon="7.30008">
        <ele>487.1</ele>
        <time>2020-11-28T11:15:07Z</time>
      </trkpt>
      <trkpt lat="48.67209" lon="7.29996">
        <ele>488.9</ele>
        <time>2020-11-28T11:15:09Z</time>
      </trkpt>
      <trkpt lat="48.6721" lon="7.29984">
        <ele>490.9</ele>
        <time>2020-11-28T11:15:11Z</time>
      </trkpt>
      <trkpt lat="48.67211" lon="7.29972">
        <ele>492.7</ele>
        <time>2020-11-28T11:15:13Z</time>
      </trkpt>
      <trkpt lat="48.67212" lon="7.2996">
        <ele>494.1</ele>
        <time>2020-11-28T11:15:15Z</time>
      </trkpt>
      <trkpt lat="48.67213" lon="7.29949">
        <ele>495.3</ele>
        <time>2020-11-28T11:15:17Z</time>
      </trkpt>
      <trkpt lat="48.67215" lon="7.29938">
        <ele>497.5</ele>
        <time>2020-11-28T11:15:19Z</time>
      </trkpt>
      <trkpt lat="48.67215" lon="7.29926">
        <ele>499.6</ele>
        <time>2020-11-28T11:15:21Z</time>
      </trkpt>
      <trkpt lat="48.67216" lon="7.29915">
        <ele>500.4</ele>
        <time>2020-11-28T11:15:23Z</time>
      </trkpt>
      <trkpt lat="48.67217" lon="7.29905">
        <ele>500.6</ele>
        <time>2020-11-28T11:15:25Z</time>
      </trkpt>
      <trkpt lat="48.67219" lon="7.29894">
        <ele>500.5</ele>
        <time>2020-11-28T11:15:27Z</time>
      </trkpt>
      <trkpt lat="48.6722" lon="7.29884">
        <ele>500.1</ele>
        <time>2020-11-28T11:15:29Z</time>
      </trkpt>
      <trkpt lat="48.67222" lon="7.29873">
        <ele>500.1</ele>
        <time>2020-11-28T11:15:31Z</time>
      </trkpt>
      <trkpt lat="48.67223" lon="7.29861">
        <ele>500.5</ele>
        <time>2020-11-28T11:15:33Z</time>
      </trkpt>
      <trkpt lat="48.67225" lon="7.2985">
        <ele>500.8</ele>
        <time>2020-11-28T11:15:35Z</time>
      </trkpt>
      <trkpt lat="48.67228" lon="7.29836">
        <ele>501.6</ele>
        <time>2020-11-28T11:15:37Z</time>
      </trkpt>
      <trkpt lat="48.67229" lon="7.2982">
        <ele>502.4</ele>
        <time>2020-11-28T11:15:39Z</time>
      </trkpt>
      <trkpt lat="48.67231" lon="7.29805">
        <ele>503.9</ele>
        <time>2020-11-28T11:15:41Z</time>
      </trkpt>
      <trkpt lat="48.67235" lon="7.29789">
        <ele>504.8</ele>
        <time>2020-11-28T11:15:43Z</time>
      </trkpt>
      <trkpt lat="48.67238" lon="7.29775">
        <ele>505.9</ele>
        <time>2020-11-28T11:15:45Z</time>
      </trkpt>
      <trkpt lat="48.67242" lon="7.29759">
        <ele>506.1</ele>
        <time>2020-11-28T11:15:47Z</time>
      </trkpt>
      <trkpt lat="48.67245" lon="7.29742">
        <ele>506.7</ele>
        <time>2020-11-28T11:15:49Z</time>
      </trkpt>
      <trkpt lat="48.67248" lon="7.29724">
        <ele>507.9</ele>
        <time>2020-11-28T11:15:51Z</time>
      </trkpt>
      <trkpt lat="48.67248" lon="7.29707">
        <ele>509.1</ele>
        <time>2020-11-28T11:15:53Z</time>
      </trkpt>
      <trkpt lat="48.67248" lon="7.29693">
        <ele>497.4</ele>
        <time>2020-11-28T11:15:55Z</time>
      </trkpt>
      <trkpt lat="48.67244" lon="7.29682">
        <ele>495.1</ele>
        <time>2020-11-28T11:15:57Z</time>
      </trkpt>
      <trkpt lat="48.67241" lon="7.29671">
        <ele>492.8</ele>
        <time>2020-11-28T11:15:59Z</time>
      </trkpt>
      <trkpt lat="48.67237" lon="7.29657">
        <ele>493.9</ele>
        <time>2020-11-28T11:16:01Z</time>
      </trkpt>
      <trkpt lat="48.67232" lon="7.29642">
        <ele>495.9</ele>
        <time>2020-11-28T11:16:03Z</time>
      </trkpt>
      <trkpt lat="48.67226" lon="7.29629">
        <ele>497.6</ele>
        <time>2020-11-28T11:16:05Z</time>
      </trkpt>
      <trkpt lat="48.67218" lon="7.29616">
        <ele>499.6</ele>
        <time>2020-11-28T11:16:07Z</time>
      </trkpt>
      <trkpt lat="48.67211" lon="7.29606">
        <ele>500.6</ele>
        <time>2020-11-28T11:16:09Z</time>
      </trkpt>
      <trkpt lat="48.67201" lon="7.29597">
        <ele>501.7</ele>
        <time>2020-11-28T11:16:11Z</time>
      </trkpt>
      <trkpt lat="48.67192" lon="7.29589">
        <ele>502.2</ele>
        <time>2020-11-28T11:16:13Z</time>
      </trkpt>
      <trkpt lat="48.67183" lon="7.29582">
        <ele>502.6</ele>
        <time>2020-11-28T11:16:15Z</time>
      </trkpt>
      <trkpt lat="48.67171" lon="7.29577">
        <ele>502.6</ele>
        <time>2020-11-28T11:16:17Z</time>
      </trkpt>
      <trkpt lat="48.6716" lon="7.29569">
        <ele>502.4</ele>
        <time>2020-11-28T11:16:19Z</time>
      </trkpt>
      <trkpt lat="48.67149" lon="7.29561">
        <ele>502.9</ele>
        <time>2020-11-28T11:16:21Z</time>
      </trkpt>
      <trkpt lat="48.67135" lon="7.29558">
        <ele>503.8</ele>
        <time>2020-11-28T11:16:23Z</time>
      </trkpt>
      <trkpt lat="48.6712" lon="7.29555">
        <ele>504.7</ele>
        <time>2020-11-28T11:16:25Z</time>
      </trkpt>
      <trkpt lat="48.67105" lon="7.2955">
        <ele>505.3</ele>
        <time>2020-11-28T11:16:27Z</time>
      </trkpt>
      <trkpt lat="48.67093" lon="7.2954">
        <ele>506.1</ele>
        <time>2020-11-28T11:16:29Z</time>
      </trkpt>
      <trkpt lat="48.67081" lon="7.2953">
        <ele>506.6</ele>
        <time>2020-11-28T11:16:31Z</time>
      </trkpt>
      <trkpt lat="48.67072" lon="7.29517">
        <ele>506.9</ele>
        <time>2020-11-28T11:16:33Z</time>
      </trkpt>
      <trkpt lat="48.67061" lon="7.29503">
        <ele>506.6</ele>
        <time>2020-11-28T11:16:35Z</time>
      </trkpt>
      <trkpt lat="48.67052" lon="7.29488">
        <ele>505.8</ele>
        <time>2020-11-28T11:16:37Z</time>
      </trkpt>
      <trkpt lat="48.67043" lon="7.2947">
        <ele>506.5</ele>
        <time>2020-11-28T11:16:39Z</time>
      </trkpt>
      <trkpt lat="48.67035" lon="7.29454">
        <ele>506.7</ele>
        <time>2020-11-28T11:16:41Z</time>
      </trkpt>
      <trkpt lat="48.67028" lon="7.29438">
        <ele>507</ele>
        <time>2020-11-28T11:16:43Z</time>
      </trkpt>
      <trkpt lat="48.6702" lon="7.29423">
        <ele>507.1</ele>
        <time>2020-11-28T11:16:45Z</time>
      </trkpt>
      <trkpt lat="48.67012" lon="7.29407">
        <ele>507.2</ele>
        <time>2020-11-28T11:16:47Z</time>
      </trkpt>
      <trkpt lat="48.67005" lon="7.29391">
        <ele>507.9</ele>
        <time>2020-11-28T11:16:49Z</time>
      </trkpt>
      <trkpt lat="48.66997" lon="7.29375">
        <ele>507.4</ele>
        <time>2020-11-28T11:16:51Z</time>
      </trkpt>
      <trkpt lat="48.66989" lon="7.29359">
        <ele>506.9</ele>
        <time>2020-11-28T11:16:53Z</time>
      </trkpt>
      <trkpt lat="48.66981" lon="7.29342">
        <ele>506.1</ele>
        <time>2020-11-28T11:16:55Z</time>
      </trkpt>
      <trkpt lat="48.66974" lon="7.29324">
        <ele>505.4</ele>
        <time>2020-11-28T11:16:57Z</time>
      </trkpt>
      <trkpt lat="48.66967" lon="7.29305">
        <ele>505.2</ele>
        <time>2020-11-28T11:16:59Z</time>
      </trkpt>
      <trkpt lat="48.6696" lon="7.29287">
        <ele>504.7</ele>
        <time>2020-11-28T11:17:01Z</time>
      </trkpt>
      <trkpt lat="48.66952" lon="7.29271">
        <ele>504.8</ele>
        <time>2020-11-28T11:17:03Z</time>
      </trkpt>
      <trkpt lat="48.66946" lon="7.29255">
        <ele>504.6</ele>
        <time>2020-11-28T11:17:05Z</time>
      </trkpt>
      <trkpt lat="48.66939" lon="7.29239">
        <ele>506.2</ele>
        <time>2020-11-28T11:17:07Z</time>
      </trkpt>
      <trkpt lat="48.66934" lon="7.2922">
        <ele>506.3</ele>
        <time>2020-11-28T11:17:09Z</time>
      </trkpt>
      <trkpt lat="48.66929" lon="7.292">
        <ele>506.8</ele>
        <time>2020-11-28T11:17:11Z</time>
      </trkpt>
      <trkpt lat="48.66925" lon="7.2918">
        <ele>506.8</ele>
        <time>2020-11-28T11:17:13Z</time>
      </trkpt>
      <trkpt lat="48.6692" lon="7.2916">
        <ele>507.6</ele>
        <time>2020-11-28T11:17:15Z</time>
      </trkpt>
      <trkpt lat="48.66916" lon="7.29141">
        <ele>508.4</ele>
        <time>2020-11-28T11:17:17Z</time>
      </trkpt>
      <trkpt lat="48.66911" lon="7.29122">
        <ele>509.1</ele>
        <time>2020-11-28T11:17:19Z</time>
      </trkpt>
      <trkpt lat="48.66907" lon="7.29103">
        <ele>509.5</ele>
        <time>2020-11-28T11:17:21Z</time>
      </trkpt>
      <trkpt lat="48.66903" lon="7.29083">
        <ele>509.6</ele>
        <time>2020-11-28T11:17:23Z</time>
      </trkpt>
      <trkpt lat="48.66901" lon="7.29063">
        <ele>510.6</ele>
        <time>2020-11-28T11:17:25Z</time>
      </trkpt>
      <trkpt lat="48.66899" lon="7.29044">
        <ele>511.2</ele>
        <time>2020-11-28T11:17:27Z</time>
      </trkpt>
      <trkpt lat="48.66898" lon="7.29024">
        <ele>511.1</ele>
        <time>2020-11-28T11:17:29Z</time>
      </trkpt>
      <trkpt lat="48.66898" lon="7.29004">
        <ele>510</ele>
        <time>2020-11-28T11:17:31Z</time>
      </trkpt>
      <trkpt lat="48.66897" lon="7.28983">
        <ele>509.1</ele>
        <time>2020-11-28T11:17:33Z</time>
      </trkpt>
      <trkpt lat="48.66896" lon="7.28961">
        <ele>508.4</ele>
        <time>2020-11-28T11:17:35Z</time>
      </trkpt>
      <trkpt lat="48.66894" lon="7.28939">
        <ele>508.2</ele>
        <time>2020-11-28T11:17:37Z</time>
      </trkpt>
      <trkpt lat="48.66892" lon="7.28919">
        <ele>507.9</ele>
        <time>2020-11-28T11:17:39Z</time>
      </trkpt>
      <trkpt lat="48.6689" lon="7.28901">
        <ele>507.6</ele>
        <time>2020-11-28T11:17:41Z</time>
      </trkpt>
      <trkpt lat="48.66889" lon="7.28888">
        <ele>506.5</ele>
        <time>2020-11-28T11:17:43Z</time>
      </trkpt>
      <trkpt lat="48.66891" lon="7.28877">
        <ele>505.3</ele>
        <time>2020-11-28T11:17:45Z</time>
      </trkpt>
      <trkpt lat="48.66891" lon="7.28867">
        <ele>504.4</ele>
        <time>2020-11-28T11:17:47Z</time>
      </trkpt>
      <trkpt lat="48.66887" lon="7.28857">
        <ele>504.1</ele>
        <time>2020-11-28T11:17:49Z</time>
      </trkpt>
      <trkpt lat="48.66884" lon="7.2885">
        <ele>504.6</ele>
        <time>2020-11-28T11:17:52Z</time>
      </trkpt>
      <trkpt lat="48.66883" lon="7.28842">
        <ele>510.2</ele>
        <time>2020-11-28T11:18:29Z</time>
      </trkpt>
      <trkpt lat="48.66881" lon="7.28835">
        <ele>510.6</ele>
        <time>2020-11-28T11:18:32Z</time>
      </trkpt>
      <trkpt lat="48.66879" lon="7.28828">
        <ele>511</ele>
        <time>2020-11-28T11:18:34Z</time>
      </trkpt>
      <trkpt lat="48.66875" lon="7.28815">
        <ele>511.6</ele>
        <time>2020-11-28T11:18:37Z</time>
      </trkpt>
      <trkpt lat="48.6687" lon="7.28805">
        <ele>512.4</ele>
        <time>2020-11-28T11:18:39Z</time>
      </trkpt>
      <trkpt lat="48.66864" lon="7.28796">
        <ele>512.9</ele>
        <time>2020-11-28T11:18:41Z</time>
      </trkpt>
      <trkpt lat="48.6686" lon="7.28789">
        <ele>514</ele>
        <time>2020-11-28T11:18:43Z</time>
      </trkpt>
      <trkpt lat="48.66855" lon="7.28782">
        <ele>514.8</ele>
        <time>2020-11-28T11:18:45Z</time>
      </trkpt>
      <trkpt lat="48.6685" lon="7.28776">
        <ele>500.5</ele>
        <time>2020-11-28T11:18:47Z</time>
      </trkpt>
      <trkpt lat="48.66842" lon="7.28766">
        <ele>496.6</ele>
        <time>2020-11-28T11:18:50Z</time>
      </trkpt>
      <trkpt lat="48.66839" lon="7.28758">
        <ele>496.2</ele>
        <time>2020-11-28T11:18:52Z</time>
      </trkpt>
      <trkpt lat="48.66837" lon="7.28749">
        <ele>497.3</ele>
        <time>2020-11-28T11:18:54Z</time>
      </trkpt>
      <trkpt lat="48.66835" lon="7.28739">
        <ele>499.1</ele>
        <time>2020-11-28T11:18:56Z</time>
      </trkpt>
      <trkpt lat="48.66834" lon="7.28729">
        <ele>502</ele>
        <time>2020-11-28T11:18:58Z</time>
      </trkpt>
      <trkpt lat="48.66832" lon="7.28714">
        <ele>506</ele>
        <time>2020-11-28T11:19:01Z</time>
      </trkpt>
      <trkpt lat="48.6683" lon="7.287">
        <ele>509.5</ele>
        <time>2020-11-28T11:19:04Z</time>
      </trkpt>
      <trkpt lat="48.66828" lon="7.28689">
        <ele>511.3</ele>
        <time>2020-11-28T11:19:06Z</time>
      </trkpt>
      <trkpt lat="48.66822" lon="7.28674">
        <ele>512.9</ele>
        <time>2020-11-28T11:19:08Z</time>
      </trkpt>
      <trkpt lat="48.66817" lon="7.2866">
        <ele>514.2</ele>
        <time>2020-11-28T11:19:10Z</time>
      </trkpt>
      <trkpt lat="48.66814" lon="7.28646">
        <ele>516</ele>
        <time>2020-11-28T11:19:12Z</time>
      </trkpt>
      <trkpt lat="48.66811" lon="7.28634">
        <ele>506.5</ele>
        <time>2020-11-28T11:19:14Z</time>
      </trkpt>
      <trkpt lat="48.66808" lon="7.28616">
        <ele>507.6</ele>
        <time>2020-11-28T11:19:17Z</time>
      </trkpt>
      <trkpt lat="48.66805" lon="7.28604">
        <ele>510.1</ele>
        <time>2020-11-28T11:19:19Z</time>
      </trkpt>
      <trkpt lat="48.66804" lon="7.28594">
        <ele>511.7</ele>
        <time>2020-11-28T11:19:21Z</time>
      </trkpt>
      <trkpt lat="48.66803" lon="7.28585">
        <ele>514</ele>
        <time>2020-11-28T11:19:23Z</time>
      </trkpt>
      <trkpt lat="48.66803" lon="7.28577">
        <ele>515.3</ele>
        <time>2020-11-28T11:19:26Z</time>
      </trkpt>
      <trkpt lat="48.66803" lon="7.28569">
        <ele>516.1</ele>
        <time>2020-11-28T11:19:29Z</time>
      </trkpt>
      <trkpt lat="48.66801" lon="7.28562">
        <ele>516.5</ele>
        <time>2020-11-28T11:19:31Z</time>
      </trkpt>
      <trkpt lat="48.66797" lon="7.28554">
        <ele>517.2</ele>
        <time>2020-11-28T11:19:33Z</time>
      </trkpt>
      <trkpt lat="48.66793" lon="7.28547">
        <ele>517.5</ele>
        <time>2020-11-28T11:19:35Z</time>
      </trkpt>
      <trkpt lat="48.6679" lon="7.2854">
        <ele>518.1</ele>
        <time>2020-11-28T11:19:37Z</time>
      </trkpt>
      <trkpt lat="48.66787" lon="7.28533">
        <ele>518.6</ele>
        <time>2020-11-28T11:19:39Z</time>
      </trkpt>
      <trkpt lat="48.66784" lon="7.28526">
        <ele>519.4</ele>
        <time>2020-11-28T11:19:41Z</time>
      </trkpt>
      <trkpt lat="48.66781" lon="7.28519">
        <ele>519.7</ele>
        <time>2020-11-28T11:19:43Z</time>
      </trkpt>
      <trkpt lat="48.66778" lon="7.28511">
        <ele>520.5</ele>
        <time>2020-11-28T11:19:45Z</time>
      </trkpt>
      <trkpt lat="48.66775" lon="7.28502">
        <ele>521.1</ele>
        <time>2020-11-28T11:19:47Z</time>
      </trkpt>
      <trkpt lat="48.66771" lon="7.28492">
        <ele>522.1</ele>
        <time>2020-11-28T11:19:49Z</time>
      </trkpt>
      <trkpt lat="48.66768" lon="7.28483">
        <ele>522.6</ele>
        <time>2020-11-28T11:19:51Z</time>
      </trkpt>
      <trkpt lat="48.66763" lon="7.28474">
        <ele>522.8</ele>
        <time>2020-11-28T11:19:53Z</time>
      </trkpt>
      <trkpt lat="48.66758" lon="7.28466">
        <ele>523.4</ele>
        <time>2020-11-28T11:19:55Z</time>
      </trkpt>
      <trkpt lat="48.66754" lon="7.2846">
        <ele>524</ele>
        <time>2020-11-28T11:19:57Z</time>
      </trkpt>
      <trkpt lat="48.66749" lon="7.28455">
        <ele>524.3</ele>
        <time>2020-11-28T11:19:59Z</time>
      </trkpt>
      <trkpt lat="48.66746" lon="7.2845">
        <ele>526.3</ele>
        <time>2020-11-28T11:20:06Z</time>
      </trkpt>
      <trkpt lat="48.66741" lon="7.28446">
        <ele>529.2</ele>
        <time>2020-11-28T11:20:13Z</time>
      </trkpt>
      <trkpt lat="48.66735" lon="7.28443">
        <ele>529.7</ele>
        <time>2020-11-28T11:20:16Z</time>
      </trkpt>
      <trkpt lat="48.66727" lon="7.28439">
        <ele>530.4</ele>
        <time>2020-11-28T11:20:19Z</time>
      </trkpt>
      <trkpt lat="48.66721" lon="7.28437">
        <ele>530.6</ele>
        <time>2020-11-28T11:20:21Z</time>
      </trkpt>
      <trkpt lat="48.66716" lon="7.28434">
        <ele>530.9</ele>
        <time>2020-11-28T11:20:23Z</time>
      </trkpt>
      <trkpt lat="48.6671" lon="7.28431">
        <ele>531.3</ele>
        <time>2020-11-28T11:20:25Z</time>
      </trkpt>
      <trkpt lat="48.66705" lon="7.28428">
        <ele>531.3</ele>
        <time>2020-11-28T11:20:27Z</time>
      </trkpt>
      <trkpt lat="48.667" lon="7.28425">
        <ele>531.4</ele>
        <time>2020-11-28T11:20:29Z</time>
      </trkpt>
      <trkpt lat="48.66696" lon="7.28421">
        <ele>531.8</ele>
        <time>2020-11-28T11:20:31Z</time>
      </trkpt>
      <trkpt lat="48.6669" lon="7.28418">
        <ele>532</ele>
        <time>2020-11-28T11:20:33Z</time>
      </trkpt>
      <trkpt lat="48.66682" lon="7.28413">
        <ele>532.4</ele>
        <time>2020-11-28T11:20:36Z</time>
      </trkpt>
      <trkpt lat="48.66675" lon="7.28409">
        <ele>532.9</ele>
        <time>2020-11-28T11:20:39Z</time>
      </trkpt>
      <trkpt lat="48.66669" lon="7.28406">
        <ele>533.4</ele>
        <time>2020-11-28T11:20:41Z</time>
      </trkpt>
      <trkpt lat="48.66663" lon="7.28404">
        <ele>533.7</ele>
        <time>2020-11-28T11:20:43Z</time>
      </trkpt>
      <trkpt lat="48.66656" lon="7.28402">
        <ele>533.3</ele>
        <time>2020-11-28T11:20:45Z</time>
      </trkpt>
      <trkpt lat="48.6665" lon="7.28399">
        <ele>532.8</ele>
        <time>2020-11-28T11:20:47Z</time>
      </trkpt>
      <trkpt lat="48.66643" lon="7.28397">
        <ele>531.6</ele>
        <time>2020-11-28T11:20:49Z</time>
      </trkpt>
      <trkpt lat="48.66637" lon="7.28395">
        <ele>531.1</ele>
        <time>2020-11-28T11:20:51Z</time>
      </trkpt>
      <trkpt lat="48.66629" lon="7.28393">
        <ele>530.7</ele>
        <time>2020-11-28T11:20:53Z</time>
      </trkpt>
      <trkpt lat="48.66621" lon="7.28389">
        <ele>530.1</ele>
        <time>2020-11-28T11:20:55Z</time>
      </trkpt>
      <trkpt lat="48.66613" lon="7.28385">
        <ele>530.3</ele>
        <time>2020-11-28T11:20:57Z</time>
      </trkpt>
      <trkpt lat="48.66605" lon="7.28382">
        <ele>530.5</ele>
        <time>2020-11-28T11:20:59Z</time>
      </trkpt>
      <trkpt lat="48.66598" lon="7.28378">
        <ele>530.7</ele>
        <time>2020-11-28T11:21:01Z</time>
      </trkpt>
      <trkpt lat="48.6659" lon="7.28374">
        <ele>530.9</ele>
        <time>2020-11-28T11:21:03Z</time>
      </trkpt>
      <trkpt lat="48.66582" lon="7.2837">
        <ele>531.7</ele>
        <time>2020-11-28T11:21:05Z</time>
      </trkpt>
      <trkpt lat="48.66574" lon="7.28367">
        <ele>532.3</ele>
        <time>2020-11-28T11:21:07Z</time>
      </trkpt>
      <trkpt lat="48.66565" lon="7.28363">
        <ele>533.2</ele>
        <time>2020-11-28T11:21:09Z</time>
      </trkpt>
      <trkpt lat="48.66558" lon="7.2836">
        <ele>533.8</ele>
        <time>2020-11-28T11:21:11Z</time>
      </trkpt>
      <trkpt lat="48.66551" lon="7.28358">
        <ele>534.7</ele>
        <time>2020-11-28T11:21:13Z</time>
      </trkpt>
      <trkpt lat="48.66544" lon="7.28354">
        <ele>535.9</ele>
        <time>2020-11-28T11:21:15Z</time>
      </trkpt>
      <trkpt lat="48.66537" lon="7.28351">
        <ele>536.6</ele>
        <time>2020-11-28T11:21:17Z</time>
      </trkpt>
      <trkpt lat="48.6653" lon="7.28346">
        <ele>536.9</ele>
        <time>2020-11-28T11:21:19Z</time>
      </trkpt>
      <trkpt lat="48.66521" lon="7.28343">
        <ele>537.1</ele>
        <time>2020-11-28T11:21:21Z</time>
      </trkpt>
      <trkpt lat="48.66512" lon="7.2834">
        <ele>537.5</ele>
        <time>2020-11-28T11:21:23Z</time>
      </trkpt>
      <trkpt lat="48.66504" lon="7.28336">
        <ele>537.9</ele>
        <time>2020-11-28T11:21:25Z</time>
      </trkpt>
      <trkpt lat="48.66497" lon="7.28332">
        <ele>538.4</ele>
        <time>2020-11-28T11:21:27Z</time>
      </trkpt>
      <trkpt lat="48.6649" lon="7.28328">
        <ele>538.8</ele>
        <time>2020-11-28T11:21:29Z</time>
      </trkpt>
      <trkpt lat="48.66484" lon="7.28324">
        <ele>538.5</ele>
        <time>2020-11-28T11:21:31Z</time>
      </trkpt>
      <trkpt lat="48.66477" lon="7.2832">
        <ele>538.8</ele>
        <time>2020-11-28T11:21:33Z</time>
      </trkpt>
      <trkpt lat="48.66471" lon="7.28316">
        <ele>539.4</ele>
        <time>2020-11-28T11:21:35Z</time>
      </trkpt>
      <trkpt lat="48.66465" lon="7.28311">
        <ele>539.5</ele>
        <time>2020-11-28T11:21:37Z</time>
      </trkpt>
      <trkpt lat="48.66458" lon="7.28306">
        <ele>539.8</ele>
        <time>2020-11-28T11:21:39Z</time>
      </trkpt>
      <trkpt lat="48.66451" lon="7.28298">
        <ele>540.2</ele>
        <time>2020-11-28T11:21:41Z</time>
      </trkpt>
      <trkpt lat="48.66445" lon="7.2829">
        <ele>540.6</ele>
        <time>2020-11-28T11:21:43Z</time>
      </trkpt>
      <trkpt lat="48.66439" lon="7.28282">
        <ele>541.3</ele>
        <time>2020-11-28T11:21:45Z</time>
      </trkpt>
      <trkpt lat="48.66433" lon="7.28274">
        <ele>541.8</ele>
        <time>2020-11-28T11:21:47Z</time>
      </trkpt>
      <trkpt lat="48.66428" lon="7.28265">
        <ele>541.8</ele>
        <time>2020-11-28T11:21:49Z</time>
      </trkpt>
      <trkpt lat="48.66424" lon="7.28257">
        <ele>541.8</ele>
        <time>2020-11-28T11:21:51Z</time>
      </trkpt>
      <trkpt lat="48.66421" lon="7.28251">
        <ele>541.5</ele>
        <time>2020-11-28T11:21:53Z</time>
      </trkpt>
      <trkpt lat="48.66418" lon="7.28246">
        <ele>541.2</ele>
        <time>2020-11-28T11:21:55Z</time>
      </trkpt>
      <trkpt lat="48.66413" lon="7.28239">
        <ele>541.3</ele>
        <time>2020-11-28T11:21:57Z</time>
      </trkpt>
      <trkpt lat="48.66409" lon="7.28231">
        <ele>541.9</ele>
        <time>2020-11-28T11:21:59Z</time>
      </trkpt>
      <trkpt lat="48.66406" lon="7.28221">
        <ele>543.3</ele>
        <time>2020-11-28T11:22:01Z</time>
      </trkpt>
      <trkpt lat="48.66401" lon="7.28208">
        <ele>543.8</ele>
        <time>2020-11-28T11:22:04Z</time>
      </trkpt>
      <trkpt lat="48.66398" lon="7.28199">
        <ele>543.5</ele>
        <time>2020-11-28T11:22:06Z</time>
      </trkpt>
      <trkpt lat="48.66394" lon="7.28191">
        <ele>543.6</ele>
        <time>2020-11-28T11:22:08Z</time>
      </trkpt>
      <trkpt lat="48.66386" lon="7.28179">
        <ele>504.5</ele>
        <time>2020-11-28T11:22:11Z</time>
      </trkpt>
      <trkpt lat="48.66381" lon="7.28172">
        <ele>498.7</ele>
        <time>2020-11-28T11:22:13Z</time>
      </trkpt>
      <trkpt lat="48.66377" lon="7.28165">
        <ele>489.9</ele>
        <time>2020-11-28T11:22:15Z</time>
      </trkpt>
      <trkpt lat="48.66373" lon="7.28159">
        <ele>490.8</ele>
        <time>2020-11-28T11:22:17Z</time>
      </trkpt>
      <trkpt lat="48.66369" lon="7.28153">
        <ele>494.4</ele>
        <time>2020-11-28T11:22:19Z</time>
      </trkpt>
      <trkpt lat="48.66364" lon="7.28147">
        <ele>501.4</ele>
        <time>2020-11-28T11:22:21Z</time>
      </trkpt>
      <trkpt lat="48.66359" lon="7.28142">
        <ele>505.5</ele>
        <time>2020-11-28T11:22:23Z</time>
      </trkpt>
      <trkpt lat="48.66353" lon="7.28137">
        <ele>508.9</ele>
        <time>2020-11-28T11:22:25Z</time>
      </trkpt>
      <trkpt lat="48.66347" lon="7.28131">
        <ele>514.8</ele>
        <time>2020-11-28T11:22:27Z</time>
      </trkpt>
      <trkpt lat="48.66341" lon="7.28126">
        <ele>519.5</ele>
        <time>2020-11-28T11:22:29Z</time>
      </trkpt>
      <trkpt lat="48.66335" lon="7.28122">
        <ele>523.4</ele>
        <time>2020-11-28T11:22:31Z</time>
      </trkpt>
      <trkpt lat="48.66329" lon="7.28117">
        <ele>527.6</ele>
        <time>2020-11-28T11:22:33Z</time>
      </trkpt>
      <trkpt lat="48.66322" lon="7.28113">
        <ele>530.6</ele>
        <time>2020-11-28T11:22:35Z</time>
      </trkpt>
      <trkpt lat="48.66316" lon="7.28109">
        <ele>533</ele>
        <time>2020-11-28T11:22:37Z</time>
      </trkpt>
      <trkpt lat="48.6631" lon="7.28105">
        <ele>534.6</ele>
        <time>2020-11-28T11:22:39Z</time>
      </trkpt>
      <trkpt lat="48.66303" lon="7.28103">
        <ele>535.9</ele>
        <time>2020-11-28T11:22:41Z</time>
      </trkpt>
      <trkpt lat="48.66295" lon="7.281">
        <ele>537.8</ele>
        <time>2020-11-28T11:22:43Z</time>
      </trkpt>
      <trkpt lat="48.66286" lon="7.28097">
        <ele>539.9</ele>
        <time>2020-11-28T11:22:45Z</time>
      </trkpt>
      <trkpt lat="48.66278" lon="7.28095">
        <ele>541.9</ele>
        <time>2020-11-28T11:22:47Z</time>
      </trkpt>
      <trkpt lat="48.66271" lon="7.28092">
        <ele>543.8</ele>
        <time>2020-11-28T11:22:49Z</time>
      </trkpt>
      <trkpt lat="48.66264" lon="7.2809">
        <ele>544.8</ele>
        <time>2020-11-28T11:22:51Z</time>
      </trkpt>
      <trkpt lat="48.66257" lon="7.2809">
        <ele>516.3</ele>
        <time>2020-11-28T11:22:53Z</time>
      </trkpt>
      <trkpt lat="48.66252" lon="7.28092">
        <ele>510.9</ele>
        <time>2020-11-28T11:22:55Z</time>
      </trkpt>
      <trkpt lat="48.66248" lon="7.28095">
        <ele>511.2</ele>
        <time>2020-11-28T11:22:58Z</time>
      </trkpt>
      <trkpt lat="48.66244" lon="7.28098">
        <ele>541.3</ele>
        <time>2020-11-28T11:23:15Z</time>
      </trkpt>
      <trkpt lat="48.6624" lon="7.281">
        <ele>546.1</ele>
        <time>2020-11-28T11:23:18Z</time>
      </trkpt>
      <trkpt lat="48.66232" lon="7.28103">
        <ele>549.6</ele>
        <time>2020-11-28T11:23:21Z</time>
      </trkpt>
      <trkpt lat="48.66223" lon="7.28106">
        <ele>552.2</ele>
        <time>2020-11-28T11:23:24Z</time>
      </trkpt>
      <trkpt lat="48.66217" lon="7.28107">
        <ele>553.6</ele>
        <time>2020-11-28T11:23:26Z</time>
      </trkpt>
      <trkpt lat="48.6621" lon="7.28109">
        <ele>554.3</ele>
        <time>2020-11-28T11:23:28Z</time>
      </trkpt>
      <trkpt lat="48.66204" lon="7.2811">
        <ele>554.9</ele>
        <time>2020-11-28T11:23:30Z</time>
      </trkpt>
      <trkpt lat="48.66197" lon="7.28111">
        <ele>554.9</ele>
        <time>2020-11-28T11:23:32Z</time>
      </trkpt>
      <trkpt lat="48.6619" lon="7.28112">
        <ele>555.2</ele>
        <time>2020-11-28T11:23:34Z</time>
      </trkpt>
      <trkpt lat="48.66183" lon="7.28113">
        <ele>555.8</ele>
        <time>2020-11-28T11:23:36Z</time>
      </trkpt>
      <trkpt lat="48.66177" lon="7.28113">
        <ele>556.8</ele>
        <time>2020-11-28T11:23:38Z</time>
      </trkpt>
      <trkpt lat="48.6617" lon="7.28113">
        <ele>557.7</ele>
        <time>2020-11-28T11:23:40Z</time>
      </trkpt>
      <trkpt lat="48.66158" lon="7.28113">
        <ele>559.7</ele>
        <time>2020-11-28T11:23:43Z</time>
      </trkpt>
      <trkpt lat="48.6615" lon="7.28115">
        <ele>560.2</ele>
        <time>2020-11-28T11:23:45Z</time>
      </trkpt>
      <trkpt lat="48.66143" lon="7.28119">
        <ele>561.2</ele>
        <time>2020-11-28T11:23:47Z</time>
      </trkpt>
      <trkpt lat="48.66127" lon="7.28126">
        <ele>561.7</ele>
        <time>2020-11-28T11:23:50Z</time>
      </trkpt>
      <trkpt lat="48.66112" lon="7.28131">
        <ele>561.3</ele>
        <time>2020-11-28T11:23:53Z</time>
      </trkpt>
      <trkpt lat="48.66103" lon="7.28133">
        <ele>561</ele>
        <time>2020-11-28T11:23:55Z</time>
      </trkpt>
      <trkpt lat="48.66087" lon="7.28136">
        <ele>561.8</ele>
        <time>2020-11-28T11:23:58Z</time>
      </trkpt>
      <trkpt lat="48.66072" lon="7.28138">
        <ele>562.4</ele>
        <time>2020-11-28T11:24:01Z</time>
      </trkpt>
      <trkpt lat="48.66064" lon="7.28137">
        <ele>562.7</ele>
        <time>2020-11-28T11:24:03Z</time>
      </trkpt>
      <trkpt lat="48.66054" lon="7.28135">
        <ele>563.2</ele>
        <time>2020-11-28T11:24:05Z</time>
      </trkpt>
      <trkpt lat="48.66045" lon="7.28133">
        <ele>563.5</ele>
        <time>2020-11-28T11:24:07Z</time>
      </trkpt>
      <trkpt lat="48.66036" lon="7.28128">
        <ele>563.8</ele>
        <time>2020-11-28T11:24:09Z</time>
      </trkpt>
      <trkpt lat="48.66028" lon="7.28123">
        <ele>563.7</ele>
        <time>2020-11-28T11:24:11Z</time>
      </trkpt>
      <trkpt lat="48.66018" lon="7.28116">
        <ele>563.2</ele>
        <time>2020-11-28T11:24:13Z</time>
      </trkpt>
      <trkpt lat="48.66009" lon="7.28108">
        <ele>563</ele>
        <time>2020-11-28T11:24:15Z</time>
      </trkpt>
      <trkpt lat="48.65999" lon="7.28101">
        <ele>562.5</ele>
        <time>2020-11-28T11:24:17Z</time>
      </trkpt>
      <trkpt lat="48.65991" lon="7.28092">
        <ele>562.3</ele>
        <time>2020-11-28T11:24:19Z</time>
      </trkpt>
      <trkpt lat="48.65982" lon="7.28083">
        <ele>562.5</ele>
        <time>2020-11-28T11:24:21Z</time>
      </trkpt>
      <trkpt lat="48.65973" lon="7.28075">
        <ele>563.2</ele>
        <time>2020-11-28T11:24:23Z</time>
      </trkpt>
      <trkpt lat="48.65963" lon="7.28069">
        <ele>564</ele>
        <time>2020-11-28T11:24:25Z</time>
      </trkpt>
      <trkpt lat="48.65953" lon="7.28063">
        <ele>564.9</ele>
        <time>2020-11-28T11:24:27Z</time>
      </trkpt>
      <trkpt lat="48.65943" lon="7.2806">
        <ele>566.4</ele>
        <time>2020-11-28T11:24:29Z</time>
      </trkpt>
      <trkpt lat="48.65933" lon="7.28059">
        <ele>567.2</ele>
        <time>2020-11-28T11:24:31Z</time>
      </trkpt>
      <trkpt lat="48.65924" lon="7.28058">
        <ele>568.7</ele>
        <time>2020-11-28T11:24:33Z</time>
      </trkpt>
      <trkpt lat="48.65914" lon="7.28055">
        <ele>569.3</ele>
        <time>2020-11-28T11:24:35Z</time>
      </trkpt>
      <trkpt lat="48.65904" lon="7.28053">
        <ele>570.1</ele>
        <time>2020-11-28T11:24:37Z</time>
      </trkpt>
      <trkpt lat="48.65894" lon="7.28054">
        <ele>571</ele>
        <time>2020-11-28T11:24:39Z</time>
      </trkpt>
      <trkpt lat="48.65885" lon="7.28055">
        <ele>571.7</ele>
        <time>2020-11-28T11:24:41Z</time>
      </trkpt>
      <trkpt lat="48.65876" lon="7.28056">
        <ele>572.3</ele>
        <time>2020-11-28T11:24:43Z</time>
      </trkpt>
      <trkpt lat="48.65866" lon="7.28057">
        <ele>572.3</ele>
        <time>2020-11-28T11:24:45Z</time>
      </trkpt>
      <trkpt lat="48.65857" lon="7.28058">
        <ele>572.3</ele>
        <time>2020-11-28T11:24:47Z</time>
      </trkpt>
      <trkpt lat="48.65848" lon="7.28059">
        <ele>572.2</ele>
        <time>2020-11-28T11:24:49Z</time>
      </trkpt>
      <trkpt lat="48.65836" lon="7.28061">
        <ele>572.5</ele>
        <time>2020-11-28T11:24:51Z</time>
      </trkpt>
      <trkpt lat="48.65825" lon="7.28064">
        <ele>572.9</ele>
        <time>2020-11-28T11:24:53Z</time>
      </trkpt>
      <trkpt lat="48.65815" lon="7.28067">
        <ele>573.2</ele>
        <time>2020-11-28T11:24:55Z</time>
      </trkpt>
      <trkpt lat="48.65806" lon="7.28069">
        <ele>573.6</ele>
        <time>2020-11-28T11:24:57Z</time>
      </trkpt>
      <trkpt lat="48.65797" lon="7.28073">
        <ele>573.9</ele>
        <time>2020-11-28T11:24:59Z</time>
      </trkpt>
      <trkpt lat="48.65786" lon="7.28078">
        <ele>573.9</ele>
        <time>2020-11-28T11:25:01Z</time>
      </trkpt>
      <trkpt lat="48.65775" lon="7.28083">
        <ele>574.6</ele>
        <time>2020-11-28T11:25:03Z</time>
      </trkpt>
      <trkpt lat="48.65766" lon="7.28087">
        <ele>575.6</ele>
        <time>2020-11-28T11:25:05Z</time>
      </trkpt>
      <trkpt lat="48.65758" lon="7.28091">
        <ele>576.5</ele>
        <time>2020-11-28T11:25:07Z</time>
      </trkpt>
      <trkpt lat="48.65749" lon="7.28095">
        <ele>577.7</ele>
        <time>2020-11-28T11:25:09Z</time>
      </trkpt>
      <trkpt lat="48.65737" lon="7.28105">
        <ele>578.4</ele>
        <time>2020-11-28T11:25:12Z</time>
      </trkpt>
      <trkpt lat="48.65729" lon="7.28117">
        <ele>577.4</ele>
        <time>2020-11-28T11:25:14Z</time>
      </trkpt>
      <trkpt lat="48.65721" lon="7.28129">
        <ele>577.3</ele>
        <time>2020-11-28T11:25:16Z</time>
      </trkpt>
      <trkpt lat="48.65713" lon="7.2814">
        <ele>577.1</ele>
        <time>2020-11-28T11:25:18Z</time>
      </trkpt>
      <trkpt lat="48.65706" lon="7.2815">
        <ele>577.1</ele>
        <time>2020-11-28T11:25:20Z</time>
      </trkpt>
      <trkpt lat="48.65699" lon="7.28159">
        <ele>576.8</ele>
        <time>2020-11-28T11:25:22Z</time>
      </trkpt>
      <trkpt lat="48.65691" lon="7.28167">
        <ele>576.3</ele>
        <time>2020-11-28T11:25:24Z</time>
      </trkpt>
      <trkpt lat="48.65682" lon="7.28175">
        <ele>576.2</ele>
        <time>2020-11-28T11:25:26Z</time>
      </trkpt>
      <trkpt lat="48.65673" lon="7.28183">
        <ele>575.2</ele>
        <time>2020-11-28T11:25:28Z</time>
      </trkpt>
      <trkpt lat="48.65664" lon="7.2819">
        <ele>574.7</ele>
        <time>2020-11-28T11:25:30Z</time>
      </trkpt>
      <trkpt lat="48.65656" lon="7.28195">
        <ele>574.5</ele>
        <time>2020-11-28T11:25:32Z</time>
      </trkpt>
      <trkpt lat="48.65648" lon="7.282">
        <ele>574</ele>
        <time>2020-11-28T11:25:34Z</time>
      </trkpt>
      <trkpt lat="48.6564" lon="7.28205">
        <ele>573.1</ele>
        <time>2020-11-28T11:25:36Z</time>
      </trkpt>
      <trkpt lat="48.6563" lon="7.28209">
        <ele>573.3</ele>
        <time>2020-11-28T11:25:38Z</time>
      </trkpt>
      <trkpt lat="48.65622" lon="7.28212">
        <ele>574</ele>
        <time>2020-11-28T11:25:40Z</time>
      </trkpt>
      <trkpt lat="48.65613" lon="7.28216">
        <ele>574.7</ele>
        <time>2020-11-28T11:25:42Z</time>
      </trkpt>
      <trkpt lat="48.65602" lon="7.28222">
        <ele>575.7</ele>
        <time>2020-11-28T11:25:44Z</time>
      </trkpt>
      <trkpt lat="48.65591" lon="7.28229">
        <ele>576.2</ele>
        <time>2020-11-28T11:25:46Z</time>
      </trkpt>
      <trkpt lat="48.6558" lon="7.28233">
        <ele>577.5</ele>
        <time>2020-11-28T11:25:48Z</time>
      </trkpt>
      <trkpt lat="48.6557" lon="7.28235">
        <ele>579.4</ele>
        <time>2020-11-28T11:25:50Z</time>
      </trkpt>
      <trkpt lat="48.65562" lon="7.28236">
        <ele>581.1</ele>
        <time>2020-11-28T11:25:52Z</time>
      </trkpt>
      <trkpt lat="48.65548" lon="7.28237">
        <ele>583.9</ele>
        <time>2020-11-28T11:25:55Z</time>
      </trkpt>
      <trkpt lat="48.6554" lon="7.28238">
        <ele>585.2</ele>
        <time>2020-11-28T11:25:57Z</time>
      </trkpt>
      <trkpt lat="48.65532" lon="7.2824">
        <ele>585.4</ele>
        <time>2020-11-28T11:25:59Z</time>
      </trkpt>
      <trkpt lat="48.65525" lon="7.28239">
        <ele>585.4</ele>
        <time>2020-11-28T11:26:01Z</time>
      </trkpt>
      <trkpt lat="48.65517" lon="7.28237">
        <ele>585.6</ele>
        <time>2020-11-28T11:26:03Z</time>
      </trkpt>
      <trkpt lat="48.65509" lon="7.28236">
        <ele>583.9</ele>
        <time>2020-11-28T11:26:05Z</time>
      </trkpt>
      <trkpt lat="48.65501" lon="7.28236">
        <ele>583</ele>
        <time>2020-11-28T11:26:07Z</time>
      </trkpt>
      <trkpt lat="48.65492" lon="7.28237">
        <ele>582.3</ele>
        <time>2020-11-28T11:26:09Z</time>
      </trkpt>
      <trkpt lat="48.65482" lon="7.28238">
        <ele>581.7</ele>
        <time>2020-11-28T11:26:11Z</time>
      </trkpt>
      <trkpt lat="48.65473" lon="7.28238">
        <ele>581.6</ele>
        <time>2020-11-28T11:26:13Z</time>
      </trkpt>
      <trkpt lat="48.65462" lon="7.28238">
        <ele>581.7</ele>
        <time>2020-11-28T11:26:15Z</time>
      </trkpt>
      <trkpt lat="48.65453" lon="7.28237">
        <ele>582.3</ele>
        <time>2020-11-28T11:26:17Z</time>
      </trkpt>
      <trkpt lat="48.65443" lon="7.28237">
        <ele>583.1</ele>
        <time>2020-11-28T11:26:19Z</time>
      </trkpt>
      <trkpt lat="48.65434" lon="7.28236">
        <ele>582.9</ele>
        <time>2020-11-28T11:26:21Z</time>
      </trkpt>
      <trkpt lat="48.65427" lon="7.28237">
        <ele>583.5</ele>
        <time>2020-11-28T11:26:23Z</time>
      </trkpt>
      <trkpt lat="48.6542" lon="7.28235">
        <ele>583.8</ele>
        <time>2020-11-28T11:26:25Z</time>
      </trkpt>
      <trkpt lat="48.65413" lon="7.28234">
        <ele>584.6</ele>
        <time>2020-11-28T11:26:27Z</time>
      </trkpt>
      <trkpt lat="48.65406" lon="7.28231">
        <ele>584.9</ele>
        <time>2020-11-28T11:26:29Z</time>
      </trkpt>
      <trkpt lat="48.65398" lon="7.28229">
        <ele>584.8</ele>
        <time>2020-11-28T11:26:31Z</time>
      </trkpt>
      <trkpt lat="48.65391" lon="7.28228">
        <ele>584.7</ele>
        <time>2020-11-28T11:26:33Z</time>
      </trkpt>
      <trkpt lat="48.65382" lon="7.28227">
        <ele>584.6</ele>
        <time>2020-11-28T11:26:35Z</time>
      </trkpt>
      <trkpt lat="48.65375" lon="7.28227">
        <ele>585</ele>
        <time>2020-11-28T11:26:37Z</time>
      </trkpt>
      <trkpt lat="48.65368" lon="7.28226">
        <ele>585.4</ele>
        <time>2020-11-28T11:26:39Z</time>
      </trkpt>
      <trkpt lat="48.65362" lon="7.28226">
        <ele>586</ele>
        <time>2020-11-28T11:26:41Z</time>
      </trkpt>
      <trkpt lat="48.65355" lon="7.28227">
        <ele>586.8</ele>
        <time>2020-11-28T11:26:43Z</time>
      </trkpt>
      <trkpt lat="48.65349" lon="7.28228">
        <ele>588.7</ele>
        <time>2020-11-28T11:26:45Z</time>
      </trkpt>
      <trkpt lat="48.65341" lon="7.2823">
        <ele>588.8</ele>
        <time>2020-11-28T11:26:47Z</time>
      </trkpt>
      <trkpt lat="48.65334" lon="7.28232">
        <ele>590.3</ele>
        <time>2020-11-28T11:26:49Z</time>
      </trkpt>
      <trkpt lat="48.65327" lon="7.28235">
        <ele>591.6</ele>
        <time>2020-11-28T11:26:51Z</time>
      </trkpt>
      <trkpt lat="48.6532" lon="7.28238">
        <ele>592.5</ele>
        <time>2020-11-28T11:26:53Z</time>
      </trkpt>
      <trkpt lat="48.65312" lon="7.28243">
        <ele>593.1</ele>
        <time>2020-11-28T11:26:55Z</time>
      </trkpt>
      <trkpt lat="48.65304" lon="7.28249">
        <ele>594</ele>
        <time>2020-11-28T11:26:57Z</time>
      </trkpt>
      <trkpt lat="48.65297" lon="7.28255">
        <ele>594</ele>
        <time>2020-11-28T11:26:59Z</time>
      </trkpt>
      <trkpt lat="48.65289" lon="7.28262">
        <ele>594.7</ele>
        <time>2020-11-28T11:27:01Z</time>
      </trkpt>
      <trkpt lat="48.65281" lon="7.28268">
        <ele>590.8</ele>
        <time>2020-11-28T11:27:03Z</time>
      </trkpt>
      <trkpt lat="48.65275" lon="7.28274">
        <ele>590.9</ele>
        <time>2020-11-28T11:27:05Z</time>
      </trkpt>
      <trkpt lat="48.65268" lon="7.28281">
        <ele>590.8</ele>
        <time>2020-11-28T11:27:07Z</time>
      </trkpt>
      <trkpt lat="48.65262" lon="7.28289">
        <ele>592.2</ele>
        <time>2020-11-28T11:27:09Z</time>
      </trkpt>
      <trkpt lat="48.65255" lon="7.28297">
        <ele>593</ele>
        <time>2020-11-28T11:27:11Z</time>
      </trkpt>
      <trkpt lat="48.65249" lon="7.28304">
        <ele>594.4</ele>
        <time>2020-11-28T11:27:13Z</time>
      </trkpt>
      <trkpt lat="48.65243" lon="7.28312">
        <ele>591.2</ele>
        <time>2020-11-28T11:27:15Z</time>
      </trkpt>
      <trkpt lat="48.65236" lon="7.28322">
        <ele>591.9</ele>
        <time>2020-11-28T11:27:17Z</time>
      </trkpt>
      <trkpt lat="48.65229" lon="7.28332">
        <ele>591.9</ele>
        <time>2020-11-28T11:27:19Z</time>
      </trkpt>
      <trkpt lat="48.65222" lon="7.28342">
        <ele>593.3</ele>
        <time>2020-11-28T11:27:21Z</time>
      </trkpt>
      <trkpt lat="48.65216" lon="7.28351">
        <ele>595.1</ele>
        <time>2020-11-28T11:27:23Z</time>
      </trkpt>
      <trkpt lat="48.65209" lon="7.28361">
        <ele>597.1</ele>
        <time>2020-11-28T11:27:25Z</time>
      </trkpt>
      <trkpt lat="48.65203" lon="7.28371">
        <ele>598.8</ele>
        <time>2020-11-28T11:27:27Z</time>
      </trkpt>
      <trkpt lat="48.65196" lon="7.2838">
        <ele>600.7</ele>
        <time>2020-11-28T11:27:29Z</time>
      </trkpt>
      <trkpt lat="48.6519" lon="7.28389">
        <ele>602.2</ele>
        <time>2020-11-28T11:27:31Z</time>
      </trkpt>
      <trkpt lat="48.65183" lon="7.28398">
        <ele>602.6</ele>
        <time>2020-11-28T11:27:33Z</time>
      </trkpt>
      <trkpt lat="48.65177" lon="7.28407">
        <ele>602.8</ele>
        <time>2020-11-28T11:27:35Z</time>
      </trkpt>
      <trkpt lat="48.6517" lon="7.28414">
        <ele>603.9</ele>
        <time>2020-11-28T11:27:37Z</time>
      </trkpt>
      <trkpt lat="48.65163" lon="7.28421">
        <ele>604.8</ele>
        <time>2020-11-28T11:27:39Z</time>
      </trkpt>
      <trkpt lat="48.65154" lon="7.28427">
        <ele>605.5</ele>
        <time>2020-11-28T11:27:41Z</time>
      </trkpt>
      <trkpt lat="48.65148" lon="7.28433">
        <ele>606.1</ele>
        <time>2020-11-28T11:27:43Z</time>
      </trkpt>
      <trkpt lat="48.65142" lon="7.28437">
        <ele>606.5</ele>
        <time>2020-11-28T11:27:45Z</time>
      </trkpt>
      <trkpt lat="48.65135" lon="7.28442">
        <ele>606.1</ele>
        <time>2020-11-28T11:27:47Z</time>
      </trkpt>
      <trkpt lat="48.65127" lon="7.28452">
        <ele>606.2</ele>
        <time>2020-11-28T11:27:49Z</time>
      </trkpt>
      <trkpt lat="48.65118" lon="7.28461">
        <ele>606.4</ele>
        <time>2020-11-28T11:27:51Z</time>
      </trkpt>
      <trkpt lat="48.65109" lon="7.28468">
        <ele>606.8</ele>
        <time>2020-11-28T11:27:53Z</time>
      </trkpt>
      <trkpt lat="48.65102" lon="7.28476">
        <ele>607</ele>
        <time>2020-11-28T11:27:55Z</time>
      </trkpt>
      <trkpt lat="48.65095" lon="7.28486">
        <ele>606.9</ele>
        <time>2020-11-28T11:27:57Z</time>
      </trkpt>
      <trkpt lat="48.65087" lon="7.28494">
        <ele>606.5</ele>
        <time>2020-11-28T11:27:59Z</time>
      </trkpt>
      <trkpt lat="48.6508" lon="7.28504">
        <ele>605.8</ele>
        <time>2020-11-28T11:28:01Z</time>
      </trkpt>
      <trkpt lat="48.65072" lon="7.28512">
        <ele>605.8</ele>
        <time>2020-11-28T11:28:03Z</time>
      </trkpt>
      <trkpt lat="48.65065" lon="7.2852">
        <ele>606.4</ele>
        <time>2020-11-28T11:28:05Z</time>
      </trkpt>
      <trkpt lat="48.65058" lon="7.28527">
        <ele>607.1</ele>
        <time>2020-11-28T11:28:07Z</time>
      </trkpt>
      <trkpt lat="48.65052" lon="7.28534">
        <ele>607.7</ele>
        <time>2020-11-28T11:28:09Z</time>
      </trkpt>
      <trkpt lat="48.65046" lon="7.2854">
        <ele>607.9</ele>
        <time>2020-11-28T11:28:11Z</time>
      </trkpt>
      <trkpt lat="48.65038" lon="7.28548">
        <ele>608.8</ele>
        <time>2020-11-28T11:28:14Z</time>
      </trkpt>
      <trkpt lat="48.65032" lon="7.28553">
        <ele>609.2</ele>
        <time>2020-11-28T11:28:16Z</time>
      </trkpt>
      <trkpt lat="48.65026" lon="7.28559">
        <ele>609.7</ele>
        <time>2020-11-28T11:28:18Z</time>
      </trkpt>
      <trkpt lat="48.65019" lon="7.28566">
        <ele>610.4</ele>
        <time>2020-11-28T11:28:20Z</time>
      </trkpt>
      <trkpt lat="48.65012" lon="7.28573">
        <ele>611</ele>
        <time>2020-11-28T11:28:22Z</time>
      </trkpt>
      <trkpt lat="48.65004" lon="7.2858">
        <ele>611</ele>
        <time>2020-11-28T11:28:24Z</time>
      </trkpt>
      <trkpt lat="48.64997" lon="7.28587">
        <ele>611</ele>
        <time>2020-11-28T11:28:26Z</time>
      </trkpt>
      <trkpt lat="48.64989" lon="7.28593">
        <ele>610.4</ele>
        <time>2020-11-28T11:28:28Z</time>
      </trkpt>
      <trkpt lat="48.64981" lon="7.28598">
        <ele>610.5</ele>
        <time>2020-11-28T11:28:30Z</time>
      </trkpt>
      <trkpt lat="48.64974" lon="7.28602">
        <ele>610.9</ele>
        <time>2020-11-28T11:28:32Z</time>
      </trkpt>
      <trkpt lat="48.64965" lon="7.28604">
        <ele>611.8</ele>
        <time>2020-11-28T11:28:34Z</time>
      </trkpt>
      <trkpt lat="48.64956" lon="7.28606">
        <ele>612.1</ele>
        <time>2020-11-28T11:28:36Z</time>
      </trkpt>
      <trkpt lat="48.64948" lon="7.28606">
        <ele>613.6</ele>
        <time>2020-11-28T11:28:38Z</time>
      </trkpt>
      <trkpt lat="48.64939" lon="7.28607">
        <ele>614.2</ele>
        <time>2020-11-28T11:28:40Z</time>
      </trkpt>
      <trkpt lat="48.64931" lon="7.28608">
        <ele>614.3</ele>
        <time>2020-11-28T11:28:42Z</time>
      </trkpt>
      <trkpt lat="48.64924" lon="7.28605">
        <ele>614.1</ele>
        <time>2020-11-28T11:28:44Z</time>
      </trkpt>
      <trkpt lat="48.64915" lon="7.28603">
        <ele>614</ele>
        <time>2020-11-28T11:28:46Z</time>
      </trkpt>
      <trkpt lat="48.64907" lon="7.286">
        <ele>613.9</ele>
        <time>2020-11-28T11:28:48Z</time>
      </trkpt>
      <trkpt lat="48.64899" lon="7.28596">
        <ele>613.7</ele>
        <time>2020-11-28T11:28:50Z</time>
      </trkpt>
      <trkpt lat="48.64891" lon="7.28592">
        <ele>613.2</ele>
        <time>2020-11-28T11:28:52Z</time>
      </trkpt>
      <trkpt lat="48.64883" lon="7.28588">
        <ele>612.5</ele>
        <time>2020-11-28T11:28:54Z</time>
      </trkpt>
      <trkpt lat="48.64876" lon="7.28581">
        <ele>612</ele>
        <time>2020-11-28T11:28:56Z</time>
      </trkpt>
      <trkpt lat="48.64868" lon="7.28575">
        <ele>611.6</ele>
        <time>2020-11-28T11:28:58Z</time>
      </trkpt>
      <trkpt lat="48.64861" lon="7.2857">
        <ele>610</ele>
        <time>2020-11-28T11:29:00Z</time>
      </trkpt>
      <trkpt lat="48.64854" lon="7.28563">
        <ele>610.9</ele>
        <time>2020-11-28T11:29:02Z</time>
      </trkpt>
      <trkpt lat="48.64848" lon="7.28554">
        <ele>611.5</ele>
        <time>2020-11-28T11:29:04Z</time>
      </trkpt>
      <trkpt lat="48.64843" lon="7.28544">
        <ele>611.9</ele>
        <time>2020-11-28T11:29:06Z</time>
      </trkpt>
      <trkpt lat="48.64838" lon="7.28534">
        <ele>613.2</ele>
        <time>2020-11-28T11:29:08Z</time>
      </trkpt>
      <trkpt lat="48.64835" lon="7.28523">
        <ele>614.5</ele>
        <time>2020-11-28T11:29:10Z</time>
      </trkpt>
      <trkpt lat="48.6483" lon="7.28505">
        <ele>615.6</ele>
        <time>2020-11-28T11:29:13Z</time>
      </trkpt>
      <trkpt lat="48.64826" lon="7.28494">
        <ele>616.5</ele>
        <time>2020-11-28T11:29:15Z</time>
      </trkpt>
      <trkpt lat="48.64823" lon="7.28483">
        <ele>617.1</ele>
        <time>2020-11-28T11:29:17Z</time>
      </trkpt>
      <trkpt lat="48.64821" lon="7.28471">
        <ele>617.6</ele>
        <time>2020-11-28T11:29:19Z</time>
      </trkpt>
      <trkpt lat="48.6482" lon="7.28458">
        <ele>618</ele>
        <time>2020-11-28T11:29:21Z</time>
      </trkpt>
      <trkpt lat="48.64819" lon="7.28445">
        <ele>618.9</ele>
        <time>2020-11-28T11:29:23Z</time>
      </trkpt>
      <trkpt lat="48.64819" lon="7.28433">
        <ele>619.4</ele>
        <time>2020-11-28T11:29:25Z</time>
      </trkpt>
      <trkpt lat="48.64818" lon="7.2842">
        <ele>619.9</ele>
        <time>2020-11-28T11:29:27Z</time>
      </trkpt>
      <trkpt lat="48.64816" lon="7.28408">
        <ele>620.7</ele>
        <time>2020-11-28T11:29:29Z</time>
      </trkpt>
      <trkpt lat="48.64814" lon="7.28396">
        <ele>621.7</ele>
        <time>2020-11-28T11:29:31Z</time>
      </trkpt>
      <trkpt lat="48.64811" lon="7.28384">
        <ele>623.3</ele>
        <time>2020-11-28T11:29:33Z</time>
      </trkpt>
      <trkpt lat="48.64807" lon="7.28371">
        <ele>624.5</ele>
        <time>2020-11-28T11:29:35Z</time>
      </trkpt>
      <trkpt lat="48.64803" lon="7.28359">
        <ele>625</ele>
        <time>2020-11-28T11:29:37Z</time>
      </trkpt>
      <trkpt lat="48.64799" lon="7.28348">
        <ele>624.7</ele>
        <time>2020-11-28T11:29:39Z</time>
      </trkpt>
      <trkpt lat="48.64796" lon="7.28337">
        <ele>625</ele>
        <time>2020-11-28T11:29:41Z</time>
      </trkpt>
      <trkpt lat="48.64792" lon="7.28326">
        <ele>625.1</ele>
        <time>2020-11-28T11:29:43Z</time>
      </trkpt>
      <trkpt lat="48.64789" lon="7.28315">
        <ele>625.9</ele>
        <time>2020-11-28T11:29:45Z</time>
      </trkpt>
      <trkpt lat="48.64785" lon="7.28305">
        <ele>626.8</ele>
        <time>2020-11-28T11:29:47Z</time>
      </trkpt>
      <trkpt lat="48.64781" lon="7.28295">
        <ele>628</ele>
        <time>2020-11-28T11:29:49Z</time>
      </trkpt>
      <trkpt lat="48.64776" lon="7.28285">
        <ele>628.6</ele>
        <time>2020-11-28T11:29:51Z</time>
      </trkpt>
      <trkpt lat="48.64769" lon="7.28268">
        <ele>629.8</ele>
        <time>2020-11-28T11:29:54Z</time>
      </trkpt>
      <trkpt lat="48.64763" lon="7.28258">
        <ele>629.8</ele>
        <time>2020-11-28T11:29:56Z</time>
      </trkpt>
      <trkpt lat="48.64758" lon="7.28248">
        <ele>630.5</ele>
        <time>2020-11-28T11:29:58Z</time>
      </trkpt>
      <trkpt lat="48.64752" lon="7.28238">
        <ele>630.9</ele>
        <time>2020-11-28T11:30:00Z</time>
      </trkpt>
      <trkpt lat="48.64746" lon="7.28226">
        <ele>631.4</ele>
        <time>2020-11-28T11:30:02Z</time>
      </trkpt>
      <trkpt lat="48.64739" lon="7.28216">
        <ele>631.6</ele>
        <time>2020-11-28T11:30:04Z</time>
      </trkpt>
      <trkpt lat="48.6473" lon="7.28207">
        <ele>631.3</ele>
        <time>2020-11-28T11:30:06Z</time>
      </trkpt>
      <trkpt lat="48.6472" lon="7.28201">
        <ele>631.1</ele>
        <time>2020-11-28T11:30:08Z</time>
      </trkpt>
      <trkpt lat="48.64709" lon="7.28196">
        <ele>630.6</ele>
        <time>2020-11-28T11:30:10Z</time>
      </trkpt>
      <trkpt lat="48.64699" lon="7.28194">
        <ele>630.3</ele>
        <time>2020-11-28T11:30:12Z</time>
      </trkpt>
      <trkpt lat="48.64688" lon="7.28189">
        <ele>630.2</ele>
        <time>2020-11-28T11:30:14Z</time>
      </trkpt>
      <trkpt lat="48.64677" lon="7.28181">
        <ele>629.8</ele>
        <time>2020-11-28T11:30:16Z</time>
      </trkpt>
      <trkpt lat="48.64669" lon="7.28171">
        <ele>629.7</ele>
        <time>2020-11-28T11:30:18Z</time>
      </trkpt>
      <trkpt lat="48.64661" lon="7.28159">
        <ele>629.9</ele>
        <time>2020-11-28T11:30:20Z</time>
      </trkpt>
      <trkpt lat="48.64653" lon="7.28144">
        <ele>630.3</ele>
        <time>2020-11-28T11:30:22Z</time>
      </trkpt>
      <trkpt lat="48.64647" lon="7.28131">
        <ele>631.4</ele>
        <time>2020-11-28T11:30:24Z</time>
      </trkpt>
      <trkpt lat="48.6464" lon="7.28117">
        <ele>631.6</ele>
        <time>2020-11-28T11:30:26Z</time>
      </trkpt>
      <trkpt lat="48.64633" lon="7.28103">
        <ele>632.1</ele>
        <time>2020-11-28T11:30:28Z</time>
      </trkpt>
      <trkpt lat="48.64626" lon="7.28089">
        <ele>632.4</ele>
        <time>2020-11-28T11:30:30Z</time>
      </trkpt>
      <trkpt lat="48.64618" lon="7.28078">
        <ele>632.9</ele>
        <time>2020-11-28T11:30:32Z</time>
      </trkpt>
      <trkpt lat="48.64611" lon="7.28065">
        <ele>633.2</ele>
        <time>2020-11-28T11:30:34Z</time>
      </trkpt>
      <trkpt lat="48.64603" lon="7.28052">
        <ele>633.3</ele>
        <time>2020-11-28T11:30:36Z</time>
      </trkpt>
      <trkpt lat="48.64596" lon="7.28037">
        <ele>633.1</ele>
        <time>2020-11-28T11:30:38Z</time>
      </trkpt>
      <trkpt lat="48.64592" lon="7.28023">
        <ele>633.5</ele>
        <time>2020-11-28T11:30:40Z</time>
      </trkpt>
      <trkpt lat="48.64589" lon="7.28009">
        <ele>633.8</ele>
        <time>2020-11-28T11:30:42Z</time>
      </trkpt>
      <trkpt lat="48.64587" lon="7.27996">
        <ele>634.4</ele>
        <time>2020-11-28T11:30:45Z</time>
      </trkpt>
      <trkpt lat="48.64585" lon="7.27989">
        <ele>636.3</ele>
        <time>2020-11-28T11:31:11Z</time>
      </trkpt>
      <trkpt lat="48.64584" lon="7.27982">
        <ele>636.5</ele>
        <time>2020-11-28T11:31:14Z</time>
      </trkpt>
      <trkpt lat="48.64582" lon="7.27973">
        <ele>636.7</ele>
        <time>2020-11-28T11:31:17Z</time>
      </trkpt>
      <trkpt lat="48.6458" lon="7.27966">
        <ele>636.7</ele>
        <time>2020-11-28T11:31:19Z</time>
      </trkpt>
      <trkpt lat="48.64578" lon="7.27959">
        <ele>637.1</ele>
        <time>2020-11-28T11:31:21Z</time>
      </trkpt>
      <trkpt lat="48.64576" lon="7.27951">
        <ele>637.4</ele>
        <time>2020-11-28T11:31:23Z</time>
      </trkpt>
      <trkpt lat="48.64574" lon="7.27944">
        <ele>638.1</ele>
        <time>2020-11-28T11:31:25Z</time>
      </trkpt>
      <trkpt lat="48.64572" lon="7.27936">
        <ele>639</ele>
        <time>2020-11-28T11:31:27Z</time>
      </trkpt>
      <trkpt lat="48.6457" lon="7.27927">
        <ele>640.4</ele>
        <time>2020-11-28T11:31:29Z</time>
      </trkpt>
      <trkpt lat="48.64568" lon="7.27918">
        <ele>640.8</ele>
        <time>2020-11-28T11:31:31Z</time>
      </trkpt>
      <trkpt lat="48.64565" lon="7.27909">
        <ele>641.4</ele>
        <time>2020-11-28T11:31:33Z</time>
      </trkpt>
      <trkpt lat="48.64563" lon="7.279">
        <ele>641.3</ele>
        <time>2020-11-28T11:31:35Z</time>
      </trkpt>
      <trkpt lat="48.6456" lon="7.27891">
        <ele>641.1</ele>
        <time>2020-11-28T11:31:37Z</time>
      </trkpt>
      <trkpt lat="48.64558" lon="7.27883">
        <ele>640.7</ele>
        <time>2020-11-28T11:31:39Z</time>
      </trkpt>
      <trkpt lat="48.64559" lon="7.27876">
        <ele>637.2</ele>
        <time>2020-11-28T11:31:48Z</time>
      </trkpt>
      <trkpt lat="48.64555" lon="7.27872">
        <ele>642.7</ele>
        <time>2020-11-28T11:33:13Z</time>
      </trkpt>
      <trkpt lat="48.64558" lon="7.27866">
        <ele>644.2</ele>
        <time>2020-11-28T11:33:43Z</time>
      </trkpt>
      <trkpt lat="48.64556" lon="7.27856">
        <ele>644.9</ele>
        <time>2020-11-28T11:35:27Z</time>
      </trkpt>
      <trkpt lat="48.64554" lon="7.27849">
        <ele>644.4</ele>
        <time>2020-11-28T11:35:29Z</time>
      </trkpt>
      <trkpt lat="48.64551" lon="7.2784">
        <ele>643.9</ele>
        <time>2020-11-28T11:35:31Z</time>
      </trkpt>
      <trkpt lat="48.64548" lon="7.27832">
        <ele>641.5</ele>
        <time>2020-11-28T11:35:33Z</time>
      </trkpt>
      <trkpt lat="48.64545" lon="7.27822">
        <ele>641.9</ele>
        <time>2020-11-28T11:35:35Z</time>
      </trkpt>
      <trkpt lat="48.64542" lon="7.27812">
        <ele>641.8</ele>
        <time>2020-11-28T11:35:37Z</time>
      </trkpt>
      <trkpt lat="48.64538" lon="7.278">
        <ele>641.6</ele>
        <time>2020-11-28T11:35:39Z</time>
      </trkpt>
      <trkpt lat="48.64535" lon="7.27789">
        <ele>641.5</ele>
        <time>2020-11-28T11:35:41Z</time>
      </trkpt>
      <trkpt lat="48.6453" lon="7.27778">
        <ele>641</ele>
        <time>2020-11-28T11:35:43Z</time>
      </trkpt>
      <trkpt lat="48.64526" lon="7.27765">
        <ele>640</ele>
        <time>2020-11-28T11:35:45Z</time>
      </trkpt>
      <trkpt lat="48.64523" lon="7.27753">
        <ele>639</ele>
        <time>2020-11-28T11:35:47Z</time>
      </trkpt>
      <trkpt lat="48.64518" lon="7.27742">
        <ele>636.9</ele>
        <time>2020-11-28T11:35:49Z</time>
      </trkpt>
      <trkpt lat="48.64514" lon="7.2773">
        <ele>635.6</ele>
        <time>2020-11-28T11:35:51Z</time>
      </trkpt>
      <trkpt lat="48.6451" lon="7.27717">
        <ele>634.5</ele>
        <time>2020-11-28T11:35:53Z</time>
      </trkpt>
      <trkpt lat="48.64506" lon="7.27705">
        <ele>634.2</ele>
        <time>2020-11-28T11:35:55Z</time>
      </trkpt>
      <trkpt lat="48.64502" lon="7.27692">
        <ele>634.4</ele>
        <time>2020-11-28T11:35:57Z</time>
      </trkpt>
      <trkpt lat="48.64498" lon="7.27681">
        <ele>634.6</ele>
        <time>2020-11-28T11:35:59Z</time>
      </trkpt>
      <trkpt lat="48.64495" lon="7.27669">
        <ele>634.8</ele>
        <time>2020-11-28T11:36:01Z</time>
      </trkpt>
      <trkpt lat="48.64491" lon="7.27657">
        <ele>634.9</ele>
        <time>2020-11-28T11:36:03Z</time>
      </trkpt>
      <trkpt lat="48.64487" lon="7.27644">
        <ele>635.1</ele>
        <time>2020-11-28T11:36:05Z</time>
      </trkpt>
      <trkpt lat="48.64482" lon="7.27625">
        <ele>635.5</ele>
        <time>2020-11-28T11:36:08Z</time>
      </trkpt>
      <trkpt lat="48.64478" lon="7.27613">
        <ele>635.9</ele>
        <time>2020-11-28T11:36:10Z</time>
      </trkpt>
      <trkpt lat="48.64475" lon="7.27601">
        <ele>635.9</ele>
        <time>2020-11-28T11:36:12Z</time>
      </trkpt>
      <trkpt lat="48.64469" lon="7.2759">
        <ele>636.3</ele>
        <time>2020-11-28T11:36:14Z</time>
      </trkpt>
      <trkpt lat="48.64463" lon="7.2758">
        <ele>637</ele>
        <time>2020-11-28T11:36:16Z</time>
      </trkpt>
      <trkpt lat="48.64458" lon="7.27571">
        <ele>636.9</ele>
        <time>2020-11-28T11:36:18Z</time>
      </trkpt>
      <trkpt lat="48.64452" lon="7.27562">
        <ele>637</ele>
        <time>2020-11-28T11:36:20Z</time>
      </trkpt>
      <trkpt lat="48.64447" lon="7.27553">
        <ele>637.4</ele>
        <time>2020-11-28T11:36:22Z</time>
      </trkpt>
      <trkpt lat="48.64441" lon="7.27543">
        <ele>637.6</ele>
        <time>2020-11-28T11:36:24Z</time>
      </trkpt>
      <trkpt lat="48.64434" lon="7.27533">
        <ele>637.7</ele>
        <time>2020-11-28T11:36:26Z</time>
      </trkpt>
      <trkpt lat="48.64425" lon="7.27525">
        <ele>637.6</ele>
        <time>2020-11-28T11:36:28Z</time>
      </trkpt>
      <trkpt lat="48.64415" lon="7.2752">
        <ele>637.6</ele>
        <time>2020-11-28T11:36:30Z</time>
      </trkpt>
      <trkpt lat="48.64407" lon="7.27515">
        <ele>636.9</ele>
        <time>2020-11-28T11:36:32Z</time>
      </trkpt>
      <trkpt lat="48.64398" lon="7.27512">
        <ele>635.2</ele>
        <time>2020-11-28T11:36:34Z</time>
      </trkpt>
      <trkpt lat="48.64388" lon="7.27512">
        <ele>635.1</ele>
        <time>2020-11-28T11:36:36Z</time>
      </trkpt>
      <trkpt lat="48.6438" lon="7.27514">
        <ele>634.1</ele>
        <time>2020-11-28T11:36:38Z</time>
      </trkpt>
      <trkpt lat="48.64373" lon="7.27517">
        <ele>633.7</ele>
        <time>2020-11-28T11:36:40Z</time>
      </trkpt>
      <trkpt lat="48.64366" lon="7.27521">
        <ele>633.9</ele>
        <time>2020-11-28T11:36:42Z</time>
      </trkpt>
      <trkpt lat="48.64358" lon="7.27527">
        <ele>634.4</ele>
        <time>2020-11-28T11:36:44Z</time>
      </trkpt>
      <trkpt lat="48.64351" lon="7.27533">
        <ele>634.9</ele>
        <time>2020-11-28T11:36:46Z</time>
      </trkpt>
      <trkpt lat="48.64343" lon="7.27539">
        <ele>635.8</ele>
        <time>2020-11-28T11:36:48Z</time>
      </trkpt>
      <trkpt lat="48.64335" lon="7.27546">
        <ele>636.4</ele>
        <time>2020-11-28T11:36:50Z</time>
      </trkpt>
      <trkpt lat="48.64328" lon="7.27553">
        <ele>637.3</ele>
        <time>2020-11-28T11:36:52Z</time>
      </trkpt>
      <trkpt lat="48.6432" lon="7.2756">
        <ele>638.2</ele>
        <time>2020-11-28T11:36:54Z</time>
      </trkpt>
      <trkpt lat="48.64311" lon="7.27567">
        <ele>638.8</ele>
        <time>2020-11-28T11:36:56Z</time>
      </trkpt>
      <trkpt lat="48.64301" lon="7.27574">
        <ele>639.4</ele>
        <time>2020-11-28T11:36:58Z</time>
      </trkpt>
      <trkpt lat="48.64292" lon="7.27581">
        <ele>640</ele>
        <time>2020-11-28T11:37:00Z</time>
      </trkpt>
      <trkpt lat="48.64283" lon="7.27587">
        <ele>640.3</ele>
        <time>2020-11-28T11:37:02Z</time>
      </trkpt>
      <trkpt lat="48.64274" lon="7.27594">
        <ele>639.5</ele>
        <time>2020-11-28T11:37:04Z</time>
      </trkpt>
      <trkpt lat="48.64265" lon="7.27602">
        <ele>639</ele>
        <time>2020-11-28T11:37:06Z</time>
      </trkpt>
      <trkpt lat="48.64256" lon="7.2761">
        <ele>638.5</ele>
        <time>2020-11-28T11:37:08Z</time>
      </trkpt>
      <trkpt lat="48.64247" lon="7.27616">
        <ele>638.1</ele>
        <time>2020-11-28T11:37:10Z</time>
      </trkpt>
      <trkpt lat="48.64236" lon="7.27624">
        <ele>638</ele>
        <time>2020-11-28T11:37:12Z</time>
      </trkpt>
      <trkpt lat="48.64227" lon="7.2763">
        <ele>637.7</ele>
        <time>2020-11-28T11:37:14Z</time>
      </trkpt>
      <trkpt lat="48.64218" lon="7.27635">
        <ele>637.7</ele>
        <time>2020-11-28T11:37:16Z</time>
      </trkpt>
      <trkpt lat="48.64208" lon="7.27641">
        <ele>637.8</ele>
        <time>2020-11-28T11:37:18Z</time>
      </trkpt>
      <trkpt lat="48.64198" lon="7.27648">
        <ele>638.4</ele>
        <time>2020-11-28T11:37:20Z</time>
      </trkpt>
      <trkpt lat="48.64188" lon="7.27654">
        <ele>638</ele>
        <time>2020-11-28T11:37:22Z</time>
      </trkpt>
      <trkpt lat="48.64179" lon="7.27659">
        <ele>637.7</ele>
        <time>2020-11-28T11:37:24Z</time>
      </trkpt>
      <trkpt lat="48.6417" lon="7.27664">
        <ele>637.9</ele>
        <time>2020-11-28T11:37:26Z</time>
      </trkpt>
      <trkpt lat="48.6416" lon="7.27668">
        <ele>638.5</ele>
        <time>2020-11-28T11:37:28Z</time>
      </trkpt>
      <trkpt lat="48.6415" lon="7.27671">
        <ele>639.6</ele>
        <time>2020-11-28T11:37:30Z</time>
      </trkpt>
      <trkpt lat="48.64137" lon="7.27675">
        <ele>641.2</ele>
        <time>2020-11-28T11:37:33Z</time>
      </trkpt>
      <trkpt lat="48.64128" lon="7.27676">
        <ele>642.1</ele>
        <time>2020-11-28T11:37:35Z</time>
      </trkpt>
      <trkpt lat="48.64119" lon="7.27678">
        <ele>643</ele>
        <time>2020-11-28T11:37:37Z</time>
      </trkpt>
      <trkpt lat="48.6411" lon="7.2768">
        <ele>644.2</ele>
        <time>2020-11-28T11:37:39Z</time>
      </trkpt>
      <trkpt lat="48.64101" lon="7.27682">
        <ele>644.7</ele>
        <time>2020-11-28T11:37:41Z</time>
      </trkpt>
      <trkpt lat="48.64091" lon="7.27686">
        <ele>645.1</ele>
        <time>2020-11-28T11:37:43Z</time>
      </trkpt>
      <trkpt lat="48.64081" lon="7.2769">
        <ele>644.5</ele>
        <time>2020-11-28T11:37:45Z</time>
      </trkpt>
      <trkpt lat="48.64071" lon="7.27692">
        <ele>644.3</ele>
        <time>2020-11-28T11:37:47Z</time>
      </trkpt>
      <trkpt lat="48.64063" lon="7.27693">
        <ele>644.3</ele>
        <time>2020-11-28T11:37:49Z</time>
      </trkpt>
      <trkpt lat="48.64054" lon="7.27693">
        <ele>644.3</ele>
        <time>2020-11-28T11:37:51Z</time>
      </trkpt>
      <trkpt lat="48.64044" lon="7.27695">
        <ele>643</ele>
        <time>2020-11-28T11:37:53Z</time>
      </trkpt>
      <trkpt lat="48.64035" lon="7.27696">
        <ele>642</ele>
        <time>2020-11-28T11:37:55Z</time>
      </trkpt>
      <trkpt lat="48.64026" lon="7.27696">
        <ele>642</ele>
        <time>2020-11-28T11:37:57Z</time>
      </trkpt>
      <trkpt lat="48.64015" lon="7.27697">
        <ele>640.2</ele>
        <time>2020-11-28T11:37:59Z</time>
      </trkpt>
      <trkpt lat="48.64006" lon="7.27694">
        <ele>639.4</ele>
        <time>2020-11-28T11:38:01Z</time>
      </trkpt>
      <trkpt lat="48.63996" lon="7.2769">
        <ele>638.6</ele>
        <time>2020-11-28T11:38:03Z</time>
      </trkpt>
      <trkpt lat="48.63987" lon="7.27686">
        <ele>638.2</ele>
        <time>2020-11-28T11:38:05Z</time>
      </trkpt>
      <trkpt lat="48.63978" lon="7.27681">
        <ele>638</ele>
        <time>2020-11-28T11:38:07Z</time>
      </trkpt>
      <trkpt lat="48.6397" lon="7.27674">
        <ele>637.9</ele>
        <time>2020-11-28T11:38:09Z</time>
      </trkpt>
      <trkpt lat="48.63962" lon="7.27667">
        <ele>638.3</ele>
        <time>2020-11-28T11:38:11Z</time>
      </trkpt>
      <trkpt lat="48.63955" lon="7.27659">
        <ele>638.9</ele>
        <time>2020-11-28T11:38:13Z</time>
      </trkpt>
      <trkpt lat="48.63949" lon="7.2765">
        <ele>639.3</ele>
        <time>2020-11-28T11:38:15Z</time>
      </trkpt>
      <trkpt lat="48.63943" lon="7.2764">
        <ele>639.5</ele>
        <time>2020-11-28T11:38:17Z</time>
      </trkpt>
      <trkpt lat="48.63937" lon="7.27628">
        <ele>639.2</ele>
        <time>2020-11-28T11:38:19Z</time>
      </trkpt>
      <trkpt lat="48.63931" lon="7.27616">
        <ele>629.2</ele>
        <time>2020-11-28T11:38:21Z</time>
      </trkpt>
      <trkpt lat="48.63925" lon="7.27603">
        <ele>628.1</ele>
        <time>2020-11-28T11:38:23Z</time>
      </trkpt>
      <trkpt lat="48.63921" lon="7.27591">
        <ele>627.9</ele>
        <time>2020-11-28T11:38:25Z</time>
      </trkpt>
      <trkpt lat="48.63917" lon="7.27579">
        <ele>629.8</ele>
        <time>2020-11-28T11:38:27Z</time>
      </trkpt>
      <trkpt lat="48.63913" lon="7.27567">
        <ele>630.7</ele>
        <time>2020-11-28T11:38:29Z</time>
      </trkpt>
      <trkpt lat="48.6391" lon="7.27555">
        <ele>631.9</ele>
        <time>2020-11-28T11:38:31Z</time>
      </trkpt>
      <trkpt lat="48.63906" lon="7.27542">
        <ele>633.2</ele>
        <time>2020-11-28T11:38:33Z</time>
      </trkpt>
      <trkpt lat="48.63901" lon="7.2753">
        <ele>634.4</ele>
        <time>2020-11-28T11:38:35Z</time>
      </trkpt>
      <trkpt lat="48.63897" lon="7.27517">
        <ele>635.4</ele>
        <time>2020-11-28T11:38:37Z</time>
      </trkpt>
      <trkpt lat="48.63893" lon="7.27504">
        <ele>637.3</ele>
        <time>2020-11-28T11:38:39Z</time>
      </trkpt>
      <trkpt lat="48.63889" lon="7.27491">
        <ele>638.7</ele>
        <time>2020-11-28T11:38:41Z</time>
      </trkpt>
      <trkpt lat="48.63884" lon="7.27479">
        <ele>639.8</ele>
        <time>2020-11-28T11:38:43Z</time>
      </trkpt>
      <trkpt lat="48.63879" lon="7.27468">
        <ele>640.1</ele>
        <time>2020-11-28T11:38:45Z</time>
      </trkpt>
      <trkpt lat="48.63875" lon="7.27456">
        <ele>636.1</ele>
        <time>2020-11-28T11:38:47Z</time>
      </trkpt>
      <trkpt lat="48.63871" lon="7.27443">
        <ele>636.5</ele>
        <time>2020-11-28T11:38:49Z</time>
      </trkpt>
      <trkpt lat="48.63867" lon="7.27431">
        <ele>637</ele>
        <time>2020-11-28T11:38:51Z</time>
      </trkpt>
      <trkpt lat="48.63863" lon="7.27418">
        <ele>637.4</ele>
        <time>2020-11-28T11:38:53Z</time>
      </trkpt>
      <trkpt lat="48.63861" lon="7.27407">
        <ele>639</ele>
        <time>2020-11-28T11:38:55Z</time>
      </trkpt>
      <trkpt lat="48.63857" lon="7.27396">
        <ele>640.1</ele>
        <time>2020-11-28T11:38:57Z</time>
      </trkpt>
      <trkpt lat="48.63852" lon="7.27383">
        <ele>641.2</ele>
        <time>2020-11-28T11:38:59Z</time>
      </trkpt>
      <trkpt lat="48.6385" lon="7.27372">
        <ele>642.2</ele>
        <time>2020-11-28T11:39:01Z</time>
      </trkpt>
      <trkpt lat="48.63847" lon="7.27361">
        <ele>644.5</ele>
        <time>2020-11-28T11:39:03Z</time>
      </trkpt>
      <trkpt lat="48.63843" lon="7.27349">
        <ele>645.4</ele>
        <time>2020-11-28T11:39:05Z</time>
      </trkpt>
      <trkpt lat="48.63841" lon="7.27336">
        <ele>646</ele>
        <time>2020-11-28T11:39:07Z</time>
      </trkpt>
      <trkpt lat="48.63838" lon="7.27321">
        <ele>647.3</ele>
        <time>2020-11-28T11:39:09Z</time>
      </trkpt>
      <trkpt lat="48.63836" lon="7.27305">
        <ele>649</ele>
        <time>2020-11-28T11:39:11Z</time>
      </trkpt>
      <trkpt lat="48.63834" lon="7.27292">
        <ele>649</ele>
        <time>2020-11-28T11:39:13Z</time>
      </trkpt>
      <trkpt lat="48.63831" lon="7.27278">
        <ele>649.4</ele>
        <time>2020-11-28T11:39:15Z</time>
      </trkpt>
      <trkpt lat="48.63828" lon="7.27264">
        <ele>649.8</ele>
        <time>2020-11-28T11:39:17Z</time>
      </trkpt>
      <trkpt lat="48.63827" lon="7.27249">
        <ele>649.6</ele>
        <time>2020-11-28T11:39:19Z</time>
      </trkpt>
      <trkpt lat="48.63826" lon="7.27233">
        <ele>650.2</ele>
        <time>2020-11-28T11:39:21Z</time>
      </trkpt>
      <trkpt lat="48.63826" lon="7.27217">
        <ele>650.4</ele>
        <time>2020-11-28T11:39:23Z</time>
      </trkpt>
      <trkpt lat="48.63826" lon="7.27198">
        <ele>650.9</ele>
        <time>2020-11-28T11:39:25Z</time>
      </trkpt>
      <trkpt lat="48.63827" lon="7.27178">
        <ele>651.1</ele>
        <time>2020-11-28T11:39:27Z</time>
      </trkpt>
      <trkpt lat="48.6383" lon="7.27157">
        <ele>651.3</ele>
        <time>2020-11-28T11:39:29Z</time>
      </trkpt>
      <trkpt lat="48.63834" lon="7.27136">
        <ele>651</ele>
        <time>2020-11-28T11:39:31Z</time>
      </trkpt>
      <trkpt lat="48.63838" lon="7.27115">
        <ele>651.1</ele>
        <time>2020-11-28T11:39:33Z</time>
      </trkpt>
      <trkpt lat="48.63842" lon="7.27095">
        <ele>650.8</ele>
        <time>2020-11-28T11:39:35Z</time>
      </trkpt>
      <trkpt lat="48.63848" lon="7.27073">
        <ele>651.3</ele>
        <time>2020-11-28T11:39:37Z</time>
      </trkpt>
      <trkpt lat="48.63852" lon="7.27054">
        <ele>650.8</ele>
        <time>2020-11-28T11:39:39Z</time>
      </trkpt>
      <trkpt lat="48.63857" lon="7.27035">
        <ele>650.4</ele>
        <time>2020-11-28T11:39:41Z</time>
      </trkpt>
      <trkpt lat="48.6386" lon="7.27018">
        <ele>649.9</ele>
        <time>2020-11-28T11:39:43Z</time>
      </trkpt>
      <trkpt lat="48.63863" lon="7.27001">
        <ele>649.1</ele>
        <time>2020-11-28T11:39:45Z</time>
      </trkpt>
      <trkpt lat="48.63867" lon="7.2697">
        <ele>648.8</ele>
        <time>2020-11-28T11:39:48Z</time>
      </trkpt>
      <trkpt lat="48.6387" lon="7.26951">
        <ele>647.4</ele>
        <time>2020-11-28T11:39:50Z</time>
      </trkpt>
      <trkpt lat="48.63872" lon="7.26932">
        <ele>647.3</ele>
        <time>2020-11-28T11:39:52Z</time>
      </trkpt>
      <trkpt lat="48.63875" lon="7.26912">
        <ele>647.7</ele>
        <time>2020-11-28T11:39:54Z</time>
      </trkpt>
      <trkpt lat="48.63877" lon="7.26891">
        <ele>648.1</ele>
        <time>2020-11-28T11:39:56Z</time>
      </trkpt>
      <trkpt lat="48.63877" lon="7.26871">
        <ele>648.2</ele>
        <time>2020-11-28T11:39:58Z</time>
      </trkpt>
      <trkpt lat="48.63877" lon="7.26848">
        <ele>648.8</ele>
        <time>2020-11-28T11:40:00Z</time>
      </trkpt>
      <trkpt lat="48.63876" lon="7.26826">
        <ele>649.1</ele>
        <time>2020-11-28T11:40:02Z</time>
      </trkpt>
      <trkpt lat="48.63876" lon="7.26803">
        <ele>649.1</ele>
        <time>2020-11-28T11:40:04Z</time>
      </trkpt>
      <trkpt lat="48.63876" lon="7.2678">
        <ele>648.3</ele>
        <time>2020-11-28T11:40:06Z</time>
      </trkpt>
      <trkpt lat="48.63876" lon="7.26756">
        <ele>648</ele>
        <time>2020-11-28T11:40:08Z</time>
      </trkpt>
      <trkpt lat="48.63875" lon="7.26733">
        <ele>648.6</ele>
        <time>2020-11-28T11:40:10Z</time>
      </trkpt>
      <trkpt lat="48.63874" lon="7.26711">
        <ele>649.3</ele>
        <time>2020-11-28T11:40:12Z</time>
      </trkpt>
      <trkpt lat="48.63871" lon="7.2669">
        <ele>649.5</ele>
        <time>2020-11-28T11:40:14Z</time>
      </trkpt>
      <trkpt lat="48.63869" lon="7.26668">
        <ele>649.3</ele>
        <time>2020-11-28T11:40:16Z</time>
      </trkpt>
      <trkpt lat="48.63865" lon="7.26647">
        <ele>648.8</ele>
        <time>2020-11-28T11:40:18Z</time>
      </trkpt>
      <trkpt lat="48.63861" lon="7.26627">
        <ele>648.6</ele>
        <time>2020-11-28T11:40:20Z</time>
      </trkpt>
      <trkpt lat="48.63856" lon="7.26608">
        <ele>648.7</ele>
        <time>2020-11-28T11:40:22Z</time>
      </trkpt>
      <trkpt lat="48.63849" lon="7.26591">
        <ele>648.2</ele>
        <time>2020-11-28T11:40:24Z</time>
      </trkpt>
      <trkpt lat="48.63841" lon="7.26575">
        <ele>647.3</ele>
        <time>2020-11-28T11:40:26Z</time>
      </trkpt>
      <trkpt lat="48.63833" lon="7.26563">
        <ele>646.6</ele>
        <time>2020-11-28T11:40:28Z</time>
      </trkpt>
      <trkpt lat="48.63822" lon="7.26552">
        <ele>646.1</ele>
        <time>2020-11-28T11:40:30Z</time>
      </trkpt>
      <trkpt lat="48.6381" lon="7.26543">
        <ele>646.1</ele>
        <time>2020-11-28T11:40:32Z</time>
      </trkpt>
      <trkpt lat="48.63798" lon="7.26536">
        <ele>645.8</ele>
        <time>2020-11-28T11:40:34Z</time>
      </trkpt>
      <trkpt lat="48.63787" lon="7.2653">
        <ele>645.9</ele>
        <time>2020-11-28T11:40:36Z</time>
      </trkpt>
      <trkpt lat="48.63776" lon="7.26527">
        <ele>645.8</ele>
        <time>2020-11-28T11:40:38Z</time>
      </trkpt>
      <trkpt lat="48.63766" lon="7.26525">
        <ele>646.9</ele>
        <time>2020-11-28T11:40:40Z</time>
      </trkpt>
      <trkpt lat="48.63756" lon="7.26523">
        <ele>647.5</ele>
        <time>2020-11-28T11:40:42Z</time>
      </trkpt>
      <trkpt lat="48.63745" lon="7.26522">
        <ele>648.1</ele>
        <time>2020-11-28T11:40:44Z</time>
      </trkpt>
      <trkpt lat="48.63735" lon="7.2652">
        <ele>648.5</ele>
        <time>2020-11-28T11:40:46Z</time>
      </trkpt>
      <trkpt lat="48.63724" lon="7.26519">
        <ele>649.6</ele>
        <time>2020-11-28T11:40:48Z</time>
      </trkpt>
      <trkpt lat="48.63713" lon="7.26517">
        <ele>650.2</ele>
        <time>2020-11-28T11:40:50Z</time>
      </trkpt>
      <trkpt lat="48.63702" lon="7.26514">
        <ele>650.9</ele>
        <time>2020-11-28T11:40:52Z</time>
      </trkpt>
      <trkpt lat="48.63692" lon="7.26509">
        <ele>645.1</ele>
        <time>2020-11-28T11:40:54Z</time>
      </trkpt>
      <trkpt lat="48.63683" lon="7.26504">
        <ele>643.7</ele>
        <time>2020-11-28T11:40:56Z</time>
      </trkpt>
      <trkpt lat="48.63674" lon="7.26498">
        <ele>643.2</ele>
        <time>2020-11-28T11:40:58Z</time>
      </trkpt>
      <trkpt lat="48.63665" lon="7.26491">
        <ele>643.2</ele>
        <time>2020-11-28T11:41:00Z</time>
      </trkpt>
      <trkpt lat="48.63657" lon="7.26481">
        <ele>644</ele>
        <time>2020-11-28T11:41:02Z</time>
      </trkpt>
      <trkpt lat="48.63648" lon="7.26471">
        <ele>643.6</ele>
        <time>2020-11-28T11:41:04Z</time>
      </trkpt>
      <trkpt lat="48.63641" lon="7.26461">
        <ele>644.5</ele>
        <time>2020-11-28T11:41:06Z</time>
      </trkpt>
      <trkpt lat="48.63633" lon="7.2645">
        <ele>645.3</ele>
        <time>2020-11-28T11:41:08Z</time>
      </trkpt>
      <trkpt lat="48.63627" lon="7.26439">
        <ele>646.8</ele>
        <time>2020-11-28T11:41:10Z</time>
      </trkpt>
      <trkpt lat="48.63622" lon="7.26426">
        <ele>647.7</ele>
        <time>2020-11-28T11:41:12Z</time>
      </trkpt>
      <trkpt lat="48.63617" lon="7.26415">
        <ele>644.5</ele>
        <time>2020-11-28T11:41:14Z</time>
      </trkpt>
      <trkpt lat="48.63609" lon="7.26397">
        <ele>643.7</ele>
        <time>2020-11-28T11:41:17Z</time>
      </trkpt>
      <trkpt lat="48.63604" lon="7.26383">
        <ele>643.9</ele>
        <time>2020-11-28T11:41:19Z</time>
      </trkpt>
      <trkpt lat="48.63601" lon="7.2637">
        <ele>643.6</ele>
        <time>2020-11-28T11:41:21Z</time>
      </trkpt>
      <trkpt lat="48.63599" lon="7.26355">
        <ele>643.7</ele>
        <time>2020-11-28T11:41:23Z</time>
      </trkpt>
      <trkpt lat="48.63597" lon="7.26341">
        <ele>630.8</ele>
        <time>2020-11-28T11:41:25Z</time>
      </trkpt>
      <trkpt lat="48.63594" lon="7.26327">
        <ele>625.2</ele>
        <time>2020-11-28T11:41:27Z</time>
      </trkpt>
      <trkpt lat="48.63591" lon="7.26314">
        <ele>624.2</ele>
        <time>2020-11-28T11:41:29Z</time>
      </trkpt>
      <trkpt lat="48.63589" lon="7.26299">
        <ele>624.7</ele>
        <time>2020-11-28T11:41:31Z</time>
      </trkpt>
      <trkpt lat="48.63587" lon="7.26283">
        <ele>627.3</ele>
        <time>2020-11-28T11:41:33Z</time>
      </trkpt>
      <trkpt lat="48.63584" lon="7.26267">
        <ele>629.8</ele>
        <time>2020-11-28T11:41:35Z</time>
      </trkpt>
      <trkpt lat="48.63582" lon="7.2625">
        <ele>633.4</ele>
        <time>2020-11-28T11:41:37Z</time>
      </trkpt>
      <trkpt lat="48.63579" lon="7.26234">
        <ele>635.2</ele>
        <time>2020-11-28T11:41:39Z</time>
      </trkpt>
      <trkpt lat="48.63577" lon="7.26218">
        <ele>637.6</ele>
        <time>2020-11-28T11:41:41Z</time>
      </trkpt>
      <trkpt lat="48.63576" lon="7.26203">
        <ele>639.2</ele>
        <time>2020-11-28T11:41:43Z</time>
      </trkpt>
      <trkpt lat="48.63575" lon="7.26188">
        <ele>640.2</ele>
        <time>2020-11-28T11:41:45Z</time>
      </trkpt>
      <trkpt lat="48.63573" lon="7.26173">
        <ele>640.8</ele>
        <time>2020-11-28T11:41:47Z</time>
      </trkpt>
      <trkpt lat="48.63572" lon="7.26156">
        <ele>641.6</ele>
        <time>2020-11-28T11:41:49Z</time>
      </trkpt>
      <trkpt lat="48.63571" lon="7.26139">
        <ele>641.9</ele>
        <time>2020-11-28T11:41:51Z</time>
      </trkpt>
      <trkpt lat="48.63571" lon="7.26121">
        <ele>642.4</ele>
        <time>2020-11-28T11:41:53Z</time>
      </trkpt>
      <trkpt lat="48.63571" lon="7.26104">
        <ele>642.4</ele>
        <time>2020-11-28T11:41:55Z</time>
      </trkpt>
      <trkpt lat="48.63569" lon="7.26086">
        <ele>642.9</ele>
        <time>2020-11-28T11:41:57Z</time>
      </trkpt>
      <trkpt lat="48.63568" lon="7.2607">
        <ele>643.4</ele>
        <time>2020-11-28T11:41:59Z</time>
      </trkpt>
      <trkpt lat="48.63568" lon="7.26053">
        <ele>644.2</ele>
        <time>2020-11-28T11:42:01Z</time>
      </trkpt>
      <trkpt lat="48.63567" lon="7.26038">
        <ele>644.3</ele>
        <time>2020-11-28T11:42:03Z</time>
      </trkpt>
      <trkpt lat="48.63566" lon="7.26023">
        <ele>644.2</ele>
        <time>2020-11-28T11:42:05Z</time>
      </trkpt>
      <trkpt lat="48.63565" lon="7.26007">
        <ele>644.4</ele>
        <time>2020-11-28T11:42:07Z</time>
      </trkpt>
      <trkpt lat="48.63564" lon="7.25991">
        <ele>644.4</ele>
        <time>2020-11-28T11:42:09Z</time>
      </trkpt>
      <trkpt lat="48.63563" lon="7.25979">
        <ele>645.2</ele>
        <time>2020-11-28T11:42:11Z</time>
      </trkpt>
      <trkpt lat="48.63559" lon="7.25972">
        <ele>645.4</ele>
        <time>2020-11-28T11:42:13Z</time>
      </trkpt>
      <trkpt lat="48.63555" lon="7.25969">
        <ele>648.8</ele>
        <time>2020-11-28T11:42:41Z</time>
      </trkpt>
      <trkpt lat="48.6355" lon="7.2597">
        <ele>649</ele>
        <time>2020-11-28T11:42:45Z</time>
      </trkpt>
      <trkpt lat="48.63545" lon="7.25968">
        <ele>649.4</ele>
        <time>2020-11-28T11:42:48Z</time>
      </trkpt>
      <trkpt lat="48.63539" lon="7.25967">
        <ele>650</ele>
        <time>2020-11-28T11:42:51Z</time>
      </trkpt>
      <trkpt lat="48.63535" lon="7.25969">
        <ele>650.8</ele>
        <time>2020-11-28T11:42:54Z</time>
      </trkpt>
      <trkpt lat="48.6353" lon="7.25971">
        <ele>650.7</ele>
        <time>2020-11-28T11:42:56Z</time>
      </trkpt>
      <trkpt lat="48.63523" lon="7.25975">
        <ele>650.2</ele>
        <time>2020-11-28T11:42:58Z</time>
      </trkpt>
      <trkpt lat="48.63513" lon="7.25982">
        <ele>650.1</ele>
        <time>2020-11-28T11:43:00Z</time>
      </trkpt>
      <trkpt lat="48.63503" lon="7.25988">
        <ele>650.3</ele>
        <time>2020-11-28T11:43:02Z</time>
      </trkpt>
      <trkpt lat="48.63493" lon="7.25994">
        <ele>650.2</ele>
        <time>2020-11-28T11:43:04Z</time>
      </trkpt>
      <trkpt lat="48.63484" lon="7.26001">
        <ele>650.2</ele>
        <time>2020-11-28T11:43:06Z</time>
      </trkpt>
      <trkpt lat="48.63475" lon="7.26008">
        <ele>650.2</ele>
        <time>2020-11-28T11:43:08Z</time>
      </trkpt>
      <trkpt lat="48.63467" lon="7.26015">
        <ele>651.1</ele>
        <time>2020-11-28T11:43:10Z</time>
      </trkpt>
      <trkpt lat="48.63459" lon="7.26021">
        <ele>651.9</ele>
        <time>2020-11-28T11:43:12Z</time>
      </trkpt>
      <trkpt lat="48.63449" lon="7.26027">
        <ele>652.7</ele>
        <time>2020-11-28T11:43:14Z</time>
      </trkpt>
      <trkpt lat="48.63441" lon="7.26033">
        <ele>654</ele>
        <time>2020-11-28T11:43:16Z</time>
      </trkpt>
      <trkpt lat="48.63433" lon="7.26039">
        <ele>654.7</ele>
        <time>2020-11-28T11:43:18Z</time>
      </trkpt>
      <trkpt lat="48.63424" lon="7.26045">
        <ele>655.8</ele>
        <time>2020-11-28T11:43:20Z</time>
      </trkpt>
      <trkpt lat="48.63415" lon="7.2605">
        <ele>656.3</ele>
        <time>2020-11-28T11:43:22Z</time>
      </trkpt>
      <trkpt lat="48.63406" lon="7.26053">
        <ele>656.7</ele>
        <time>2020-11-28T11:43:24Z</time>
      </trkpt>
      <trkpt lat="48.63398" lon="7.26055">
        <ele>656.6</ele>
        <time>2020-11-28T11:43:26Z</time>
      </trkpt>
      <trkpt lat="48.63388" lon="7.26058">
        <ele>656.7</ele>
        <time>2020-11-28T11:43:28Z</time>
      </trkpt>
      <trkpt lat="48.6338" lon="7.26058">
        <ele>657.4</ele>
        <time>2020-11-28T11:43:30Z</time>
      </trkpt>
      <trkpt lat="48.63371" lon="7.26057">
        <ele>657.9</ele>
        <time>2020-11-28T11:43:32Z</time>
      </trkpt>
      <trkpt lat="48.63361" lon="7.26056">
        <ele>657.7</ele>
        <time>2020-11-28T11:43:34Z</time>
      </trkpt>
      <trkpt lat="48.63352" lon="7.26055">
        <ele>657.5</ele>
        <time>2020-11-28T11:43:36Z</time>
      </trkpt>
      <trkpt lat="48.63343" lon="7.26054">
        <ele>657.2</ele>
        <time>2020-11-28T11:43:38Z</time>
      </trkpt>
      <trkpt lat="48.63333" lon="7.26053">
        <ele>657.7</ele>
        <time>2020-11-28T11:43:40Z</time>
      </trkpt>
      <trkpt lat="48.63324" lon="7.26053">
        <ele>658.4</ele>
        <time>2020-11-28T11:43:42Z</time>
      </trkpt>
      <trkpt lat="48.63313" lon="7.26054">
        <ele>659.1</ele>
        <time>2020-11-28T11:43:44Z</time>
      </trkpt>
      <trkpt lat="48.63305" lon="7.26053">
        <ele>660.8</ele>
        <time>2020-11-28T11:43:46Z</time>
      </trkpt>
      <trkpt lat="48.63296" lon="7.26053">
        <ele>657.3</ele>
        <time>2020-11-28T11:43:48Z</time>
      </trkpt>
      <trkpt lat="48.63288" lon="7.26052">
        <ele>657.1</ele>
        <time>2020-11-28T11:43:50Z</time>
      </trkpt>
      <trkpt lat="48.63279" lon="7.2605">
        <ele>657.7</ele>
        <time>2020-11-28T11:43:52Z</time>
      </trkpt>
      <trkpt lat="48.6327" lon="7.26048">
        <ele>656.1</ele>
        <time>2020-11-28T11:43:54Z</time>
      </trkpt>
      <trkpt lat="48.63261" lon="7.26046">
        <ele>657.8</ele>
        <time>2020-11-28T11:43:56Z</time>
      </trkpt>
      <trkpt lat="48.63253" lon="7.26044">
        <ele>660.1</ele>
        <time>2020-11-28T11:43:58Z</time>
      </trkpt>
      <trkpt lat="48.63245" lon="7.26043">
        <ele>662</ele>
        <time>2020-11-28T11:44:00Z</time>
      </trkpt>
      <trkpt lat="48.63236" lon="7.26041">
        <ele>664.6</ele>
        <time>2020-11-28T11:44:02Z</time>
      </trkpt>
      <trkpt lat="48.63228" lon="7.26039">
        <ele>667</ele>
        <time>2020-11-28T11:44:04Z</time>
      </trkpt>
      <trkpt lat="48.6322" lon="7.26036">
        <ele>669</ele>
        <time>2020-11-28T11:44:06Z</time>
      </trkpt>
      <trkpt lat="48.63211" lon="7.26035">
        <ele>670.9</ele>
        <time>2020-11-28T11:44:08Z</time>
      </trkpt>
      <trkpt lat="48.63203" lon="7.26032">
        <ele>672</ele>
        <time>2020-11-28T11:44:10Z</time>
      </trkpt>
      <trkpt lat="48.63196" lon="7.2603">
        <ele>673.1</ele>
        <time>2020-11-28T11:44:12Z</time>
      </trkpt>
      <trkpt lat="48.63188" lon="7.26028">
        <ele>674</ele>
        <time>2020-11-28T11:44:14Z</time>
      </trkpt>
      <trkpt lat="48.6318" lon="7.26028">
        <ele>675</ele>
        <time>2020-11-28T11:44:16Z</time>
      </trkpt>
      <trkpt lat="48.63169" lon="7.2603">
        <ele>677.6</ele>
        <time>2020-11-28T11:44:19Z</time>
      </trkpt>
      <trkpt lat="48.63162" lon="7.26031">
        <ele>678.8</ele>
        <time>2020-11-28T11:44:21Z</time>
      </trkpt>
      <trkpt lat="48.63154" lon="7.26031">
        <ele>679.6</ele>
        <time>2020-11-28T11:44:23Z</time>
      </trkpt>
      <trkpt lat="48.63146" lon="7.2603">
        <ele>680.3</ele>
        <time>2020-11-28T11:44:25Z</time>
      </trkpt>
      <trkpt lat="48.63138" lon="7.2603">
        <ele>680.6</ele>
        <time>2020-11-28T11:44:27Z</time>
      </trkpt>
      <trkpt lat="48.6313" lon="7.26031">
        <ele>680.6</ele>
        <time>2020-11-28T11:44:29Z</time>
      </trkpt>
      <trkpt lat="48.63121" lon="7.26031">
        <ele>680.8</ele>
        <time>2020-11-28T11:44:31Z</time>
      </trkpt>
      <trkpt lat="48.63113" lon="7.26033">
        <ele>681.3</ele>
        <time>2020-11-28T11:44:33Z</time>
      </trkpt>
      <trkpt lat="48.63104" lon="7.26035">
        <ele>681.9</ele>
        <time>2020-11-28T11:44:35Z</time>
      </trkpt>
      <trkpt lat="48.63095" lon="7.26037">
        <ele>682.6</ele>
        <time>2020-11-28T11:44:37Z</time>
      </trkpt>
      <trkpt lat="48.63086" lon="7.26038">
        <ele>682.4</ele>
        <time>2020-11-28T11:44:39Z</time>
      </trkpt>
      <trkpt lat="48.63078" lon="7.26039">
        <ele>682.7</ele>
        <time>2020-11-28T11:44:41Z</time>
      </trkpt>
      <trkpt lat="48.6307" lon="7.2604">
        <ele>682.9</ele>
        <time>2020-11-28T11:44:43Z</time>
      </trkpt>
      <trkpt lat="48.63062" lon="7.26038">
        <ele>682.9</ele>
        <time>2020-11-28T11:44:45Z</time>
      </trkpt>
      <trkpt lat="48.63054" lon="7.26033">
        <ele>683</ele>
        <time>2020-11-28T11:44:47Z</time>
      </trkpt>
      <trkpt lat="48.63047" lon="7.26027">
        <ele>683.1</ele>
        <time>2020-11-28T11:44:49Z</time>
      </trkpt>
      <trkpt lat="48.6304" lon="7.26021">
        <ele>683.6</ele>
        <time>2020-11-28T11:44:51Z</time>
      </trkpt>
      <trkpt lat="48.63033" lon="7.26013">
        <ele>683.9</ele>
        <time>2020-11-28T11:44:53Z</time>
      </trkpt>
      <trkpt lat="48.63026" lon="7.26005">
        <ele>684.5</ele>
        <time>2020-11-28T11:44:55Z</time>
      </trkpt>
      <trkpt lat="48.63021" lon="7.25996">
        <ele>685.2</ele>
        <time>2020-11-28T11:44:57Z</time>
      </trkpt>
      <trkpt lat="48.63016" lon="7.25986">
        <ele>685.9</ele>
        <time>2020-11-28T11:44:59Z</time>
      </trkpt>
      <trkpt lat="48.63011" lon="7.25975">
        <ele>686.7</ele>
        <time>2020-11-28T11:45:01Z</time>
      </trkpt>
      <trkpt lat="48.63007" lon="7.25963">
        <ele>687.4</ele>
        <time>2020-11-28T11:45:03Z</time>
      </trkpt>
      <trkpt lat="48.63003" lon="7.2595">
        <ele>688.2</ele>
        <time>2020-11-28T11:45:05Z</time>
      </trkpt>
      <trkpt lat="48.62998" lon="7.25938">
        <ele>688.3</ele>
        <time>2020-11-28T11:45:07Z</time>
      </trkpt>
      <trkpt lat="48.62994" lon="7.25927">
        <ele>688.3</ele>
        <time>2020-11-28T11:45:09Z</time>
      </trkpt>
      <trkpt lat="48.62989" lon="7.25915">
        <ele>688</ele>
        <time>2020-11-28T11:45:11Z</time>
      </trkpt>
      <trkpt lat="48.62985" lon="7.25903">
        <ele>688.3</ele>
        <time>2020-11-28T11:45:13Z</time>
      </trkpt>
      <trkpt lat="48.62981" lon="7.25891">
        <ele>688.5</ele>
        <time>2020-11-28T11:45:15Z</time>
      </trkpt>
      <trkpt lat="48.62978" lon="7.25879">
        <ele>689.2</ele>
        <time>2020-11-28T11:45:17Z</time>
      </trkpt>
      <trkpt lat="48.62973" lon="7.25867">
        <ele>689.8</ele>
        <time>2020-11-28T11:45:19Z</time>
      </trkpt>
      <trkpt lat="48.62967" lon="7.2585">
        <ele>689.5</ele>
        <time>2020-11-28T11:45:22Z</time>
      </trkpt>
      <trkpt lat="48.62963" lon="7.25838">
        <ele>689.5</ele>
        <time>2020-11-28T11:45:24Z</time>
      </trkpt>
      <trkpt lat="48.62959" lon="7.25827">
        <ele>689.4</ele>
        <time>2020-11-28T11:45:26Z</time>
      </trkpt>
      <trkpt lat="48.62956" lon="7.25816">
        <ele>689.5</ele>
        <time>2020-11-28T11:45:28Z</time>
      </trkpt>
      <trkpt lat="48.62954" lon="7.25802">
        <ele>689.7</ele>
        <time>2020-11-28T11:45:30Z</time>
      </trkpt>
      <trkpt lat="48.62952" lon="7.25789">
        <ele>689.8</ele>
        <time>2020-11-28T11:45:32Z</time>
      </trkpt>
      <trkpt lat="48.62949" lon="7.25776">
        <ele>690.3</ele>
        <time>2020-11-28T11:45:34Z</time>
      </trkpt>
      <trkpt lat="48.62946" lon="7.25762">
        <ele>690.2</ele>
        <time>2020-11-28T11:45:36Z</time>
      </trkpt>
      <trkpt lat="48.62944" lon="7.25748">
        <ele>690.5</ele>
        <time>2020-11-28T11:45:38Z</time>
      </trkpt>
      <trkpt lat="48.62942" lon="7.25734">
        <ele>691.1</ele>
        <time>2020-11-28T11:45:40Z</time>
      </trkpt>
      <trkpt lat="48.62939" lon="7.25721">
        <ele>691.4</ele>
        <time>2020-11-28T11:45:42Z</time>
      </trkpt>
      <trkpt lat="48.62936" lon="7.25708">
        <ele>691.2</ele>
        <time>2020-11-28T11:45:44Z</time>
      </trkpt>
      <trkpt lat="48.62934" lon="7.25696">
        <ele>690.9</ele>
        <time>2020-11-28T11:45:46Z</time>
      </trkpt>
      <trkpt lat="48.62931" lon="7.25684">
        <ele>690.8</ele>
        <time>2020-11-28T11:45:48Z</time>
      </trkpt>
      <trkpt lat="48.6293" lon="7.25672">
        <ele>691.5</ele>
        <time>2020-11-28T11:45:50Z</time>
      </trkpt>
      <trkpt lat="48.62929" lon="7.25659">
        <ele>691.7</ele>
        <time>2020-11-28T11:45:52Z</time>
      </trkpt>
      <trkpt lat="48.62926" lon="7.25646">
        <ele>692.1</ele>
        <time>2020-11-28T11:45:54Z</time>
      </trkpt>
      <trkpt lat="48.62925" lon="7.25633">
        <ele>692.2</ele>
        <time>2020-11-28T11:45:56Z</time>
      </trkpt>
      <trkpt lat="48.62925" lon="7.25618">
        <ele>692.5</ele>
        <time>2020-11-28T11:45:58Z</time>
      </trkpt>
      <trkpt lat="48.62927" lon="7.25605">
        <ele>692.4</ele>
        <time>2020-11-28T11:46:00Z</time>
      </trkpt>
      <trkpt lat="48.62929" lon="7.25591">
        <ele>692.6</ele>
        <time>2020-11-28T11:46:02Z</time>
      </trkpt>
      <trkpt lat="48.6293" lon="7.25579">
        <ele>692.7</ele>
        <time>2020-11-28T11:46:04Z</time>
      </trkpt>
      <trkpt lat="48.62931" lon="7.25558">
        <ele>691.7</ele>
        <time>2020-11-28T11:46:07Z</time>
      </trkpt>
      <trkpt lat="48.62932" lon="7.25544">
        <ele>692.1</ele>
        <time>2020-11-28T11:46:09Z</time>
      </trkpt>
      <trkpt lat="48.62931" lon="7.2553">
        <ele>692.2</ele>
        <time>2020-11-28T11:46:11Z</time>
      </trkpt>
      <trkpt lat="48.62931" lon="7.25517">
        <ele>692</ele>
        <time>2020-11-28T11:46:13Z</time>
      </trkpt>
      <trkpt lat="48.6293" lon="7.25502">
        <ele>692.5</ele>
        <time>2020-11-28T11:46:15Z</time>
      </trkpt>
      <trkpt lat="48.62929" lon="7.25489">
        <ele>693.1</ele>
        <time>2020-11-28T11:46:17Z</time>
      </trkpt>
      <trkpt lat="48.62926" lon="7.25476">
        <ele>694.1</ele>
        <time>2020-11-28T11:46:19Z</time>
      </trkpt>
      <trkpt lat="48.62923" lon="7.25464">
        <ele>694.9</ele>
        <time>2020-11-28T11:46:21Z</time>
      </trkpt>
      <trkpt lat="48.62916" lon="7.25455">
        <ele>695.8</ele>
        <time>2020-11-28T11:46:23Z</time>
      </trkpt>
      <trkpt lat="48.62908" lon="7.25448">
        <ele>696.7</ele>
        <time>2020-11-28T11:46:25Z</time>
      </trkpt>
      <trkpt lat="48.62901" lon="7.25444">
        <ele>697.3</ele>
        <time>2020-11-28T11:46:27Z</time>
      </trkpt>
      <trkpt lat="48.62893" lon="7.25444">
        <ele>697.7</ele>
        <time>2020-11-28T11:46:29Z</time>
      </trkpt>
      <trkpt lat="48.62885" lon="7.25446">
        <ele>698.3</ele>
        <time>2020-11-28T11:46:31Z</time>
      </trkpt>
      <trkpt lat="48.62878" lon="7.25449">
        <ele>698.8</ele>
        <time>2020-11-28T11:46:33Z</time>
      </trkpt>
      <trkpt lat="48.62869" lon="7.25451">
        <ele>699.1</ele>
        <time>2020-11-28T11:46:35Z</time>
      </trkpt>
      <trkpt lat="48.6286" lon="7.25452">
        <ele>699.6</ele>
        <time>2020-11-28T11:46:37Z</time>
      </trkpt>
      <trkpt lat="48.6285" lon="7.25452">
        <ele>699.7</ele>
        <time>2020-11-28T11:46:39Z</time>
      </trkpt>
      <trkpt lat="48.62842" lon="7.25452">
        <ele>700.8</ele>
        <time>2020-11-28T11:46:41Z</time>
      </trkpt>
      <trkpt lat="48.62833" lon="7.2545">
        <ele>702</ele>
        <time>2020-11-28T11:46:43Z</time>
      </trkpt>
      <trkpt lat="48.62823" lon="7.25447">
        <ele>702.6</ele>
        <time>2020-11-28T11:46:45Z</time>
      </trkpt>
      <trkpt lat="48.62814" lon="7.25444">
        <ele>702.8</ele>
        <time>2020-11-28T11:46:47Z</time>
      </trkpt>
      <trkpt lat="48.62804" lon="7.25442">
        <ele>703</ele>
        <time>2020-11-28T11:46:49Z</time>
      </trkpt>
      <trkpt lat="48.62795" lon="7.2544">
        <ele>703.7</ele>
        <time>2020-11-28T11:46:51Z</time>
      </trkpt>
      <trkpt lat="48.62787" lon="7.25437">
        <ele>704.2</ele>
        <time>2020-11-28T11:46:53Z</time>
      </trkpt>
      <trkpt lat="48.62779" lon="7.25435">
        <ele>705.1</ele>
        <time>2020-11-28T11:46:55Z</time>
      </trkpt>
      <trkpt lat="48.6277" lon="7.25433">
        <ele>705</ele>
        <time>2020-11-28T11:46:57Z</time>
      </trkpt>
      <trkpt lat="48.62761" lon="7.2543">
        <ele>705.2</ele>
        <time>2020-11-28T11:46:59Z</time>
      </trkpt>
      <trkpt lat="48.62752" lon="7.25428">
        <ele>704.2</ele>
        <time>2020-11-28T11:47:01Z</time>
      </trkpt>
      <trkpt lat="48.62742" lon="7.25426">
        <ele>703.6</ele>
        <time>2020-11-28T11:47:03Z</time>
      </trkpt>
      <trkpt lat="48.62734" lon="7.25423">
        <ele>702.9</ele>
        <time>2020-11-28T11:47:05Z</time>
      </trkpt>
      <trkpt lat="48.62726" lon="7.25419">
        <ele>702.3</ele>
        <time>2020-11-28T11:47:07Z</time>
      </trkpt>
      <trkpt lat="48.62718" lon="7.25415">
        <ele>702</ele>
        <time>2020-11-28T11:47:09Z</time>
      </trkpt>
      <trkpt lat="48.6271" lon="7.25412">
        <ele>701.7</ele>
        <time>2020-11-28T11:47:11Z</time>
      </trkpt>
      <trkpt lat="48.62702" lon="7.25409">
        <ele>701.5</ele>
        <time>2020-11-28T11:47:13Z</time>
      </trkpt>
      <trkpt lat="48.62694" lon="7.25407">
        <ele>701.7</ele>
        <time>2020-11-28T11:47:15Z</time>
      </trkpt>
      <trkpt lat="48.62686" lon="7.25404">
        <ele>702</ele>
        <time>2020-11-28T11:47:17Z</time>
      </trkpt>
      <trkpt lat="48.62677" lon="7.25401">
        <ele>702.4</ele>
        <time>2020-11-28T11:47:19Z</time>
      </trkpt>
      <trkpt lat="48.62668" lon="7.25398">
        <ele>703.2</ele>
        <time>2020-11-28T11:47:21Z</time>
      </trkpt>
      <trkpt lat="48.6266" lon="7.25396">
        <ele>704.4</ele>
        <time>2020-11-28T11:47:23Z</time>
      </trkpt>
      <trkpt lat="48.62651" lon="7.25394">
        <ele>705</ele>
        <time>2020-11-28T11:47:25Z</time>
      </trkpt>
      <trkpt lat="48.62643" lon="7.25392">
        <ele>706.2</ele>
        <time>2020-11-28T11:47:27Z</time>
      </trkpt>
      <trkpt lat="48.62634" lon="7.25392">
        <ele>707.2</ele>
        <time>2020-11-28T11:47:29Z</time>
      </trkpt>
      <trkpt lat="48.62623" lon="7.25394">
        <ele>708.4</ele>
        <time>2020-11-28T11:47:32Z</time>
      </trkpt>
      <trkpt lat="48.62615" lon="7.25397">
        <ele>709.2</ele>
        <time>2020-11-28T11:47:34Z</time>
      </trkpt>
      <trkpt lat="48.62608" lon="7.25402">
        <ele>710</ele>
        <time>2020-11-28T11:47:36Z</time>
      </trkpt>
      <trkpt lat="48.62602" lon="7.2541">
        <ele>709.7</ele>
        <time>2020-11-28T11:47:38Z</time>
      </trkpt>
      <trkpt lat="48.62597" lon="7.25421">
        <ele>709.3</ele>
        <time>2020-11-28T11:47:40Z</time>
      </trkpt>
      <trkpt lat="48.62593" lon="7.25433">
        <ele>709.1</ele>
        <time>2020-11-28T11:47:42Z</time>
      </trkpt>
      <trkpt lat="48.6259" lon="7.25445">
        <ele>709.4</ele>
        <time>2020-11-28T11:47:44Z</time>
      </trkpt>
      <trkpt lat="48.6259" lon="7.25458">
        <ele>710</ele>
        <time>2020-11-28T11:47:46Z</time>
      </trkpt>
      <trkpt lat="48.62589" lon="7.2547">
        <ele>710.4</ele>
        <time>2020-11-28T11:47:48Z</time>
      </trkpt>
      <trkpt lat="48.62588" lon="7.25482">
        <ele>710.4</ele>
        <time>2020-11-28T11:47:50Z</time>
      </trkpt>
      <trkpt lat="48.62587" lon="7.25492">
        <ele>710.7</ele>
        <time>2020-11-28T11:47:52Z</time>
      </trkpt>
      <trkpt lat="48.62588" lon="7.25503">
        <ele>711.4</ele>
        <time>2020-11-28T11:47:54Z</time>
      </trkpt>
      <trkpt lat="48.62587" lon="7.25513">
        <ele>713</ele>
        <time>2020-11-28T11:47:56Z</time>
      </trkpt>
      <trkpt lat="48.62583" lon="7.25527">
        <ele>713.4</ele>
        <time>2020-11-28T11:47:58Z</time>
      </trkpt>
      <trkpt lat="48.62579" lon="7.25541">
        <ele>714.9</ele>
        <time>2020-11-28T11:48:00Z</time>
      </trkpt>
      <trkpt lat="48.62574" lon="7.25555">
        <ele>716.1</ele>
        <time>2020-11-28T11:48:02Z</time>
      </trkpt>
      <trkpt lat="48.6257" lon="7.25568">
        <ele>718</ele>
        <time>2020-11-28T11:48:04Z</time>
      </trkpt>
      <trkpt lat="48.62565" lon="7.2558">
        <ele>719.2</ele>
        <time>2020-11-28T11:48:06Z</time>
      </trkpt>
      <trkpt lat="48.62561" lon="7.25593">
        <ele>720</ele>
        <time>2020-11-28T11:48:08Z</time>
      </trkpt>
      <trkpt lat="48.62556" lon="7.25604">
        <ele>721.1</ele>
        <time>2020-11-28T11:48:10Z</time>
      </trkpt>
      <trkpt lat="48.62552" lon="7.25616">
        <ele>722.1</ele>
        <time>2020-11-28T11:48:12Z</time>
      </trkpt>
      <trkpt lat="48.62547" lon="7.25628">
        <ele>722.3</ele>
        <time>2020-11-28T11:48:14Z</time>
      </trkpt>
      <trkpt lat="48.62542" lon="7.25639">
        <ele>723.1</ele>
        <time>2020-11-28T11:48:16Z</time>
      </trkpt>
      <trkpt lat="48.62538" lon="7.25649">
        <ele>723.4</ele>
        <time>2020-11-28T11:48:18Z</time>
      </trkpt>
      <trkpt lat="48.62533" lon="7.25658">
        <ele>723.3</ele>
        <time>2020-11-28T11:48:20Z</time>
      </trkpt>
      <trkpt lat="48.62529" lon="7.25667">
        <ele>723.7</ele>
        <time>2020-11-28T11:48:22Z</time>
      </trkpt>
      <trkpt lat="48.62524" lon="7.25676">
        <ele>724</ele>
        <time>2020-11-28T11:48:24Z</time>
      </trkpt>
      <trkpt lat="48.6252" lon="7.25685">
        <ele>725.2</ele>
        <time>2020-11-28T11:48:26Z</time>
      </trkpt>
      <trkpt lat="48.62517" lon="7.25693">
        <ele>726.4</ele>
        <time>2020-11-28T11:48:28Z</time>
      </trkpt>
      <trkpt lat="48.62512" lon="7.25701">
        <ele>727.1</ele>
        <time>2020-11-28T11:48:30Z</time>
      </trkpt>
      <trkpt lat="48.62508" lon="7.25709">
        <ele>727.7</ele>
        <time>2020-11-28T11:48:32Z</time>
      </trkpt>
      <trkpt lat="48.62504" lon="7.25717">
        <ele>728</ele>
        <time>2020-11-28T11:48:34Z</time>
      </trkpt>
      <trkpt lat="48.625" lon="7.25723">
        <ele>727.9</ele>
        <time>2020-11-28T11:48:36Z</time>
      </trkpt>
      <trkpt lat="48.62493" lon="7.25734">
        <ele>728.3</ele>
        <time>2020-11-28T11:48:38Z</time>
      </trkpt>
      <trkpt lat="48.62486" lon="7.25746">
        <ele>728.3</ele>
        <time>2020-11-28T11:48:40Z</time>
      </trkpt>
      <trkpt lat="48.62478" lon="7.25758">
        <ele>728.4</ele>
        <time>2020-11-28T11:48:42Z</time>
      </trkpt>
      <trkpt lat="48.6247" lon="7.2577">
        <ele>728.8</ele>
        <time>2020-11-28T11:48:44Z</time>
      </trkpt>
      <trkpt lat="48.62461" lon="7.25781">
        <ele>728.8</ele>
        <time>2020-11-28T11:48:46Z</time>
      </trkpt>
      <trkpt lat="48.62452" lon="7.25791">
        <ele>729.2</ele>
        <time>2020-11-28T11:48:48Z</time>
      </trkpt>
      <trkpt lat="48.62439" lon="7.25805">
        <ele>729.4</ele>
        <time>2020-11-28T11:48:51Z</time>
      </trkpt>
      <trkpt lat="48.62429" lon="7.25814">
        <ele>729.3</ele>
        <time>2020-11-28T11:48:53Z</time>
      </trkpt>
      <trkpt lat="48.62419" lon="7.2582">
        <ele>729.1</ele>
        <time>2020-11-28T11:48:55Z</time>
      </trkpt>
      <trkpt lat="48.62409" lon="7.25825">
        <ele>728.6</ele>
        <time>2020-11-28T11:48:57Z</time>
      </trkpt>
      <trkpt lat="48.624" lon="7.25829">
        <ele>727.8</ele>
        <time>2020-11-28T11:48:59Z</time>
      </trkpt>
      <trkpt lat="48.62391" lon="7.25833">
        <ele>726.6</ele>
        <time>2020-11-28T11:49:01Z</time>
      </trkpt>
      <trkpt lat="48.62382" lon="7.25836">
        <ele>726.4</ele>
        <time>2020-11-28T11:49:03Z</time>
      </trkpt>
      <trkpt lat="48.62373" lon="7.25838">
        <ele>725.6</ele>
        <time>2020-11-28T11:49:05Z</time>
      </trkpt>
      <trkpt lat="48.62364" lon="7.25838">
        <ele>726.8</ele>
        <time>2020-11-28T11:49:07Z</time>
      </trkpt>
      <trkpt lat="48.62351" lon="7.25838">
        <ele>728.1</ele>
        <time>2020-11-28T11:49:10Z</time>
      </trkpt>
      <trkpt lat="48.62341" lon="7.2584">
        <ele>728.5</ele>
        <time>2020-11-28T11:49:12Z</time>
      </trkpt>
      <trkpt lat="48.62332" lon="7.25841">
        <ele>728.6</ele>
        <time>2020-11-28T11:49:14Z</time>
      </trkpt>
      <trkpt lat="48.62323" lon="7.2584">
        <ele>729</ele>
        <time>2020-11-28T11:49:16Z</time>
      </trkpt>
      <trkpt lat="48.62314" lon="7.25839">
        <ele>729.2</ele>
        <time>2020-11-28T11:49:18Z</time>
      </trkpt>
      <trkpt lat="48.62304" lon="7.25837">
        <ele>729.6</ele>
        <time>2020-11-28T11:49:20Z</time>
      </trkpt>
      <trkpt lat="48.62295" lon="7.25834">
        <ele>730.2</ele>
        <time>2020-11-28T11:49:22Z</time>
      </trkpt>
      <trkpt lat="48.62286" lon="7.25832">
        <ele>730.7</ele>
        <time>2020-11-28T11:49:24Z</time>
      </trkpt>
      <trkpt lat="48.62277" lon="7.25829">
        <ele>731</ele>
        <time>2020-11-28T11:49:26Z</time>
      </trkpt>
      <trkpt lat="48.62268" lon="7.25828">
        <ele>731.5</ele>
        <time>2020-11-28T11:49:28Z</time>
      </trkpt>
      <trkpt lat="48.6226" lon="7.25828">
        <ele>731.6</ele>
        <time>2020-11-28T11:49:30Z</time>
      </trkpt>
      <trkpt lat="48.6225" lon="7.25828">
        <ele>731.7</ele>
        <time>2020-11-28T11:49:32Z</time>
      </trkpt>
      <trkpt lat="48.6224" lon="7.2583">
        <ele>731.6</ele>
        <time>2020-11-28T11:49:34Z</time>
      </trkpt>
      <trkpt lat="48.62232" lon="7.25832">
        <ele>731.6</ele>
        <time>2020-11-28T11:49:36Z</time>
      </trkpt>
      <trkpt lat="48.62223" lon="7.25837">
        <ele>731.4</ele>
        <time>2020-11-28T11:49:38Z</time>
      </trkpt>
      <trkpt lat="48.62215" lon="7.25841">
        <ele>731.3</ele>
        <time>2020-11-28T11:49:40Z</time>
      </trkpt>
      <trkpt lat="48.62206" lon="7.25847">
        <ele>731.6</ele>
        <time>2020-11-28T11:49:42Z</time>
      </trkpt>
      <trkpt lat="48.62198" lon="7.25852">
        <ele>731.7</ele>
        <time>2020-11-28T11:49:44Z</time>
      </trkpt>
      <trkpt lat="48.62192" lon="7.2586">
        <ele>731.4</ele>
        <time>2020-11-28T11:49:46Z</time>
      </trkpt>
      <trkpt lat="48.62186" lon="7.25869">
        <ele>730.8</ele>
        <time>2020-11-28T11:49:48Z</time>
      </trkpt>
      <trkpt lat="48.6218" lon="7.25878">
        <ele>731.3</ele>
        <time>2020-11-28T11:49:50Z</time>
      </trkpt>
      <trkpt lat="48.62174" lon="7.25887">
        <ele>731.6</ele>
        <time>2020-11-28T11:49:52Z</time>
      </trkpt>
      <trkpt lat="48.62168" lon="7.25896">
        <ele>732.2</ele>
        <time>2020-11-28T11:49:54Z</time>
      </trkpt>
      <trkpt lat="48.62162" lon="7.25905">
        <ele>733.3</ele>
        <time>2020-11-28T11:49:56Z</time>
      </trkpt>
      <trkpt lat="48.62157" lon="7.25913">
        <ele>734.3</ele>
        <time>2020-11-28T11:49:58Z</time>
      </trkpt>
      <trkpt lat="48.62151" lon="7.25921">
        <ele>735.1</ele>
        <time>2020-11-28T11:50:00Z</time>
      </trkpt>
      <trkpt lat="48.62145" lon="7.25929">
        <ele>735.8</ele>
        <time>2020-11-28T11:50:02Z</time>
      </trkpt>
      <trkpt lat="48.62138" lon="7.25938">
        <ele>736.2</ele>
        <time>2020-11-28T11:50:04Z</time>
      </trkpt>
      <trkpt lat="48.62131" lon="7.25945">
        <ele>736</ele>
        <time>2020-11-28T11:50:06Z</time>
      </trkpt>
      <trkpt lat="48.62125" lon="7.25953">
        <ele>735.7</ele>
        <time>2020-11-28T11:50:08Z</time>
      </trkpt>
      <trkpt lat="48.62118" lon="7.25961">
        <ele>735.4</ele>
        <time>2020-11-28T11:50:10Z</time>
      </trkpt>
      <trkpt lat="48.62111" lon="7.25967">
        <ele>735.4</ele>
        <time>2020-11-28T11:50:12Z</time>
      </trkpt>
      <trkpt lat="48.62103" lon="7.25971">
        <ele>735.2</ele>
        <time>2020-11-28T11:50:14Z</time>
      </trkpt>
      <trkpt lat="48.62094" lon="7.25976">
        <ele>735.3</ele>
        <time>2020-11-28T11:50:16Z</time>
      </trkpt>
      <trkpt lat="48.62086" lon="7.2598">
        <ele>735.8</ele>
        <time>2020-11-28T11:50:18Z</time>
      </trkpt>
      <trkpt lat="48.62077" lon="7.25986">
        <ele>735.8</ele>
        <time>2020-11-28T11:50:20Z</time>
      </trkpt>
      <trkpt lat="48.62069" lon="7.25991">
        <ele>735.5</ele>
        <time>2020-11-28T11:50:22Z</time>
      </trkpt>
      <trkpt lat="48.62057" lon="7.25997">
        <ele>734.9</ele>
        <time>2020-11-28T11:50:25Z</time>
      </trkpt>
      <trkpt lat="48.62048" lon="7.26001">
        <ele>734.9</ele>
        <time>2020-11-28T11:50:27Z</time>
      </trkpt>
      <trkpt lat="48.62041" lon="7.26004">
        <ele>734.6</ele>
        <time>2020-11-28T11:50:29Z</time>
      </trkpt>
      <trkpt lat="48.62033" lon="7.26007">
        <ele>735.1</ele>
        <time>2020-11-28T11:50:31Z</time>
      </trkpt>
      <trkpt lat="48.62026" lon="7.2601">
        <ele>734.8</ele>
        <time>2020-11-28T11:50:33Z</time>
      </trkpt>
      <trkpt lat="48.62018" lon="7.26011">
        <ele>735.6</ele>
        <time>2020-11-28T11:50:35Z</time>
      </trkpt>
      <trkpt lat="48.6201" lon="7.26013">
        <ele>735.3</ele>
        <time>2020-11-28T11:50:37Z</time>
      </trkpt>
      <trkpt lat="48.61996" lon="7.26014">
        <ele>736.4</ele>
        <time>2020-11-28T11:50:40Z</time>
      </trkpt>
      <trkpt lat="48.61986" lon="7.26015">
        <ele>736.2</ele>
        <time>2020-11-28T11:50:42Z</time>
      </trkpt>
      <trkpt lat="48.61977" lon="7.26015">
        <ele>736.2</ele>
        <time>2020-11-28T11:50:44Z</time>
      </trkpt>
      <trkpt lat="48.61965" lon="7.26014">
        <ele>736.5</ele>
        <time>2020-11-28T11:50:46Z</time>
      </trkpt>
      <trkpt lat="48.61954" lon="7.26013">
        <ele>736.1</ele>
        <time>2020-11-28T11:50:48Z</time>
      </trkpt>
      <trkpt lat="48.61944" lon="7.26011">
        <ele>736.1</ele>
        <time>2020-11-28T11:50:50Z</time>
      </trkpt>
      <trkpt lat="48.61933" lon="7.26009">
        <ele>736.4</ele>
        <time>2020-11-28T11:50:52Z</time>
      </trkpt>
      <trkpt lat="48.61923" lon="7.26006">
        <ele>736.3</ele>
        <time>2020-11-28T11:50:54Z</time>
      </trkpt>
      <trkpt lat="48.61913" lon="7.26004">
        <ele>736.2</ele>
        <time>2020-11-28T11:50:56Z</time>
      </trkpt>
      <trkpt lat="48.61904" lon="7.26001">
        <ele>735.5</ele>
        <time>2020-11-28T11:50:58Z</time>
      </trkpt>
      <trkpt lat="48.61895" lon="7.25998">
        <ele>736</ele>
        <time>2020-11-28T11:51:00Z</time>
      </trkpt>
      <trkpt lat="48.61886" lon="7.25996">
        <ele>736</ele>
        <time>2020-11-28T11:51:02Z</time>
      </trkpt>
      <trkpt lat="48.61877" lon="7.25993">
        <ele>735.7</ele>
        <time>2020-11-28T11:51:04Z</time>
      </trkpt>
      <trkpt lat="48.61867" lon="7.25992">
        <ele>735.7</ele>
        <time>2020-11-28T11:51:06Z</time>
      </trkpt>
      <trkpt lat="48.61856" lon="7.2599">
        <ele>734.9</ele>
        <time>2020-11-28T11:51:08Z</time>
      </trkpt>
      <trkpt lat="48.61847" lon="7.25988">
        <ele>734.5</ele>
        <time>2020-11-28T11:51:10Z</time>
      </trkpt>
      <trkpt lat="48.61837" lon="7.25985">
        <ele>734.2</ele>
        <time>2020-11-28T11:51:12Z</time>
      </trkpt>
      <trkpt lat="48.61828" lon="7.25981">
        <ele>733.9</ele>
        <time>2020-11-28T11:51:14Z</time>
      </trkpt>
      <trkpt lat="48.6182" lon="7.25977">
        <ele>733.1</ele>
        <time>2020-11-28T11:51:16Z</time>
      </trkpt>
      <trkpt lat="48.61811" lon="7.25972">
        <ele>733.7</ele>
        <time>2020-11-28T11:51:18Z</time>
      </trkpt>
      <trkpt lat="48.61802" lon="7.25968">
        <ele>732.9</ele>
        <time>2020-11-28T11:51:20Z</time>
      </trkpt>
      <trkpt lat="48.61793" lon="7.25963">
        <ele>732.7</ele>
        <time>2020-11-28T11:51:22Z</time>
      </trkpt>
      <trkpt lat="48.61785" lon="7.25957">
        <ele>732.6</ele>
        <time>2020-11-28T11:51:24Z</time>
      </trkpt>
      <trkpt lat="48.61772" lon="7.25943">
        <ele>732</ele>
        <time>2020-11-28T11:51:27Z</time>
      </trkpt>
      <trkpt lat="48.61764" lon="7.2593">
        <ele>733</ele>
        <time>2020-11-28T11:51:29Z</time>
      </trkpt>
      <trkpt lat="48.61756" lon="7.25919">
        <ele>732</ele>
        <time>2020-11-28T11:51:31Z</time>
      </trkpt>
      <trkpt lat="48.61747" lon="7.25906">
        <ele>730.8</ele>
        <time>2020-11-28T11:51:33Z</time>
      </trkpt>
      <trkpt lat="48.6174" lon="7.25893">
        <ele>729.9</ele>
        <time>2020-11-28T11:51:35Z</time>
      </trkpt>
      <trkpt lat="48.61734" lon="7.25879">
        <ele>729.6</ele>
        <time>2020-11-28T11:51:37Z</time>
      </trkpt>
      <trkpt lat="48.61727" lon="7.25866">
        <ele>729.1</ele>
        <time>2020-11-28T11:51:39Z</time>
      </trkpt>
      <trkpt lat="48.6172" lon="7.25852">
        <ele>729.3</ele>
        <time>2020-11-28T11:51:41Z</time>
      </trkpt>
      <trkpt lat="48.61713" lon="7.25837">
        <ele>729.4</ele>
        <time>2020-11-28T11:51:43Z</time>
      </trkpt>
      <trkpt lat="48.61706" lon="7.2582">
        <ele>728.9</ele>
        <time>2020-11-28T11:51:45Z</time>
      </trkpt>
      <trkpt lat="48.61698" lon="7.25805">
        <ele>728.7</ele>
        <time>2020-11-28T11:51:47Z</time>
      </trkpt>
      <trkpt lat="48.6169" lon="7.25792">
        <ele>727.9</ele>
        <time>2020-11-28T11:51:49Z</time>
      </trkpt>
      <trkpt lat="48.61682" lon="7.25779">
        <ele>728.1</ele>
        <time>2020-11-28T11:51:51Z</time>
      </trkpt>
      <trkpt lat="48.61675" lon="7.25768">
        <ele>727.7</ele>
        <time>2020-11-28T11:51:53Z</time>
      </trkpt>
      <trkpt lat="48.61667" lon="7.25757">
        <ele>727.2</ele>
        <time>2020-11-28T11:51:55Z</time>
      </trkpt>
      <trkpt lat="48.61658" lon="7.25747">
        <ele>726.8</ele>
        <time>2020-11-28T11:51:57Z</time>
      </trkpt>
      <trkpt lat="48.61648" lon="7.25736">
        <ele>727</ele>
        <time>2020-11-28T11:51:59Z</time>
      </trkpt>
      <trkpt lat="48.61639" lon="7.2573">
        <ele>726.8</ele>
        <time>2020-11-28T11:52:01Z</time>
      </trkpt>
      <trkpt lat="48.61628" lon="7.25727">
        <ele>726.7</ele>
        <time>2020-11-28T11:52:03Z</time>
      </trkpt>
      <trkpt lat="48.61615" lon="7.25727">
        <ele>726.5</ele>
        <time>2020-11-28T11:52:05Z</time>
      </trkpt>
      <trkpt lat="48.61603" lon="7.25729">
        <ele>726.6</ele>
        <time>2020-11-28T11:52:07Z</time>
      </trkpt>
      <trkpt lat="48.61591" lon="7.2573">
        <ele>726.7</ele>
        <time>2020-11-28T11:52:09Z</time>
      </trkpt>
      <trkpt lat="48.61579" lon="7.25732">
        <ele>726.7</ele>
        <time>2020-11-28T11:52:11Z</time>
      </trkpt>
      <trkpt lat="48.61568" lon="7.25737">
        <ele>727.1</ele>
        <time>2020-11-28T11:52:13Z</time>
      </trkpt>
      <trkpt lat="48.61555" lon="7.25742">
        <ele>727.4</ele>
        <time>2020-11-28T11:52:15Z</time>
      </trkpt>
      <trkpt lat="48.61544" lon="7.25748">
        <ele>727.9</ele>
        <time>2020-11-28T11:52:17Z</time>
      </trkpt>
      <trkpt lat="48.61532" lon="7.25755">
        <ele>727.9</ele>
        <time>2020-11-28T11:52:19Z</time>
      </trkpt>
      <trkpt lat="48.61521" lon="7.25764">
        <ele>728.1</ele>
        <time>2020-11-28T11:52:21Z</time>
      </trkpt>
      <trkpt lat="48.61509" lon="7.25774">
        <ele>728.2</ele>
        <time>2020-11-28T11:52:23Z</time>
      </trkpt>
      <trkpt lat="48.61498" lon="7.25782">
        <ele>728.6</ele>
        <time>2020-11-28T11:52:25Z</time>
      </trkpt>
      <trkpt lat="48.61487" lon="7.25789">
        <ele>729.5</ele>
        <time>2020-11-28T11:52:27Z</time>
      </trkpt>
      <trkpt lat="48.61475" lon="7.25796">
        <ele>730.3</ele>
        <time>2020-11-28T11:52:29Z</time>
      </trkpt>
      <trkpt lat="48.61464" lon="7.25802">
        <ele>730.7</ele>
        <time>2020-11-28T11:52:31Z</time>
      </trkpt>
      <trkpt lat="48.61453" lon="7.25806">
        <ele>731.9</ele>
        <time>2020-11-28T11:52:33Z</time>
      </trkpt>
      <trkpt lat="48.61444" lon="7.25808">
        <ele>733.7</ele>
        <time>2020-11-28T11:52:35Z</time>
      </trkpt>
      <trkpt lat="48.61437" lon="7.25808">
        <ele>735.7</ele>
        <time>2020-11-28T11:52:37Z</time>
      </trkpt>
      <trkpt lat="48.61432" lon="7.25807">
        <ele>734.7</ele>
        <time>2020-11-28T11:52:41Z</time>
      </trkpt>
      <trkpt lat="48.61428" lon="7.25806">
        <ele>739.3</ele>
        <time>2020-11-28T11:53:18Z</time>
      </trkpt>
      <trkpt lat="48.61422" lon="7.25808">
        <ele>740.1</ele>
        <time>2020-11-28T11:53:22Z</time>
      </trkpt>
      <trkpt lat="48.61415" lon="7.25809">
        <ele>740.5</ele>
        <time>2020-11-28T11:53:24Z</time>
      </trkpt>
      <trkpt lat="48.61408" lon="7.25808">
        <ele>740.3</ele>
        <time>2020-11-28T11:53:26Z</time>
      </trkpt>
      <trkpt lat="48.61397" lon="7.25807">
        <ele>741</ele>
        <time>2020-11-28T11:53:28Z</time>
      </trkpt>
      <trkpt lat="48.61389" lon="7.25804">
        <ele>740.7</ele>
        <time>2020-11-28T11:53:30Z</time>
      </trkpt>
      <trkpt lat="48.61379" lon="7.25801">
        <ele>740.7</ele>
        <time>2020-11-28T11:53:32Z</time>
      </trkpt>
      <trkpt lat="48.61369" lon="7.25799">
        <ele>741.4</ele>
        <time>2020-11-28T11:53:34Z</time>
      </trkpt>
      <trkpt lat="48.6136" lon="7.25798">
        <ele>740.9</ele>
        <time>2020-11-28T11:53:36Z</time>
      </trkpt>
      <trkpt lat="48.61351" lon="7.25795">
        <ele>740.1</ele>
        <time>2020-11-28T11:53:38Z</time>
      </trkpt>
      <trkpt lat="48.61339" lon="7.25791">
        <ele>740.9</ele>
        <time>2020-11-28T11:53:41Z</time>
      </trkpt>
      <trkpt lat="48.61327" lon="7.25788">
        <ele>741.5</ele>
        <time>2020-11-28T11:53:44Z</time>
      </trkpt>
      <trkpt lat="48.61318" lon="7.25785">
        <ele>742.6</ele>
        <time>2020-11-28T11:53:46Z</time>
      </trkpt>
      <trkpt lat="48.61309" lon="7.25784">
        <ele>743.4</ele>
        <time>2020-11-28T11:53:48Z</time>
      </trkpt>
      <trkpt lat="48.61302" lon="7.25782">
        <ele>744.3</ele>
        <time>2020-11-28T11:53:50Z</time>
      </trkpt>
      <trkpt lat="48.61294" lon="7.25781">
        <ele>745.6</ele>
        <time>2020-11-28T11:53:52Z</time>
      </trkpt>
      <trkpt lat="48.61287" lon="7.25778">
        <ele>746.4</ele>
        <time>2020-11-28T11:53:54Z</time>
      </trkpt>
      <trkpt lat="48.61279" lon="7.25776">
        <ele>747.7</ele>
        <time>2020-11-28T11:53:56Z</time>
      </trkpt>
      <trkpt lat="48.61271" lon="7.25776">
        <ele>744.6</ele>
        <time>2020-11-28T11:53:58Z</time>
      </trkpt>
      <trkpt lat="48.61264" lon="7.25777">
        <ele>744</ele>
        <time>2020-11-28T11:54:00Z</time>
      </trkpt>
      <trkpt lat="48.61256" lon="7.25779">
        <ele>744</ele>
        <time>2020-11-28T11:54:02Z</time>
      </trkpt>
      <trkpt lat="48.61249" lon="7.25779">
        <ele>744.7</ele>
        <time>2020-11-28T11:54:04Z</time>
      </trkpt>
      <trkpt lat="48.61241" lon="7.25779">
        <ele>746.1</ele>
        <time>2020-11-28T11:54:06Z</time>
      </trkpt>
      <trkpt lat="48.61234" lon="7.25778">
        <ele>746.7</ele>
        <time>2020-11-28T11:54:08Z</time>
      </trkpt>
      <trkpt lat="48.61227" lon="7.25779">
        <ele>746.9</ele>
        <time>2020-11-28T11:54:10Z</time>
      </trkpt>
      <trkpt lat="48.61219" lon="7.25779">
        <ele>746.4</ele>
        <time>2020-11-28T11:54:12Z</time>
      </trkpt>
      <trkpt lat="48.6121" lon="7.25779">
        <ele>746.9</ele>
        <time>2020-11-28T11:54:14Z</time>
      </trkpt>
      <trkpt lat="48.61202" lon="7.25779">
        <ele>744</ele>
        <time>2020-11-28T11:54:16Z</time>
      </trkpt>
      <trkpt lat="48.6119" lon="7.25778">
        <ele>744</ele>
        <time>2020-11-28T11:54:19Z</time>
      </trkpt>
      <trkpt lat="48.61182" lon="7.25778">
        <ele>725</ele>
        <time>2020-11-28T11:54:21Z</time>
      </trkpt>
      <trkpt lat="48.61174" lon="7.25778">
        <ele>721.3</ele>
        <time>2020-11-28T11:54:23Z</time>
      </trkpt>
      <trkpt lat="48.61165" lon="7.25777">
        <ele>724</ele>
        <time>2020-11-28T11:54:25Z</time>
      </trkpt>
      <trkpt lat="48.61156" lon="7.25776">
        <ele>726.1</ele>
        <time>2020-11-28T11:54:27Z</time>
      </trkpt>
      <trkpt lat="48.61148" lon="7.25774">
        <ele>730.6</ele>
        <time>2020-11-28T11:54:29Z</time>
      </trkpt>
      <trkpt lat="48.61135" lon="7.25772">
        <ele>736.1</ele>
        <time>2020-11-28T11:54:32Z</time>
      </trkpt>
      <trkpt lat="48.61127" lon="7.25771">
        <ele>740.2</ele>
        <time>2020-11-28T11:54:34Z</time>
      </trkpt>
      <trkpt lat="48.61118" lon="7.2577">
        <ele>743.7</ele>
        <time>2020-11-28T11:54:36Z</time>
      </trkpt>
      <trkpt lat="48.6111" lon="7.25768">
        <ele>747.2</ele>
        <time>2020-11-28T11:54:38Z</time>
      </trkpt>
      <trkpt lat="48.61102" lon="7.25767">
        <ele>749.1</ele>
        <time>2020-11-28T11:54:40Z</time>
      </trkpt>
      <trkpt lat="48.61094" lon="7.25765">
        <ele>750.6</ele>
        <time>2020-11-28T11:54:42Z</time>
      </trkpt>
      <trkpt lat="48.61086" lon="7.25762">
        <ele>751.5</ele>
        <time>2020-11-28T11:54:44Z</time>
      </trkpt>
      <trkpt lat="48.61078" lon="7.25758">
        <ele>752.1</ele>
        <time>2020-11-28T11:54:46Z</time>
      </trkpt>
      <trkpt lat="48.61069" lon="7.25754">
        <ele>752.2</ele>
        <time>2020-11-28T11:54:48Z</time>
      </trkpt>
      <trkpt lat="48.61061" lon="7.25751">
        <ele>752.2</ele>
        <time>2020-11-28T11:54:50Z</time>
      </trkpt>
      <trkpt lat="48.61053" lon="7.25749">
        <ele>752.2</ele>
        <time>2020-11-28T11:54:52Z</time>
      </trkpt>
      <trkpt lat="48.61044" lon="7.25746">
        <ele>752.1</ele>
        <time>2020-11-28T11:54:54Z</time>
      </trkpt>
      <trkpt lat="48.61036" lon="7.25744">
        <ele>751.9</ele>
        <time>2020-11-28T11:54:56Z</time>
      </trkpt>
      <trkpt lat="48.61028" lon="7.25741">
        <ele>751.9</ele>
        <time>2020-11-28T11:54:58Z</time>
      </trkpt>
      <trkpt lat="48.6102" lon="7.25739">
        <ele>738.8</ele>
        <time>2020-11-28T11:55:00Z</time>
      </trkpt>
      <trkpt lat="48.61013" lon="7.25735">
        <ele>738.4</ele>
        <time>2020-11-28T11:55:02Z</time>
      </trkpt>
      <trkpt lat="48.61006" lon="7.25731">
        <ele>738.4</ele>
        <time>2020-11-28T11:55:04Z</time>
      </trkpt>
      <trkpt lat="48.60997" lon="7.25727">
        <ele>741.2</ele>
        <time>2020-11-28T11:55:06Z</time>
      </trkpt>
      <trkpt lat="48.60989" lon="7.25724">
        <ele>744.1</ele>
        <time>2020-11-28T11:55:08Z</time>
      </trkpt>
      <trkpt lat="48.6098" lon="7.2572">
        <ele>748.4</ele>
        <time>2020-11-28T11:55:10Z</time>
      </trkpt>
      <trkpt lat="48.60971" lon="7.25718">
        <ele>751.7</ele>
        <time>2020-11-28T11:55:12Z</time>
      </trkpt>
      <trkpt lat="48.60963" lon="7.25715">
        <ele>755</ele>
        <time>2020-11-28T11:55:14Z</time>
      </trkpt>
      <trkpt lat="48.60955" lon="7.25713">
        <ele>758.2</ele>
        <time>2020-11-28T11:55:16Z</time>
      </trkpt>
      <trkpt lat="48.60947" lon="7.25711">
        <ele>760.6</ele>
        <time>2020-11-28T11:55:18Z</time>
      </trkpt>
      <trkpt lat="48.60939" lon="7.2571">
        <ele>762</ele>
        <time>2020-11-28T11:55:20Z</time>
      </trkpt>
      <trkpt lat="48.60931" lon="7.25709">
        <ele>763.1</ele>
        <time>2020-11-28T11:55:22Z</time>
      </trkpt>
      <trkpt lat="48.60923" lon="7.25708">
        <ele>760.5</ele>
        <time>2020-11-28T11:55:24Z</time>
      </trkpt>
      <trkpt lat="48.60915" lon="7.25706">
        <ele>761.4</ele>
        <time>2020-11-28T11:55:26Z</time>
      </trkpt>
      <trkpt lat="48.60907" lon="7.25706">
        <ele>762.3</ele>
        <time>2020-11-28T11:55:28Z</time>
      </trkpt>
      <trkpt lat="48.609" lon="7.25705">
        <ele>763.2</ele>
        <time>2020-11-28T11:55:30Z</time>
      </trkpt>
      <trkpt lat="48.60893" lon="7.25705">
        <ele>765.3</ele>
        <time>2020-11-28T11:55:32Z</time>
      </trkpt>
      <trkpt lat="48.60886" lon="7.25706">
        <ele>766.9</ele>
        <time>2020-11-28T11:55:34Z</time>
      </trkpt>
      <trkpt lat="48.60878" lon="7.25706">
        <ele>768.4</ele>
        <time>2020-11-28T11:55:36Z</time>
      </trkpt>
      <trkpt lat="48.6087" lon="7.25706">
        <ele>769.9</ele>
        <time>2020-11-28T11:55:38Z</time>
      </trkpt>
      <trkpt lat="48.60862" lon="7.25706">
        <ele>772.4</ele>
        <time>2020-11-28T11:55:40Z</time>
      </trkpt>
      <trkpt lat="48.60855" lon="7.25705">
        <ele>774.4</ele>
        <time>2020-11-28T11:55:42Z</time>
      </trkpt>
      <trkpt lat="48.60847" lon="7.25704">
        <ele>776.6</ele>
        <time>2020-11-28T11:55:44Z</time>
      </trkpt>
      <trkpt lat="48.60839" lon="7.25704">
        <ele>777.7</ele>
        <time>2020-11-28T11:55:46Z</time>
      </trkpt>
      <trkpt lat="48.60832" lon="7.25703">
        <ele>779.7</ele>
        <time>2020-11-28T11:55:48Z</time>
      </trkpt>
      <trkpt lat="48.60824" lon="7.25701">
        <ele>780.4</ele>
        <time>2020-11-28T11:55:50Z</time>
      </trkpt>
      <trkpt lat="48.60815" lon="7.25701">
        <ele>780.7</ele>
        <time>2020-11-28T11:55:52Z</time>
      </trkpt>
      <trkpt lat="48.60807" lon="7.25701">
        <ele>780.9</ele>
        <time>2020-11-28T11:55:54Z</time>
      </trkpt>
      <trkpt lat="48.608" lon="7.25701">
        <ele>780.3</ele>
        <time>2020-11-28T11:55:56Z</time>
      </trkpt>
      <trkpt lat="48.60791" lon="7.25701">
        <ele>780.2</ele>
        <time>2020-11-28T11:55:58Z</time>
      </trkpt>
      <trkpt lat="48.60783" lon="7.257">
        <ele>780.7</ele>
        <time>2020-11-28T11:56:00Z</time>
      </trkpt>
      <trkpt lat="48.60775" lon="7.25699">
        <ele>781.1</ele>
        <time>2020-11-28T11:56:02Z</time>
      </trkpt>
      <trkpt lat="48.60766" lon="7.25699">
        <ele>781.2</ele>
        <time>2020-11-28T11:56:04Z</time>
      </trkpt>
      <trkpt lat="48.60758" lon="7.25699">
        <ele>781.4</ele>
        <time>2020-11-28T11:56:06Z</time>
      </trkpt>
      <trkpt lat="48.6075" lon="7.25698">
        <ele>781.5</ele>
        <time>2020-11-28T11:56:08Z</time>
      </trkpt>
      <trkpt lat="48.60742" lon="7.25699">
        <ele>782</ele>
        <time>2020-11-28T11:56:10Z</time>
      </trkpt>
      <trkpt lat="48.6073" lon="7.25699">
        <ele>782.1</ele>
        <time>2020-11-28T11:56:13Z</time>
      </trkpt>
      <trkpt lat="48.60722" lon="7.25699">
        <ele>783.1</ele>
        <time>2020-11-28T11:56:15Z</time>
      </trkpt>
      <trkpt lat="48.60714" lon="7.25697">
        <ele>782.8</ele>
        <time>2020-11-28T11:56:17Z</time>
      </trkpt>
      <trkpt lat="48.60706" lon="7.25696">
        <ele>782.7</ele>
        <time>2020-11-28T11:56:19Z</time>
      </trkpt>
      <trkpt lat="48.60697" lon="7.25694">
        <ele>783.7</ele>
        <time>2020-11-28T11:56:21Z</time>
      </trkpt>
      <trkpt lat="48.60689" lon="7.25693">
        <ele>782.5</ele>
        <time>2020-11-28T11:56:23Z</time>
      </trkpt>
      <trkpt lat="48.6068" lon="7.25692">
        <ele>781.3</ele>
        <time>2020-11-28T11:56:25Z</time>
      </trkpt>
      <trkpt lat="48.60673" lon="7.2569">
        <ele>780.4</ele>
        <time>2020-11-28T11:56:27Z</time>
      </trkpt>
      <trkpt lat="48.60665" lon="7.25688">
        <ele>757.2</ele>
        <time>2020-11-28T11:56:29Z</time>
      </trkpt>
      <trkpt lat="48.60657" lon="7.25684">
        <ele>754.6</ele>
        <time>2020-11-28T11:56:31Z</time>
      </trkpt>
      <trkpt lat="48.60646" lon="7.25681">
        <ele>754.3</ele>
        <time>2020-11-28T11:56:33Z</time>
      </trkpt>
      <trkpt lat="48.60636" lon="7.25677">
        <ele>756.4</ele>
        <time>2020-11-28T11:56:35Z</time>
      </trkpt>
      <trkpt lat="48.60627" lon="7.25672">
        <ele>759.4</ele>
        <time>2020-11-28T11:56:37Z</time>
      </trkpt>
      <trkpt lat="48.60619" lon="7.25668">
        <ele>762</ele>
        <time>2020-11-28T11:56:39Z</time>
      </trkpt>
      <trkpt lat="48.60611" lon="7.25664">
        <ele>764.2</ele>
        <time>2020-11-28T11:56:41Z</time>
      </trkpt>
      <trkpt lat="48.60602" lon="7.2566">
        <ele>766.7</ele>
        <time>2020-11-28T11:56:43Z</time>
      </trkpt>
      <trkpt lat="48.60595" lon="7.25657">
        <ele>767.7</ele>
        <time>2020-11-28T11:56:45Z</time>
      </trkpt>
      <trkpt lat="48.60587" lon="7.25652">
        <ele>769</ele>
        <time>2020-11-28T11:56:47Z</time>
      </trkpt>
      <trkpt lat="48.6058" lon="7.25647">
        <ele>769.7</ele>
        <time>2020-11-28T11:56:49Z</time>
      </trkpt>
      <trkpt lat="48.60573" lon="7.25641">
        <ele>770.8</ele>
        <time>2020-11-28T11:56:51Z</time>
      </trkpt>
      <trkpt lat="48.60565" lon="7.25635">
        <ele>772</ele>
        <time>2020-11-28T11:56:53Z</time>
      </trkpt>
      <trkpt lat="48.60559" lon="7.25628">
        <ele>773.3</ele>
        <time>2020-11-28T11:56:55Z</time>
      </trkpt>
      <trkpt lat="48.60551" lon="7.25621">
        <ele>774.7</ele>
        <time>2020-11-28T11:56:57Z</time>
      </trkpt>
      <trkpt lat="48.60544" lon="7.25612">
        <ele>776.3</ele>
        <time>2020-11-28T11:56:59Z</time>
      </trkpt>
      <trkpt lat="48.60537" lon="7.25605">
        <ele>778</ele>
        <time>2020-11-28T11:57:01Z</time>
      </trkpt>
      <trkpt lat="48.60529" lon="7.25599">
        <ele>779.3</ele>
        <time>2020-11-28T11:57:03Z</time>
      </trkpt>
      <trkpt lat="48.60521" lon="7.25592">
        <ele>780.7</ele>
        <time>2020-11-28T11:57:05Z</time>
      </trkpt>
      <trkpt lat="48.60514" lon="7.25587">
        <ele>782.1</ele>
        <time>2020-11-28T11:57:07Z</time>
      </trkpt>
      <trkpt lat="48.60507" lon="7.25582">
        <ele>783.5</ele>
        <time>2020-11-28T11:57:09Z</time>
      </trkpt>
      <trkpt lat="48.605" lon="7.25577">
        <ele>753.8</ele>
        <time>2020-11-28T11:57:11Z</time>
      </trkpt>
      <trkpt lat="48.60493" lon="7.25572">
        <ele>755.2</ele>
        <time>2020-11-28T11:57:13Z</time>
      </trkpt>
      <trkpt lat="48.60486" lon="7.25567">
        <ele>751.7</ele>
        <time>2020-11-28T11:57:15Z</time>
      </trkpt>
      <trkpt lat="48.60479" lon="7.25561">
        <ele>757.3</ele>
        <time>2020-11-28T11:57:17Z</time>
      </trkpt>
      <trkpt lat="48.60472" lon="7.25556">
        <ele>761.6</ele>
        <time>2020-11-28T11:57:19Z</time>
      </trkpt>
      <trkpt lat="48.60464" lon="7.25549">
        <ele>766.5</ele>
        <time>2020-11-28T11:57:21Z</time>
      </trkpt>
      <trkpt lat="48.60456" lon="7.25542">
        <ele>771.2</ele>
        <time>2020-11-28T11:57:23Z</time>
      </trkpt>
      <trkpt lat="48.60448" lon="7.25536">
        <ele>774.8</ele>
        <time>2020-11-28T11:57:25Z</time>
      </trkpt>
      <trkpt lat="48.6044" lon="7.2553">
        <ele>777.4</ele>
        <time>2020-11-28T11:57:27Z</time>
      </trkpt>
      <trkpt lat="48.60432" lon="7.25525">
        <ele>779.9</ele>
        <time>2020-11-28T11:57:29Z</time>
      </trkpt>
      <trkpt lat="48.60424" lon="7.2552">
        <ele>781.6</ele>
        <time>2020-11-28T11:57:31Z</time>
      </trkpt>
      <trkpt lat="48.60416" lon="7.25515">
        <ele>782.7</ele>
        <time>2020-11-28T11:57:33Z</time>
      </trkpt>
      <trkpt lat="48.60409" lon="7.2551">
        <ele>783.6</ele>
        <time>2020-11-28T11:57:35Z</time>
      </trkpt>
      <trkpt lat="48.60401" lon="7.25505">
        <ele>784.8</ele>
        <time>2020-11-28T11:57:37Z</time>
      </trkpt>
      <trkpt lat="48.60393" lon="7.25501">
        <ele>786</ele>
        <time>2020-11-28T11:57:39Z</time>
      </trkpt>
      <trkpt lat="48.60385" lon="7.25496">
        <ele>787.3</ele>
        <time>2020-11-28T11:57:41Z</time>
      </trkpt>
      <trkpt lat="48.60377" lon="7.25492">
        <ele>788.2</ele>
        <time>2020-11-28T11:57:43Z</time>
      </trkpt>
      <trkpt lat="48.60365" lon="7.25487">
        <ele>789.5</ele>
        <time>2020-11-28T11:57:46Z</time>
      </trkpt>
      <trkpt lat="48.60357" lon="7.25483">
        <ele>789.5</ele>
        <time>2020-11-28T11:57:48Z</time>
      </trkpt>
      <trkpt lat="48.60349" lon="7.25481">
        <ele>790.2</ele>
        <time>2020-11-28T11:57:50Z</time>
      </trkpt>
      <trkpt lat="48.60336" lon="7.25479">
        <ele>790.7</ele>
        <time>2020-11-28T11:57:53Z</time>
      </trkpt>
      <trkpt lat="48.6033" lon="7.25479">
        <ele>791.3</ele>
        <time>2020-11-28T11:57:55Z</time>
      </trkpt>
      <trkpt lat="48.60325" lon="7.2548">
        <ele>792.6</ele>
        <time>2020-11-28T11:58:00Z</time>
      </trkpt>
      <trkpt lat="48.60321" lon="7.25474">
        <ele>795</ele>
        <time>2020-11-28T11:58:36Z</time>
      </trkpt>
      <trkpt lat="48.60322" lon="7.25467">
        <ele>795.3</ele>
        <time>2020-11-28T11:58:38Z</time>
      </trkpt>
      <trkpt lat="48.60324" lon="7.25457">
        <ele>795.8</ele>
        <time>2020-11-28T11:58:40Z</time>
      </trkpt>
      <trkpt lat="48.60326" lon="7.25446">
        <ele>795.9</ele>
        <time>2020-11-28T11:58:42Z</time>
      </trkpt>
      <trkpt lat="48.60326" lon="7.25433">
        <ele>796.1</ele>
        <time>2020-11-28T11:58:44Z</time>
      </trkpt>
      <trkpt lat="48.60326" lon="7.25421">
        <ele>795.8</ele>
        <time>2020-11-28T11:58:46Z</time>
      </trkpt>
      <trkpt lat="48.60326" lon="7.25406">
        <ele>795.9</ele>
        <time>2020-11-28T11:58:48Z</time>
      </trkpt>
      <trkpt lat="48.60325" lon="7.25393">
        <ele>795.4</ele>
        <time>2020-11-28T11:58:50Z</time>
      </trkpt>
      <trkpt lat="48.60325" lon="7.25381">
        <ele>794.2</ele>
        <time>2020-11-28T11:58:52Z</time>
      </trkpt>
      <trkpt lat="48.60325" lon="7.25368">
        <ele>793.7</ele>
        <time>2020-11-28T11:58:54Z</time>
      </trkpt>
      <trkpt lat="48.60325" lon="7.25356">
        <ele>793.1</ele>
        <time>2020-11-28T11:58:56Z</time>
      </trkpt>
      <trkpt lat="48.60324" lon="7.25344">
        <ele>792.5</ele>
        <time>2020-11-28T11:58:58Z</time>
      </trkpt>
      <trkpt lat="48.60325" lon="7.25332">
        <ele>792.6</ele>
        <time>2020-11-28T11:59:00Z</time>
      </trkpt>
      <trkpt lat="48.60326" lon="7.2532">
        <ele>792.8</ele>
        <time>2020-11-28T11:59:02Z</time>
      </trkpt>
      <trkpt lat="48.60326" lon="7.25307">
        <ele>792.4</ele>
        <time>2020-11-28T11:59:04Z</time>
      </trkpt>
      <trkpt lat="48.60325" lon="7.25294">
        <ele>792.6</ele>
        <time>2020-11-28T11:59:06Z</time>
      </trkpt>
      <trkpt lat="48.60325" lon="7.2528">
        <ele>792.4</ele>
        <time>2020-11-28T11:59:08Z</time>
      </trkpt>
      <trkpt lat="48.60327" lon="7.25267">
        <ele>792.7</ele>
        <time>2020-11-28T11:59:10Z</time>
      </trkpt>
      <trkpt lat="48.6033" lon="7.25254">
        <ele>791.9</ele>
        <time>2020-11-28T11:59:12Z</time>
      </trkpt>
      <trkpt lat="48.60333" lon="7.25242">
        <ele>791.4</ele>
        <time>2020-11-28T11:59:14Z</time>
      </trkpt>
      <trkpt lat="48.60334" lon="7.25229">
        <ele>791</ele>
        <time>2020-11-28T11:59:16Z</time>
      </trkpt>
      <trkpt lat="48.60333" lon="7.25214">
        <ele>791.6</ele>
        <time>2020-11-28T11:59:18Z</time>
      </trkpt>
      <trkpt lat="48.6033" lon="7.252">
        <ele>792</ele>
        <time>2020-11-28T11:59:20Z</time>
      </trkpt>
      <trkpt lat="48.60327" lon="7.25188">
        <ele>792.7</ele>
        <time>2020-11-28T11:59:22Z</time>
      </trkpt>
      <trkpt lat="48.60321" lon="7.25177">
        <ele>792.7</ele>
        <time>2020-11-28T11:59:24Z</time>
      </trkpt>
      <trkpt lat="48.60314" lon="7.25169">
        <ele>793.1</ele>
        <time>2020-11-28T11:59:26Z</time>
      </trkpt>
      <trkpt lat="48.60306" lon="7.25163">
        <ele>792.9</ele>
        <time>2020-11-28T11:59:28Z</time>
      </trkpt>
      <trkpt lat="48.60299" lon="7.25158">
        <ele>793.1</ele>
        <time>2020-11-28T11:59:30Z</time>
      </trkpt>
      <trkpt lat="48.60292" lon="7.25154">
        <ele>793.4</ele>
        <time>2020-11-28T11:59:32Z</time>
      </trkpt>
      <trkpt lat="48.60286" lon="7.2515">
        <ele>793.3</ele>
        <time>2020-11-28T11:59:34Z</time>
      </trkpt>
      <trkpt lat="48.60279" lon="7.25147">
        <ele>793.5</ele>
        <time>2020-11-28T11:59:36Z</time>
      </trkpt>
      <trkpt lat="48.60271" lon="7.25145">
        <ele>793.6</ele>
        <time>2020-11-28T11:59:38Z</time>
      </trkpt>
      <trkpt lat="48.60261" lon="7.2514">
        <ele>793.9</ele>
        <time>2020-11-28T11:59:41Z</time>
      </trkpt>
      <trkpt lat="48.60254" lon="7.25138">
        <ele>794.3</ele>
        <time>2020-11-28T11:59:43Z</time>
      </trkpt>
      <trkpt lat="48.60247" lon="7.25134">
        <ele>794.8</ele>
        <time>2020-11-28T11:59:45Z</time>
      </trkpt>
      <trkpt lat="48.6024" lon="7.25131">
        <ele>795.6</ele>
        <time>2020-11-28T11:59:47Z</time>
      </trkpt>
      <trkpt lat="48.60234" lon="7.25127">
        <ele>796.6</ele>
        <time>2020-11-28T11:59:49Z</time>
      </trkpt>
      <trkpt lat="48.60227" lon="7.25122">
        <ele>797.5</ele>
        <time>2020-11-28T11:59:51Z</time>
      </trkpt>
      <trkpt lat="48.60219" lon="7.25119">
        <ele>798.3</ele>
        <time>2020-11-28T11:59:53Z</time>
      </trkpt>
      <trkpt lat="48.60211" lon="7.25115">
        <ele>799.5</ele>
        <time>2020-11-28T11:59:55Z</time>
      </trkpt>
      <trkpt lat="48.60203" lon="7.25112">
        <ele>800</ele>
        <time>2020-11-28T11:59:57Z</time>
      </trkpt>
      <trkpt lat="48.60195" lon="7.25108">
        <ele>801.1</ele>
        <time>2020-11-28T11:59:59Z</time>
      </trkpt>
      <trkpt lat="48.60185" lon="7.25104">
        <ele>801.9</ele>
        <time>2020-11-28T12:00:01Z</time>
      </trkpt>
      <trkpt lat="48.60176" lon="7.25101">
        <ele>802.6</ele>
        <time>2020-11-28T12:00:03Z</time>
      </trkpt>
      <trkpt lat="48.60166" lon="7.25098">
        <ele>803.9</ele>
        <time>2020-11-28T12:00:05Z</time>
      </trkpt>
      <trkpt lat="48.60156" lon="7.25095">
        <ele>804.6</ele>
        <time>2020-11-28T12:00:07Z</time>
      </trkpt>
      <trkpt lat="48.60147" lon="7.25093">
        <ele>805.6</ele>
        <time>2020-11-28T12:00:09Z</time>
      </trkpt>
      <trkpt lat="48.60138" lon="7.2509">
        <ele>805.9</ele>
        <time>2020-11-28T12:00:11Z</time>
      </trkpt>
      <trkpt lat="48.60129" lon="7.25087">
        <ele>805.6</ele>
        <time>2020-11-28T12:00:13Z</time>
      </trkpt>
      <trkpt lat="48.6012" lon="7.25083">
        <ele>806.1</ele>
        <time>2020-11-28T12:00:15Z</time>
      </trkpt>
      <trkpt lat="48.60112" lon="7.2508">
        <ele>806.3</ele>
        <time>2020-11-28T12:00:17Z</time>
      </trkpt>
      <trkpt lat="48.60103" lon="7.25079">
        <ele>806.5</ele>
        <time>2020-11-28T12:00:19Z</time>
      </trkpt>
      <trkpt lat="48.60095" lon="7.25077">
        <ele>806.5</ele>
        <time>2020-11-28T12:00:21Z</time>
      </trkpt>
      <trkpt lat="48.60087" lon="7.25073">
        <ele>806.6</ele>
        <time>2020-11-28T12:00:23Z</time>
      </trkpt>
      <trkpt lat="48.60079" lon="7.25069">
        <ele>806.7</ele>
        <time>2020-11-28T12:00:25Z</time>
      </trkpt>
      <trkpt lat="48.6007" lon="7.25065">
        <ele>807.3</ele>
        <time>2020-11-28T12:00:27Z</time>
      </trkpt>
      <trkpt lat="48.60062" lon="7.25061">
        <ele>808.3</ele>
        <time>2020-11-28T12:00:29Z</time>
      </trkpt>
      <trkpt lat="48.60054" lon="7.25058">
        <ele>809.9</ele>
        <time>2020-11-28T12:00:31Z</time>
      </trkpt>
      <trkpt lat="48.60046" lon="7.25057">
        <ele>811.3</ele>
        <time>2020-11-28T12:00:33Z</time>
      </trkpt>
      <trkpt lat="48.60037" lon="7.25059">
        <ele>812.9</ele>
        <time>2020-11-28T12:00:35Z</time>
      </trkpt>
      <trkpt lat="48.60029" lon="7.25061">
        <ele>814.6</ele>
        <time>2020-11-28T12:00:37Z</time>
      </trkpt>
      <trkpt lat="48.60023" lon="7.25065">
        <ele>816</ele>
        <time>2020-11-28T12:00:39Z</time>
      </trkpt>
      <trkpt lat="48.60016" lon="7.2507">
        <ele>817.8</ele>
        <time>2020-11-28T12:00:41Z</time>
      </trkpt>
      <trkpt lat="48.60008" lon="7.25072">
        <ele>819.4</ele>
        <time>2020-11-28T12:00:43Z</time>
      </trkpt>
      <trkpt lat="48.6" lon="7.25075">
        <ele>820.7</ele>
        <time>2020-11-28T12:00:45Z</time>
      </trkpt>
      <trkpt lat="48.59989" lon="7.25081">
        <ele>821.9</ele>
        <time>2020-11-28T12:00:48Z</time>
      </trkpt>
      <trkpt lat="48.59982" lon="7.25084">
        <ele>823.6</ele>
        <time>2020-11-28T12:00:50Z</time>
      </trkpt>
      <trkpt lat="48.59974" lon="7.25087">
        <ele>823.7</ele>
        <time>2020-11-28T12:00:52Z</time>
      </trkpt>
      <trkpt lat="48.59966" lon="7.25091">
        <ele>824.5</ele>
        <time>2020-11-28T12:00:54Z</time>
      </trkpt>
      <trkpt lat="48.59958" lon="7.25096">
        <ele>824.9</ele>
        <time>2020-11-28T12:00:56Z</time>
      </trkpt>
      <trkpt lat="48.59949" lon="7.25099">
        <ele>825.2</ele>
        <time>2020-11-28T12:00:58Z</time>
      </trkpt>
      <trkpt lat="48.59941" lon="7.25104">
        <ele>825.2</ele>
        <time>2020-11-28T12:01:00Z</time>
      </trkpt>
      <trkpt lat="48.59934" lon="7.25108">
        <ele>825.4</ele>
        <time>2020-11-28T12:01:02Z</time>
      </trkpt>
      <trkpt lat="48.59922" lon="7.25113">
        <ele>820.1</ele>
        <time>2020-11-28T12:01:05Z</time>
      </trkpt>
      <trkpt lat="48.59914" lon="7.25114">
        <ele>819.3</ele>
        <time>2020-11-28T12:01:07Z</time>
      </trkpt>
      <trkpt lat="48.59905" lon="7.25117">
        <ele>819.3</ele>
        <time>2020-11-28T12:01:09Z</time>
      </trkpt>
      <trkpt lat="48.59898" lon="7.25119">
        <ele>820.3</ele>
        <time>2020-11-28T12:01:11Z</time>
      </trkpt>
      <trkpt lat="48.59892" lon="7.2512">
        <ele>822.2</ele>
        <time>2020-11-28T12:01:13Z</time>
      </trkpt>
      <trkpt lat="48.59886" lon="7.25124">
        <ele>823.9</ele>
        <time>2020-11-28T12:01:15Z</time>
      </trkpt>
      <trkpt lat="48.5988" lon="7.2513">
        <ele>825</ele>
        <time>2020-11-28T12:01:17Z</time>
      </trkpt>
      <trkpt lat="48.59873" lon="7.25136">
        <ele>825.7</ele>
        <time>2020-11-28T12:01:19Z</time>
      </trkpt>
      <trkpt lat="48.59866" lon="7.25144">
        <ele>826</ele>
        <time>2020-11-28T12:01:21Z</time>
      </trkpt>
      <trkpt lat="48.5986" lon="7.25153">
        <ele>826.3</ele>
        <time>2020-11-28T12:01:23Z</time>
      </trkpt>
      <trkpt lat="48.59854" lon="7.25162">
        <ele>826.7</ele>
        <time>2020-11-28T12:01:25Z</time>
      </trkpt>
      <trkpt lat="48.59849" lon="7.2517">
        <ele>826.8</ele>
        <time>2020-11-28T12:01:27Z</time>
      </trkpt>
      <trkpt lat="48.59843" lon="7.25178">
        <ele>827.1</ele>
        <time>2020-11-28T12:01:29Z</time>
      </trkpt>
      <trkpt lat="48.59837" lon="7.25185">
        <ele>826.9</ele>
        <time>2020-11-28T12:01:31Z</time>
      </trkpt>
      <trkpt lat="48.59826" lon="7.2519">
        <ele>827.5</ele>
        <time>2020-11-28T12:01:34Z</time>
      </trkpt>
      <trkpt lat="48.59818" lon="7.2519">
        <ele>827.7</ele>
        <time>2020-11-28T12:01:36Z</time>
      </trkpt>
      <trkpt lat="48.5981" lon="7.2519">
        <ele>828.2</ele>
        <time>2020-11-28T12:01:38Z</time>
      </trkpt>
      <trkpt lat="48.59803" lon="7.25189">
        <ele>827.7</ele>
        <time>2020-11-28T12:01:40Z</time>
      </trkpt>
      <trkpt lat="48.59795" lon="7.25187">
        <ele>828.2</ele>
        <time>2020-11-28T12:01:42Z</time>
      </trkpt>
      <trkpt lat="48.59787" lon="7.25184">
        <ele>827.9</ele>
        <time>2020-11-28T12:01:44Z</time>
      </trkpt>
      <trkpt lat="48.59779" lon="7.25182">
        <ele>828.1</ele>
        <time>2020-11-28T12:01:46Z</time>
      </trkpt>
      <trkpt lat="48.59771" lon="7.25181">
        <ele>827.8</ele>
        <time>2020-11-28T12:01:48Z</time>
      </trkpt>
      <trkpt lat="48.59763" lon="7.2518">
        <ele>827.2</ele>
        <time>2020-11-28T12:01:50Z</time>
      </trkpt>
      <trkpt lat="48.59754" lon="7.25179">
        <ele>827</ele>
        <time>2020-11-28T12:01:52Z</time>
      </trkpt>
      <trkpt lat="48.59746" lon="7.25177">
        <ele>826.6</ele>
        <time>2020-11-28T12:01:54Z</time>
      </trkpt>
      <trkpt lat="48.59738" lon="7.25174">
        <ele>826.3</ele>
        <time>2020-11-28T12:01:56Z</time>
      </trkpt>
      <trkpt lat="48.5973" lon="7.2517">
        <ele>825.6</ele>
        <time>2020-11-28T12:01:58Z</time>
      </trkpt>
      <trkpt lat="48.59723" lon="7.25162">
        <ele>825.6</ele>
        <time>2020-11-28T12:02:00Z</time>
      </trkpt>
      <trkpt lat="48.59719" lon="7.25152">
        <ele>825.7</ele>
        <time>2020-11-28T12:02:02Z</time>
      </trkpt>
      <trkpt lat="48.59717" lon="7.2514">
        <ele>825.5</ele>
        <time>2020-11-28T12:02:04Z</time>
      </trkpt>
      <trkpt lat="48.59716" lon="7.25128">
        <ele>825.6</ele>
        <time>2020-11-28T12:02:06Z</time>
      </trkpt>
      <trkpt lat="48.59713" lon="7.25117">
        <ele>825.7</ele>
        <time>2020-11-28T12:02:08Z</time>
      </trkpt>
      <trkpt lat="48.5971" lon="7.25105">
        <ele>825.5</ele>
        <time>2020-11-28T12:02:10Z</time>
      </trkpt>
      <trkpt lat="48.59706" lon="7.25089">
        <ele>826</ele>
        <time>2020-11-28T12:02:13Z</time>
      </trkpt>
      <trkpt lat="48.59703" lon="7.25078">
        <ele>826.3</ele>
        <time>2020-11-28T12:02:15Z</time>
      </trkpt>
      <trkpt lat="48.59699" lon="7.25067">
        <ele>826.9</ele>
        <time>2020-11-28T12:02:17Z</time>
      </trkpt>
      <trkpt lat="48.59696" lon="7.25057">
        <ele>827.6</ele>
        <time>2020-11-28T12:02:19Z</time>
      </trkpt>
      <trkpt lat="48.59693" lon="7.25046">
        <ele>828.5</ele>
        <time>2020-11-28T12:02:21Z</time>
      </trkpt>
      <trkpt lat="48.5969" lon="7.25036">
        <ele>828.7</ele>
        <time>2020-11-28T12:02:23Z</time>
      </trkpt>
      <trkpt lat="48.59685" lon="7.25026">
        <ele>828.8</ele>
        <time>2020-11-28T12:02:25Z</time>
      </trkpt>
      <trkpt lat="48.5968" lon="7.25019">
        <ele>829</ele>
        <time>2020-11-28T12:02:27Z</time>
      </trkpt>
      <trkpt lat="48.59675" lon="7.2501">
        <ele>829.8</ele>
        <time>2020-11-28T12:02:29Z</time>
      </trkpt>
      <trkpt lat="48.59669" lon="7.25002">
        <ele>830.7</ele>
        <time>2020-11-28T12:02:31Z</time>
      </trkpt>
      <trkpt lat="48.59664" lon="7.24993">
        <ele>830.9</ele>
        <time>2020-11-28T12:02:33Z</time>
      </trkpt>
      <trkpt lat="48.59659" lon="7.24985">
        <ele>830.9</ele>
        <time>2020-11-28T12:02:35Z</time>
      </trkpt>
      <trkpt lat="48.59656" lon="7.24973">
        <ele>831</ele>
        <time>2020-11-28T12:02:37Z</time>
      </trkpt>
      <trkpt lat="48.59653" lon="7.24962">
        <ele>830.4</ele>
        <time>2020-11-28T12:02:39Z</time>
      </trkpt>
      <trkpt lat="48.59649" lon="7.24952">
        <ele>830.3</ele>
        <time>2020-11-28T12:02:41Z</time>
      </trkpt>
      <trkpt lat="48.59645" lon="7.24941">
        <ele>829.8</ele>
        <time>2020-11-28T12:02:43Z</time>
      </trkpt>
      <trkpt lat="48.59642" lon="7.2493">
        <ele>830.1</ele>
        <time>2020-11-28T12:02:45Z</time>
      </trkpt>
      <trkpt lat="48.59639" lon="7.24921">
        <ele>828.8</ele>
        <time>2020-11-28T12:02:47Z</time>
      </trkpt>
      <trkpt lat="48.59636" lon="7.24912">
        <ele>828.1</ele>
        <time>2020-11-28T12:02:49Z</time>
      </trkpt>
      <trkpt lat="48.59633" lon="7.24903">
        <ele>827.1</ele>
        <time>2020-11-28T12:02:51Z</time>
      </trkpt>
      <trkpt lat="48.59628" lon="7.24892">
        <ele>826.7</ele>
        <time>2020-11-28T12:02:53Z</time>
      </trkpt>
      <trkpt lat="48.59623" lon="7.24882">
        <ele>826.6</ele>
        <time>2020-11-28T12:02:55Z</time>
      </trkpt>
      <trkpt lat="48.59618" lon="7.24872">
        <ele>827.2</ele>
        <time>2020-11-28T12:02:57Z</time>
      </trkpt>
      <trkpt lat="48.59613" lon="7.24861">
        <ele>827.4</ele>
        <time>2020-11-28T12:02:59Z</time>
      </trkpt>
      <trkpt lat="48.59608" lon="7.2485">
        <ele>828</ele>
        <time>2020-11-28T12:03:01Z</time>
      </trkpt>
      <trkpt lat="48.59602" lon="7.24837">
        <ele>829.6</ele>
        <time>2020-11-28T12:03:03Z</time>
      </trkpt>
      <trkpt lat="48.59596" lon="7.24823">
        <ele>831.3</ele>
        <time>2020-11-28T12:03:05Z</time>
      </trkpt>
      <trkpt lat="48.5959" lon="7.24807">
        <ele>834.1</ele>
        <time>2020-11-28T12:03:08Z</time>
      </trkpt>
      <trkpt lat="48.59584" lon="7.24797">
        <ele>835.3</ele>
        <time>2020-11-28T12:03:10Z</time>
      </trkpt>
      <trkpt lat="48.59579" lon="7.24787">
        <ele>836.4</ele>
        <time>2020-11-28T12:03:12Z</time>
      </trkpt>
      <trkpt lat="48.59573" lon="7.24777">
        <ele>837.3</ele>
        <time>2020-11-28T12:03:14Z</time>
      </trkpt>
      <trkpt lat="48.59568" lon="7.24768">
        <ele>838.5</ele>
        <time>2020-11-28T12:03:16Z</time>
      </trkpt>
      <trkpt lat="48.59564" lon="7.24759">
        <ele>839.3</ele>
        <time>2020-11-28T12:03:18Z</time>
      </trkpt>
      <trkpt lat="48.5956" lon="7.24749">
        <ele>840.2</ele>
        <time>2020-11-28T12:03:20Z</time>
      </trkpt>
      <trkpt lat="48.59554" lon="7.24737">
        <ele>841.6</ele>
        <time>2020-11-28T12:03:23Z</time>
      </trkpt>
      <trkpt lat="48.59552" lon="7.24727">
        <ele>842.3</ele>
        <time>2020-11-28T12:03:25Z</time>
      </trkpt>
      <trkpt lat="48.5955" lon="7.24717">
        <ele>843.3</ele>
        <time>2020-11-28T12:03:27Z</time>
      </trkpt>
      <trkpt lat="48.59545" lon="7.24707">
        <ele>843.8</ele>
        <time>2020-11-28T12:03:29Z</time>
      </trkpt>
      <trkpt lat="48.59539" lon="7.24698">
        <ele>844</ele>
        <time>2020-11-28T12:03:31Z</time>
      </trkpt>
      <trkpt lat="48.59533" lon="7.2469">
        <ele>842.7</ele>
        <time>2020-11-28T12:03:33Z</time>
      </trkpt>
      <trkpt lat="48.59527" lon="7.24682">
        <ele>842</ele>
        <time>2020-11-28T12:03:35Z</time>
      </trkpt>
      <trkpt lat="48.59521" lon="7.24675">
        <ele>841.9</ele>
        <time>2020-11-28T12:03:37Z</time>
      </trkpt>
      <trkpt lat="48.59516" lon="7.24666">
        <ele>843.1</ele>
        <time>2020-11-28T12:03:39Z</time>
      </trkpt>
      <trkpt lat="48.5951" lon="7.24658">
        <ele>843.3</ele>
        <time>2020-11-28T12:03:41Z</time>
      </trkpt>
      <trkpt lat="48.59504" lon="7.2465">
        <ele>844.3</ele>
        <time>2020-11-28T12:03:43Z</time>
      </trkpt>
      <trkpt lat="48.59499" lon="7.24642">
        <ele>845.2</ele>
        <time>2020-11-28T12:03:45Z</time>
      </trkpt>
      <trkpt lat="48.59494" lon="7.24635">
        <ele>846.3</ele>
        <time>2020-11-28T12:03:47Z</time>
      </trkpt>
      <trkpt lat="48.59489" lon="7.24627">
        <ele>846.9</ele>
        <time>2020-11-28T12:03:49Z</time>
      </trkpt>
      <trkpt lat="48.59482" lon="7.2462">
        <ele>847.5</ele>
        <time>2020-11-28T12:03:51Z</time>
      </trkpt>
      <trkpt lat="48.59476" lon="7.24614">
        <ele>847.2</ele>
        <time>2020-11-28T12:03:53Z</time>
      </trkpt>
      <trkpt lat="48.59468" lon="7.24607">
        <ele>847.4</ele>
        <time>2020-11-28T12:03:55Z</time>
      </trkpt>
      <trkpt lat="48.59461" lon="7.24602">
        <ele>847.4</ele>
        <time>2020-11-28T12:03:57Z</time>
      </trkpt>
      <trkpt lat="48.59453" lon="7.24597">
        <ele>847.6</ele>
        <time>2020-11-28T12:03:59Z</time>
      </trkpt>
      <trkpt lat="48.59446" lon="7.24592">
        <ele>847.8</ele>
        <time>2020-11-28T12:04:01Z</time>
      </trkpt>
      <trkpt lat="48.59439" lon="7.24587">
        <ele>848</ele>
        <time>2020-11-28T12:04:03Z</time>
      </trkpt>
      <trkpt lat="48.59431" lon="7.24582">
        <ele>848</ele>
        <time>2020-11-28T12:04:05Z</time>
      </trkpt>
      <trkpt lat="48.59424" lon="7.24577">
        <ele>848</ele>
        <time>2020-11-28T12:04:07Z</time>
      </trkpt>
      <trkpt lat="48.59417" lon="7.24573">
        <ele>848.2</ele>
        <time>2020-11-28T12:04:09Z</time>
      </trkpt>
      <trkpt lat="48.5941" lon="7.24569">
        <ele>848.4</ele>
        <time>2020-11-28T12:04:11Z</time>
      </trkpt>
      <trkpt lat="48.59403" lon="7.24565">
        <ele>848.4</ele>
        <time>2020-11-28T12:04:13Z</time>
      </trkpt>
      <trkpt lat="48.59396" lon="7.24561">
        <ele>848.4</ele>
        <time>2020-11-28T12:04:15Z</time>
      </trkpt>
      <trkpt lat="48.5939" lon="7.24556">
        <ele>848.8</ele>
        <time>2020-11-28T12:04:17Z</time>
      </trkpt>
      <trkpt lat="48.59383" lon="7.24551">
        <ele>848.8</ele>
        <time>2020-11-28T12:04:19Z</time>
      </trkpt>
      <trkpt lat="48.59377" lon="7.24546">
        <ele>849.2</ele>
        <time>2020-11-28T12:04:21Z</time>
      </trkpt>
      <trkpt lat="48.5937" lon="7.24542">
        <ele>849.5</ele>
        <time>2020-11-28T12:04:23Z</time>
      </trkpt>
      <trkpt lat="48.59363" lon="7.24538">
        <ele>849.8</ele>
        <time>2020-11-28T12:04:25Z</time>
      </trkpt>
      <trkpt lat="48.59356" lon="7.24534">
        <ele>849.9</ele>
        <time>2020-11-28T12:04:27Z</time>
      </trkpt>
      <trkpt lat="48.59349" lon="7.24531">
        <ele>850.4</ele>
        <time>2020-11-28T12:04:29Z</time>
      </trkpt>
      <trkpt lat="48.59342" lon="7.24527">
        <ele>851</ele>
        <time>2020-11-28T12:04:31Z</time>
      </trkpt>
      <trkpt lat="48.59335" lon="7.24524">
        <ele>851.3</ele>
        <time>2020-11-28T12:04:33Z</time>
      </trkpt>
      <trkpt lat="48.59328" lon="7.24521">
        <ele>851.7</ele>
        <time>2020-11-28T12:04:35Z</time>
      </trkpt>
      <trkpt lat="48.59321" lon="7.24518">
        <ele>852.1</ele>
        <time>2020-11-28T12:04:37Z</time>
      </trkpt>
      <trkpt lat="48.59314" lon="7.24515">
        <ele>852.6</ele>
        <time>2020-11-28T12:04:39Z</time>
      </trkpt>
      <trkpt lat="48.59307" lon="7.24512">
        <ele>853.2</ele>
        <time>2020-11-28T12:04:41Z</time>
      </trkpt>
      <trkpt lat="48.593" lon="7.2451">
        <ele>853.5</ele>
        <time>2020-11-28T12:04:43Z</time>
      </trkpt>
      <trkpt lat="48.59294" lon="7.24507">
        <ele>854</ele>
        <time>2020-11-28T12:04:45Z</time>
      </trkpt>
      <trkpt lat="48.59287" lon="7.24503">
        <ele>854.8</ele>
        <time>2020-11-28T12:04:47Z</time>
      </trkpt>
      <trkpt lat="48.5928" lon="7.245">
        <ele>855.6</ele>
        <time>2020-11-28T12:04:49Z</time>
      </trkpt>
      <trkpt lat="48.59273" lon="7.24497">
        <ele>856.5</ele>
        <time>2020-11-28T12:04:51Z</time>
      </trkpt>
      <trkpt lat="48.59266" lon="7.24495">
        <ele>857.7</ele>
        <time>2020-11-28T12:04:53Z</time>
      </trkpt>
      <trkpt lat="48.59259" lon="7.24492">
        <ele>858.2</ele>
        <time>2020-11-28T12:04:55Z</time>
      </trkpt>
      <trkpt lat="48.59252" lon="7.2449">
        <ele>858.7</ele>
        <time>2020-11-28T12:04:57Z</time>
      </trkpt>
      <trkpt lat="48.59242" lon="7.24489">
        <ele>859.3</ele>
        <time>2020-11-28T12:05:00Z</time>
      </trkpt>
      <trkpt lat="48.59235" lon="7.24489">
        <ele>859.8</ele>
        <time>2020-11-28T12:05:02Z</time>
      </trkpt>
      <trkpt lat="48.59227" lon="7.24489">
        <ele>860.7</ele>
        <time>2020-11-28T12:05:04Z</time>
      </trkpt>
      <trkpt lat="48.59219" lon="7.24488">
        <ele>861.6</ele>
        <time>2020-11-28T12:05:06Z</time>
      </trkpt>
      <trkpt lat="48.59211" lon="7.24487">
        <ele>861.9</ele>
        <time>2020-11-28T12:05:08Z</time>
      </trkpt>
      <trkpt lat="48.59204" lon="7.24486">
        <ele>862.4</ele>
        <time>2020-11-28T12:05:10Z</time>
      </trkpt>
      <trkpt lat="48.59197" lon="7.24486">
        <ele>863.3</ele>
        <time>2020-11-28T12:05:12Z</time>
      </trkpt>
      <trkpt lat="48.5919" lon="7.24487">
        <ele>863.9</ele>
        <time>2020-11-28T12:05:14Z</time>
      </trkpt>
      <trkpt lat="48.59182" lon="7.2449">
        <ele>864.8</ele>
        <time>2020-11-28T12:05:16Z</time>
      </trkpt>
      <trkpt lat="48.59176" lon="7.24493">
        <ele>865.5</ele>
        <time>2020-11-28T12:05:18Z</time>
      </trkpt>
      <trkpt lat="48.59169" lon="7.245">
        <ele>865.9</ele>
        <time>2020-11-28T12:05:22Z</time>
      </trkpt>
      <trkpt lat="48.59163" lon="7.24516">
        <ele>867</ele>
        <time>2020-11-28T12:05:24Z</time>
      </trkpt>
      <trkpt lat="48.59162" lon="7.24525">
        <ele>867</ele>
        <time>2020-11-28T12:05:26Z</time>
      </trkpt>
      <trkpt lat="48.59162" lon="7.24534">
        <ele>866.7</ele>
        <time>2020-11-28T12:05:28Z</time>
      </trkpt>
      <trkpt lat="48.59163" lon="7.24543">
        <ele>866.5</ele>
        <time>2020-11-28T12:05:30Z</time>
      </trkpt>
      <trkpt lat="48.59165" lon="7.24551">
        <ele>866.5</ele>
        <time>2020-11-28T12:05:32Z</time>
      </trkpt>
      <trkpt lat="48.59166" lon="7.24559">
        <ele>866.6</ele>
        <time>2020-11-28T12:05:34Z</time>
      </trkpt>
      <trkpt lat="48.59166" lon="7.24568">
        <ele>866.8</ele>
        <time>2020-11-28T12:05:36Z</time>
      </trkpt>
      <trkpt lat="48.59165" lon="7.24577">
        <ele>866.9</ele>
        <time>2020-11-28T12:05:38Z</time>
      </trkpt>
      <trkpt lat="48.59165" lon="7.24585">
        <ele>867.3</ele>
        <time>2020-11-28T12:05:40Z</time>
      </trkpt>
      <trkpt lat="48.59167" lon="7.24593">
        <ele>867.6</ele>
        <time>2020-11-28T12:05:42Z</time>
      </trkpt>
      <trkpt lat="48.59169" lon="7.24602">
        <ele>867.7</ele>
        <time>2020-11-28T12:05:44Z</time>
      </trkpt>
      <trkpt lat="48.5917" lon="7.2461">
        <ele>867.4</ele>
        <time>2020-11-28T12:05:46Z</time>
      </trkpt>
      <trkpt lat="48.59171" lon="7.24619">
        <ele>867.7</ele>
        <time>2020-11-28T12:05:48Z</time>
      </trkpt>
      <trkpt lat="48.59174" lon="7.24628">
        <ele>867.9</ele>
        <time>2020-11-28T12:05:50Z</time>
      </trkpt>
      <trkpt lat="48.59176" lon="7.24636">
        <ele>868.2</ele>
        <time>2020-11-28T12:05:52Z</time>
      </trkpt>
      <trkpt lat="48.59179" lon="7.24644">
        <ele>868.6</ele>
        <time>2020-11-28T12:05:54Z</time>
      </trkpt>
      <trkpt lat="48.59182" lon="7.24652">
        <ele>869.1</ele>
        <time>2020-11-28T12:05:56Z</time>
      </trkpt>
      <trkpt lat="48.59185" lon="7.24661">
        <ele>869.4</ele>
        <time>2020-11-28T12:05:58Z</time>
      </trkpt>
      <trkpt lat="48.59188" lon="7.24669">
        <ele>869.7</ele>
        <time>2020-11-28T12:06:00Z</time>
      </trkpt>
      <trkpt lat="48.5919" lon="7.24678">
        <ele>870.2</ele>
        <time>2020-11-28T12:06:02Z</time>
      </trkpt>
      <trkpt lat="48.59193" lon="7.24687">
        <ele>870.9</ele>
        <time>2020-11-28T12:06:04Z</time>
      </trkpt>
      <trkpt lat="48.59196" lon="7.24697">
        <ele>871.5</ele>
        <time>2020-11-28T12:06:06Z</time>
      </trkpt>
      <trkpt lat="48.59199" lon="7.24706">
        <ele>871.9</ele>
        <time>2020-11-28T12:06:08Z</time>
      </trkpt>
      <trkpt lat="48.59202" lon="7.24715">
        <ele>872.1</ele>
        <time>2020-11-28T12:06:10Z</time>
      </trkpt>
      <trkpt lat="48.59206" lon="7.24723">
        <ele>872.2</ele>
        <time>2020-11-28T12:06:12Z</time>
      </trkpt>
      <trkpt lat="48.5921" lon="7.24732">
        <ele>872.1</ele>
        <time>2020-11-28T12:06:14Z</time>
      </trkpt>
      <trkpt lat="48.59214" lon="7.2474">
        <ele>872</ele>
        <time>2020-11-28T12:06:16Z</time>
      </trkpt>
      <trkpt lat="48.59218" lon="7.24748">
        <ele>872.1</ele>
        <time>2020-11-28T12:06:18Z</time>
      </trkpt>
      <trkpt lat="48.59222" lon="7.24756">
        <ele>872.1</ele>
        <time>2020-11-28T12:06:20Z</time>
      </trkpt>
      <trkpt lat="48.59227" lon="7.24764">
        <ele>872.2</ele>
        <time>2020-11-28T12:06:22Z</time>
      </trkpt>
      <trkpt lat="48.59231" lon="7.24771">
        <ele>872.2</ele>
        <time>2020-11-28T12:06:24Z</time>
      </trkpt>
      <trkpt lat="48.59235" lon="7.24779">
        <ele>872.2</ele>
        <time>2020-11-28T12:06:26Z</time>
      </trkpt>
      <trkpt lat="48.59239" lon="7.24787">
        <ele>872.4</ele>
        <time>2020-11-28T12:06:28Z</time>
      </trkpt>
      <trkpt lat="48.59243" lon="7.24795">
        <ele>872.2</ele>
        <time>2020-11-28T12:06:30Z</time>
      </trkpt>
      <trkpt lat="48.59249" lon="7.24806">
        <ele>872</ele>
        <time>2020-11-28T12:06:33Z</time>
      </trkpt>
      <trkpt lat="48.59253" lon="7.24813">
        <ele>871.8</ele>
        <time>2020-11-28T12:06:35Z</time>
      </trkpt>
      <trkpt lat="48.59257" lon="7.24821">
        <ele>871.8</ele>
        <time>2020-11-28T12:06:37Z</time>
      </trkpt>
      <trkpt lat="48.59262" lon="7.24829">
        <ele>871.7</ele>
        <time>2020-11-28T12:06:39Z</time>
      </trkpt>
      <trkpt lat="48.59266" lon="7.24838">
        <ele>871.7</ele>
        <time>2020-11-28T12:06:41Z</time>
      </trkpt>
      <trkpt lat="48.59271" lon="7.24847">
        <ele>871.8</ele>
        <time>2020-11-28T12:06:43Z</time>
      </trkpt>
      <trkpt lat="48.59275" lon="7.24856">
        <ele>872.1</ele>
        <time>2020-11-28T12:06:45Z</time>
      </trkpt>
      <trkpt lat="48.59279" lon="7.24865">
        <ele>872.2</ele>
        <time>2020-11-28T12:06:47Z</time>
      </trkpt>
      <trkpt lat="48.59282" lon="7.24875">
        <ele>872.8</ele>
        <time>2020-11-28T12:06:49Z</time>
      </trkpt>
      <trkpt lat="48.59283" lon="7.24887">
        <ele>873</ele>
        <time>2020-11-28T12:06:51Z</time>
      </trkpt>
      <trkpt lat="48.59281" lon="7.24897">
        <ele>873.7</ele>
        <time>2020-11-28T12:06:53Z</time>
      </trkpt>
      <trkpt lat="48.59278" lon="7.24908">
        <ele>873.7</ele>
        <time>2020-11-28T12:06:55Z</time>
      </trkpt>
      <trkpt lat="48.59274" lon="7.24919">
        <ele>874</ele>
        <time>2020-11-28T12:06:57Z</time>
      </trkpt>
      <trkpt lat="48.5927" lon="7.24929">
        <ele>873.7</ele>
        <time>2020-11-28T12:06:59Z</time>
      </trkpt>
      <trkpt lat="48.59266" lon="7.24939">
        <ele>873.7</ele>
        <time>2020-11-28T12:07:01Z</time>
      </trkpt>
      <trkpt lat="48.59261" lon="7.24948">
        <ele>873.9</ele>
        <time>2020-11-28T12:07:03Z</time>
      </trkpt>
      <trkpt lat="48.59256" lon="7.24957">
        <ele>874</ele>
        <time>2020-11-28T12:07:05Z</time>
      </trkpt>
      <trkpt lat="48.59251" lon="7.24965">
        <ele>874.4</ele>
        <time>2020-11-28T12:07:07Z</time>
      </trkpt>
      <trkpt lat="48.59246" lon="7.24974">
        <ele>874.2</ele>
        <time>2020-11-28T12:07:09Z</time>
      </trkpt>
      <trkpt lat="48.5924" lon="7.24982">
        <ele>874.4</ele>
        <time>2020-11-28T12:07:11Z</time>
      </trkpt>
      <trkpt lat="48.59235" lon="7.2499">
        <ele>874.8</ele>
        <time>2020-11-28T12:07:13Z</time>
      </trkpt>
      <trkpt lat="48.59226" lon="7.24998">
        <ele>875.3</ele>
        <time>2020-11-28T12:07:16Z</time>
      </trkpt>
      <trkpt lat="48.59217" lon="7.25006">
        <ele>875.3</ele>
        <time>2020-11-28T12:07:19Z</time>
      </trkpt>
      <trkpt lat="48.59214" lon="7.2501">
        <ele>875.4</ele>
        <time>2020-11-28T12:07:23Z</time>
      </trkpt>
      <trkpt lat="48.59209" lon="7.25016">
        <ele>877.6</ele>
        <time>2020-11-28T12:07:44Z</time>
      </trkpt>
      <trkpt lat="48.59205" lon="7.25017">
        <ele>877.4</ele>
        <time>2020-11-28T12:07:46Z</time>
      </trkpt>
      <trkpt lat="48.59196" lon="7.25018">
        <ele>876.4</ele>
        <time>2020-11-28T12:07:49Z</time>
      </trkpt>
      <trkpt lat="48.5919" lon="7.25019">
        <ele>876</ele>
        <time>2020-11-28T12:07:51Z</time>
      </trkpt>
      <trkpt lat="48.59183" lon="7.25017">
        <ele>875.8</ele>
        <time>2020-11-28T12:07:53Z</time>
      </trkpt>
      <trkpt lat="48.59174" lon="7.25014">
        <ele>875.8</ele>
        <time>2020-11-28T12:07:55Z</time>
      </trkpt>
      <trkpt lat="48.59166" lon="7.25008">
        <ele>875.6</ele>
        <time>2020-11-28T12:07:57Z</time>
      </trkpt>
      <trkpt lat="48.59157" lon="7.24999">
        <ele>875.3</ele>
        <time>2020-11-28T12:07:59Z</time>
      </trkpt>
      <trkpt lat="48.59149" lon="7.24989">
        <ele>874.9</ele>
        <time>2020-11-28T12:08:01Z</time>
      </trkpt>
      <trkpt lat="48.59139" lon="7.24978">
        <ele>874.5</ele>
        <time>2020-11-28T12:08:03Z</time>
      </trkpt>
      <trkpt lat="48.59128" lon="7.24969">
        <ele>874.1</ele>
        <time>2020-11-28T12:08:05Z</time>
      </trkpt>
      <trkpt lat="48.59117" lon="7.24959">
        <ele>873.9</ele>
        <time>2020-11-28T12:08:07Z</time>
      </trkpt>
      <trkpt lat="48.59106" lon="7.2495">
        <ele>873.5</ele>
        <time>2020-11-28T12:08:09Z</time>
      </trkpt>
      <trkpt lat="48.59095" lon="7.24939">
        <ele>873</ele>
        <time>2020-11-28T12:08:11Z</time>
      </trkpt>
      <trkpt lat="48.59085" lon="7.24928">
        <ele>873</ele>
        <time>2020-11-28T12:08:13Z</time>
      </trkpt>
      <trkpt lat="48.59072" lon="7.24918">
        <ele>873.2</ele>
        <time>2020-11-28T12:08:15Z</time>
      </trkpt>
      <trkpt lat="48.5906" lon="7.24909">
        <ele>873.2</ele>
        <time>2020-11-28T12:08:17Z</time>
      </trkpt>
      <trkpt lat="48.59047" lon="7.24901">
        <ele>872.9</ele>
        <time>2020-11-28T12:08:19Z</time>
      </trkpt>
      <trkpt lat="48.59035" lon="7.24895">
        <ele>872.6</ele>
        <time>2020-11-28T12:08:21Z</time>
      </trkpt>
      <trkpt lat="48.59021" lon="7.24892">
        <ele>872</ele>
        <time>2020-11-28T12:08:23Z</time>
      </trkpt>
      <trkpt lat="48.59007" lon="7.24889">
        <ele>872</ele>
        <time>2020-11-28T12:08:25Z</time>
      </trkpt>
      <trkpt lat="48.58993" lon="7.24889">
        <ele>871.7</ele>
        <time>2020-11-28T12:08:27Z</time>
      </trkpt>
      <trkpt lat="48.5898" lon="7.2489">
        <ele>871.4</ele>
        <time>2020-11-28T12:08:29Z</time>
      </trkpt>
      <trkpt lat="48.58967" lon="7.24895">
        <ele>870.9</ele>
        <time>2020-11-28T12:08:31Z</time>
      </trkpt>
      <trkpt lat="48.58955" lon="7.24904">
        <ele>870.1</ele>
        <time>2020-11-28T12:08:33Z</time>
      </trkpt>
      <trkpt lat="48.58947" lon="7.24919">
        <ele>870.1</ele>
        <time>2020-11-28T12:08:35Z</time>
      </trkpt>
      <trkpt lat="48.58938" lon="7.24936">
        <ele>869.8</ele>
        <time>2020-11-28T12:08:37Z</time>
      </trkpt>
      <trkpt lat="48.58931" lon="7.24955">
        <ele>868.8</ele>
        <time>2020-11-28T12:08:39Z</time>
      </trkpt>
      <trkpt lat="48.58924" lon="7.24975">
        <ele>868</ele>
        <time>2020-11-28T12:08:41Z</time>
      </trkpt>
      <trkpt lat="48.58921" lon="7.24995">
        <ele>867.9</ele>
        <time>2020-11-28T12:08:43Z</time>
      </trkpt>
      <trkpt lat="48.58917" lon="7.25016">
        <ele>867.6</ele>
        <time>2020-11-28T12:08:45Z</time>
      </trkpt>
      <trkpt lat="48.58914" lon="7.25039">
        <ele>867.7</ele>
        <time>2020-11-28T12:08:47Z</time>
      </trkpt>
      <trkpt lat="48.5891" lon="7.25061">
        <ele>867</ele>
        <time>2020-11-28T12:08:49Z</time>
      </trkpt>
      <trkpt lat="48.58904" lon="7.25082">
        <ele>856.3</ele>
        <time>2020-11-28T12:08:51Z</time>
      </trkpt>
      <trkpt lat="48.58894" lon="7.25098">
        <ele>854.7</ele>
        <time>2020-11-28T12:08:53Z</time>
      </trkpt>
      <trkpt lat="48.58883" lon="7.25109">
        <ele>854.6</ele>
        <time>2020-11-28T12:08:55Z</time>
      </trkpt>
      <trkpt lat="48.58869" lon="7.25114">
        <ele>856.3</ele>
        <time>2020-11-28T12:08:57Z</time>
      </trkpt>
      <trkpt lat="48.58854" lon="7.25119">
        <ele>857.5</ele>
        <time>2020-11-28T12:08:59Z</time>
      </trkpt>
      <trkpt lat="48.58839" lon="7.25122">
        <ele>858.8</ele>
        <time>2020-11-28T12:09:01Z</time>
      </trkpt>
      <trkpt lat="48.58823" lon="7.25124">
        <ele>859.8</ele>
        <time>2020-11-28T12:09:03Z</time>
      </trkpt>
      <trkpt lat="48.58807" lon="7.25123">
        <ele>860.5</ele>
        <time>2020-11-28T12:09:05Z</time>
      </trkpt>
      <trkpt lat="48.58791" lon="7.25119">
        <ele>860.7</ele>
        <time>2020-11-28T12:09:07Z</time>
      </trkpt>
      <trkpt lat="48.58775" lon="7.25112">
        <ele>860.4</ele>
        <time>2020-11-28T12:09:09Z</time>
      </trkpt>
      <trkpt lat="48.5876" lon="7.25104">
        <ele>860.4</ele>
        <time>2020-11-28T12:09:11Z</time>
      </trkpt>
      <trkpt lat="48.58745" lon="7.25095">
        <ele>859.7</ele>
        <time>2020-11-28T12:09:13Z</time>
      </trkpt>
      <trkpt lat="48.5873" lon="7.25086">
        <ele>859.4</ele>
        <time>2020-11-28T12:09:15Z</time>
      </trkpt>
      <trkpt lat="48.58714" lon="7.25078">
        <ele>858.5</ele>
        <time>2020-11-28T12:09:17Z</time>
      </trkpt>
      <trkpt lat="48.58698" lon="7.25072">
        <ele>858.3</ele>
        <time>2020-11-28T12:09:19Z</time>
      </trkpt>
      <trkpt lat="48.5868" lon="7.25064">
        <ele>857.7</ele>
        <time>2020-11-28T12:09:21Z</time>
      </trkpt>
      <trkpt lat="48.58665" lon="7.25053">
        <ele>856.8</ele>
        <time>2020-11-28T12:09:23Z</time>
      </trkpt>
      <trkpt lat="48.5865" lon="7.25042">
        <ele>855.6</ele>
        <time>2020-11-28T12:09:25Z</time>
      </trkpt>
      <trkpt lat="48.58635" lon="7.25029">
        <ele>855.1</ele>
        <time>2020-11-28T12:09:27Z</time>
      </trkpt>
      <trkpt lat="48.58622" lon="7.25016">
        <ele>854.6</ele>
        <time>2020-11-28T12:09:29Z</time>
      </trkpt>
      <trkpt lat="48.5861" lon="7.25003">
        <ele>854.3</ele>
        <time>2020-11-28T12:09:31Z</time>
      </trkpt>
      <trkpt lat="48.58597" lon="7.24991">
        <ele>854.1</ele>
        <time>2020-11-28T12:09:33Z</time>
      </trkpt>
      <trkpt lat="48.58585" lon="7.24977">
        <ele>853.9</ele>
        <time>2020-11-28T12:09:35Z</time>
      </trkpt>
      <trkpt lat="48.58574" lon="7.24961">
        <ele>853.8</ele>
        <time>2020-11-28T12:09:37Z</time>
      </trkpt>
      <trkpt lat="48.58564" lon="7.24941">
        <ele>853.6</ele>
        <time>2020-11-28T12:09:39Z</time>
      </trkpt>
      <trkpt lat="48.58558" lon="7.2492">
        <ele>853.1</ele>
        <time>2020-11-28T12:09:41Z</time>
      </trkpt>
      <trkpt lat="48.58552" lon="7.24897">
        <ele>853.1</ele>
        <time>2020-11-28T12:09:43Z</time>
      </trkpt>
      <trkpt lat="48.58547" lon="7.24872">
        <ele>852.7</ele>
        <time>2020-11-28T12:09:45Z</time>
      </trkpt>
      <trkpt lat="48.58543" lon="7.24848">
        <ele>852.3</ele>
        <time>2020-11-28T12:09:47Z</time>
      </trkpt>
      <trkpt lat="48.58538" lon="7.24823">
        <ele>851.9</ele>
        <time>2020-11-28T12:09:49Z</time>
      </trkpt>
      <trkpt lat="48.58532" lon="7.248">
        <ele>851.4</ele>
        <time>2020-11-28T12:09:51Z</time>
      </trkpt>
      <trkpt lat="48.58526" lon="7.24777">
        <ele>851</ele>
        <time>2020-11-28T12:09:53Z</time>
      </trkpt>
      <trkpt lat="48.58518" lon="7.24754">
        <ele>850.7</ele>
        <time>2020-11-28T12:09:55Z</time>
      </trkpt>
      <trkpt lat="48.58509" lon="7.24733">
        <ele>850.2</ele>
        <time>2020-11-28T12:09:57Z</time>
      </trkpt>
      <trkpt lat="48.58499" lon="7.24712">
        <ele>849.8</ele>
        <time>2020-11-28T12:09:59Z</time>
      </trkpt>
      <trkpt lat="48.58488" lon="7.24693">
        <ele>848.9</ele>
        <time>2020-11-28T12:10:01Z</time>
      </trkpt>
      <trkpt lat="48.58477" lon="7.24674">
        <ele>848.5</ele>
        <time>2020-11-28T12:10:03Z</time>
      </trkpt>
      <trkpt lat="48.58465" lon="7.24656">
        <ele>848.6</ele>
        <time>2020-11-28T12:10:05Z</time>
      </trkpt>
      <trkpt lat="48.58453" lon="7.24639">
        <ele>848.5</ele>
        <time>2020-11-28T12:10:07Z</time>
      </trkpt>
      <trkpt lat="48.5844" lon="7.24624">
        <ele>848.4</ele>
        <time>2020-11-28T12:10:09Z</time>
      </trkpt>
      <trkpt lat="48.58428" lon="7.24611">
        <ele>848</ele>
        <time>2020-11-28T12:10:11Z</time>
      </trkpt>
      <trkpt lat="48.58414" lon="7.24599">
        <ele>847.3</ele>
        <time>2020-11-28T12:10:13Z</time>
      </trkpt>
      <trkpt lat="48.584" lon="7.2459">
        <ele>846.6</ele>
        <time>2020-11-28T12:10:15Z</time>
      </trkpt>
      <trkpt lat="48.58385" lon="7.24582">
        <ele>845.4</ele>
        <time>2020-11-28T12:10:17Z</time>
      </trkpt>
      <trkpt lat="48.58371" lon="7.24576">
        <ele>844.5</ele>
        <time>2020-11-28T12:10:19Z</time>
      </trkpt>
      <trkpt lat="48.58356" lon="7.24571">
        <ele>844.8</ele>
        <time>2020-11-28T12:10:21Z</time>
      </trkpt>
      <trkpt lat="48.58342" lon="7.24567">
        <ele>844.6</ele>
        <time>2020-11-28T12:10:23Z</time>
      </trkpt>
      <trkpt lat="48.58327" lon="7.24559">
        <ele>843.9</ele>
        <time>2020-11-28T12:10:25Z</time>
      </trkpt>
      <trkpt lat="48.58314" lon="7.2455">
        <ele>843.4</ele>
        <time>2020-11-28T12:10:27Z</time>
      </trkpt>
      <trkpt lat="48.58301" lon="7.24541">
        <ele>843</ele>
        <time>2020-11-28T12:10:29Z</time>
      </trkpt>
      <trkpt lat="48.58288" lon="7.24532">
        <ele>842.3</ele>
        <time>2020-11-28T12:10:31Z</time>
      </trkpt>
      <trkpt lat="48.58275" lon="7.24523">
        <ele>841.1</ele>
        <time>2020-11-28T12:10:33Z</time>
      </trkpt>
      <trkpt lat="48.58263" lon="7.24513">
        <ele>840.3</ele>
        <time>2020-11-28T12:10:35Z</time>
      </trkpt>
      <trkpt lat="48.58244" lon="7.24495">
        <ele>839</ele>
        <time>2020-11-28T12:10:38Z</time>
      </trkpt>
      <trkpt lat="48.58232" lon="7.24482">
        <ele>838.1</ele>
        <time>2020-11-28T12:10:40Z</time>
      </trkpt>
      <trkpt lat="48.58221" lon="7.24468">
        <ele>837.8</ele>
        <time>2020-11-28T12:10:42Z</time>
      </trkpt>
      <trkpt lat="48.58208" lon="7.24455">
        <ele>836.7</ele>
        <time>2020-11-28T12:10:44Z</time>
      </trkpt>
      <trkpt lat="48.58194" lon="7.24443">
        <ele>836.1</ele>
        <time>2020-11-28T12:10:46Z</time>
      </trkpt>
      <trkpt lat="48.58178" lon="7.24432">
        <ele>835.4</ele>
        <time>2020-11-28T12:10:48Z</time>
      </trkpt>
      <trkpt lat="48.58165" lon="7.24422">
        <ele>834.7</ele>
        <time>2020-11-28T12:10:50Z</time>
      </trkpt>
      <trkpt lat="48.58151" lon="7.24414">
        <ele>834.2</ele>
        <time>2020-11-28T12:10:52Z</time>
      </trkpt>
      <trkpt lat="48.58138" lon="7.24406">
        <ele>833.3</ele>
        <time>2020-11-28T12:10:54Z</time>
      </trkpt>
      <trkpt lat="48.58125" lon="7.24399">
        <ele>832.6</ele>
        <time>2020-11-28T12:10:56Z</time>
      </trkpt>
      <trkpt lat="48.58111" lon="7.24393">
        <ele>832.7</ele>
        <time>2020-11-28T12:10:58Z</time>
      </trkpt>
      <trkpt lat="48.58101" lon="7.24389">
        <ele>832.9</ele>
        <time>2020-11-28T12:11:00Z</time>
      </trkpt>
      <trkpt lat="48.58095" lon="7.24388">
        <ele>832.4</ele>
        <time>2020-11-28T12:11:02Z</time>
      </trkpt>
      <trkpt lat="48.58089" lon="7.24383">
        <ele>829.7</ele>
        <time>2020-11-28T12:11:15Z</time>
      </trkpt>
      <trkpt lat="48.58083" lon="7.24381">
        <ele>829.4</ele>
        <time>2020-11-28T12:11:17Z</time>
      </trkpt>
      <trkpt lat="48.58076" lon="7.24379">
        <ele>829.5</ele>
        <time>2020-11-28T12:11:19Z</time>
      </trkpt>
      <trkpt lat="48.58068" lon="7.24377">
        <ele>829.3</ele>
        <time>2020-11-28T12:11:21Z</time>
      </trkpt>
      <trkpt lat="48.58059" lon="7.24374">
        <ele>829.1</ele>
        <time>2020-11-28T12:11:23Z</time>
      </trkpt>
      <trkpt lat="48.58049" lon="7.24372">
        <ele>829.2</ele>
        <time>2020-11-28T12:11:25Z</time>
      </trkpt>
      <trkpt lat="48.58038" lon="7.24371">
        <ele>829.2</ele>
        <time>2020-11-28T12:11:27Z</time>
      </trkpt>
      <trkpt lat="48.58028" lon="7.24369">
        <ele>829.5</ele>
        <time>2020-11-28T12:11:29Z</time>
      </trkpt>
      <trkpt lat="48.58018" lon="7.24367">
        <ele>830</ele>
        <time>2020-11-28T12:11:31Z</time>
      </trkpt>
      <trkpt lat="48.58006" lon="7.24363">
        <ele>830.4</ele>
        <time>2020-11-28T12:11:33Z</time>
      </trkpt>
      <trkpt lat="48.57988" lon="7.24357">
        <ele>831.1</ele>
        <time>2020-11-28T12:11:36Z</time>
      </trkpt>
      <trkpt lat="48.57976" lon="7.24351">
        <ele>831.6</ele>
        <time>2020-11-28T12:11:38Z</time>
      </trkpt>
      <trkpt lat="48.57964" lon="7.24345">
        <ele>831.6</ele>
        <time>2020-11-28T12:11:40Z</time>
      </trkpt>
      <trkpt lat="48.57952" lon="7.24337">
        <ele>831.6</ele>
        <time>2020-11-28T12:11:42Z</time>
      </trkpt>
      <trkpt lat="48.57941" lon="7.24329">
        <ele>831</ele>
        <time>2020-11-28T12:11:44Z</time>
      </trkpt>
      <trkpt lat="48.5793" lon="7.24319">
        <ele>830.3</ele>
        <time>2020-11-28T12:11:46Z</time>
      </trkpt>
      <trkpt lat="48.5792" lon="7.24308">
        <ele>829.9</ele>
        <time>2020-11-28T12:11:48Z</time>
      </trkpt>
      <trkpt lat="48.5791" lon="7.24299">
        <ele>829</ele>
        <time>2020-11-28T12:11:50Z</time>
      </trkpt>
      <trkpt lat="48.57895" lon="7.24283">
        <ele>828.2</ele>
        <time>2020-11-28T12:11:53Z</time>
      </trkpt>
      <trkpt lat="48.57884" lon="7.2427">
        <ele>828.3</ele>
        <time>2020-11-28T12:11:55Z</time>
      </trkpt>
      <trkpt lat="48.57874" lon="7.24256">
        <ele>827.8</ele>
        <time>2020-11-28T12:11:57Z</time>
      </trkpt>
      <trkpt lat="48.57864" lon="7.24242">
        <ele>827.5</ele>
        <time>2020-11-28T12:11:59Z</time>
      </trkpt>
      <trkpt lat="48.57854" lon="7.24227">
        <ele>826.8</ele>
        <time>2020-11-28T12:12:01Z</time>
      </trkpt>
      <trkpt lat="48.57844" lon="7.24214">
        <ele>825.8</ele>
        <time>2020-11-28T12:12:03Z</time>
      </trkpt>
      <trkpt lat="48.57833" lon="7.242">
        <ele>825</ele>
        <time>2020-11-28T12:12:05Z</time>
      </trkpt>
      <trkpt lat="48.57821" lon="7.24188">
        <ele>824.4</ele>
        <time>2020-11-28T12:12:07Z</time>
      </trkpt>
      <trkpt lat="48.57808" lon="7.24181">
        <ele>823.7</ele>
        <time>2020-11-28T12:12:09Z</time>
      </trkpt>
      <trkpt lat="48.57794" lon="7.24176">
        <ele>823.3</ele>
        <time>2020-11-28T12:12:11Z</time>
      </trkpt>
      <trkpt lat="48.5778" lon="7.24172">
        <ele>823.2</ele>
        <time>2020-11-28T12:12:13Z</time>
      </trkpt>
      <trkpt lat="48.57759" lon="7.24172">
        <ele>822.6</ele>
        <time>2020-11-28T12:12:16Z</time>
      </trkpt>
      <trkpt lat="48.57744" lon="7.24174">
        <ele>822.4</ele>
        <time>2020-11-28T12:12:18Z</time>
      </trkpt>
      <trkpt lat="48.57729" lon="7.24176">
        <ele>821.6</ele>
        <time>2020-11-28T12:12:20Z</time>
      </trkpt>
      <trkpt lat="48.57714" lon="7.24177">
        <ele>820.7</ele>
        <time>2020-11-28T12:12:22Z</time>
      </trkpt>
      <trkpt lat="48.57699" lon="7.24178">
        <ele>819.9</ele>
        <time>2020-11-28T12:12:24Z</time>
      </trkpt>
      <trkpt lat="48.57685" lon="7.2418">
        <ele>819.1</ele>
        <time>2020-11-28T12:12:26Z</time>
      </trkpt>
      <trkpt lat="48.5767" lon="7.24181">
        <ele>818.5</ele>
        <time>2020-11-28T12:12:28Z</time>
      </trkpt>
      <trkpt lat="48.57655" lon="7.24183">
        <ele>818.2</ele>
        <time>2020-11-28T12:12:30Z</time>
      </trkpt>
      <trkpt lat="48.57641" lon="7.24186">
        <ele>817.7</ele>
        <time>2020-11-28T12:12:32Z</time>
      </trkpt>
      <trkpt lat="48.57625" lon="7.2419">
        <ele>817.3</ele>
        <time>2020-11-28T12:12:34Z</time>
      </trkpt>
      <trkpt lat="48.5761" lon="7.24192">
        <ele>816.5</ele>
        <time>2020-11-28T12:12:36Z</time>
      </trkpt>
      <trkpt lat="48.57595" lon="7.2419">
        <ele>815.7</ele>
        <time>2020-11-28T12:12:38Z</time>
      </trkpt>
      <trkpt lat="48.5758" lon="7.24186">
        <ele>815</ele>
        <time>2020-11-28T12:12:40Z</time>
      </trkpt>
      <trkpt lat="48.57564" lon="7.24181">
        <ele>814.7</ele>
        <time>2020-11-28T12:12:42Z</time>
      </trkpt>
      <trkpt lat="48.57549" lon="7.24174">
        <ele>814.5</ele>
        <time>2020-11-28T12:12:44Z</time>
      </trkpt>
      <trkpt lat="48.57533" lon="7.24169">
        <ele>814.7</ele>
        <time>2020-11-28T12:12:46Z</time>
      </trkpt>
      <trkpt lat="48.57518" lon="7.24163">
        <ele>814.5</ele>
        <time>2020-11-28T12:12:48Z</time>
      </trkpt>
      <trkpt lat="48.57503" lon="7.24157">
        <ele>814.1</ele>
        <time>2020-11-28T12:12:50Z</time>
      </trkpt>
      <trkpt lat="48.57487" lon="7.2415">
        <ele>813.5</ele>
        <time>2020-11-28T12:12:52Z</time>
      </trkpt>
      <trkpt lat="48.57472" lon="7.24143">
        <ele>812.6</ele>
        <time>2020-11-28T12:12:54Z</time>
      </trkpt>
      <trkpt lat="48.57456" lon="7.24137">
        <ele>811.5</ele>
        <time>2020-11-28T12:12:56Z</time>
      </trkpt>
      <trkpt lat="48.57441" lon="7.2413">
        <ele>811.3</ele>
        <time>2020-11-28T12:12:58Z</time>
      </trkpt>
      <trkpt lat="48.57426" lon="7.24121">
        <ele>810.6</ele>
        <time>2020-11-28T12:13:00Z</time>
      </trkpt>
      <trkpt lat="48.57411" lon="7.24112">
        <ele>810.2</ele>
        <time>2020-11-28T12:13:02Z</time>
      </trkpt>
      <trkpt lat="48.57397" lon="7.241">
        <ele>809.8</ele>
        <time>2020-11-28T12:13:04Z</time>
      </trkpt>
      <trkpt lat="48.57384" lon="7.24084">
        <ele>809.8</ele>
        <time>2020-11-28T12:13:06Z</time>
      </trkpt>
      <trkpt lat="48.57374" lon="7.24068">
        <ele>809.6</ele>
        <time>2020-11-28T12:13:08Z</time>
      </trkpt>
      <trkpt lat="48.57365" lon="7.2405">
        <ele>809.5</ele>
        <time>2020-11-28T12:13:10Z</time>
      </trkpt>
      <trkpt lat="48.57356" lon="7.24032">
        <ele>808.6</ele>
        <time>2020-11-28T12:13:12Z</time>
      </trkpt>
      <trkpt lat="48.57348" lon="7.24015">
        <ele>808.7</ele>
        <time>2020-11-28T12:13:14Z</time>
      </trkpt>
      <trkpt lat="48.57337" lon="7.23999">
        <ele>808.4</ele>
        <time>2020-11-28T12:13:16Z</time>
      </trkpt>
      <trkpt lat="48.57327" lon="7.23983">
        <ele>808.6</ele>
        <time>2020-11-28T12:13:18Z</time>
      </trkpt>
      <trkpt lat="48.57317" lon="7.23968">
        <ele>809.4</ele>
        <time>2020-11-28T12:13:20Z</time>
      </trkpt>
      <trkpt lat="48.57307" lon="7.23953">
        <ele>810.3</ele>
        <time>2020-11-28T12:13:22Z</time>
      </trkpt>
      <trkpt lat="48.57296" lon="7.2394">
        <ele>811.4</ele>
        <time>2020-11-28T12:13:24Z</time>
      </trkpt>
      <trkpt lat="48.57285" lon="7.23927">
        <ele>811.9</ele>
        <time>2020-11-28T12:13:26Z</time>
      </trkpt>
      <trkpt lat="48.57274" lon="7.23917">
        <ele>812.4</ele>
        <time>2020-11-28T12:13:28Z</time>
      </trkpt>
      <trkpt lat="48.57264" lon="7.23907">
        <ele>812.8</ele>
        <time>2020-11-28T12:13:30Z</time>
      </trkpt>
      <trkpt lat="48.57253" lon="7.23896">
        <ele>812.6</ele>
        <time>2020-11-28T12:13:32Z</time>
      </trkpt>
      <trkpt lat="48.57243" lon="7.23884">
        <ele>812.2</ele>
        <time>2020-11-28T12:13:34Z</time>
      </trkpt>
      <trkpt lat="48.57226" lon="7.23867">
        <ele>811.4</ele>
        <time>2020-11-28T12:13:37Z</time>
      </trkpt>
      <trkpt lat="48.57217" lon="7.23857">
        <ele>810.4</ele>
        <time>2020-11-28T12:13:39Z</time>
      </trkpt>
      <trkpt lat="48.57208" lon="7.23846">
        <ele>810.2</ele>
        <time>2020-11-28T12:13:41Z</time>
      </trkpt>
      <trkpt lat="48.57197" lon="7.23834">
        <ele>809.6</ele>
        <time>2020-11-28T12:13:43Z</time>
      </trkpt>
      <trkpt lat="48.57186" lon="7.23824">
        <ele>810.1</ele>
        <time>2020-11-28T12:13:45Z</time>
      </trkpt>
      <trkpt lat="48.57175" lon="7.23813">
        <ele>809.9</ele>
        <time>2020-11-28T12:13:47Z</time>
      </trkpt>
      <trkpt lat="48.57163" lon="7.23803">
        <ele>810.1</ele>
        <time>2020-11-28T12:13:49Z</time>
      </trkpt>
      <trkpt lat="48.57153" lon="7.23793">
        <ele>810.1</ele>
        <time>2020-11-28T12:13:51Z</time>
      </trkpt>
      <trkpt lat="48.57142" lon="7.23783">
        <ele>809.3</ele>
        <time>2020-11-28T12:13:53Z</time>
      </trkpt>
      <trkpt lat="48.57131" lon="7.23774">
        <ele>808.8</ele>
        <time>2020-11-28T12:13:55Z</time>
      </trkpt>
      <trkpt lat="48.57119" lon="7.23765">
        <ele>808.6</ele>
        <time>2020-11-28T12:13:57Z</time>
      </trkpt>
      <trkpt lat="48.57107" lon="7.23756">
        <ele>807.8</ele>
        <time>2020-11-28T12:13:59Z</time>
      </trkpt>
      <trkpt lat="48.57096" lon="7.23746">
        <ele>807.1</ele>
        <time>2020-11-28T12:14:01Z</time>
      </trkpt>
      <trkpt lat="48.57085" lon="7.23736">
        <ele>806.4</ele>
        <time>2020-11-28T12:14:03Z</time>
      </trkpt>
      <trkpt lat="48.57074" lon="7.23726">
        <ele>806</ele>
        <time>2020-11-28T12:14:05Z</time>
      </trkpt>
      <trkpt lat="48.57066" lon="7.23713">
        <ele>806.2</ele>
        <time>2020-11-28T12:14:07Z</time>
      </trkpt>
      <trkpt lat="48.57059" lon="7.237">
        <ele>806.5</ele>
        <time>2020-11-28T12:14:09Z</time>
      </trkpt>
      <trkpt lat="48.57053" lon="7.23688">
        <ele>806.8</ele>
        <time>2020-11-28T12:14:11Z</time>
      </trkpt>
      <trkpt lat="48.57049" lon="7.23677">
        <ele>807.2</ele>
        <time>2020-11-28T12:14:13Z</time>
      </trkpt>
      <trkpt lat="48.57045" lon="7.23666">
        <ele>807.8</ele>
        <time>2020-11-28T12:14:15Z</time>
      </trkpt>
      <trkpt lat="48.57042" lon="7.23656">
        <ele>808.2</ele>
        <time>2020-11-28T12:14:17Z</time>
      </trkpt>
      <trkpt lat="48.57041" lon="7.23649">
        <ele>808.6</ele>
        <time>2020-11-28T12:14:19Z</time>
      </trkpt>
      <trkpt lat="48.57042" lon="7.23642">
        <ele>810.3</ele>
        <time>2020-11-28T12:14:30Z</time>
      </trkpt>
      <trkpt lat="48.57039" lon="7.23636">
        <ele>810.4</ele>
        <time>2020-11-28T12:14:53Z</time>
      </trkpt>
      <trkpt lat="48.57036" lon="7.23628">
        <ele>810.1</ele>
        <time>2020-11-28T12:14:55Z</time>
      </trkpt>
      <trkpt lat="48.57032" lon="7.2362">
        <ele>809.7</ele>
        <time>2020-11-28T12:14:57Z</time>
      </trkpt>
      <trkpt lat="48.57027" lon="7.23611">
        <ele>809.6</ele>
        <time>2020-11-28T12:14:59Z</time>
      </trkpt>
      <trkpt lat="48.57023" lon="7.23602">
        <ele>809.4</ele>
        <time>2020-11-28T12:15:01Z</time>
      </trkpt>
      <trkpt lat="48.57018" lon="7.23592">
        <ele>809.3</ele>
        <time>2020-11-28T12:15:03Z</time>
      </trkpt>
      <trkpt lat="48.57014" lon="7.23583">
        <ele>809.2</ele>
        <time>2020-11-28T12:15:05Z</time>
      </trkpt>
      <trkpt lat="48.57009" lon="7.23573">
        <ele>809.1</ele>
        <time>2020-11-28T12:15:07Z</time>
      </trkpt>
      <trkpt lat="48.57005" lon="7.23562">
        <ele>809.1</ele>
        <time>2020-11-28T12:15:09Z</time>
      </trkpt>
      <trkpt lat="48.56999" lon="7.2355">
        <ele>809.1</ele>
        <time>2020-11-28T12:15:11Z</time>
      </trkpt>
      <trkpt lat="48.56994" lon="7.2354">
        <ele>808.9</ele>
        <time>2020-11-28T12:15:13Z</time>
      </trkpt>
      <trkpt lat="48.56988" lon="7.23531">
        <ele>809</ele>
        <time>2020-11-28T12:15:15Z</time>
      </trkpt>
      <trkpt lat="48.56983" lon="7.2352">
        <ele>809.8</ele>
        <time>2020-11-28T12:15:17Z</time>
      </trkpt>
      <trkpt lat="48.56978" lon="7.2351">
        <ele>809.9</ele>
        <time>2020-11-28T12:15:19Z</time>
      </trkpt>
      <trkpt lat="48.56973" lon="7.235">
        <ele>810.6</ele>
        <time>2020-11-28T12:15:21Z</time>
      </trkpt>
      <trkpt lat="48.56968" lon="7.23491">
        <ele>811.4</ele>
        <time>2020-11-28T12:15:23Z</time>
      </trkpt>
      <trkpt lat="48.56963" lon="7.23482">
        <ele>811.6</ele>
        <time>2020-11-28T12:15:25Z</time>
      </trkpt>
      <trkpt lat="48.56958" lon="7.23473">
        <ele>812.2</ele>
        <time>2020-11-28T12:15:27Z</time>
      </trkpt>
      <trkpt lat="48.56952" lon="7.23462">
        <ele>812.6</ele>
        <time>2020-11-28T12:15:29Z</time>
      </trkpt>
      <trkpt lat="48.56948" lon="7.23451">
        <ele>813.1</ele>
        <time>2020-11-28T12:15:31Z</time>
      </trkpt>
      <trkpt lat="48.56944" lon="7.23439">
        <ele>814.1</ele>
        <time>2020-11-28T12:15:33Z</time>
      </trkpt>
      <trkpt lat="48.56943" lon="7.23426">
        <ele>815.1</ele>
        <time>2020-11-28T12:15:35Z</time>
      </trkpt>
      <trkpt lat="48.56941" lon="7.23413">
        <ele>816.2</ele>
        <time>2020-11-28T12:15:37Z</time>
      </trkpt>
      <trkpt lat="48.56941" lon="7.23399">
        <ele>817.4</ele>
        <time>2020-11-28T12:15:39Z</time>
      </trkpt>
      <trkpt lat="48.5694" lon="7.23386">
        <ele>817.6</ele>
        <time>2020-11-28T12:15:41Z</time>
      </trkpt>
      <trkpt lat="48.5694" lon="7.23373">
        <ele>818</ele>
        <time>2020-11-28T12:15:43Z</time>
      </trkpt>
      <trkpt lat="48.5694" lon="7.23361">
        <ele>817.4</ele>
        <time>2020-11-28T12:15:45Z</time>
      </trkpt>
      <trkpt lat="48.56941" lon="7.2335">
        <ele>816</ele>
        <time>2020-11-28T12:15:47Z</time>
      </trkpt>
      <trkpt lat="48.56941" lon="7.23339">
        <ele>814.7</ele>
        <time>2020-11-28T12:15:49Z</time>
      </trkpt>
      <trkpt lat="48.56941" lon="7.23328">
        <ele>813.3</ele>
        <time>2020-11-28T12:15:51Z</time>
      </trkpt>
      <trkpt lat="48.56941" lon="7.23316">
        <ele>812.4</ele>
        <time>2020-11-28T12:15:53Z</time>
      </trkpt>
      <trkpt lat="48.56941" lon="7.23304">
        <ele>812.1</ele>
        <time>2020-11-28T12:15:55Z</time>
      </trkpt>
      <trkpt lat="48.56941" lon="7.23291">
        <ele>806.3</ele>
        <time>2020-11-28T12:15:57Z</time>
      </trkpt>
      <trkpt lat="48.56942" lon="7.23278">
        <ele>806.8</ele>
        <time>2020-11-28T12:15:59Z</time>
      </trkpt>
      <trkpt lat="48.56941" lon="7.23265">
        <ele>806.7</ele>
        <time>2020-11-28T12:16:01Z</time>
      </trkpt>
      <trkpt lat="48.56941" lon="7.23254">
        <ele>806.4</ele>
        <time>2020-11-28T12:16:03Z</time>
      </trkpt>
      <trkpt lat="48.56942" lon="7.23242">
        <ele>786.9</ele>
        <time>2020-11-28T12:16:05Z</time>
      </trkpt>
      <trkpt lat="48.56944" lon="7.23229">
        <ele>787.6</ele>
        <time>2020-11-28T12:16:07Z</time>
      </trkpt>
      <trkpt lat="48.56947" lon="7.23218">
        <ele>785.4</ele>
        <time>2020-11-28T12:16:09Z</time>
      </trkpt>
      <trkpt lat="48.56952" lon="7.232">
        <ele>783.5</ele>
        <time>2020-11-28T12:16:12Z</time>
      </trkpt>
      <trkpt lat="48.56954" lon="7.23188">
        <ele>786.3</ele>
        <time>2020-11-28T12:16:14Z</time>
      </trkpt>
      <trkpt lat="48.56956" lon="7.23169">
        <ele>774.2</ele>
        <time>2020-11-28T12:16:17Z</time>
      </trkpt>
      <trkpt lat="48.56957" lon="7.23156">
        <ele>783.1</ele>
        <time>2020-11-28T12:16:19Z</time>
      </trkpt>
      <trkpt lat="48.56956" lon="7.23145">
        <ele>788.3</ele>
        <time>2020-11-28T12:16:21Z</time>
      </trkpt>
      <trkpt lat="48.56955" lon="7.23133">
        <ele>794.6</ele>
        <time>2020-11-28T12:16:23Z</time>
      </trkpt>
      <trkpt lat="48.56952" lon="7.23122">
        <ele>799.1</ele>
        <time>2020-11-28T12:16:25Z</time>
      </trkpt>
      <trkpt lat="48.56949" lon="7.23111">
        <ele>784</ele>
        <time>2020-11-28T12:16:27Z</time>
      </trkpt>
      <trkpt lat="48.56946" lon="7.231">
        <ele>792.6</ele>
        <time>2020-11-28T12:16:29Z</time>
      </trkpt>
      <trkpt lat="48.56942" lon="7.23089">
        <ele>795</ele>
        <time>2020-11-28T12:16:31Z</time>
      </trkpt>
      <trkpt lat="48.56939" lon="7.23079">
        <ele>800.2</ele>
        <time>2020-11-28T12:16:33Z</time>
      </trkpt>
      <trkpt lat="48.56936" lon="7.23069">
        <ele>804.3</ele>
        <time>2020-11-28T12:16:35Z</time>
      </trkpt>
      <trkpt lat="48.56933" lon="7.23059">
        <ele>807.9</ele>
        <time>2020-11-28T12:16:37Z</time>
      </trkpt>
      <trkpt lat="48.5693" lon="7.2305">
        <ele>810.5</ele>
        <time>2020-11-28T12:16:39Z</time>
      </trkpt>
      <trkpt lat="48.56927" lon="7.2304">
        <ele>812.8</ele>
        <time>2020-11-28T12:16:41Z</time>
      </trkpt>
      <trkpt lat="48.56924" lon="7.2303">
        <ele>814.8</ele>
        <time>2020-11-28T12:16:43Z</time>
      </trkpt>
      <trkpt lat="48.56919" lon="7.23021">
        <ele>816.5</ele>
        <time>2020-11-28T12:16:45Z</time>
      </trkpt>
      <trkpt lat="48.56915" lon="7.23012">
        <ele>817.6</ele>
        <time>2020-11-28T12:16:47Z</time>
      </trkpt>
      <trkpt lat="48.56911" lon="7.23002">
        <ele>818.7</ele>
        <time>2020-11-28T12:16:49Z</time>
      </trkpt>
      <trkpt lat="48.56907" lon="7.22993">
        <ele>819.2</ele>
        <time>2020-11-28T12:16:51Z</time>
      </trkpt>
      <trkpt lat="48.56903" lon="7.22984">
        <ele>819.3</ele>
        <time>2020-11-28T12:16:53Z</time>
      </trkpt>
      <trkpt lat="48.56898" lon="7.22975">
        <ele>819.8</ele>
        <time>2020-11-28T12:16:55Z</time>
      </trkpt>
      <trkpt lat="48.56893" lon="7.22965">
        <ele>820.1</ele>
        <time>2020-11-28T12:16:57Z</time>
      </trkpt>
      <trkpt lat="48.56888" lon="7.22956">
        <ele>820.3</ele>
        <time>2020-11-28T12:16:59Z</time>
      </trkpt>
      <trkpt lat="48.56883" lon="7.22947">
        <ele>820.4</ele>
        <time>2020-11-28T12:17:01Z</time>
      </trkpt>
      <trkpt lat="48.56879" lon="7.22939">
        <ele>820.6</ele>
        <time>2020-11-28T12:17:03Z</time>
      </trkpt>
      <trkpt lat="48.56874" lon="7.2293">
        <ele>821</ele>
        <time>2020-11-28T12:17:05Z</time>
      </trkpt>
      <trkpt lat="48.5687" lon="7.22922">
        <ele>821.4</ele>
        <time>2020-11-28T12:17:07Z</time>
      </trkpt>
      <trkpt lat="48.56865" lon="7.22913">
        <ele>821.3</ele>
        <time>2020-11-28T12:17:09Z</time>
      </trkpt>
      <trkpt lat="48.56861" lon="7.22904">
        <ele>821.7</ele>
        <time>2020-11-28T12:17:11Z</time>
      </trkpt>
      <trkpt lat="48.56857" lon="7.22895">
        <ele>822.1</ele>
        <time>2020-11-28T12:17:13Z</time>
      </trkpt>
      <trkpt lat="48.56852" lon="7.22886">
        <ele>822.8</ele>
        <time>2020-11-28T12:17:15Z</time>
      </trkpt>
      <trkpt lat="48.56848" lon="7.22876">
        <ele>823.5</ele>
        <time>2020-11-28T12:17:17Z</time>
      </trkpt>
      <trkpt lat="48.56845" lon="7.22866">
        <ele>823.5</ele>
        <time>2020-11-28T12:17:19Z</time>
      </trkpt>
      <trkpt lat="48.56841" lon="7.22856">
        <ele>823.4</ele>
        <time>2020-11-28T12:17:21Z</time>
      </trkpt>
      <trkpt lat="48.56838" lon="7.22846">
        <ele>823.2</ele>
        <time>2020-11-28T12:17:23Z</time>
      </trkpt>
      <trkpt lat="48.56835" lon="7.22836">
        <ele>823.3</ele>
        <time>2020-11-28T12:17:25Z</time>
      </trkpt>
      <trkpt lat="48.56831" lon="7.22826">
        <ele>823.2</ele>
        <time>2020-11-28T12:17:27Z</time>
      </trkpt>
      <trkpt lat="48.56828" lon="7.22816">
        <ele>823.3</ele>
        <time>2020-11-28T12:17:29Z</time>
      </trkpt>
      <trkpt lat="48.56825" lon="7.22806">
        <ele>823.8</ele>
        <time>2020-11-28T12:17:31Z</time>
      </trkpt>
      <trkpt lat="48.56821" lon="7.22795">
        <ele>824.4</ele>
        <time>2020-11-28T12:17:33Z</time>
      </trkpt>
      <trkpt lat="48.56818" lon="7.22786">
        <ele>824.9</ele>
        <time>2020-11-28T12:17:35Z</time>
      </trkpt>
      <trkpt lat="48.56814" lon="7.22776">
        <ele>824.9</ele>
        <time>2020-11-28T12:17:37Z</time>
      </trkpt>
      <trkpt lat="48.56811" lon="7.22767">
        <ele>825.1</ele>
        <time>2020-11-28T12:17:39Z</time>
      </trkpt>
      <trkpt lat="48.56808" lon="7.22758">
        <ele>825.9</ele>
        <time>2020-11-28T12:17:41Z</time>
      </trkpt>
      <trkpt lat="48.56804" lon="7.22749">
        <ele>826.2</ele>
        <time>2020-11-28T12:17:43Z</time>
      </trkpt>
      <trkpt lat="48.56801" lon="7.2274">
        <ele>826.6</ele>
        <time>2020-11-28T12:17:45Z</time>
      </trkpt>
      <trkpt lat="48.56797" lon="7.2273">
        <ele>827.4</ele>
        <time>2020-11-28T12:17:47Z</time>
      </trkpt>
      <trkpt lat="48.56794" lon="7.2272">
        <ele>827.9</ele>
        <time>2020-11-28T12:17:49Z</time>
      </trkpt>
      <trkpt lat="48.56789" lon="7.22711">
        <ele>828.3</ele>
        <time>2020-11-28T12:17:51Z</time>
      </trkpt>
      <trkpt lat="48.56783" lon="7.22703">
        <ele>829.1</ele>
        <time>2020-11-28T12:17:53Z</time>
      </trkpt>
      <trkpt lat="48.56777" lon="7.22694">
        <ele>829.8</ele>
        <time>2020-11-28T12:17:55Z</time>
      </trkpt>
      <trkpt lat="48.56772" lon="7.22686">
        <ele>830.1</ele>
        <time>2020-11-28T12:17:57Z</time>
      </trkpt>
      <trkpt lat="48.56766" lon="7.22677">
        <ele>829.6</ele>
        <time>2020-11-28T12:17:59Z</time>
      </trkpt>
      <trkpt lat="48.56761" lon="7.2267">
        <ele>829.9</ele>
        <time>2020-11-28T12:18:01Z</time>
      </trkpt>
      <trkpt lat="48.56754" lon="7.22663">
        <ele>829.5</ele>
        <time>2020-11-28T12:18:03Z</time>
      </trkpt>
      <trkpt lat="48.56748" lon="7.22657">
        <ele>829.5</ele>
        <time>2020-11-28T12:18:05Z</time>
      </trkpt>
      <trkpt lat="48.56742" lon="7.2265">
        <ele>829.8</ele>
        <time>2020-11-28T12:18:07Z</time>
      </trkpt>
      <trkpt lat="48.56736" lon="7.22644">
        <ele>830.3</ele>
        <time>2020-11-28T12:18:09Z</time>
      </trkpt>
      <trkpt lat="48.5673" lon="7.22637">
        <ele>830.5</ele>
        <time>2020-11-28T12:18:11Z</time>
      </trkpt>
      <trkpt lat="48.56723" lon="7.2263">
        <ele>830.6</ele>
        <time>2020-11-28T12:18:13Z</time>
      </trkpt>
      <trkpt lat="48.56718" lon="7.22624">
        <ele>830.4</ele>
        <time>2020-11-28T12:18:15Z</time>
      </trkpt>
      <trkpt lat="48.56712" lon="7.22617">
        <ele>830.1</ele>
        <time>2020-11-28T12:18:17Z</time>
      </trkpt>
      <trkpt lat="48.56707" lon="7.2261">
        <ele>830</ele>
        <time>2020-11-28T12:18:19Z</time>
      </trkpt>
      <trkpt lat="48.56702" lon="7.22603">
        <ele>829.9</ele>
        <time>2020-11-28T12:18:21Z</time>
      </trkpt>
      <trkpt lat="48.56697" lon="7.22596">
        <ele>830.1</ele>
        <time>2020-11-28T12:18:23Z</time>
      </trkpt>
      <trkpt lat="48.56692" lon="7.22588">
        <ele>831.2</ele>
        <time>2020-11-28T12:18:25Z</time>
      </trkpt>
      <trkpt lat="48.56687" lon="7.22581">
        <ele>831.4</ele>
        <time>2020-11-28T12:18:27Z</time>
      </trkpt>
      <trkpt lat="48.56683" lon="7.22575">
        <ele>832</ele>
        <time>2020-11-28T12:18:29Z</time>
      </trkpt>
      <trkpt lat="48.56677" lon="7.22569">
        <ele>832.3</ele>
        <time>2020-11-28T12:18:31Z</time>
      </trkpt>
      <trkpt lat="48.56671" lon="7.22564">
        <ele>833.2</ele>
        <time>2020-11-28T12:18:33Z</time>
      </trkpt>
      <trkpt lat="48.56665" lon="7.22558">
        <ele>833.4</ele>
        <time>2020-11-28T12:18:35Z</time>
      </trkpt>
      <trkpt lat="48.56659" lon="7.22553">
        <ele>833.4</ele>
        <time>2020-11-28T12:18:37Z</time>
      </trkpt>
      <trkpt lat="48.56653" lon="7.22548">
        <ele>833.9</ele>
        <time>2020-11-28T12:18:39Z</time>
      </trkpt>
      <trkpt lat="48.56646" lon="7.22543">
        <ele>834</ele>
        <time>2020-11-28T12:18:41Z</time>
      </trkpt>
      <trkpt lat="48.5664" lon="7.22537">
        <ele>835</ele>
        <time>2020-11-28T12:18:43Z</time>
      </trkpt>
      <trkpt lat="48.56633" lon="7.22531">
        <ele>835.3</ele>
        <time>2020-11-28T12:18:45Z</time>
      </trkpt>
      <trkpt lat="48.56626" lon="7.22525">
        <ele>836</ele>
        <time>2020-11-28T12:18:47Z</time>
      </trkpt>
      <trkpt lat="48.56619" lon="7.2252">
        <ele>836.2</ele>
        <time>2020-11-28T12:18:49Z</time>
      </trkpt>
      <trkpt lat="48.56611" lon="7.22516">
        <ele>836.6</ele>
        <time>2020-11-28T12:18:51Z</time>
      </trkpt>
      <trkpt lat="48.56604" lon="7.22511">
        <ele>836.3</ele>
        <time>2020-11-28T12:18:53Z</time>
      </trkpt>
      <trkpt lat="48.56597" lon="7.22506">
        <ele>836.2</ele>
        <time>2020-11-28T12:18:55Z</time>
      </trkpt>
      <trkpt lat="48.56591" lon="7.22499">
        <ele>836.3</ele>
        <time>2020-11-28T12:18:57Z</time>
      </trkpt>
      <trkpt lat="48.56585" lon="7.22492">
        <ele>836.4</ele>
        <time>2020-11-28T12:18:59Z</time>
      </trkpt>
      <trkpt lat="48.5658" lon="7.22485">
        <ele>836.9</ele>
        <time>2020-11-28T12:19:01Z</time>
      </trkpt>
      <trkpt lat="48.56575" lon="7.22478">
        <ele>837.1</ele>
        <time>2020-11-28T12:19:03Z</time>
      </trkpt>
      <trkpt lat="48.56569" lon="7.2247">
        <ele>837.2</ele>
        <time>2020-11-28T12:19:05Z</time>
      </trkpt>
      <trkpt lat="48.56565" lon="7.22463">
        <ele>837.3</ele>
        <time>2020-11-28T12:19:07Z</time>
      </trkpt>
      <trkpt lat="48.5656" lon="7.22455">
        <ele>837.7</ele>
        <time>2020-11-28T12:19:09Z</time>
      </trkpt>
      <trkpt lat="48.56556" lon="7.22447">
        <ele>837.4</ele>
        <time>2020-11-28T12:19:11Z</time>
      </trkpt>
      <trkpt lat="48.56551" lon="7.22439">
        <ele>810.7</ele>
        <time>2020-11-28T12:19:13Z</time>
      </trkpt>
      <trkpt lat="48.56547" lon="7.22432">
        <ele>808.1</ele>
        <time>2020-11-28T12:19:15Z</time>
      </trkpt>
      <trkpt lat="48.56542" lon="7.22424">
        <ele>805.1</ele>
        <time>2020-11-28T12:19:17Z</time>
      </trkpt>
      <trkpt lat="48.56537" lon="7.22414">
        <ele>806.8</ele>
        <time>2020-11-28T12:19:19Z</time>
      </trkpt>
      <trkpt lat="48.56533" lon="7.22405">
        <ele>811.1</ele>
        <time>2020-11-28T12:19:21Z</time>
      </trkpt>
      <trkpt lat="48.5653" lon="7.22396">
        <ele>814.9</ele>
        <time>2020-11-28T12:19:23Z</time>
      </trkpt>
      <trkpt lat="48.56526" lon="7.22388">
        <ele>817.9</ele>
        <time>2020-11-28T12:19:25Z</time>
      </trkpt>
      <trkpt lat="48.56523" lon="7.22379">
        <ele>819.9</ele>
        <time>2020-11-28T12:19:27Z</time>
      </trkpt>
      <trkpt lat="48.56519" lon="7.2237">
        <ele>822.2</ele>
        <time>2020-11-28T12:19:29Z</time>
      </trkpt>
      <trkpt lat="48.56516" lon="7.22361">
        <ele>824.2</ele>
        <time>2020-11-28T12:19:31Z</time>
      </trkpt>
      <trkpt lat="48.56513" lon="7.22352">
        <ele>825.4</ele>
        <time>2020-11-28T12:19:33Z</time>
      </trkpt>
      <trkpt lat="48.5651" lon="7.22343">
        <ele>825.9</ele>
        <time>2020-11-28T12:19:35Z</time>
      </trkpt>
      <trkpt lat="48.56507" lon="7.22334">
        <ele>827</ele>
        <time>2020-11-28T12:19:37Z</time>
      </trkpt>
      <trkpt lat="48.56502" lon="7.22324">
        <ele>827.8</ele>
        <time>2020-11-28T12:19:39Z</time>
      </trkpt>
      <trkpt lat="48.56498" lon="7.22314">
        <ele>829.2</ele>
        <time>2020-11-28T12:19:41Z</time>
      </trkpt>
      <trkpt lat="48.56495" lon="7.22303">
        <ele>831</ele>
        <time>2020-11-28T12:19:43Z</time>
      </trkpt>
      <trkpt lat="48.56491" lon="7.22292">
        <ele>833.5</ele>
        <time>2020-11-28T12:19:45Z</time>
      </trkpt>
      <trkpt lat="48.56488" lon="7.22283">
        <ele>835.8</ele>
        <time>2020-11-28T12:19:47Z</time>
      </trkpt>
      <trkpt lat="48.56485" lon="7.22274">
        <ele>837.2</ele>
        <time>2020-11-28T12:19:49Z</time>
      </trkpt>
      <trkpt lat="48.56481" lon="7.22268">
        <ele>837.7</ele>
        <time>2020-11-28T12:19:51Z</time>
      </trkpt>
      <trkpt lat="48.56477" lon="7.22262">
        <ele>837.9</ele>
        <time>2020-11-28T12:19:53Z</time>
      </trkpt>
      <trkpt lat="48.56472" lon="7.22254">
        <ele>837.9</ele>
        <time>2020-11-28T12:19:55Z</time>
      </trkpt>
      <trkpt lat="48.56468" lon="7.22246">
        <ele>837.9</ele>
        <time>2020-11-28T12:19:57Z</time>
      </trkpt>
      <trkpt lat="48.56465" lon="7.22236">
        <ele>839</ele>
        <time>2020-11-28T12:19:59Z</time>
      </trkpt>
      <trkpt lat="48.56462" lon="7.22227">
        <ele>839.7</ele>
        <time>2020-11-28T12:20:01Z</time>
      </trkpt>
      <trkpt lat="48.56459" lon="7.22216">
        <ele>795.7</ele>
        <time>2020-11-28T12:20:03Z</time>
      </trkpt>
      <trkpt lat="48.56456" lon="7.22206">
        <ele>790.9</ele>
        <time>2020-11-28T12:20:05Z</time>
      </trkpt>
      <trkpt lat="48.56454" lon="7.22194">
        <ele>785.3</ele>
        <time>2020-11-28T12:20:07Z</time>
      </trkpt>
      <trkpt lat="48.56453" lon="7.22182">
        <ele>789.4</ele>
        <time>2020-11-28T12:20:09Z</time>
      </trkpt>
      <trkpt lat="48.56454" lon="7.2217">
        <ele>797.4</ele>
        <time>2020-11-28T12:20:11Z</time>
      </trkpt>
      <trkpt lat="48.56457" lon="7.22161">
        <ele>806</ele>
        <time>2020-11-28T12:20:13Z</time>
      </trkpt>
      <trkpt lat="48.56463" lon="7.22157">
        <ele>813.4</ele>
        <time>2020-11-28T12:20:16Z</time>
      </trkpt>
      <trkpt lat="48.56466" lon="7.22151">
        <ele>827.2</ele>
        <time>2020-11-28T12:20:24Z</time>
      </trkpt>
      <trkpt lat="48.56471" lon="7.22151">
        <ele>839.2</ele>
        <time>2020-11-28T12:20:41Z</time>
      </trkpt>
      <trkpt lat="48.56475" lon="7.22155">
        <ele>841.1</ele>
        <time>2020-11-28T12:20:44Z</time>
      </trkpt>
      <trkpt lat="48.5648" lon="7.22158">
        <ele>842.1</ele>
        <time>2020-11-28T12:20:46Z</time>
      </trkpt>
      <trkpt lat="48.56487" lon="7.22161">
        <ele>842.9</ele>
        <time>2020-11-28T12:20:48Z</time>
      </trkpt>
      <trkpt lat="48.56493" lon="7.22165">
        <ele>844.5</ele>
        <time>2020-11-28T12:20:50Z</time>
      </trkpt>
      <trkpt lat="48.56501" lon="7.22169">
        <ele>845.3</ele>
        <time>2020-11-28T12:20:52Z</time>
      </trkpt>
      <trkpt lat="48.56508" lon="7.22174">
        <ele>846.5</ele>
        <time>2020-11-28T12:20:54Z</time>
      </trkpt>
      <trkpt lat="48.56518" lon="7.22184">
        <ele>847.5</ele>
        <time>2020-11-28T12:20:57Z</time>
      </trkpt>
      <trkpt lat="48.56527" lon="7.22195">
        <ele>849.1</ele>
        <time>2020-11-28T12:21:00Z</time>
      </trkpt>
      <trkpt lat="48.56533" lon="7.22202">
        <ele>850.2</ele>
        <time>2020-11-28T12:21:02Z</time>
      </trkpt>
      <trkpt lat="48.56537" lon="7.2221">
        <ele>850.8</ele>
        <time>2020-11-28T12:21:04Z</time>
      </trkpt>
      <trkpt lat="48.56542" lon="7.22217">
        <ele>851.6</ele>
        <time>2020-11-28T12:21:06Z</time>
      </trkpt>
      <trkpt lat="48.56548" lon="7.22223">
        <ele>850.7</ele>
        <time>2020-11-28T12:21:08Z</time>
      </trkpt>
      <trkpt lat="48.56554" lon="7.22228">
        <ele>850.5</ele>
        <time>2020-11-28T12:21:10Z</time>
      </trkpt>
      <trkpt lat="48.56561" lon="7.22234">
        <ele>849.2</ele>
        <time>2020-11-28T12:21:12Z</time>
      </trkpt>
      <trkpt lat="48.56567" lon="7.2224">
        <ele>848.2</ele>
        <time>2020-11-28T12:21:14Z</time>
      </trkpt>
      <trkpt lat="48.56574" lon="7.22246">
        <ele>847.8</ele>
        <time>2020-11-28T12:21:16Z</time>
      </trkpt>
      <trkpt lat="48.5658" lon="7.2225">
        <ele>847.4</ele>
        <time>2020-11-28T12:21:18Z</time>
      </trkpt>
      <trkpt lat="48.56587" lon="7.22254">
        <ele>846.8</ele>
        <time>2020-11-28T12:21:20Z</time>
      </trkpt>
      <trkpt lat="48.56594" lon="7.22258">
        <ele>846.5</ele>
        <time>2020-11-28T12:21:22Z</time>
      </trkpt>
      <trkpt lat="48.56602" lon="7.22261">
        <ele>846</ele>
        <time>2020-11-28T12:21:24Z</time>
      </trkpt>
      <trkpt lat="48.56609" lon="7.22264">
        <ele>845.6</ele>
        <time>2020-11-28T12:21:26Z</time>
      </trkpt>
      <trkpt lat="48.56617" lon="7.22266">
        <ele>845</ele>
        <time>2020-11-28T12:21:28Z</time>
      </trkpt>
      <trkpt lat="48.56624" lon="7.22269">
        <ele>844.7</ele>
        <time>2020-11-28T12:21:30Z</time>
      </trkpt>
      <trkpt lat="48.56631" lon="7.22271">
        <ele>844.8</ele>
        <time>2020-11-28T12:21:32Z</time>
      </trkpt>
      <trkpt lat="48.56639" lon="7.22272">
        <ele>844.6</ele>
        <time>2020-11-28T12:21:34Z</time>
      </trkpt>
      <trkpt lat="48.56648" lon="7.22272">
        <ele>844.7</ele>
        <time>2020-11-28T12:21:36Z</time>
      </trkpt>
      <trkpt lat="48.56657" lon="7.22272">
        <ele>843.5</ele>
        <time>2020-11-28T12:21:38Z</time>
      </trkpt>
      <trkpt lat="48.56665" lon="7.22271">
        <ele>842.6</ele>
        <time>2020-11-28T12:21:40Z</time>
      </trkpt>
      <trkpt lat="48.56673" lon="7.2227">
        <ele>842.5</ele>
        <time>2020-11-28T12:21:42Z</time>
      </trkpt>
      <trkpt lat="48.56681" lon="7.22268">
        <ele>843</ele>
        <time>2020-11-28T12:21:44Z</time>
      </trkpt>
      <trkpt lat="48.56688" lon="7.22267">
        <ele>842.9</ele>
        <time>2020-11-28T12:21:46Z</time>
      </trkpt>
      <trkpt lat="48.56695" lon="7.22265">
        <ele>805</ele>
        <time>2020-11-28T12:21:48Z</time>
      </trkpt>
      <trkpt lat="48.56703" lon="7.22262">
        <ele>799</ele>
        <time>2020-11-28T12:21:50Z</time>
      </trkpt>
      <trkpt lat="48.56712" lon="7.2226">
        <ele>798.7</ele>
        <time>2020-11-28T12:21:52Z</time>
      </trkpt>
      <trkpt lat="48.56722" lon="7.22257">
        <ele>803.8</ele>
        <time>2020-11-28T12:21:54Z</time>
      </trkpt>
      <trkpt lat="48.56732" lon="7.22253">
        <ele>810.7</ele>
        <time>2020-11-28T12:21:56Z</time>
      </trkpt>
      <trkpt lat="48.56738" lon="7.22249">
        <ele>815.4</ele>
        <time>2020-11-28T12:21:58Z</time>
      </trkpt>
      <trkpt lat="48.56745" lon="7.22246">
        <ele>784.2</ele>
        <time>2020-11-28T12:22:00Z</time>
      </trkpt>
      <trkpt lat="48.56754" lon="7.22241">
        <ele>781.4</ele>
        <time>2020-11-28T12:22:02Z</time>
      </trkpt>
      <trkpt lat="48.56763" lon="7.22237">
        <ele>785.6</ele>
        <time>2020-11-28T12:22:04Z</time>
      </trkpt>
      <trkpt lat="48.56771" lon="7.22233">
        <ele>794.7</ele>
        <time>2020-11-28T12:22:06Z</time>
      </trkpt>
      <trkpt lat="48.56778" lon="7.22228">
        <ele>804.4</ele>
        <time>2020-11-28T12:22:08Z</time>
      </trkpt>
      <trkpt lat="48.56786" lon="7.22222">
        <ele>812</ele>
        <time>2020-11-28T12:22:10Z</time>
      </trkpt>
      <trkpt lat="48.56799" lon="7.22215">
        <ele>821.6</ele>
        <time>2020-11-28T12:22:13Z</time>
      </trkpt>
      <trkpt lat="48.56809" lon="7.22209">
        <ele>825.8</ele>
        <time>2020-11-28T12:22:15Z</time>
      </trkpt>
      <trkpt lat="48.56819" lon="7.22204">
        <ele>830</ele>
        <time>2020-11-28T12:22:17Z</time>
      </trkpt>
      <trkpt lat="48.56829" lon="7.22198">
        <ele>834.3</ele>
        <time>2020-11-28T12:22:19Z</time>
      </trkpt>
      <trkpt lat="48.56838" lon="7.22192">
        <ele>837.1</ele>
        <time>2020-11-28T12:22:21Z</time>
      </trkpt>
      <trkpt lat="48.56848" lon="7.22185">
        <ele>840.3</ele>
        <time>2020-11-28T12:22:23Z</time>
      </trkpt>
      <trkpt lat="48.56857" lon="7.22177">
        <ele>842.9</ele>
        <time>2020-11-28T12:22:25Z</time>
      </trkpt>
      <trkpt lat="48.56866" lon="7.22169">
        <ele>844.5</ele>
        <time>2020-11-28T12:22:27Z</time>
      </trkpt>
      <trkpt lat="48.56871" lon="7.22158">
        <ele>845.6</ele>
        <time>2020-11-28T12:22:29Z</time>
      </trkpt>
      <trkpt lat="48.56873" lon="7.22146">
        <ele>846.7</ele>
        <time>2020-11-28T12:22:31Z</time>
      </trkpt>
      <trkpt lat="48.56872" lon="7.22134">
        <ele>846.9</ele>
        <time>2020-11-28T12:22:33Z</time>
      </trkpt>
      <trkpt lat="48.5687" lon="7.22122">
        <ele>847.1</ele>
        <time>2020-11-28T12:22:35Z</time>
      </trkpt>
      <trkpt lat="48.56868" lon="7.22115">
        <ele>847.2</ele>
        <time>2020-11-28T12:22:37Z</time>
      </trkpt>
      <trkpt lat="48.56867" lon="7.22106">
        <ele>846.4</ele>
        <time>2020-11-28T12:22:54Z</time>
      </trkpt>
      <trkpt lat="48.56862" lon="7.22099">
        <ele>846.4</ele>
        <time>2020-11-28T12:22:56Z</time>
      </trkpt>
      <trkpt lat="48.56856" lon="7.2209">
        <ele>846.8</ele>
        <time>2020-11-28T12:22:58Z</time>
      </trkpt>
      <trkpt lat="48.5685" lon="7.22082">
        <ele>847</ele>
        <time>2020-11-28T12:23:00Z</time>
      </trkpt>
      <trkpt lat="48.56845" lon="7.22073">
        <ele>846.7</ele>
        <time>2020-11-28T12:23:02Z</time>
      </trkpt>
      <trkpt lat="48.56838" lon="7.22064">
        <ele>846.7</ele>
        <time>2020-11-28T12:23:04Z</time>
      </trkpt>
      <trkpt lat="48.5683" lon="7.22054">
        <ele>846.6</ele>
        <time>2020-11-28T12:23:06Z</time>
      </trkpt>
      <trkpt lat="48.56823" lon="7.22044">
        <ele>846.8</ele>
        <time>2020-11-28T12:23:08Z</time>
      </trkpt>
      <trkpt lat="48.56814" lon="7.22035">
        <ele>846.8</ele>
        <time>2020-11-28T12:23:10Z</time>
      </trkpt>
      <trkpt lat="48.56806" lon="7.22025">
        <ele>847.4</ele>
        <time>2020-11-28T12:23:12Z</time>
      </trkpt>
      <trkpt lat="48.56795" lon="7.22011">
        <ele>848.2</ele>
        <time>2020-11-28T12:23:15Z</time>
      </trkpt>
      <trkpt lat="48.56787" lon="7.22001">
        <ele>848.3</ele>
        <time>2020-11-28T12:23:17Z</time>
      </trkpt>
      <trkpt lat="48.56776" lon="7.21985">
        <ele>848</ele>
        <time>2020-11-28T12:23:20Z</time>
      </trkpt>
      <trkpt lat="48.56769" lon="7.21975">
        <ele>847.7</ele>
        <time>2020-11-28T12:23:22Z</time>
      </trkpt>
      <trkpt lat="48.56761" lon="7.21964">
        <ele>848</ele>
        <time>2020-11-28T12:23:24Z</time>
      </trkpt>
      <trkpt lat="48.56755" lon="7.21952">
        <ele>848.2</ele>
        <time>2020-11-28T12:23:26Z</time>
      </trkpt>
      <trkpt lat="48.56749" lon="7.21938">
        <ele>848.5</ele>
        <time>2020-11-28T12:23:28Z</time>
      </trkpt>
      <trkpt lat="48.56743" lon="7.21925">
        <ele>820.8</ele>
        <time>2020-11-28T12:23:30Z</time>
      </trkpt>
      <trkpt lat="48.56735" lon="7.21907">
        <ele>820.3</ele>
        <time>2020-11-28T12:23:33Z</time>
      </trkpt>
      <trkpt lat="48.56732" lon="7.21893">
        <ele>798.5</ele>
        <time>2020-11-28T12:23:35Z</time>
      </trkpt>
      <trkpt lat="48.56729" lon="7.21878">
        <ele>813.2</ele>
        <time>2020-11-28T12:23:37Z</time>
      </trkpt>
      <trkpt lat="48.56724" lon="7.21856">
        <ele>820.9</ele>
        <time>2020-11-28T12:23:40Z</time>
      </trkpt>
      <trkpt lat="48.56721" lon="7.21841">
        <ele>826.1</ele>
        <time>2020-11-28T12:23:42Z</time>
      </trkpt>
      <trkpt lat="48.56717" lon="7.21825">
        <ele>796.3</ele>
        <time>2020-11-28T12:23:44Z</time>
      </trkpt>
      <trkpt lat="48.56714" lon="7.21809">
        <ele>789</ele>
        <time>2020-11-28T12:23:46Z</time>
      </trkpt>
      <trkpt lat="48.56711" lon="7.21795">
        <ele>795.3</ele>
        <time>2020-11-28T12:23:48Z</time>
      </trkpt>
      <trkpt lat="48.56709" lon="7.21779">
        <ele>803.6</ele>
        <time>2020-11-28T12:23:50Z</time>
      </trkpt>
      <trkpt lat="48.56707" lon="7.21763">
        <ele>811.3</ele>
        <time>2020-11-28T12:23:52Z</time>
      </trkpt>
      <trkpt lat="48.56703" lon="7.21748">
        <ele>817.6</ele>
        <time>2020-11-28T12:23:54Z</time>
      </trkpt>
      <trkpt lat="48.56699" lon="7.21732">
        <ele>824.8</ele>
        <time>2020-11-28T12:23:56Z</time>
      </trkpt>
      <trkpt lat="48.56697" lon="7.21716">
        <ele>830</ele>
        <time>2020-11-28T12:23:58Z</time>
      </trkpt>
      <trkpt lat="48.56695" lon="7.21701">
        <ele>834.2</ele>
        <time>2020-11-28T12:24:00Z</time>
      </trkpt>
      <trkpt lat="48.56693" lon="7.21685">
        <ele>837.8</ele>
        <time>2020-11-28T12:24:02Z</time>
      </trkpt>
      <trkpt lat="48.5669" lon="7.21668">
        <ele>840.2</ele>
        <time>2020-11-28T12:24:04Z</time>
      </trkpt>
      <trkpt lat="48.56687" lon="7.21651">
        <ele>807.7</ele>
        <time>2020-11-28T12:24:06Z</time>
      </trkpt>
      <trkpt lat="48.56684" lon="7.21636">
        <ele>808.1</ele>
        <time>2020-11-28T12:24:08Z</time>
      </trkpt>
      <trkpt lat="48.56681" lon="7.21621">
        <ele>810.9</ele>
        <time>2020-11-28T12:24:10Z</time>
      </trkpt>
      <trkpt lat="48.56676" lon="7.21606">
        <ele>787</ele>
        <time>2020-11-28T12:24:12Z</time>
      </trkpt>
      <trkpt lat="48.56673" lon="7.21591">
        <ele>790.9</ele>
        <time>2020-11-28T12:24:14Z</time>
      </trkpt>
      <trkpt lat="48.5667" lon="7.21578">
        <ele>797.6</ele>
        <time>2020-11-28T12:24:16Z</time>
      </trkpt>
      <trkpt lat="48.56667" lon="7.21565">
        <ele>771</ele>
        <time>2020-11-28T12:24:18Z</time>
      </trkpt>
      <trkpt lat="48.56665" lon="7.21552">
        <ele>784.2</ele>
        <time>2020-11-28T12:24:20Z</time>
      </trkpt>
      <trkpt lat="48.56661" lon="7.21539">
        <ele>772.5</ele>
        <time>2020-11-28T12:24:22Z</time>
      </trkpt>
      <trkpt lat="48.56656" lon="7.21527">
        <ele>780.8</ele>
        <time>2020-11-28T12:24:24Z</time>
      </trkpt>
      <trkpt lat="48.56651" lon="7.21513">
        <ele>788.3</ele>
        <time>2020-11-28T12:24:26Z</time>
      </trkpt>
      <trkpt lat="48.56647" lon="7.21501">
        <ele>796.3</ele>
        <time>2020-11-28T12:24:28Z</time>
      </trkpt>
      <trkpt lat="48.56642" lon="7.21489">
        <ele>805.3</ele>
        <time>2020-11-28T12:24:30Z</time>
      </trkpt>
      <trkpt lat="48.56637" lon="7.21475">
        <ele>789.3</ele>
        <time>2020-11-28T12:24:32Z</time>
      </trkpt>
      <trkpt lat="48.56632" lon="7.21462">
        <ele>798.2</ele>
        <time>2020-11-28T12:24:34Z</time>
      </trkpt>
      <trkpt lat="48.56628" lon="7.21449">
        <ele>768.9</ele>
        <time>2020-11-28T12:24:36Z</time>
      </trkpt>
      <trkpt lat="48.56625" lon="7.21435">
        <ele>777.7</ele>
        <time>2020-11-28T12:24:38Z</time>
      </trkpt>
      <trkpt lat="48.56623" lon="7.2142">
        <ele>779.5</ele>
        <time>2020-11-28T12:24:40Z</time>
      </trkpt>
      <trkpt lat="48.5662" lon="7.21405">
        <ele>789.5</ele>
        <time>2020-11-28T12:24:42Z</time>
      </trkpt>
      <trkpt lat="48.56617" lon="7.21391">
        <ele>802</ele>
        <time>2020-11-28T12:24:44Z</time>
      </trkpt>
      <trkpt lat="48.56614" lon="7.21377">
        <ele>813.2</ele>
        <time>2020-11-28T12:24:46Z</time>
      </trkpt>
      <trkpt lat="48.56611" lon="7.21363">
        <ele>821.9</ele>
        <time>2020-11-28T12:24:48Z</time>
      </trkpt>
      <trkpt lat="48.56609" lon="7.21348">
        <ele>828.1</ele>
        <time>2020-11-28T12:24:50Z</time>
      </trkpt>
      <trkpt lat="48.56607" lon="7.21332">
        <ele>833.7</ele>
        <time>2020-11-28T12:24:52Z</time>
      </trkpt>
      <trkpt lat="48.56606" lon="7.21317">
        <ele>837.7</ele>
        <time>2020-11-28T12:24:54Z</time>
      </trkpt>
      <trkpt lat="48.56606" lon="7.21301">
        <ele>839.3</ele>
        <time>2020-11-28T12:24:56Z</time>
      </trkpt>
      <trkpt lat="48.56605" lon="7.21284">
        <ele>841.8</ele>
        <time>2020-11-28T12:24:58Z</time>
      </trkpt>
      <trkpt lat="48.56601" lon="7.21267">
        <ele>842.3</ele>
        <time>2020-11-28T12:25:00Z</time>
      </trkpt>
      <trkpt lat="48.56598" lon="7.2125">
        <ele>843.3</ele>
        <time>2020-11-28T12:25:02Z</time>
      </trkpt>
      <trkpt lat="48.56596" lon="7.21233">
        <ele>843.9</ele>
        <time>2020-11-28T12:25:04Z</time>
      </trkpt>
      <trkpt lat="48.56592" lon="7.21215">
        <ele>845</ele>
        <time>2020-11-28T12:25:06Z</time>
      </trkpt>
      <trkpt lat="48.56589" lon="7.21196">
        <ele>845.3</ele>
        <time>2020-11-28T12:25:08Z</time>
      </trkpt>
      <trkpt lat="48.56586" lon="7.21179">
        <ele>845.1</ele>
        <time>2020-11-28T12:25:10Z</time>
      </trkpt>
      <trkpt lat="48.56582" lon="7.21162">
        <ele>844.2</ele>
        <time>2020-11-28T12:25:12Z</time>
      </trkpt>
      <trkpt lat="48.56577" lon="7.21145">
        <ele>843.1</ele>
        <time>2020-11-28T12:25:14Z</time>
      </trkpt>
      <trkpt lat="48.56573" lon="7.21127">
        <ele>842.8</ele>
        <time>2020-11-28T12:25:16Z</time>
      </trkpt>
      <trkpt lat="48.56569" lon="7.21108">
        <ele>842.7</ele>
        <time>2020-11-28T12:25:18Z</time>
      </trkpt>
      <trkpt lat="48.56566" lon="7.2109">
        <ele>842.3</ele>
        <time>2020-11-28T12:25:20Z</time>
      </trkpt>
      <trkpt lat="48.56562" lon="7.2107">
        <ele>842</ele>
        <time>2020-11-28T12:25:22Z</time>
      </trkpt>
      <trkpt lat="48.56556" lon="7.21051">
        <ele>841.8</ele>
        <time>2020-11-28T12:25:24Z</time>
      </trkpt>
      <trkpt lat="48.56548" lon="7.21033">
        <ele>841.2</ele>
        <time>2020-11-28T12:25:26Z</time>
      </trkpt>
      <trkpt lat="48.5654" lon="7.21016">
        <ele>840.3</ele>
        <time>2020-11-28T12:25:28Z</time>
      </trkpt>
      <trkpt lat="48.56529" lon="7.21001">
        <ele>839.1</ele>
        <time>2020-11-28T12:25:30Z</time>
      </trkpt>
      <trkpt lat="48.56518" lon="7.20987">
        <ele>838.2</ele>
        <time>2020-11-28T12:25:32Z</time>
      </trkpt>
      <trkpt lat="48.56507" lon="7.20972">
        <ele>837.7</ele>
        <time>2020-11-28T12:25:34Z</time>
      </trkpt>
      <trkpt lat="48.56497" lon="7.20961">
        <ele>837.2</ele>
        <time>2020-11-28T12:25:36Z</time>
      </trkpt>
      <trkpt lat="48.56487" lon="7.2095">
        <ele>836.7</ele>
        <time>2020-11-28T12:25:38Z</time>
      </trkpt>
      <trkpt lat="48.56475" lon="7.20942">
        <ele>836.4</ele>
        <time>2020-11-28T12:25:40Z</time>
      </trkpt>
      <trkpt lat="48.56457" lon="7.20934">
        <ele>836.4</ele>
        <time>2020-11-28T12:25:43Z</time>
      </trkpt>
      <trkpt lat="48.56445" lon="7.20928">
        <ele>836.9</ele>
        <time>2020-11-28T12:25:45Z</time>
      </trkpt>
      <trkpt lat="48.56432" lon="7.20923">
        <ele>838</ele>
        <time>2020-11-28T12:25:47Z</time>
      </trkpt>
      <trkpt lat="48.56419" lon="7.20921">
        <ele>839.1</ele>
        <time>2020-11-28T12:25:49Z</time>
      </trkpt>
      <trkpt lat="48.56405" lon="7.20921">
        <ele>839.8</ele>
        <time>2020-11-28T12:25:51Z</time>
      </trkpt>
      <trkpt lat="48.56391" lon="7.20921">
        <ele>840.6</ele>
        <time>2020-11-28T12:25:53Z</time>
      </trkpt>
      <trkpt lat="48.56378" lon="7.20921">
        <ele>841.1</ele>
        <time>2020-11-28T12:25:55Z</time>
      </trkpt>
      <trkpt lat="48.56364" lon="7.20922">
        <ele>841.4</ele>
        <time>2020-11-28T12:25:57Z</time>
      </trkpt>
      <trkpt lat="48.56352" lon="7.20923">
        <ele>841.1</ele>
        <time>2020-11-28T12:25:59Z</time>
      </trkpt>
      <trkpt lat="48.56339" lon="7.20925">
        <ele>840.6</ele>
        <time>2020-11-28T12:26:01Z</time>
      </trkpt>
      <trkpt lat="48.56328" lon="7.20926">
        <ele>840.1</ele>
        <time>2020-11-28T12:26:03Z</time>
      </trkpt>
      <trkpt lat="48.56317" lon="7.20927">
        <ele>840.1</ele>
        <time>2020-11-28T12:26:05Z</time>
      </trkpt>
      <trkpt lat="48.56306" lon="7.2093">
        <ele>840</ele>
        <time>2020-11-28T12:26:07Z</time>
      </trkpt>
      <trkpt lat="48.56295" lon="7.20932">
        <ele>839.8</ele>
        <time>2020-11-28T12:26:09Z</time>
      </trkpt>
      <trkpt lat="48.56284" lon="7.20937">
        <ele>839.3</ele>
        <time>2020-11-28T12:26:11Z</time>
      </trkpt>
      <trkpt lat="48.56272" lon="7.2094">
        <ele>838.9</ele>
        <time>2020-11-28T12:26:13Z</time>
      </trkpt>
      <trkpt lat="48.56262" lon="7.20941">
        <ele>839.1</ele>
        <time>2020-11-28T12:26:15Z</time>
      </trkpt>
      <trkpt lat="48.56252" lon="7.2094">
        <ele>838.6</ele>
        <time>2020-11-28T12:26:17Z</time>
      </trkpt>
      <trkpt lat="48.56242" lon="7.2094">
        <ele>838.6</ele>
        <time>2020-11-28T12:26:19Z</time>
      </trkpt>
      <trkpt lat="48.56232" lon="7.20941">
        <ele>838.6</ele>
        <time>2020-11-28T12:26:21Z</time>
      </trkpt>
      <trkpt lat="48.56221" lon="7.20943">
        <ele>838.2</ele>
        <time>2020-11-28T12:26:23Z</time>
      </trkpt>
      <trkpt lat="48.56211" lon="7.20944">
        <ele>838.7</ele>
        <time>2020-11-28T12:26:25Z</time>
      </trkpt>
      <trkpt lat="48.56202" lon="7.20943">
        <ele>838.9</ele>
        <time>2020-11-28T12:26:27Z</time>
      </trkpt>
      <trkpt lat="48.56193" lon="7.20942">
        <ele>839.3</ele>
        <time>2020-11-28T12:26:29Z</time>
      </trkpt>
      <trkpt lat="48.56183" lon="7.20941">
        <ele>840.3</ele>
        <time>2020-11-28T12:26:31Z</time>
      </trkpt>
      <trkpt lat="48.56172" lon="7.20941">
        <ele>840.4</ele>
        <time>2020-11-28T12:26:33Z</time>
      </trkpt>
      <trkpt lat="48.56162" lon="7.20942">
        <ele>840.6</ele>
        <time>2020-11-28T12:26:35Z</time>
      </trkpt>
      <trkpt lat="48.56153" lon="7.20944">
        <ele>840.5</ele>
        <time>2020-11-28T12:26:37Z</time>
      </trkpt>
      <trkpt lat="48.56144" lon="7.20946">
        <ele>840.7</ele>
        <time>2020-11-28T12:26:39Z</time>
      </trkpt>
      <trkpt lat="48.56135" lon="7.20947">
        <ele>840.2</ele>
        <time>2020-11-28T12:26:41Z</time>
      </trkpt>
      <trkpt lat="48.56126" lon="7.20948">
        <ele>840.4</ele>
        <time>2020-11-28T12:26:43Z</time>
      </trkpt>
      <trkpt lat="48.56118" lon="7.2095">
        <ele>840.9</ele>
        <time>2020-11-28T12:26:45Z</time>
      </trkpt>
      <trkpt lat="48.56109" lon="7.2095">
        <ele>840.8</ele>
        <time>2020-11-28T12:26:47Z</time>
      </trkpt>
      <trkpt lat="48.56099" lon="7.2095">
        <ele>841</ele>
        <time>2020-11-28T12:26:49Z</time>
      </trkpt>
      <trkpt lat="48.56089" lon="7.20952">
        <ele>841.4</ele>
        <time>2020-11-28T12:26:51Z</time>
      </trkpt>
      <trkpt lat="48.5608" lon="7.20951">
        <ele>841</ele>
        <time>2020-11-28T12:26:53Z</time>
      </trkpt>
      <trkpt lat="48.56073" lon="7.20953">
        <ele>840.7</ele>
        <time>2020-11-28T12:26:55Z</time>
      </trkpt>
      <trkpt lat="48.56063" lon="7.20958">
        <ele>840.4</ele>
        <time>2020-11-28T12:26:57Z</time>
      </trkpt>
      <trkpt lat="48.56053" lon="7.20964">
        <ele>840.4</ele>
        <time>2020-11-28T12:26:59Z</time>
      </trkpt>
      <trkpt lat="48.56044" lon="7.20968">
        <ele>841.3</ele>
        <time>2020-11-28T12:27:01Z</time>
      </trkpt>
      <trkpt lat="48.56035" lon="7.20973">
        <ele>841.7</ele>
        <time>2020-11-28T12:27:03Z</time>
      </trkpt>
      <trkpt lat="48.56023" lon="7.20982">
        <ele>841.5</ele>
        <time>2020-11-28T12:27:06Z</time>
      </trkpt>
      <trkpt lat="48.56014" lon="7.20987">
        <ele>841.3</ele>
        <time>2020-11-28T12:27:08Z</time>
      </trkpt>
      <trkpt lat="48.56006" lon="7.2099">
        <ele>841.1</ele>
        <time>2020-11-28T12:27:10Z</time>
      </trkpt>
      <trkpt lat="48.55999" lon="7.20996">
        <ele>840.4</ele>
        <time>2020-11-28T12:27:12Z</time>
      </trkpt>
      <trkpt lat="48.55991" lon="7.21">
        <ele>840</ele>
        <time>2020-11-28T12:27:14Z</time>
      </trkpt>
      <trkpt lat="48.55983" lon="7.21007">
        <ele>839.3</ele>
        <time>2020-11-28T12:27:16Z</time>
      </trkpt>
      <trkpt lat="48.55975" lon="7.21012">
        <ele>838.6</ele>
        <time>2020-11-28T12:27:18Z</time>
      </trkpt>
      <trkpt lat="48.55969" lon="7.21016">
        <ele>837.4</ele>
        <time>2020-11-28T12:27:20Z</time>
      </trkpt>
      <trkpt lat="48.55963" lon="7.21021">
        <ele>837.3</ele>
        <time>2020-11-28T12:27:22Z</time>
      </trkpt>
      <trkpt lat="48.55957" lon="7.21026">
        <ele>837.7</ele>
        <time>2020-11-28T12:27:24Z</time>
      </trkpt>
      <trkpt lat="48.55953" lon="7.21032">
        <ele>837.8</ele>
        <time>2020-11-28T12:27:26Z</time>
      </trkpt>
      <trkpt lat="48.55948" lon="7.21039">
        <ele>837.8</ele>
        <time>2020-11-28T12:27:28Z</time>
      </trkpt>
      <trkpt lat="48.55944" lon="7.21047">
        <ele>837.9</ele>
        <time>2020-11-28T12:27:30Z</time>
      </trkpt>
      <trkpt lat="48.55939" lon="7.21054">
        <ele>838.1</ele>
        <time>2020-11-28T12:27:32Z</time>
      </trkpt>
      <trkpt lat="48.55935" lon="7.21061">
        <ele>837.7</ele>
        <time>2020-11-28T12:27:34Z</time>
      </trkpt>
      <trkpt lat="48.55932" lon="7.21067">
        <ele>837.7</ele>
        <time>2020-11-28T12:27:36Z</time>
      </trkpt>
      <trkpt lat="48.55929" lon="7.21073">
        <ele>837.9</ele>
        <time>2020-11-28T12:27:38Z</time>
      </trkpt>
      <trkpt lat="48.55927" lon="7.2108">
        <ele>838.1</ele>
        <time>2020-11-28T12:27:41Z</time>
      </trkpt>
      <trkpt lat="48.55926" lon="7.21087">
        <ele>816</ele>
        <time>2020-11-28T12:28:15Z</time>
      </trkpt>
      <trkpt lat="48.55926" lon="7.21095">
        <ele>818.3</ele>
        <time>2020-11-28T12:28:19Z</time>
      </trkpt>
      <trkpt lat="48.55923" lon="7.21104">
        <ele>824</ele>
        <time>2020-11-28T12:28:22Z</time>
      </trkpt>
      <trkpt lat="48.5592" lon="7.2111">
        <ele>826.5</ele>
        <time>2020-11-28T12:28:24Z</time>
      </trkpt>
      <trkpt lat="48.55917" lon="7.21117">
        <ele>829.2</ele>
        <time>2020-11-28T12:28:26Z</time>
      </trkpt>
      <trkpt lat="48.55914" lon="7.21124">
        <ele>831.5</ele>
        <time>2020-11-28T12:28:28Z</time>
      </trkpt>
      <trkpt lat="48.55912" lon="7.21131">
        <ele>833.5</ele>
        <time>2020-11-28T12:28:30Z</time>
      </trkpt>
      <trkpt lat="48.55909" lon="7.21138">
        <ele>835.2</ele>
        <time>2020-11-28T12:28:32Z</time>
      </trkpt>
      <trkpt lat="48.55908" lon="7.21145">
        <ele>837.1</ele>
        <time>2020-11-28T12:28:34Z</time>
      </trkpt>
      <trkpt lat="48.55905" lon="7.21151">
        <ele>818.5</ele>
        <time>2020-11-28T12:28:36Z</time>
      </trkpt>
      <trkpt lat="48.55903" lon="7.21158">
        <ele>819.4</ele>
        <time>2020-11-28T12:28:38Z</time>
      </trkpt>
      <trkpt lat="48.559" lon="7.21165">
        <ele>820.1</ele>
        <time>2020-11-28T12:28:40Z</time>
      </trkpt>
      <trkpt lat="48.55897" lon="7.21171">
        <ele>825</ele>
        <time>2020-11-28T12:28:42Z</time>
      </trkpt>
      <trkpt lat="48.55893" lon="7.21177">
        <ele>828.7</ele>
        <time>2020-11-28T12:28:44Z</time>
      </trkpt>
      <trkpt lat="48.55889" lon="7.21182">
        <ele>831.3</ele>
        <time>2020-11-28T12:28:46Z</time>
      </trkpt>
      <trkpt lat="48.55885" lon="7.21187">
        <ele>833.6</ele>
        <time>2020-11-28T12:28:48Z</time>
      </trkpt>
      <trkpt lat="48.55881" lon="7.21197">
        <ele>836.2</ele>
        <time>2020-11-28T12:28:51Z</time>
      </trkpt>
      <trkpt lat="48.55877" lon="7.21202">
        <ele>837.6</ele>
        <time>2020-11-28T12:28:53Z</time>
      </trkpt>
      <trkpt lat="48.55873" lon="7.21209">
        <ele>839</ele>
        <time>2020-11-28T12:28:56Z</time>
      </trkpt>
      <trkpt lat="48.55869" lon="7.21217">
        <ele>840.8</ele>
        <time>2020-11-28T12:28:59Z</time>
      </trkpt>
      <trkpt lat="48.55865" lon="7.21223">
        <ele>841.1</ele>
        <time>2020-11-28T12:29:01Z</time>
      </trkpt>
      <trkpt lat="48.5586" lon="7.21231">
        <ele>841.1</ele>
        <time>2020-11-28T12:29:03Z</time>
      </trkpt>
      <trkpt lat="48.55856" lon="7.21237">
        <ele>840.8</ele>
        <time>2020-11-28T12:29:05Z</time>
      </trkpt>
      <trkpt lat="48.55849" lon="7.21249">
        <ele>840.7</ele>
        <time>2020-11-28T12:29:08Z</time>
      </trkpt>
      <trkpt lat="48.55841" lon="7.21257">
        <ele>840.2</ele>
        <time>2020-11-28T12:29:10Z</time>
      </trkpt>
      <trkpt lat="48.55833" lon="7.21264">
        <ele>840.4</ele>
        <time>2020-11-28T12:29:12Z</time>
      </trkpt>
      <trkpt lat="48.55821" lon="7.21267">
        <ele>839.1</ele>
        <time>2020-11-28T12:29:15Z</time>
      </trkpt>
      <trkpt lat="48.55816" lon="7.21258">
        <ele>838.5</ele>
        <time>2020-11-28T12:29:17Z</time>
      </trkpt>
      <trkpt lat="48.55812" lon="7.21246">
        <ele>838.3</ele>
        <time>2020-11-28T12:29:19Z</time>
      </trkpt>
      <trkpt lat="48.55809" lon="7.21234">
        <ele>838.3</ele>
        <time>2020-11-28T12:29:21Z</time>
      </trkpt>
      <trkpt lat="48.55806" lon="7.21219">
        <ele>838.4</ele>
        <time>2020-11-28T12:29:23Z</time>
      </trkpt>
      <trkpt lat="48.55803" lon="7.21204">
        <ele>838.7</ele>
        <time>2020-11-28T12:29:25Z</time>
      </trkpt>
      <trkpt lat="48.55799" lon="7.21189">
        <ele>839.3</ele>
        <time>2020-11-28T12:29:27Z</time>
      </trkpt>
      <trkpt lat="48.55795" lon="7.21175">
        <ele>839.6</ele>
        <time>2020-11-28T12:29:29Z</time>
      </trkpt>
      <trkpt lat="48.55791" lon="7.21161">
        <ele>840.2</ele>
        <time>2020-11-28T12:29:31Z</time>
      </trkpt>
      <trkpt lat="48.55787" lon="7.21145">
        <ele>840.5</ele>
        <time>2020-11-28T12:29:33Z</time>
      </trkpt>
      <trkpt lat="48.55783" lon="7.2113">
        <ele>840.5</ele>
        <time>2020-11-28T12:29:35Z</time>
      </trkpt>
      <trkpt lat="48.55776" lon="7.21114">
        <ele>841.1</ele>
        <time>2020-11-28T12:29:37Z</time>
      </trkpt>
      <trkpt lat="48.55768" lon="7.211">
        <ele>841.3</ele>
        <time>2020-11-28T12:29:39Z</time>
      </trkpt>
      <trkpt lat="48.55758" lon="7.21087">
        <ele>841.9</ele>
        <time>2020-11-28T12:29:41Z</time>
      </trkpt>
      <trkpt lat="48.55741" lon="7.21075">
        <ele>842.2</ele>
        <time>2020-11-28T12:29:44Z</time>
      </trkpt>
      <trkpt lat="48.5573" lon="7.21071">
        <ele>842.6</ele>
        <time>2020-11-28T12:29:46Z</time>
      </trkpt>
      <trkpt lat="48.55718" lon="7.21068">
        <ele>842.5</ele>
        <time>2020-11-28T12:29:48Z</time>
      </trkpt>
      <trkpt lat="48.55703" lon="7.2106">
        <ele>842.4</ele>
        <time>2020-11-28T12:29:51Z</time>
      </trkpt>
      <trkpt lat="48.55697" lon="7.21041">
        <ele>842.3</ele>
        <time>2020-11-28T12:29:54Z</time>
      </trkpt>
      <trkpt lat="48.55698" lon="7.21028">
        <ele>842.5</ele>
        <time>2020-11-28T12:29:56Z</time>
      </trkpt>
      <trkpt lat="48.55702" lon="7.21018">
        <ele>843</ele>
        <time>2020-11-28T12:29:58Z</time>
      </trkpt>
      <trkpt lat="48.5571" lon="7.21009">
        <ele>843.7</ele>
        <time>2020-11-28T12:30:00Z</time>
      </trkpt>
      <trkpt lat="48.55721" lon="7.20996">
        <ele>844.3</ele>
        <time>2020-11-28T12:30:03Z</time>
      </trkpt>
      <trkpt lat="48.5573" lon="7.20982">
        <ele>844.7</ele>
        <time>2020-11-28T12:30:06Z</time>
      </trkpt>
      <trkpt lat="48.5574" lon="7.20968">
        <ele>845.2</ele>
        <time>2020-11-28T12:30:09Z</time>
      </trkpt>
      <trkpt lat="48.55749" lon="7.20961">
        <ele>846.1</ele>
        <time>2020-11-28T12:30:11Z</time>
      </trkpt>
      <trkpt lat="48.55757" lon="7.20952">
        <ele>846.4</ele>
        <time>2020-11-28T12:30:13Z</time>
      </trkpt>
      <trkpt lat="48.55763" lon="7.20942">
        <ele>847</ele>
        <time>2020-11-28T12:30:15Z</time>
      </trkpt>
      <trkpt lat="48.55769" lon="7.20931">
        <ele>846.8</ele>
        <time>2020-11-28T12:30:17Z</time>
      </trkpt>
      <trkpt lat="48.55774" lon="7.20918">
        <ele>847.1</ele>
        <time>2020-11-28T12:30:19Z</time>
      </trkpt>
      <trkpt lat="48.55778" lon="7.20907">
        <ele>846.6</ele>
        <time>2020-11-28T12:30:21Z</time>
      </trkpt>
      <trkpt lat="48.55782" lon="7.20894">
        <ele>846.6</ele>
        <time>2020-11-28T12:30:23Z</time>
      </trkpt>
      <trkpt lat="48.55785" lon="7.20882">
        <ele>846.1</ele>
        <time>2020-11-28T12:30:25Z</time>
      </trkpt>
      <trkpt lat="48.55787" lon="7.20873">
        <ele>845.8</ele>
        <time>2020-11-28T12:30:27Z</time>
      </trkpt>
      <trkpt lat="48.55788" lon="7.20865">
        <ele>845.9</ele>
        <time>2020-11-28T12:30:35Z</time>
      </trkpt>
      <trkpt lat="48.55792" lon="7.2086">
        <ele>852.7</ele>
        <time>2020-11-28T12:32:17Z</time>
      </trkpt>
      <trkpt lat="48.55794" lon="7.20854">
        <ele>851.7</ele>
        <time>2020-11-28T12:32:21Z</time>
      </trkpt>
      <trkpt lat="48.55794" lon="7.20847">
        <ele>850.7</ele>
        <time>2020-11-28T12:32:25Z</time>
      </trkpt>
      <trkpt lat="48.55793" lon="7.20838">
        <ele>850.5</ele>
        <time>2020-11-28T12:32:29Z</time>
      </trkpt>
      <trkpt lat="48.55792" lon="7.20831">
        <ele>849.9</ele>
        <time>2020-11-28T12:32:32Z</time>
      </trkpt>
      <trkpt lat="48.55792" lon="7.20823">
        <ele>849.3</ele>
        <time>2020-11-28T12:32:36Z</time>
      </trkpt>
      <trkpt lat="48.55792" lon="7.20815">
        <ele>848.6</ele>
        <time>2020-11-28T12:32:40Z</time>
      </trkpt>
      <trkpt lat="48.55792" lon="7.20807">
        <ele>847.9</ele>
        <time>2020-11-28T12:32:44Z</time>
      </trkpt>
      <trkpt lat="48.55792" lon="7.20799">
        <ele>847.4</ele>
        <time>2020-11-28T12:32:48Z</time>
      </trkpt>
      <trkpt lat="48.55793" lon="7.20791">
        <ele>847.1</ele>
        <time>2020-11-28T12:32:52Z</time>
      </trkpt>
      <trkpt lat="48.55795" lon="7.20783">
        <ele>847</ele>
        <time>2020-11-28T12:32:56Z</time>
      </trkpt>
      <trkpt lat="48.55793" lon="7.20778">
        <ele>847</ele>
        <time>2020-11-28T12:33:11Z</time>
      </trkpt>
      <trkpt lat="48.55788" lon="7.20777">
        <ele>851.8</ele>
        <time>2020-11-28T12:33:51Z</time>
      </trkpt>
      <trkpt lat="48.55783" lon="7.20772">
        <ele>851.3</ele>
        <time>2020-11-28T12:34:10Z</time>
      </trkpt>
      <trkpt lat="48.55781" lon="7.20763">
        <ele>850.2</ele>
        <time>2020-11-28T12:34:13Z</time>
      </trkpt>
      <trkpt lat="48.5578" lon="7.20754">
        <ele>849.3</ele>
        <time>2020-11-28T12:34:15Z</time>
      </trkpt>
      <trkpt lat="48.55779" lon="7.20745">
        <ele>847</ele>
        <time>2020-11-28T12:34:17Z</time>
      </trkpt>
      <trkpt lat="48.55777" lon="7.20735">
        <ele>846.8</ele>
        <time>2020-11-28T12:34:19Z</time>
      </trkpt>
      <trkpt lat="48.55774" lon="7.20725">
        <ele>846</ele>
        <time>2020-11-28T12:34:21Z</time>
      </trkpt>
      <trkpt lat="48.5577" lon="7.20717">
        <ele>845.8</ele>
        <time>2020-11-28T12:34:23Z</time>
      </trkpt>
      <trkpt lat="48.55768" lon="7.2071">
        <ele>845.3</ele>
        <time>2020-11-28T12:34:26Z</time>
      </trkpt>
      <trkpt lat="48.55767" lon="7.20703">
        <ele>845.1</ele>
        <time>2020-11-28T12:34:35Z</time>
      </trkpt>
      <trkpt lat="48.55763" lon="7.20699">
        <ele>845</ele>
        <time>2020-11-28T12:34:38Z</time>
      </trkpt>
      <trkpt lat="48.55757" lon="7.20699">
        <ele>844.5</ele>
        <time>2020-11-28T12:34:41Z</time>
      </trkpt>
      <trkpt lat="48.55751" lon="7.20698">
        <ele>845</ele>
        <time>2020-11-28T12:34:44Z</time>
      </trkpt>
      <trkpt lat="48.55744" lon="7.20695">
        <ele>845.5</ele>
        <time>2020-11-28T12:34:47Z</time>
      </trkpt>
      <trkpt lat="48.55739" lon="7.20694">
        <ele>846</ele>
        <time>2020-11-28T12:34:49Z</time>
      </trkpt>
      <trkpt lat="48.55733" lon="7.20693">
        <ele>846.4</ele>
        <time>2020-11-28T12:34:51Z</time>
      </trkpt>
      <trkpt lat="48.55728" lon="7.20693">
        <ele>846.9</ele>
        <time>2020-11-28T12:34:53Z</time>
      </trkpt>
      <trkpt lat="48.55722" lon="7.20692">
        <ele>822.4</ele>
        <time>2020-11-28T12:34:56Z</time>
      </trkpt>
      <trkpt lat="48.55717" lon="7.20692">
        <ele>824.7</ele>
        <time>2020-11-28T12:34:58Z</time>
      </trkpt>
      <trkpt lat="48.55712" lon="7.20692">
        <ele>823.6</ele>
        <time>2020-11-28T12:35:00Z</time>
      </trkpt>
      <trkpt lat="48.55707" lon="7.20691">
        <ele>821.7</ele>
        <time>2020-11-28T12:35:02Z</time>
      </trkpt>
      <trkpt lat="48.55702" lon="7.20689">
        <ele>822.8</ele>
        <time>2020-11-28T12:35:04Z</time>
      </trkpt>
      <trkpt lat="48.55697" lon="7.20687">
        <ele>829.7</ele>
        <time>2020-11-28T12:35:06Z</time>
      </trkpt>
      <trkpt lat="48.55692" lon="7.20685">
        <ele>833.7</ele>
        <time>2020-11-28T12:35:08Z</time>
      </trkpt>
      <trkpt lat="48.55686" lon="7.20685">
        <ele>837.6</ele>
        <time>2020-11-28T12:35:10Z</time>
      </trkpt>
      <trkpt lat="48.5568" lon="7.20684">
        <ele>840.8</ele>
        <time>2020-11-28T12:35:12Z</time>
      </trkpt>
      <trkpt lat="48.55675" lon="7.20684">
        <ele>843.1</ele>
        <time>2020-11-28T12:35:14Z</time>
      </trkpt>
      <trkpt lat="48.5567" lon="7.20684">
        <ele>845</ele>
        <time>2020-11-28T12:35:16Z</time>
      </trkpt>
      <trkpt lat="48.55666" lon="7.20683">
        <ele>846.4</ele>
        <time>2020-11-28T12:35:18Z</time>
      </trkpt>
      <trkpt lat="48.55661" lon="7.20682">
        <ele>847.5</ele>
        <time>2020-11-28T12:35:20Z</time>
      </trkpt>
      <trkpt lat="48.55656" lon="7.20682">
        <ele>848.3</ele>
        <time>2020-11-28T12:35:22Z</time>
      </trkpt>
      <trkpt lat="48.5565" lon="7.20681">
        <ele>848.7</ele>
        <time>2020-11-28T12:35:24Z</time>
      </trkpt>
      <trkpt lat="48.55645" lon="7.2068">
        <ele>849.4</ele>
        <time>2020-11-28T12:35:26Z</time>
      </trkpt>
      <trkpt lat="48.55641" lon="7.20679">
        <ele>850</ele>
        <time>2020-11-28T12:35:28Z</time>
      </trkpt>
      <trkpt lat="48.55635" lon="7.20677">
        <ele>850.8</ele>
        <time>2020-11-28T12:35:31Z</time>
      </trkpt>
      <trkpt lat="48.55629" lon="7.20676">
        <ele>847</ele>
        <time>2020-11-28T12:35:34Z</time>
      </trkpt>
      <trkpt lat="48.55624" lon="7.20676">
        <ele>847.2</ele>
        <time>2020-11-28T12:35:37Z</time>
      </trkpt>
      <trkpt lat="48.55617" lon="7.20675">
        <ele>849.3</ele>
        <time>2020-11-28T12:35:40Z</time>
      </trkpt>
      <trkpt lat="48.5561" lon="7.20673">
        <ele>851</ele>
        <time>2020-11-28T12:35:43Z</time>
      </trkpt>
      <trkpt lat="48.55604" lon="7.20672">
        <ele>852.8</ele>
        <time>2020-11-28T12:35:46Z</time>
      </trkpt>
      <trkpt lat="48.55599" lon="7.20671">
        <ele>854.3</ele>
        <time>2020-11-28T12:35:49Z</time>
      </trkpt>
      <trkpt lat="48.55594" lon="7.20669">
        <ele>851</ele>
        <time>2020-11-28T12:35:54Z</time>
      </trkpt>
      <trkpt lat="48.55589" lon="7.20669">
        <ele>853.6</ele>
        <time>2020-11-28T12:36:10Z</time>
      </trkpt>
      <trkpt lat="48.55585" lon="7.20667">
        <ele>853.9</ele>
        <time>2020-11-28T12:36:14Z</time>
      </trkpt>
      <trkpt lat="48.5558" lon="7.20666">
        <ele>854.5</ele>
        <time>2020-11-28T12:36:18Z</time>
      </trkpt>
      <trkpt lat="48.55575" lon="7.20666">
        <ele>854.5</ele>
        <time>2020-11-28T12:36:22Z</time>
      </trkpt>
      <trkpt lat="48.5557" lon="7.20665">
        <ele>854.1</ele>
        <time>2020-11-28T12:36:26Z</time>
      </trkpt>
      <trkpt lat="48.55565" lon="7.20664">
        <ele>854.2</ele>
        <time>2020-11-28T12:36:30Z</time>
      </trkpt>
      <trkpt lat="48.5556" lon="7.20662">
        <ele>854.6</ele>
        <time>2020-11-28T12:36:34Z</time>
      </trkpt>
      <trkpt lat="48.55554" lon="7.20662">
        <ele>854.4</ele>
        <time>2020-11-28T12:36:38Z</time>
      </trkpt>
      <trkpt lat="48.5555" lon="7.2066">
        <ele>855.1</ele>
        <time>2020-11-28T12:36:42Z</time>
      </trkpt>
      <trkpt lat="48.55545" lon="7.20657">
        <ele>855.7</ele>
        <time>2020-11-28T12:36:47Z</time>
      </trkpt>
      <trkpt lat="48.5554" lon="7.20654">
        <ele>856.3</ele>
        <time>2020-11-28T12:36:51Z</time>
      </trkpt>
      <trkpt lat="48.55535" lon="7.20653">
        <ele>845.9</ele>
        <time>2020-11-28T12:36:55Z</time>
      </trkpt>
      <trkpt lat="48.55529" lon="7.2065">
        <ele>841.1</ele>
        <time>2020-11-28T12:36:59Z</time>
      </trkpt>
      <trkpt lat="48.55525" lon="7.20648">
        <ele>846.8</ele>
        <time>2020-11-28T12:37:03Z</time>
      </trkpt>
      <trkpt lat="48.55521" lon="7.20643">
        <ele>860</ele>
        <time>2020-11-28T12:37:16Z</time>
      </trkpt>
      <trkpt lat="48.55516" lon="7.20639">
        <ele>861.3</ele>
        <time>2020-11-28T12:37:21Z</time>
      </trkpt>
      <trkpt lat="48.55512" lon="7.20637">
        <ele>861.8</ele>
        <time>2020-11-28T12:37:24Z</time>
      </trkpt>
      <trkpt lat="48.55507" lon="7.20633">
        <ele>863.1</ele>
        <time>2020-11-28T12:37:28Z</time>
      </trkpt>
      <trkpt lat="48.55503" lon="7.20629">
        <ele>863.7</ele>
        <time>2020-11-28T12:37:32Z</time>
      </trkpt>
      <trkpt lat="48.55498" lon="7.20626">
        <ele>865.1</ele>
        <time>2020-11-28T12:37:36Z</time>
      </trkpt>
      <trkpt lat="48.55493" lon="7.20623">
        <ele>866.4</ele>
        <time>2020-11-28T12:37:40Z</time>
      </trkpt>
      <trkpt lat="48.55489" lon="7.2062">
        <ele>865.9</ele>
        <time>2020-11-28T12:37:43Z</time>
      </trkpt>
      <trkpt lat="48.55485" lon="7.20617">
        <ele>866</ele>
        <time>2020-11-28T12:37:46Z</time>
      </trkpt>
      <trkpt lat="48.5548" lon="7.20613">
        <ele>865.4</ele>
        <time>2020-11-28T12:37:50Z</time>
      </trkpt>
      <trkpt lat="48.55475" lon="7.20609">
        <ele>864.7</ele>
        <time>2020-11-28T12:37:54Z</time>
      </trkpt>
      <trkpt lat="48.5547" lon="7.20605">
        <ele>865.3</ele>
        <time>2020-11-28T12:37:58Z</time>
      </trkpt>
      <trkpt lat="48.55468" lon="7.20599">
        <ele>866.6</ele>
        <time>2020-11-28T12:38:03Z</time>
      </trkpt>
      <trkpt lat="48.55465" lon="7.20593">
        <ele>868.6</ele>
        <time>2020-11-28T12:38:08Z</time>
      </trkpt>
      <trkpt lat="48.55461" lon="7.20589">
        <ele>870.9</ele>
        <time>2020-11-28T12:38:14Z</time>
      </trkpt>
      <trkpt lat="48.55457" lon="7.20586">
        <ele>872.2</ele>
        <time>2020-11-28T12:38:26Z</time>
      </trkpt>
      <trkpt lat="48.55453" lon="7.20581">
        <ele>872.4</ele>
        <time>2020-11-28T12:38:30Z</time>
      </trkpt>
      <trkpt lat="48.55448" lon="7.20578">
        <ele>873.2</ele>
        <time>2020-11-28T12:38:34Z</time>
      </trkpt>
      <trkpt lat="48.55444" lon="7.20572">
        <ele>873.9</ele>
        <time>2020-11-28T12:38:38Z</time>
      </trkpt>
      <trkpt lat="48.55439" lon="7.20567">
        <ele>874.3</ele>
        <time>2020-11-28T12:38:42Z</time>
      </trkpt>
      <trkpt lat="48.55434" lon="7.20563">
        <ele>874.9</ele>
        <time>2020-11-28T12:38:46Z</time>
      </trkpt>
      <trkpt lat="48.55431" lon="7.20557">
        <ele>861.8</ele>
        <time>2020-11-28T12:38:50Z</time>
      </trkpt>
      <trkpt lat="48.55427" lon="7.2055">
        <ele>863</ele>
        <time>2020-11-28T12:38:54Z</time>
      </trkpt>
      <trkpt lat="48.55424" lon="7.20543">
        <ele>866.6</ele>
        <time>2020-11-28T12:38:58Z</time>
      </trkpt>
      <trkpt lat="48.55422" lon="7.20536">
        <ele>870.7</ele>
        <time>2020-11-28T12:39:02Z</time>
      </trkpt>
      <trkpt lat="48.55419" lon="7.20529">
        <ele>873.6</ele>
        <time>2020-11-28T12:39:06Z</time>
      </trkpt>
      <trkpt lat="48.55418" lon="7.20522">
        <ele>875.2</ele>
        <time>2020-11-28T12:39:10Z</time>
      </trkpt>
      <trkpt lat="48.55416" lon="7.20515">
        <ele>875.9</ele>
        <time>2020-11-28T12:39:14Z</time>
      </trkpt>
      <trkpt lat="48.55417" lon="7.20506">
        <ele>876.1</ele>
        <time>2020-11-28T12:39:19Z</time>
      </trkpt>
      <trkpt lat="48.55416" lon="7.205">
        <ele>875.9</ele>
        <time>2020-11-28T12:39:23Z</time>
      </trkpt>
      <trkpt lat="48.55414" lon="7.20492">
        <ele>875.7</ele>
        <time>2020-11-28T12:39:30Z</time>
      </trkpt>
      <trkpt lat="48.55412" lon="7.20486">
        <ele>875</ele>
        <time>2020-11-28T12:39:51Z</time>
      </trkpt>
      <trkpt lat="48.55412" lon="7.20479">
        <ele>875.1</ele>
        <time>2020-11-28T12:39:55Z</time>
      </trkpt>
      <trkpt lat="48.5541" lon="7.20472">
        <ele>875.2</ele>
        <time>2020-11-28T12:40:01Z</time>
      </trkpt>
      <trkpt lat="48.55409" lon="7.20464">
        <ele>876.9</ele>
        <time>2020-11-28T12:40:14Z</time>
      </trkpt>
      <trkpt lat="48.55409" lon="7.20454">
        <ele>877.1</ele>
        <time>2020-11-28T12:40:17Z</time>
      </trkpt>
      <trkpt lat="48.55409" lon="7.20446">
        <ele>876.7</ele>
        <time>2020-11-28T12:40:19Z</time>
      </trkpt>
      <trkpt lat="48.55409" lon="7.20438">
        <ele>846.3</ele>
        <time>2020-11-28T12:40:21Z</time>
      </trkpt>
      <trkpt lat="48.55408" lon="7.20431">
        <ele>851.8</ele>
        <time>2020-11-28T12:40:23Z</time>
      </trkpt>
      <trkpt lat="48.55407" lon="7.20423">
        <ele>850.1</ele>
        <time>2020-11-28T12:40:25Z</time>
      </trkpt>
      <trkpt lat="48.55407" lon="7.20415">
        <ele>834.9</ele>
        <time>2020-11-28T12:40:27Z</time>
      </trkpt>
      <trkpt lat="48.55407" lon="7.20407">
        <ele>815.4</ele>
        <time>2020-11-28T12:40:29Z</time>
      </trkpt>
      <trkpt lat="48.55407" lon="7.20396">
        <ele>821.9</ele>
        <time>2020-11-28T12:40:32Z</time>
      </trkpt>
      <trkpt lat="48.55408" lon="7.20389">
        <ele>821</ele>
        <time>2020-11-28T12:40:34Z</time>
      </trkpt>
      <trkpt lat="48.5541" lon="7.2038">
        <ele>828.2</ele>
        <time>2020-11-28T12:40:36Z</time>
      </trkpt>
      <trkpt lat="48.5541" lon="7.20372">
        <ele>834.3</ele>
        <time>2020-11-28T12:40:38Z</time>
      </trkpt>
      <trkpt lat="48.55409" lon="7.20364">
        <ele>841.9</ele>
        <time>2020-11-28T12:40:40Z</time>
      </trkpt>
      <trkpt lat="48.55409" lon="7.20356">
        <ele>849.9</ele>
        <time>2020-11-28T12:40:42Z</time>
      </trkpt>
      <trkpt lat="48.55409" lon="7.20347">
        <ele>856.3</ele>
        <time>2020-11-28T12:40:44Z</time>
      </trkpt>
      <trkpt lat="48.55408" lon="7.20339">
        <ele>860.7</ele>
        <time>2020-11-28T12:40:46Z</time>
      </trkpt>
      <trkpt lat="48.55408" lon="7.20331">
        <ele>864.1</ele>
        <time>2020-11-28T12:40:48Z</time>
      </trkpt>
      <trkpt lat="48.55407" lon="7.20324">
        <ele>866.7</ele>
        <time>2020-11-28T12:40:50Z</time>
      </trkpt>
      <trkpt lat="48.55405" lon="7.20317">
        <ele>868.7</ele>
        <time>2020-11-28T12:40:52Z</time>
      </trkpt>
      <trkpt lat="48.55404" lon="7.20311">
        <ele>870.3</ele>
        <time>2020-11-28T12:40:54Z</time>
      </trkpt>
      <trkpt lat="48.55402" lon="7.20304">
        <ele>871.2</ele>
        <time>2020-11-28T12:40:56Z</time>
      </trkpt>
      <trkpt lat="48.554" lon="7.20295">
        <ele>872.3</ele>
        <time>2020-11-28T12:40:59Z</time>
      </trkpt>
      <trkpt lat="48.55397" lon="7.20285">
        <ele>873.8</ele>
        <time>2020-11-28T12:41:02Z</time>
      </trkpt>
      <trkpt lat="48.55395" lon="7.20279">
        <ele>874.9</ele>
        <time>2020-11-28T12:41:04Z</time>
      </trkpt>
      <trkpt lat="48.55394" lon="7.20272">
        <ele>875.7</ele>
        <time>2020-11-28T12:41:06Z</time>
      </trkpt>
      <trkpt lat="48.55392" lon="7.20262">
        <ele>875.6</ele>
        <time>2020-11-28T12:41:09Z</time>
      </trkpt>
      <trkpt lat="48.55391" lon="7.20256">
        <ele>875.4</ele>
        <time>2020-11-28T12:41:11Z</time>
      </trkpt>
      <trkpt lat="48.55389" lon="7.20249">
        <ele>875.3</ele>
        <time>2020-11-28T12:41:13Z</time>
      </trkpt>
      <trkpt lat="48.55388" lon="7.20243">
        <ele>875.7</ele>
        <time>2020-11-28T12:41:15Z</time>
      </trkpt>
      <trkpt lat="48.55385" lon="7.20234">
        <ele>877</ele>
        <time>2020-11-28T12:41:18Z</time>
      </trkpt>
      <trkpt lat="48.55382" lon="7.20228">
        <ele>877.9</ele>
        <time>2020-11-28T12:41:20Z</time>
      </trkpt>
      <trkpt lat="48.5538" lon="7.20222">
        <ele>878.7</ele>
        <time>2020-11-28T12:41:22Z</time>
      </trkpt>
      <trkpt lat="48.55376" lon="7.20214">
        <ele>879.6</ele>
        <time>2020-11-28T12:41:25Z</time>
      </trkpt>
      <trkpt lat="48.55373" lon="7.20205">
        <ele>880.6</ele>
        <time>2020-11-28T12:41:28Z</time>
      </trkpt>
      <trkpt lat="48.55371" lon="7.20198">
        <ele>881.1</ele>
        <time>2020-11-28T12:41:31Z</time>
      </trkpt>
      <trkpt lat="48.55368" lon="7.20188">
        <ele>881.2</ele>
        <time>2020-11-28T12:41:34Z</time>
      </trkpt>
      <trkpt lat="48.55367" lon="7.20181">
        <ele>881.4</ele>
        <time>2020-11-28T12:41:36Z</time>
      </trkpt>
      <trkpt lat="48.55364" lon="7.20173">
        <ele>881.6</ele>
        <time>2020-11-28T12:41:38Z</time>
      </trkpt>
      <trkpt lat="48.55361" lon="7.20165">
        <ele>881.9</ele>
        <time>2020-11-28T12:41:40Z</time>
      </trkpt>
      <trkpt lat="48.55358" lon="7.20158">
        <ele>882.3</ele>
        <time>2020-11-28T12:41:42Z</time>
      </trkpt>
      <trkpt lat="48.55356" lon="7.20151">
        <ele>882.4</ele>
        <time>2020-11-28T12:41:44Z</time>
      </trkpt>
      <trkpt lat="48.55354" lon="7.20144">
        <ele>883.2</ele>
        <time>2020-11-28T12:41:46Z</time>
      </trkpt>
      <trkpt lat="48.55351" lon="7.20137">
        <ele>883.2</ele>
        <time>2020-11-28T12:41:48Z</time>
      </trkpt>
      <trkpt lat="48.55347" lon="7.20129">
        <ele>883.7</ele>
        <time>2020-11-28T12:41:51Z</time>
      </trkpt>
      <trkpt lat="48.55344" lon="7.20124">
        <ele>884.6</ele>
        <time>2020-11-28T12:41:53Z</time>
      </trkpt>
      <trkpt lat="48.55341" lon="7.20117">
        <ele>886</ele>
        <time>2020-11-28T12:41:56Z</time>
      </trkpt>
      <trkpt lat="48.55338" lon="7.2011">
        <ele>887.5</ele>
        <time>2020-11-28T12:41:59Z</time>
      </trkpt>
      <trkpt lat="48.55335" lon="7.20104">
        <ele>888.7</ele>
        <time>2020-11-28T12:42:02Z</time>
      </trkpt>
      <trkpt lat="48.55332" lon="7.20098">
        <ele>889.3</ele>
        <time>2020-11-28T12:42:05Z</time>
      </trkpt>
      <trkpt lat="48.55328" lon="7.20092">
        <ele>889.8</ele>
        <time>2020-11-28T12:42:08Z</time>
      </trkpt>
      <trkpt lat="48.55324" lon="7.20086">
        <ele>891</ele>
        <time>2020-11-28T12:42:11Z</time>
      </trkpt>
      <trkpt lat="48.5532" lon="7.2008">
        <ele>891.7</ele>
        <time>2020-11-28T12:42:14Z</time>
      </trkpt>
      <trkpt lat="48.55316" lon="7.20072">
        <ele>892</ele>
        <time>2020-11-28T12:42:18Z</time>
      </trkpt>
      <trkpt lat="48.55312" lon="7.20067">
        <ele>891.7</ele>
        <time>2020-11-28T12:42:21Z</time>
      </trkpt>
      <trkpt lat="48.55308" lon="7.20062">
        <ele>891.2</ele>
        <time>2020-11-28T12:42:24Z</time>
      </trkpt>
      <trkpt lat="48.55305" lon="7.20056">
        <ele>889.4</ele>
        <time>2020-11-28T12:42:27Z</time>
      </trkpt>
      <trkpt lat="48.55302" lon="7.2005">
        <ele>887.6</ele>
        <time>2020-11-28T12:42:31Z</time>
      </trkpt>
      <trkpt lat="48.55299" lon="7.20045">
        <ele>887.5</ele>
        <time>2020-11-28T12:42:34Z</time>
      </trkpt>
      <trkpt lat="48.55295" lon="7.20041">
        <ele>887.1</ele>
        <time>2020-11-28T12:42:37Z</time>
      </trkpt>
      <trkpt lat="48.55293" lon="7.20033">
        <ele>888</ele>
        <time>2020-11-28T12:42:50Z</time>
      </trkpt>
      <trkpt lat="48.5529" lon="7.20027">
        <ele>888.9</ele>
        <time>2020-11-28T12:42:53Z</time>
      </trkpt>
      <trkpt lat="48.55287" lon="7.20019">
        <ele>889.8</ele>
        <time>2020-11-28T12:42:56Z</time>
      </trkpt>
      <trkpt lat="48.55282" lon="7.20014">
        <ele>890.3</ele>
        <time>2020-11-28T12:42:59Z</time>
      </trkpt>
      <trkpt lat="48.55278" lon="7.20008">
        <ele>890.6</ele>
        <time>2020-11-28T12:43:02Z</time>
      </trkpt>
      <trkpt lat="48.55274" lon="7.20001">
        <ele>891</ele>
        <time>2020-11-28T12:43:05Z</time>
      </trkpt>
      <trkpt lat="48.55271" lon="7.19996">
        <ele>891.3</ele>
        <time>2020-11-28T12:43:07Z</time>
      </trkpt>
      <trkpt lat="48.55268" lon="7.19988">
        <ele>891.1</ele>
        <time>2020-11-28T12:43:10Z</time>
      </trkpt>
      <trkpt lat="48.55266" lon="7.1998">
        <ele>891</ele>
        <time>2020-11-28T12:43:13Z</time>
      </trkpt>
      <trkpt lat="48.55262" lon="7.19972">
        <ele>891.4</ele>
        <time>2020-11-28T12:43:16Z</time>
      </trkpt>
      <trkpt lat="48.55258" lon="7.19964">
        <ele>891.7</ele>
        <time>2020-11-28T12:43:19Z</time>
      </trkpt>
      <trkpt lat="48.55255" lon="7.19956">
        <ele>892.2</ele>
        <time>2020-11-28T12:43:22Z</time>
      </trkpt>
      <trkpt lat="48.55252" lon="7.19948">
        <ele>892.3</ele>
        <time>2020-11-28T12:43:25Z</time>
      </trkpt>
      <trkpt lat="48.55248" lon="7.19939">
        <ele>892.6</ele>
        <time>2020-11-28T12:43:28Z</time>
      </trkpt>
      <trkpt lat="48.55246" lon="7.19933">
        <ele>891.9</ele>
        <time>2020-11-28T12:43:30Z</time>
      </trkpt>
      <trkpt lat="48.55244" lon="7.19926">
        <ele>892.2</ele>
        <time>2020-11-28T12:43:32Z</time>
      </trkpt>
      <trkpt lat="48.55241" lon="7.1992">
        <ele>892.4</ele>
        <time>2020-11-28T12:43:35Z</time>
      </trkpt>
      <trkpt lat="48.55236" lon="7.19916">
        <ele>892.2</ele>
        <time>2020-11-28T12:43:38Z</time>
      </trkpt>
      <trkpt lat="48.55232" lon="7.19912">
        <ele>891.2</ele>
        <time>2020-11-28T12:43:41Z</time>
      </trkpt>
      <trkpt lat="48.55227" lon="7.19907">
        <ele>890.9</ele>
        <time>2020-11-28T12:43:44Z</time>
      </trkpt>
      <trkpt lat="48.5522" lon="7.19904">
        <ele>891.1</ele>
        <time>2020-11-28T12:43:47Z</time>
      </trkpt>
      <trkpt lat="48.55215" lon="7.19899">
        <ele>891.3</ele>
        <time>2020-11-28T12:43:50Z</time>
      </trkpt>
      <trkpt lat="48.55211" lon="7.19894">
        <ele>891.5</ele>
        <time>2020-11-28T12:43:52Z</time>
      </trkpt>
      <trkpt lat="48.55207" lon="7.1989">
        <ele>891.6</ele>
        <time>2020-11-28T12:43:54Z</time>
      </trkpt>
      <trkpt lat="48.55203" lon="7.19887">
        <ele>891.7</ele>
        <time>2020-11-28T12:43:56Z</time>
      </trkpt>
      <trkpt lat="48.55198" lon="7.19882">
        <ele>892.1</ele>
        <time>2020-11-28T12:43:58Z</time>
      </trkpt>
      <trkpt lat="48.55194" lon="7.19877">
        <ele>892.1</ele>
        <time>2020-11-28T12:44:00Z</time>
      </trkpt>
      <trkpt lat="48.5519" lon="7.19871">
        <ele>892.4</ele>
        <time>2020-11-28T12:44:02Z</time>
      </trkpt>
      <trkpt lat="48.55188" lon="7.19864">
        <ele>892.6</ele>
        <time>2020-11-28T12:44:04Z</time>
      </trkpt>
      <trkpt lat="48.55186" lon="7.19857">
        <ele>893</ele>
        <time>2020-11-28T12:44:06Z</time>
      </trkpt>
      <trkpt lat="48.55184" lon="7.19848">
        <ele>893.5</ele>
        <time>2020-11-28T12:44:09Z</time>
      </trkpt>
      <trkpt lat="48.55181" lon="7.19839">
        <ele>894.1</ele>
        <time>2020-11-28T12:44:12Z</time>
      </trkpt>
      <trkpt lat="48.55177" lon="7.19832">
        <ele>894.9</ele>
        <time>2020-11-28T12:44:15Z</time>
      </trkpt>
      <trkpt lat="48.55174" lon="7.19824">
        <ele>895.6</ele>
        <time>2020-11-28T12:44:18Z</time>
      </trkpt>
      <trkpt lat="48.55171" lon="7.19817">
        <ele>896.4</ele>
        <time>2020-11-28T12:44:21Z</time>
      </trkpt>
      <trkpt lat="48.55167" lon="7.19812">
        <ele>897.4</ele>
        <time>2020-11-28T12:44:24Z</time>
      </trkpt>
      <trkpt lat="48.55164" lon="7.19806">
        <ele>898.2</ele>
        <time>2020-11-28T12:44:27Z</time>
      </trkpt>
      <trkpt lat="48.55162" lon="7.19799">
        <ele>899</ele>
        <time>2020-11-28T12:44:32Z</time>
      </trkpt>
      <trkpt lat="48.5516" lon="7.19791">
        <ele>899.7</ele>
        <time>2020-11-28T12:44:41Z</time>
      </trkpt>
      <trkpt lat="48.55158" lon="7.19784">
        <ele>900.1</ele>
        <time>2020-11-28T12:44:44Z</time>
      </trkpt>
      <trkpt lat="48.55155" lon="7.19779">
        <ele>900.4</ele>
        <time>2020-11-28T12:44:47Z</time>
      </trkpt>
      <trkpt lat="48.5515" lon="7.19775">
        <ele>901.1</ele>
        <time>2020-11-28T12:44:50Z</time>
      </trkpt>
      <trkpt lat="48.55146" lon="7.19768">
        <ele>901.5</ele>
        <time>2020-11-28T12:44:54Z</time>
      </trkpt>
      <trkpt lat="48.55144" lon="7.19761">
        <ele>901.7</ele>
        <time>2020-11-28T12:44:58Z</time>
      </trkpt>
      <trkpt lat="48.55143" lon="7.19754">
        <ele>901</ele>
        <time>2020-11-28T12:45:03Z</time>
      </trkpt>
      <trkpt lat="48.55142" lon="7.19747">
        <ele>901.4</ele>
        <time>2020-11-28T12:45:10Z</time>
      </trkpt>
      <trkpt lat="48.55139" lon="7.1974">
        <ele>900.8</ele>
        <time>2020-11-28T12:45:17Z</time>
      </trkpt>
      <trkpt lat="48.55138" lon="7.19733">
        <ele>899.2</ele>
        <time>2020-11-28T12:45:23Z</time>
      </trkpt>
      <trkpt lat="48.55136" lon="7.19725">
        <ele>898.3</ele>
        <time>2020-11-28T12:45:28Z</time>
      </trkpt>
      <trkpt lat="48.55132" lon="7.1972">
        <ele>897.8</ele>
        <time>2020-11-28T12:45:33Z</time>
      </trkpt>
      <trkpt lat="48.55129" lon="7.19713">
        <ele>897.5</ele>
        <time>2020-11-28T12:45:37Z</time>
      </trkpt>
      <trkpt lat="48.55126" lon="7.19706">
        <ele>897.2</ele>
        <time>2020-11-28T12:45:41Z</time>
      </trkpt>
      <trkpt lat="48.55124" lon="7.197">
        <ele>899.4</ele>
        <time>2020-11-28T12:45:48Z</time>
      </trkpt>
      <trkpt lat="48.55118" lon="7.19697">
        <ele>899.3</ele>
        <time>2020-11-28T12:45:52Z</time>
      </trkpt>
      <trkpt lat="48.55112" lon="7.19694">
        <ele>899.3</ele>
        <time>2020-11-28T12:45:54Z</time>
      </trkpt>
      <trkpt lat="48.55106" lon="7.19691">
        <ele>899.2</ele>
        <time>2020-11-28T12:45:56Z</time>
      </trkpt>
      <trkpt lat="48.551" lon="7.19684">
        <ele>898.9</ele>
        <time>2020-11-28T12:45:58Z</time>
      </trkpt>
      <trkpt lat="48.55096" lon="7.19676">
        <ele>899.4</ele>
        <time>2020-11-28T12:46:00Z</time>
      </trkpt>
      <trkpt lat="48.55092" lon="7.19667">
        <ele>899.3</ele>
        <time>2020-11-28T12:46:02Z</time>
      </trkpt>
      <trkpt lat="48.55088" lon="7.1966">
        <ele>898.7</ele>
        <time>2020-11-28T12:46:04Z</time>
      </trkpt>
      <trkpt lat="48.55083" lon="7.19653">
        <ele>898.9</ele>
        <time>2020-11-28T12:46:06Z</time>
      </trkpt>
      <trkpt lat="48.55079" lon="7.19647">
        <ele>899.4</ele>
        <time>2020-11-28T12:46:08Z</time>
      </trkpt>
      <trkpt lat="48.55077" lon="7.19638">
        <ele>899.6</ele>
        <time>2020-11-28T12:46:11Z</time>
      </trkpt>
      <trkpt lat="48.55075" lon="7.19629">
        <ele>900.1</ele>
        <time>2020-11-28T12:46:14Z</time>
      </trkpt>
      <trkpt lat="48.55073" lon="7.19622">
        <ele>900.2</ele>
        <time>2020-11-28T12:46:16Z</time>
      </trkpt>
      <trkpt lat="48.55071" lon="7.19615">
        <ele>900.1</ele>
        <time>2020-11-28T12:46:18Z</time>
      </trkpt>
      <trkpt lat="48.55069" lon="7.19607">
        <ele>900.1</ele>
        <time>2020-11-28T12:46:20Z</time>
      </trkpt>
      <trkpt lat="48.55068" lon="7.196">
        <ele>899.8</ele>
        <time>2020-11-28T12:46:22Z</time>
      </trkpt>
      <trkpt lat="48.55066" lon="7.19589">
        <ele>899.3</ele>
        <time>2020-11-28T12:46:25Z</time>
      </trkpt>
      <trkpt lat="48.55065" lon="7.1958">
        <ele>899.2</ele>
        <time>2020-11-28T12:46:27Z</time>
      </trkpt>
      <trkpt lat="48.55063" lon="7.19571">
        <ele>899.7</ele>
        <time>2020-11-28T12:46:29Z</time>
      </trkpt>
      <trkpt lat="48.55058" lon="7.19564">
        <ele>900.2</ele>
        <time>2020-11-28T12:46:31Z</time>
      </trkpt>
      <trkpt lat="48.55052" lon="7.19557">
        <ele>900.5</ele>
        <time>2020-11-28T12:46:33Z</time>
      </trkpt>
      <trkpt lat="48.55048" lon="7.1955">
        <ele>900.9</ele>
        <time>2020-11-28T12:46:35Z</time>
      </trkpt>
      <trkpt lat="48.55045" lon="7.19544">
        <ele>901.9</ele>
        <time>2020-11-28T12:46:37Z</time>
      </trkpt>
      <trkpt lat="48.55042" lon="7.19539">
        <ele>902.3</ele>
        <time>2020-11-28T12:46:39Z</time>
      </trkpt>
      <trkpt lat="48.55039" lon="7.19532">
        <ele>902.2</ele>
        <time>2020-11-28T12:46:41Z</time>
      </trkpt>
      <trkpt lat="48.55037" lon="7.19526">
        <ele>901.5</ele>
        <time>2020-11-28T12:46:43Z</time>
      </trkpt>
      <trkpt lat="48.55032" lon="7.19518">
        <ele>901</ele>
        <time>2020-11-28T12:46:45Z</time>
      </trkpt>
      <trkpt lat="48.55026" lon="7.1951">
        <ele>900.2</ele>
        <time>2020-11-28T12:46:47Z</time>
      </trkpt>
      <trkpt lat="48.55017" lon="7.195">
        <ele>900.3</ele>
        <time>2020-11-28T12:46:49Z</time>
      </trkpt>
      <trkpt lat="48.55012" lon="7.19492">
        <ele>899.6</ele>
        <time>2020-11-28T12:46:51Z</time>
      </trkpt>
      <trkpt lat="48.55007" lon="7.19483">
        <ele>898.8</ele>
        <time>2020-11-28T12:46:53Z</time>
      </trkpt>
      <trkpt lat="48.55007" lon="7.1947">
        <ele>897.4</ele>
        <time>2020-11-28T12:46:56Z</time>
      </trkpt>
      <trkpt lat="48.55008" lon="7.19461">
        <ele>896.3</ele>
        <time>2020-11-28T12:46:58Z</time>
      </trkpt>
      <trkpt lat="48.55007" lon="7.19454">
        <ele>895.3</ele>
        <time>2020-11-28T12:47:00Z</time>
      </trkpt>
      <trkpt lat="48.55004" lon="7.19447">
        <ele>894.6</ele>
        <time>2020-11-28T12:47:02Z</time>
      </trkpt>
      <trkpt lat="48.55" lon="7.1944">
        <ele>894.4</ele>
        <time>2020-11-28T12:47:04Z</time>
      </trkpt>
    </trkseg>
  </trk>
</gpx>